Wetterdaten: Sonntag, 13.08.2017
Datum Zeit Temp. A. Temp. A. max Feuchte A. Luftdruck Regen Wind Richtung Richtung Sonnenschein ET UV Solar Taupunkt Windchill Windböen
13.08.2017 00:00 10,1 °C 10,1 °C 93 % 1020,4 hPa 0,0 mm 0,0 km/h (0 Bft) S-SW 199 ° 0 min 0,000 mm 0,0 UV-I 0 W/m² 9,0 °C 10,1 °C 0,0 km/h (0 Bft)
13.08.2017 00:01 10,1 °C 10,1 °C 93 % 1020,4 hPa 0,0 mm 0,6 km/h (0 Bft) S-SW 199 ° 0 min 0,000 mm 0,0 UV-I 0 W/m² 9,0 °C 10,1 °C 4,8 km/h (1 Bft)
13.08.2017 00:02 10,1 °C 10,2 °C 93 % 1020,4 hPa 0,0 mm 4,6 km/h (1 Bft) S-SW 199 ° 0 min 0,000 mm 0,0 UV-I 0 W/m² 9,0 °C 10,1 °C 4,8 km/h (1 Bft)
13.08.2017 00:03 10,2 °C 10,2 °C 93 % 1020,3 hPa 0,0 mm 4,6 km/h (1 Bft) S-SW 197 ° 0 min 0,000 mm 0,0 UV-I 0 W/m² 9,1 °C 10,2 °C 8,0 km/h (2 Bft)
13.08.2017 00:04 10,3 °C 10,3 °C 93 % 1020,3 hPa 0,0 mm 1,6 km/h (1 Bft) S-SW 197 ° 0 min 0,000 mm 0,0 UV-I 0 W/m² 9,2 °C 10,3 °C 3,2 km/h (1 Bft)
13.08.2017 00:05 10,3 °C 10,3 °C 93 % 1020,3 hPa 0,0 mm 0,3 km/h (0 Bft) S-SW 197 ° 0 min 0,000 mm 0,0 UV-I 0 W/m² 9,2 °C 10,3 °C 1,6 km/h (1 Bft)
13.08.2017 00:06 10,3 °C 10,3 °C 93 % 1020,4 hPa 0,0 mm 0,0 km/h (0 Bft) S-SW 197 ° 0 min 0,000 mm 0,0 UV-I 0 W/m² 9,2 °C 10,3 °C 0,0 km/h (0 Bft)
13.08.2017 00:07 10,3 °C 10,3 °C 93 % 1020,4 hPa 0,0 mm 0,1 km/h (0 Bft) S-SW 197 ° 0 min 0,000 mm 0,0 UV-I 0 W/m² 9,2 °C 10,3 °C 1,6 km/h (1 Bft)
13.08.2017 00:08 10,3 °C 10,3 °C 93 % 1020,4 hPa 0,0 mm 2,3 km/h (1 Bft) S-SW 197 ° 0 min 0,000 mm 0,0 UV-I 0 W/m² 9,2 °C 10,3 °C 3,2 km/h (1 Bft)
13.08.2017 00:09 10,3 °C 10,4 °C 93 % 1020,4 hPa 0,0 mm 0,6 km/h (0 Bft) S-SW 197 ° 0 min 0,000 mm 0,0 UV-I 0 W/m² 9,2 °C 10,3 °C 1,6 km/h (1 Bft)
13.08.2017 00:10 10,3 °C 10,3 °C 93 % 1020,4 hPa 0,0 mm 0,0 km/h (0 Bft) S-SW 197 ° 0 min 0,000 mm 0,0 UV-I 0 W/m² 9,2 °C 10,3 °C 0,0 km/h (0 Bft)
13.08.2017 00:11 10,3 °C 10,3 °C 93 % 1020,4 hPa 0,0 mm 0,0 km/h (0 Bft) S-SW 197 ° 0 min 0,000 mm 0,0 UV-I 0 W/m² 9,2 °C 10,3 °C 0,0 km/h (0 Bft)
13.08.2017 00:12 10,3 °C 10,3 °C 93 % 1020,4 hPa 0,0 mm 0,0 km/h (0 Bft) S-SW 197 ° 0 min 0,000 mm 0,0 UV-I 0 W/m² 9,2 °C 10,3 °C 0,0 km/h (0 Bft)
13.08.2017 00:13 10,3 °C 10,3 °C 93 % 1020,3 hPa 0,0 mm 2,7 km/h (1 Bft) S-SW 192 ° 0 min 0,000 mm 0,0 UV-I 0 W/m² 9,2 °C 10,3 °C 6,4 km/h (2 Bft)
13.08.2017 00:14 10,2 °C 10,3 °C 93 % 1020,3 hPa 0,0 mm 1,7 km/h (1 Bft) S-SW 192 ° 0 min 0,000 mm 0,0 UV-I 0 W/m² 9,1 °C 10,2 °C 4,8 km/h (1 Bft)
13.08.2017 00:15 10,2 °C 10,2 °C 93 % 1020,4 hPa 0,0 mm 0,1 km/h (0 Bft) S-SW 192 ° 0 min 0,000 mm 0,0 UV-I 0 W/m² 9,1 °C 10,2 °C 1,6 km/h (1 Bft)
13.08.2017 00:16 10,2 °C 10,2 °C 93 % 1020,5 hPa 0,0 mm 0,0 km/h (0 Bft) S-SW 192 ° 0 min 0,000 mm 0,0 UV-I 0 W/m² 9,1 °C 10,2 °C 0,0 km/h (0 Bft)
13.08.2017 00:17 10,2 °C 10,2 °C 93 % 1020,5 hPa 0,0 mm 0,0 km/h (0 Bft) S-SW 192 ° 0 min 0,000 mm 0,0 UV-I 0 W/m² 9,1 °C 10,2 °C 0,0 km/h (0 Bft)
13.08.2017 00:18 10,2 °C 10,2 °C 93 % 1020,5 hPa 0,0 mm 0,0 km/h (0 Bft) S-SW 192 ° 0 min 0,000 mm 0,0 UV-I 0 W/m² 9,1 °C 10,2 °C 0,0 km/h (0 Bft)
13.08.2017 00:19 10,2 °C 10,2 °C 93 % 1020,4 hPa 0,0 mm 0,0 km/h (0 Bft) S-SW 192 ° 0 min 0,000 mm 0,0 UV-I 0 W/m² 9,1 °C 10,2 °C 0,0 km/h (0 Bft)
13.08.2017 00:20 10,2 °C 10,2 °C 93 % 1020,4 hPa 0,0 mm 0,0 km/h (0 Bft) S-SW 192 ° 0 min 0,000 mm 0,0 UV-I 0 W/m² 9,1 °C 10,2 °C 0,0 km/h (0 Bft)
13.08.2017 00:21 10,2 °C 10,2 °C 93 % 1020,5 hPa 0,0 mm 0,0 km/h (0 Bft) S-SW 192 ° 0 min 0,000 mm 0,0 UV-I 0 W/m² 9,1 °C 10,2 °C 0,0 km/h (0 Bft)
13.08.2017 00:22 10,2 °C 10,2 °C 93 % 1020,5 hPa 0,0 mm 0,0 km/h (0 Bft) S-SW 192 ° 0 min 0,000 mm 0,0 UV-I 0 W/m² 9,1 °C 10,2 °C 0,0 km/h (0 Bft)
13.08.2017 00:23 10,1 °C 10,2 °C 93 % 1020,5 hPa 0,0 mm 0,0 km/h (0 Bft) S-SW 192 ° 0 min 0,000 mm 0,0 UV-I 0 W/m² 9,0 °C 10,1 °C 0,0 km/h (0 Bft)
13.08.2017 00:24 10,1 °C 10,2 °C 93 % 1020,5 hPa 0,0 mm 0,0 km/h (0 Bft) S-SW 192 ° 0 min 0,000 mm 0,0 UV-I 0 W/m² 9,0 °C 10,1 °C 0,0 km/h (0 Bft)
13.08.2017 00:25 10,1 °C 10,1 °C 93 % 1020,5 hPa 0,0 mm 0,0 km/h (0 Bft) S-SW 192 ° 0 min 0,000 mm 0,0 UV-I 0 W/m² 9,0 °C 10,1 °C 0,0 km/h (0 Bft)
13.08.2017 00:26 10,2 °C 10,2 °C 94 % 1020,5 hPa 0,0 mm 0,0 km/h (0 Bft) S-SW 192 ° 0 min 0,000 mm 0,0 UV-I 0 W/m² 9,3 °C 10,2 °C 0,0 km/h (0 Bft)
13.08.2017 00:27 10,2 °C 10,2 °C 94 % 1020,5 hPa 0,0 mm 0,0 km/h (0 Bft) S-SW 192 ° 0 min 0,000 mm 0,0 UV-I 0 W/m² 9,3 °C 10,2 °C 0,0 km/h (0 Bft)
13.08.2017 00:28 10,2 °C 10,2 °C 93 % 1020,5 hPa 0,0 mm 0,0 km/h (0 Bft) S-SW 192 ° 0 min 0,000 mm 0,0 UV-I 0 W/m² 9,1 °C 10,2 °C 0,0 km/h (0 Bft)
13.08.2017 00:29 10,2 °C 10,2 °C 93 % 1020,5 hPa 0,0 mm 0,0 km/h (0 Bft) S-SW 192 ° 0 min 0,000 mm 0,0 UV-I 0 W/m² 9,1 °C 10,2 °C 0,0 km/h (0 Bft)
13.08.2017 00:30 10,2 °C 10,2 °C 93 % 1020,5 hPa 0,0 mm 0,0 km/h (0 Bft) S-SW 192 ° 0 min 0,000 mm 0,0 UV-I 0 W/m² 9,1 °C 10,2 °C 0,0 km/h (0 Bft)
13.08.2017 00:31 10,2 °C 10,2 °C 93 % 1020,5 hPa 0,0 mm 0,0 km/h (0 Bft) S-SW 192 ° 0 min 0,000 mm 0,0 UV-I 0 W/m² 9,1 °C 10,2 °C 0,0 km/h (0 Bft)
13.08.2017 00:32 10,2 °C 10,2 °C 93 % 1020,5 hPa 0,0 mm 0,0 km/h (0 Bft) S-SW 192 ° 0 min 0,000 mm 0,0 UV-I 0 W/m² 9,1 °C 10,2 °C 0,0 km/h (0 Bft)
13.08.2017 00:33 10,3 °C 10,3 °C 93 % 1020,5 hPa 0,0 mm 0,0 km/h (0 Bft) S-SW 192 ° 0 min 0,000 mm 0,0 UV-I 0 W/m² 9,2 °C 10,3 °C 0,0 km/h (0 Bft)
13.08.2017 00:34 10,3 °C 10,3 °C 93 % 1020,5 hPa 0,0 mm 0,0 km/h (0 Bft) S-SW 192 ° 0 min 0,000 mm 0,0 UV-I 0 W/m² 9,2 °C 10,3 °C 0,0 km/h (0 Bft)
13.08.2017 00:35 10,3 °C 10,3 °C 93 % 1020,5 hPa 0,0 mm 0,0 km/h (0 Bft) S-SW 192 ° 0 min 0,000 mm 0,0 UV-I 0 W/m² 9,2 °C 10,3 °C 0,0 km/h (0 Bft)
13.08.2017 00:36 10,3 °C 10,3 °C 93 % 1020,5 hPa 0,0 mm 0,0 km/h (0 Bft) S-SW 192 ° 0 min 0,000 mm 0,0 UV-I 0 W/m² 9,2 °C 10,3 °C 0,0 km/h (0 Bft)
13.08.2017 00:37 10,4 °C 10,4 °C 93 % 1020,5 hPa 0,0 mm 0,0 km/h (0 Bft) S-SW 192 ° 0 min 0,000 mm 0,0 UV-I 0 W/m² 9,3 °C 10,4 °C 0,0 km/h (0 Bft)
13.08.2017 00:38 10,4 °C 10,4 °C 93 % 1020,5 hPa 0,0 mm 0,0 km/h (0 Bft) S-SW 192 ° 0 min 0,000 mm 0,0 UV-I 0 W/m² 9,3 °C 10,4 °C 0,0 km/h (0 Bft)
13.08.2017 00:39 10,4 °C 10,4 °C 93 % 1020,5 hPa 0,0 mm 0,0 km/h (0 Bft) S-SW 192 ° 0 min 0,000 mm 0,0 UV-I 0 W/m² 9,3 °C 10,4 °C 0,0 km/h (0 Bft)
13.08.2017 00:40 10,4 °C 10,5 °C 93 % 1020,5 hPa 0,0 mm 0,0 km/h (0 Bft) S-SW 192 ° 0 min 0,000 mm 0,0 UV-I 0 W/m² 9,3 °C 10,4 °C 0,0 km/h (0 Bft)
13.08.2017 00:41 10,5 °C 10,5 °C 93 % 1020,5 hPa 0,0 mm 0,0 km/h (0 Bft) S-SW 192 ° 0 min 0,000 mm 0,0 UV-I 0 W/m² 9,4 °C 10,5 °C 0,0 km/h (0 Bft)
13.08.2017 00:42 10,5 °C 10,6 °C 93 % 1020,5 hPa 0,0 mm 0,0 km/h (0 Bft) S-SW 192 ° 0 min 0,000 mm 0,0 UV-I 0 W/m² 9,4 °C 10,5 °C 0,0 km/h (0 Bft)
13.08.2017 00:43 10,6 °C 10,6 °C 93 % 1020,5 hPa 0,0 mm 0,0 km/h (0 Bft) S-SW 192 ° 0 min 0,000 mm 0,0 UV-I 0 W/m² 9,5 °C 10,6 °C 0,0 km/h (0 Bft)
13.08.2017 00:44 10,6 °C 10,6 °C 93 % 1020,6 hPa 0,0 mm 0,0 km/h (0 Bft) S-SW 192 ° 0 min 0,000 mm 0,0 UV-I 0 W/m² 9,5 °C 10,6 °C 0,0 km/h (0 Bft)
13.08.2017 00:45 10,6 °C 10,6 °C 93 % 1020,6 hPa 0,0 mm 0,2 km/h (0 Bft) S-SW 192 ° 0 min 0,000 mm 0,0 UV-I 0 W/m² 9,5 °C 10,6 °C 1,6 km/h (1 Bft)
13.08.2017 00:46 10,6 °C 10,6 °C 93 % 1020,5 hPa 0,0 mm 0,4 km/h (0 Bft) S-SW 192 ° 0 min 0,000 mm 0,0 UV-I 0 W/m² 9,5 °C 10,6 °C 1,6 km/h (1 Bft)
13.08.2017 00:47 10,6 °C 10,6 °C 93 % 1020,5 hPa 0,0 mm 0,0 km/h (0 Bft) S-SW 192 ° 0 min 0,000 mm 0,0 UV-I 0 W/m² 9,5 °C 10,6 °C 0,0 km/h (0 Bft)
13.08.2017 00:48 10,6 °C 10,7 °C 93 % 1020,5 hPa 0,0 mm 0,0 km/h (0 Bft) S-SW 192 ° 0 min 0,000 mm 0,0 UV-I 0 W/m² 9,5 °C 10,6 °C 0,0 km/h (0 Bft)
13.08.2017 00:49 10,7 °C 10,7 °C 93 % 1020,5 hPa 0,0 mm 0,0 km/h (0 Bft) S-SW 192 ° 0 min 0,000 mm 0,0 UV-I 0 W/m² 9,6 °C 10,7 °C 0,0 km/h (0 Bft)
13.08.2017 00:50 10,7 °C 10,7 °C 93 % 1020,5 hPa 0,0 mm 0,0 km/h (0 Bft) S-SW 192 ° 0 min 0,000 mm 0,0 UV-I 0 W/m² 9,6 °C 10,7 °C 0,0 km/h (0 Bft)
13.08.2017 00:51 10,7 °C 10,7 °C 93 % 1020,5 hPa 0,0 mm 0,0 km/h (0 Bft) S-SW 192 ° 0 min 0,000 mm 0,0 UV-I 0 W/m² 9,6 °C 10,7 °C 0,0 km/h (0 Bft)
13.08.2017 00:52 10,7 °C 10,7 °C 93 % 1020,5 hPa 0,0 mm 0,0 km/h (0 Bft) S-SW 192 ° 0 min 0,000 mm 0,0 UV-I 0 W/m² 9,6 °C 10,7 °C 0,0 km/h (0 Bft)
13.08.2017 00:53 10,7 °C 10,7 °C 93 % 1020,4 hPa 0,0 mm 0,0 km/h (0 Bft) S-SW 192 ° 0 min 0,000 mm 0,0 UV-I 0 W/m² 9,6 °C 10,7 °C 0,0 km/h (0 Bft)
13.08.2017 00:54 10,7 °C 10,7 °C 93 % 1020,4 hPa 0,0 mm 0,9 km/h (0 Bft) W 268 ° 0 min 0,000 mm 0,0 UV-I 0 W/m² 9,6 °C 10,7 °C 3,2 km/h (1 Bft)
13.08.2017 00:55 10,7 °C 10,7 °C 93 % 1020,4 hPa 0,0 mm 0,7 km/h (0 Bft) W 268 ° 0 min 0,000 mm 0,0 UV-I 0 W/m² 9,6 °C 10,7 °C 3,2 km/h (1 Bft)
13.08.2017 00:56 10,7 °C 10,8 °C 93 % 1020,4 hPa 0,0 mm 0,1 km/h (0 Bft) W 268 ° 0 min 0,000 mm 0,0 UV-I 0 W/m² 9,6 °C 10,7 °C 1,6 km/h (1 Bft)
13.08.2017 00:57 10,7 °C 10,8 °C 93 % 1020,3 hPa 0,0 mm 0,0 km/h (0 Bft) W 268 ° 0 min 0,000 mm 0,0 UV-I 0 W/m² 9,6 °C 10,7 °C 0,0 km/h (0 Bft)
13.08.2017 00:58 10,8 °C 10,8 °C 93 % 1020,4 hPa 0,0 mm 0,0 km/h (0 Bft) W 268 ° 0 min 0,000 mm 0,0 UV-I 0 W/m² 9,7 °C 10,8 °C 0,0 km/h (0 Bft)
13.08.2017 00:59 10,7 °C 10,8 °C 93 % 1020,3 hPa 0,0 mm 0,0 km/h (0 Bft) W 268 ° 0 min 0,000 mm 0,0 UV-I 0 W/m² 9,6 °C 10,7 °C 0,0 km/h (0 Bft)
13.08.2017 01:00 10,8 °C 10,8 °C 93 % 1020,3 hPa 0,0 mm 0,3 km/h (0 Bft) W 268 ° 0 min 0,000 mm 0,0 UV-I 0 W/m² 9,7 °C 10,8 °C 3,2 km/h (1 Bft)
13.08.2017 01:01 10,8 °C 10,8 °C 93 % 1020,3 hPa 0,0 mm 0,0 km/h (0 Bft) W 268 ° 0 min 0,000 mm 0,0 UV-I 0 W/m² 9,7 °C 10,8 °C 0,0 km/h (0 Bft)
13.08.2017 01:02 10,8 °C 10,8 °C 93 % 1020,3 hPa 0,0 mm 0,0 km/h (0 Bft) W 268 ° 0 min 0,000 mm 0,0 UV-I 0 W/m² 9,7 °C 10,8 °C 0,0 km/h (0 Bft)
13.08.2017 01:03 10,8 °C 10,8 °C 93 % 1020,3 hPa 0,0 mm 0,0 km/h (0 Bft) W 268 ° 0 min 0,000 mm 0,0 UV-I 0 W/m² 9,7 °C 10,8 °C 0,0 km/h (0 Bft)
13.08.2017 01:04 10,8 °C 10,8 °C 93 % 1020,3 hPa 0,0 mm 0,0 km/h (0 Bft) W 268 ° 0 min 0,000 mm 0,0 UV-I 0 W/m² 9,7 °C 10,8 °C 0,0 km/h (0 Bft)
13.08.2017 01:05 10,8 °C 10,8 °C 93 % 1020,3 hPa 0,0 mm 0,0 km/h (0 Bft) W 268 ° 0 min 0,000 mm 0,0 UV-I 0 W/m² 9,7 °C 10,8 °C 0,0 km/h (0 Bft)
13.08.2017 01:06 10,9 °C 10,9 °C 93 % 1020,3 hPa 0,0 mm 0,0 km/h (0 Bft) W 268 ° 0 min 0,000 mm 0,0 UV-I 0 W/m² 9,8 °C 10,9 °C 0,0 km/h (0 Bft)
13.08.2017 01:07 10,9 °C 10,9 °C 93 % 1020,3 hPa 0,0 mm 0,0 km/h (0 Bft) W 268 ° 0 min 0,000 mm 0,0 UV-I 0 W/m² 9,8 °C 10,9 °C 0,0 km/h (0 Bft)
13.08.2017 01:08 10,9 °C 10,9 °C 93 % 1020,3 hPa 0,0 mm 0,0 km/h (0 Bft) W 268 ° 0 min 0,000 mm 0,0 UV-I 0 W/m² 9,8 °C 10,9 °C 0,0 km/h (0 Bft)
13.08.2017 01:09 10,9 °C 10,9 °C 93 % 1020,2 hPa 0,0 mm 0,0 km/h (0 Bft) W 268 ° 0 min 0,000 mm 0,0 UV-I 0 W/m² 9,8 °C 10,9 °C 0,0 km/h (0 Bft)
13.08.2017 01:10 10,9 °C 10,9 °C 93 % 1020,2 hPa 0,0 mm 0,0 km/h (0 Bft) W 268 ° 0 min 0,000 mm 0,0 UV-I 0 W/m² 9,8 °C 10,9 °C 0,0 km/h (0 Bft)
13.08.2017 01:11 10,9 °C 10,9 °C 93 % 1020,3 hPa 0,0 mm 0,0 km/h (0 Bft) W 268 ° 0 min 0,000 mm 0,0 UV-I 0 W/m² 9,8 °C 10,9 °C 0,0 km/h (0 Bft)
13.08.2017 01:12 10,9 °C 11,0 °C 93 % 1020,3 hPa 0,0 mm 0,0 km/h (0 Bft) W 268 ° 0 min 0,000 mm 0,0 UV-I 0 W/m² 9,8 °C 10,9 °C 0,0 km/h (0 Bft)
13.08.2017 01:13 11,0 °C 11,0 °C 93 % 1020,3 hPa 0,0 mm 0,0 km/h (0 Bft) W 268 ° 0 min 0,000 mm 0,0 UV-I 0 W/m² 9,9 °C 11,0 °C 0,0 km/h (0 Bft)
13.08.2017 01:14 11,0 °C 11,0 °C 93 % 1020,2 hPa 0,0 mm 0,0 km/h (0 Bft) W 268 ° 0 min 0,000 mm 0,0 UV-I 0 W/m² 9,9 °C 11,0 °C 0,0 km/h (0 Bft)
13.08.2017 01:15 11,0 °C 11,1 °C 93 % 1020,2 hPa 0,0 mm 0,0 km/h (0 Bft) W 268 ° 0 min 0,000 mm 0,0 UV-I 0 W/m² 9,9 °C 11,0 °C 0,0 km/h (0 Bft)
13.08.2017 01:16 11,1 °C 11,1 °C 93 % 1020,2 hPa 0,0 mm 0,0 km/h (0 Bft) W 268 ° 0 min 0,000 mm 0,0 UV-I 0 W/m² 10,0 °C 11,1 °C 0,0 km/h (0 Bft)
13.08.2017 01:17 11,1 °C 11,1 °C 93 % 1020,2 hPa 0,0 mm 0,0 km/h (0 Bft) W 268 ° 0 min 0,000 mm 0,0 UV-I 0 W/m² 10,0 °C 11,1 °C 0,0 km/h (0 Bft)
13.08.2017 01:18 11,1 °C 11,1 °C 93 % 1020,2 hPa 0,0 mm 0,0 km/h (0 Bft) W 268 ° 0 min 0,000 mm 0,0 UV-I 0 W/m² 10,0 °C 11,1 °C 0,0 km/h (0 Bft)
13.08.2017 01:19 11,1 °C 11,1 °C 93 % 1020,1 hPa 0,0 mm 0,0 km/h (0 Bft) W 268 ° 0 min 0,000 mm 0,0 UV-I 0 W/m² 10,0 °C 11,1 °C 0,0 km/h (0 Bft)
13.08.2017 01:20 11,1 °C 11,1 °C 93 % 1020,1 hPa 0,0 mm 0,0 km/h (0 Bft) W 268 ° 0 min 0,000 mm 0,0 UV-I 0 W/m² 10,0 °C 11,1 °C 0,0 km/h (0 Bft)
13.08.2017 01:21 11,1 °C 11,2 °C 93 % 1020,2 hPa 0,0 mm 0,0 km/h (0 Bft) W 268 ° 0 min 0,000 mm 0,0 UV-I 0 W/m² 10,0 °C 11,1 °C 0,0 km/h (0 Bft)
13.08.2017 01:22 11,1 °C 11,1 °C 93 % 1020,1 hPa 0,0 mm 0,0 km/h (0 Bft) W 268 ° 0 min 0,000 mm 0,0 UV-I 0 W/m² 10,0 °C 11,1 °C 0,0 km/h (0 Bft)
13.08.2017 01:23 11,1 °C 11,1 °C 92 % 1020,1 hPa 0,0 mm 0,0 km/h (0 Bft) W 268 ° 0 min 0,000 mm 0,0 UV-I 0 W/m² 9,8 °C 11,1 °C 0,0 km/h (0 Bft)
13.08.2017 01:24 11,2 °C 11,2 °C 93 % 1020,1 hPa 0,0 mm 0,0 km/h (0 Bft) W 268 ° 0 min 0,000 mm 0,0 UV-I 0 W/m² 10,1 °C 11,2 °C 0,0 km/h (0 Bft)
13.08.2017 01:25 11,2 °C 11,2 °C 93 % 1020,1 hPa 0,0 mm 0,0 km/h (0 Bft) W 268 ° 0 min 0,000 mm 0,0 UV-I 0 W/m² 10,1 °C 11,2 °C 0,0 km/h (0 Bft)
13.08.2017 01:26 11,1 °C 11,2 °C 93 % 1020,0 hPa 0,0 mm 0,0 km/h (0 Bft) W 268 ° 0 min 0,000 mm 0,0 UV-I 0 W/m² 10,0 °C 11,1 °C 0,0 km/h (0 Bft)
13.08.2017 01:27 11,1 °C 11,2 °C 93 % 1020,0 hPa 0,0 mm 0,0 km/h (0 Bft) W 268 ° 0 min 0,000 mm 0,0 UV-I 0 W/m² 10,0 °C 11,1 °C 0,0 km/h (0 Bft)
13.08.2017 01:28 11,1 °C 11,1 °C 93 % 1020,0 hPa 0,0 mm 0,0 km/h (0 Bft) W 268 ° 0 min 0,000 mm 0,0 UV-I 0 W/m² 10,0 °C 11,1 °C 0,0 km/h (0 Bft)
13.08.2017 01:29 11,1 °C 11,1 °C 93 % 1019,9 hPa 0,0 mm 0,0 km/h (0 Bft) W 268 ° 0 min 0,000 mm 0,0 UV-I 0 W/m² 10,0 °C 11,1 °C 0,0 km/h (0 Bft)
13.08.2017 01:30 11,1 °C 11,1 °C 93 % 1020,0 hPa 0,0 mm 0,0 km/h (0 Bft) W 268 ° 0 min 0,000 mm 0,0 UV-I 0 W/m² 10,0 °C 11,1 °C 0,0 km/h (0 Bft)
13.08.2017 01:31 11,1 °C 11,1 °C 93 % 1019,9 hPa 0,0 mm 0,0 km/h (0 Bft) W 268 ° 0 min 0,000 mm 0,0 UV-I 0 W/m² 10,0 °C 11,1 °C 0,0 km/h (0 Bft)
13.08.2017 01:32 11,1 °C 11,1 °C 93 % 1019,9 hPa 0,0 mm 0,0 km/h (0 Bft) W 268 ° 0 min 0,000 mm 0,0 UV-I 0 W/m² 10,0 °C 11,1 °C 0,0 km/h (0 Bft)
13.08.2017 01:33 11,1 °C 11,1 °C 93 % 1019,9 hPa 0,0 mm 0,0 km/h (0 Bft) W 268 ° 0 min 0,000 mm 0,0 UV-I 0 W/m² 10,0 °C 11,1 °C 0,0 km/h (0 Bft)
13.08.2017 01:34 11,1 °C 11,1 °C 93 % 1019,9 hPa 0,0 mm 0,0 km/h (0 Bft) W 268 ° 0 min 0,000 mm 0,0 UV-I 0 W/m² 10,0 °C 11,1 °C 0,0 km/h (0 Bft)
13.08.2017 01:35 11,1 °C 11,1 °C 93 % 1019,9 hPa 0,0 mm 0,0 km/h (0 Bft) W 268 ° 0 min 0,000 mm 0,0 UV-I 0 W/m² 10,0 °C 11,1 °C 0,0 km/h (0 Bft)
13.08.2017 01:36 11,1 °C 11,1 °C 93 % 1019,9 hPa 0,0 mm 0,0 km/h (0 Bft) W 268 ° 0 min 0,000 mm 0,0 UV-I 0 W/m² 10,0 °C 11,1 °C 0,0 km/h (0 Bft)
13.08.2017 01:37 11,1 °C 11,1 °C 93 % 1019,9 hPa 0,0 mm 0,0 km/h (0 Bft) W 268 ° 0 min 0,000 mm 0,0 UV-I 0 W/m² 10,0 °C 11,1 °C 0,0 km/h (0 Bft)
13.08.2017 01:38 11,1 °C 11,1 °C 92 % 1019,9 hPa 0,0 mm 0,0 km/h (0 Bft) W 268 ° 0 min 0,000 mm 0,0 UV-I 0 W/m² 9,8 °C 11,1 °C 0,0 km/h (0 Bft)
13.08.2017 01:39 11,1 °C 11,1 °C 92 % 1019,9 hPa 0,0 mm 0,0 km/h (0 Bft) W 268 ° 0 min 0,000 mm 0,0 UV-I 0 W/m² 9,8 °C 11,1 °C 0,0 km/h (0 Bft)
13.08.2017 01:40 11,1 °C 11,1 °C 92 % 1019,9 hPa 0,0 mm 0,0 km/h (0 Bft) W 268 ° 0 min 0,000 mm 0,0 UV-I 0 W/m² 9,8 °C 11,1 °C 0,0 km/h (0 Bft)
13.08.2017 01:41 11,1 °C 11,1 °C 92 % 1019,9 hPa 0,0 mm 0,0 km/h (0 Bft) W 268 ° 0 min 0,000 mm 0,0 UV-I 0 W/m² 9,8 °C 11,1 °C 0,0 km/h (0 Bft)
13.08.2017 01:42 11,0 °C 11,1 °C 92 % 1019,8 hPa 0,0 mm 0,0 km/h (0 Bft) W 268 ° 0 min 0,000 mm 0,0 UV-I 0 W/m² 9,8 °C 11,0 °C 0,0 km/h (0 Bft)
13.08.2017 01:43 11,0 °C 11,0 °C 92 % 1019,8 hPa 0,0 mm 0,0 km/h (0 Bft) W 268 ° 0 min 0,000 mm 0,0 UV-I 0 W/m² 9,8 °C 11,0 °C 0,0 km/h (0 Bft)
13.08.2017 01:44 10,9 °C 11,0 °C 92 % 1019,8 hPa 0,0 mm 0,0 km/h (0 Bft) W 268 ° 0 min 0,000 mm 0,0 UV-I 0 W/m² 9,7 °C 10,9 °C 0,0 km/h (0 Bft)
13.08.2017 01:45 10,9 °C 11,0 °C 92 % 1019,8 hPa 0,0 mm 0,0 km/h (0 Bft) W 268 ° 0 min 0,000 mm 0,0 UV-I 0 W/m² 9,7 °C 10,9 °C 0,0 km/h (0 Bft)
13.08.2017 01:46 10,9 °C 10,9 °C 92 % 1019,9 hPa 0,0 mm 0,0 km/h (0 Bft) W 268 ° 0 min 0,000 mm 0,0 UV-I 0 W/m² 9,7 °C 10,9 °C 0,0 km/h (0 Bft)
13.08.2017 01:47 10,9 °C 10,9 °C 92 % 1019,9 hPa 0,0 mm 0,0 km/h (0 Bft) W 268 ° 0 min 0,000 mm 0,0 UV-I 0 W/m² 9,7 °C 10,9 °C 0,0 km/h (0 Bft)
13.08.2017 01:48 10,9 °C 10,9 °C 92 % 1019,9 hPa 0,0 mm 0,0 km/h (0 Bft) W 268 ° 0 min 0,000 mm 0,0 UV-I 0 W/m² 9,7 °C 10,9 °C 0,0 km/h (0 Bft)
13.08.2017 01:49 10,8 °C 10,9 °C 92 % 1019,9 hPa 0,0 mm 0,0 km/h (0 Bft) W 268 ° 0 min 0,000 mm 0,0 UV-I 0 W/m² 9,6 °C 10,8 °C 0,0 km/h (0 Bft)
13.08.2017 01:50 10,8 °C 10,8 °C 92 % 1019,9 hPa 0,0 mm 0,0 km/h (0 Bft) W 268 ° 0 min 0,000 mm 0,0 UV-I 0 W/m² 9,6 °C 10,8 °C 0,0 km/h (0 Bft)
13.08.2017 01:51 10,8 °C 10,8 °C 92 % 1019,9 hPa 0,0 mm 0,0 km/h (0 Bft) W 268 ° 0 min 0,000 mm 0,0 UV-I 0 W/m² 9,6 °C 10,8 °C 0,0 km/h (0 Bft)
13.08.2017 01:52 10,8 °C 10,8 °C 92 % 1019,9 hPa 0,0 mm 0,0 km/h (0 Bft) W 268 ° 0 min 0,000 mm 0,0 UV-I 0 W/m² 9,6 °C 10,8 °C 0,0 km/h (0 Bft)
13.08.2017 01:53 10,7 °C 10,8 °C 92 % 1019,9 hPa 0,0 mm 0,0 km/h (0 Bft) W 268 ° 0 min 0,000 mm 0,0 UV-I 0 W/m² 9,5 °C 10,7 °C 0,0 km/h (0 Bft)
13.08.2017 01:54 10,7 °C 10,7 °C 92 % 1019,9 hPa 0,0 mm 0,0 km/h (0 Bft) W 268 ° 0 min 0,000 mm 0,0 UV-I 0 W/m² 9,5 °C 10,7 °C 0,0 km/h (0 Bft)
13.08.2017 01:55 10,7 °C 10,7 °C 92 % 1019,9 hPa 0,0 mm 0,0 km/h (0 Bft) W 268 ° 0 min 0,000 mm 0,0 UV-I 0 W/m² 9,5 °C 10,7 °C 0,0 km/h (0 Bft)
13.08.2017 01:56 10,7 °C 10,7 °C 92 % 1019,9 hPa 0,0 mm 0,0 km/h (0 Bft) W 268 ° 0 min 0,000 mm 0,0 UV-I 0 W/m² 9,5 °C 10,7 °C 0,0 km/h (0 Bft)
13.08.2017 01:57 10,6 °C 10,7 °C 92 % 1019,8 hPa 0,0 mm 0,0 km/h (0 Bft) W 268 ° 0 min 0,000 mm 0,0 UV-I 0 W/m² 9,4 °C 10,6 °C 0,0 km/h (0 Bft)
13.08.2017 01:58 10,6 °C 10,6 °C 91 % 1019,9 hPa 0,0 mm 0,0 km/h (0 Bft) W 268 ° 0 min 0,000 mm 0,0 UV-I 0 W/m² 9,2 °C 10,6 °C 0,0 km/h (0 Bft)
13.08.2017 01:59 10,6 °C 10,6 °C 91 % 1019,8 hPa 0,0 mm 0,0 km/h (0 Bft) W 268 ° 0 min 0,000 mm 0,0 UV-I 0 W/m² 9,2 °C 10,6 °C 0,0 km/h (0 Bft)
13.08.2017 02:00 10,4 °C 10,6 °C 92 % 1019,8 hPa 0,0 mm 0,0 km/h (0 Bft) W 268 ° 0 min 0,000 mm 0,0 UV-I 0 W/m² 9,2 °C 10,4 °C 0,0 km/h (0 Bft)
13.08.2017 02:01 10,4 °C 10,4 °C 92 % 1019,8 hPa 0,0 mm 0,0 km/h (0 Bft) W 268 ° 0 min 0,000 mm 0,0 UV-I 0 W/m² 9,2 °C 10,4 °C 0,0 km/h (0 Bft)
13.08.2017 02:02 10,4 °C 10,4 °C 92 % 1019,8 hPa 0,0 mm 0,0 km/h (0 Bft) W 268 ° 0 min 0,000 mm 0,0 UV-I 0 W/m² 9,2 °C 10,4 °C 0,0 km/h (0 Bft)
13.08.2017 02:03 10,3 °C 10,4 °C 92 % 1019,8 hPa 0,0 mm 0,0 km/h (0 Bft) W 268 ° 0 min 0,000 mm 0,0 UV-I 0 W/m² 9,1 °C 10,3 °C 0,0 km/h (0 Bft)
13.08.2017 02:04 10,3 °C 10,3 °C 92 % 1019,8 hPa 0,0 mm 0,0 km/h (0 Bft) W 268 ° 0 min 0,000 mm 0,0 UV-I 0 W/m² 9,1 °C 10,3 °C 0,0 km/h (0 Bft)
13.08.2017 02:05 10,2 °C 10,3 °C 92 % 1019,8 hPa 0,0 mm 0,0 km/h (0 Bft) W 268 ° 0 min 0,000 mm 0,0 UV-I 0 W/m² 9,0 °C 10,2 °C 0,0 km/h (0 Bft)
13.08.2017 02:06 10,2 °C 10,3 °C 92 % 1019,7 hPa 0,0 mm 0,0 km/h (0 Bft) W 268 ° 0 min 0,000 mm 0,0 UV-I 0 W/m² 9,0 °C 10,2 °C 0,0 km/h (0 Bft)
13.08.2017 02:07 10,1 °C 10,2 °C 92 % 1019,7 hPa 0,0 mm 0,0 km/h (0 Bft) W 268 ° 0 min 0,000 mm 0,0 UV-I 0 W/m² 8,9 °C 10,1 °C 0,0 km/h (0 Bft)
13.08.2017 02:08 10,2 °C 10,2 °C 93 % 1019,7 hPa 0,0 mm 0,0 km/h (0 Bft) W 268 ° 0 min 0,000 mm 0,0 UV-I 0 W/m² 9,1 °C 10,2 °C 0,0 km/h (0 Bft)
13.08.2017 02:09 10,1 °C 10,2 °C 93 % 1019,7 hPa 0,0 mm 0,0 km/h (0 Bft) W 268 ° 0 min 0,000 mm 0,0 UV-I 0 W/m² 9,0 °C 10,1 °C 0,0 km/h (0 Bft)
13.08.2017 02:10 10,1 °C 10,2 °C 93 % 1019,7 hPa 0,0 mm 0,0 km/h (0 Bft) W 268 ° 0 min 0,000 mm 0,0 UV-I 0 W/m² 9,0 °C 10,1 °C 0,0 km/h (0 Bft)
13.08.2017 02:11 10,1 °C 10,2 °C 93 % 1019,7 hPa 0,0 mm 0,0 km/h (0 Bft) W 268 ° 0 min 0,000 mm 0,0 UV-I 0 W/m² 9,0 °C 10,1 °C 0,0 km/h (0 Bft)
13.08.2017 02:12 10,1 °C 10,2 °C 93 % 1019,7 hPa 0,0 mm 0,0 km/h (0 Bft) W 268 ° 0 min 0,000 mm 0,0 UV-I 0 W/m² 9,0 °C 10,1 °C 0,0 km/h (0 Bft)
13.08.2017 02:13 10,1 °C 10,1 °C 93 % 1019,8 hPa 0,0 mm 0,0 km/h (0 Bft) W 268 ° 0 min 0,000 mm 0,0 UV-I 0 W/m² 9,0 °C 10,1 °C 0,0 km/h (0 Bft)
13.08.2017 02:14 10,1 °C 10,1 °C 93 % 1019,8 hPa 0,0 mm 0,0 km/h (0 Bft) W 268 ° 0 min 0,000 mm 0,0 UV-I 0 W/m² 9,0 °C 10,1 °C 0,0 km/h (0 Bft)
13.08.2017 02:15 10,1 °C 10,1 °C 93 % 1019,8 hPa 0,0 mm 0,0 km/h (0 Bft) W 268 ° 0 min 0,000 mm 0,0 UV-I 0 W/m² 9,0 °C 10,1 °C 0,0 km/h (0 Bft)
13.08.2017 02:16 10,1 °C 10,1 °C 93 % 1019,8 hPa 0,0 mm 0,0 km/h (0 Bft) W 268 ° 0 min 0,000 mm 0,0 UV-I 0 W/m² 9,0 °C 10,1 °C 0,0 km/h (0 Bft)
13.08.2017 02:17 10,0 °C 10,1 °C 93 % 1019,8 hPa 0,0 mm 0,0 km/h (0 Bft) W 268 ° 0 min 0,000 mm 0,0 UV-I 0 W/m² 8,9 °C 10,0 °C 0,0 km/h (0 Bft)
13.08.2017 02:18 10,0 °C 10,1 °C 93 % 1019,8 hPa 0,0 mm 0,0 km/h (0 Bft) W 268 ° 0 min 0,000 mm 0,0 UV-I 0 W/m² 8,9 °C 10,0 °C 0,0 km/h (0 Bft)
13.08.2017 02:19 10,0 °C 10,1 °C 93 % 1019,8 hPa 0,0 mm 0,0 km/h (0 Bft) W 268 ° 0 min 0,000 mm 0,0 UV-I 0 W/m² 8,9 °C 10,0 °C 0,0 km/h (0 Bft)
13.08.2017 02:20 10,1 °C 10,1 °C 93 % 1019,8 hPa 0,0 mm 0,0 km/h (0 Bft) W 268 ° 0 min 0,000 mm 0,0 UV-I 0 W/m² 9,0 °C 10,1 °C 0,0 km/h (0 Bft)
13.08.2017 02:21 10,1 °C 10,1 °C 94 % 1019,8 hPa 0,0 mm 0,0 km/h (0 Bft) W 268 ° 0 min 0,000 mm 0,0 UV-I 0 W/m² 9,2 °C 10,1 °C 0,0 km/h (0 Bft)
13.08.2017 02:22 10,1 °C 10,1 °C 94 % 1019,8 hPa 0,0 mm 0,0 km/h (0 Bft) W 268 ° 0 min 0,000 mm 0,0 UV-I 0 W/m² 9,2 °C 10,1 °C 0,0 km/h (0 Bft)
13.08.2017 02:23 10,1 °C 10,2 °C 94 % 1019,8 hPa 0,0 mm 0,0 km/h (0 Bft) W 268 ° 0 min 0,000 mm 0,0 UV-I 0 W/m² 9,2 °C 10,1 °C 0,0 km/h (0 Bft)
13.08.2017 02:24 10,2 °C 10,2 °C 94 % 1019,8 hPa 0,0 mm 0,0 km/h (0 Bft) W 268 ° 0 min 0,000 mm 0,0 UV-I 0 W/m² 9,3 °C 10,2 °C 0,0 km/h (0 Bft)
13.08.2017 02:25 10,2 °C 10,2 °C 94 % 1019,9 hPa 0,0 mm 0,0 km/h (0 Bft) W 268 ° 0 min 0,000 mm 0,0 UV-I 0 W/m² 9,3 °C 10,2 °C 0,0 km/h (0 Bft)
13.08.2017 02:26 10,2 °C 10,2 °C 94 % 1019,8 hPa 0,0 mm 0,0 km/h (0 Bft) W 268 ° 0 min 0,000 mm 0,0 UV-I 0 W/m² 9,3 °C 10,2 °C 0,0 km/h (0 Bft)
13.08.2017 02:27 10,2 °C 10,2 °C 94 % 1019,8 hPa 0,0 mm 0,0 km/h (0 Bft) W 268 ° 0 min 0,000 mm 0,0 UV-I 0 W/m² 9,3 °C 10,2 °C 0,0 km/h (0 Bft)
13.08.2017 02:28 10,2 °C 10,2 °C 94 % 1019,8 hPa 0,0 mm 0,0 km/h (0 Bft) W 268 ° 0 min 0,000 mm 0,0 UV-I 0 W/m² 9,3 °C 10,2 °C 0,0 km/h (0 Bft)
13.08.2017 02:29 10,3 °C 10,3 °C 94 % 1019,8 hPa 0,0 mm 0,0 km/h (0 Bft) W 268 ° 0 min 0,000 mm 0,0 UV-I 0 W/m² 9,4 °C 10,3 °C 0,0 km/h (0 Bft)
13.08.2017 02:30 10,3 °C 10,3 °C 94 % 1019,8 hPa 0,0 mm 0,0 km/h (0 Bft) W 268 ° 0 min 0,000 mm 0,0 UV-I 0 W/m² 9,4 °C 10,3 °C 0,0 km/h (0 Bft)
13.08.2017 02:31 10,3 °C 10,3 °C 94 % 1019,8 hPa 0,0 mm 0,0 km/h (0 Bft) W 268 ° 0 min 0,000 mm 0,0 UV-I 0 W/m² 9,4 °C 10,3 °C 0,0 km/h (0 Bft)
13.08.2017 02:32 10,3 °C 10,3 °C 94 % 1019,8 hPa 0,0 mm 0,0 km/h (0 Bft) W 268 ° 0 min 0,000 mm 0,0 UV-I 0 W/m² 9,4 °C 10,3 °C 0,0 km/h (0 Bft)
13.08.2017 02:33 10,4 °C 10,4 °C 94 % 1019,8 hPa 0,0 mm 0,0 km/h (0 Bft) W 268 ° 0 min 0,000 mm 0,0 UV-I 0 W/m² 9,5 °C 10,4 °C 0,0 km/h (0 Bft)
13.08.2017 02:34 10,4 °C 10,4 °C 94 % 1019,8 hPa 0,0 mm 0,0 km/h (0 Bft) W 268 ° 0 min 0,000 mm 0,0 UV-I 0 W/m² 9,5 °C 10,4 °C 0,0 km/h (0 Bft)
13.08.2017 02:35 10,4 °C 10,4 °C 94 % 1019,8 hPa 0,0 mm 0,5 km/h (0 Bft) W 268 ° 0 min 0,000 mm 0,0 UV-I 0 W/m² 9,5 °C 10,4 °C 1,6 km/h (1 Bft)
13.08.2017 02:36 10,6 °C 10,6 °C 93 % 1019,8 hPa 0,0 mm 1,0 km/h (0 Bft) W 268 ° 0 min 0,000 mm 0,0 UV-I 0 W/m² 9,5 °C 10,6 °C 1,6 km/h (1 Bft)
13.08.2017 02:37 10,6 °C 10,6 °C 93 % 1019,8 hPa 0,0 mm 0,0 km/h (0 Bft) W 268 ° 0 min 0,000 mm 0,0 UV-I 0 W/m² 9,5 °C 10,6 °C 0,0 km/h (0 Bft)
13.08.2017 02:38 10,7 °C 10,7 °C 93 % 1019,7 hPa 0,0 mm 0,0 km/h (0 Bft) W 268 ° 0 min 0,000 mm 0,0 UV-I 0 W/m² 9,6 °C 10,7 °C 0,0 km/h (0 Bft)
13.08.2017 02:39 10,7 °C 10,7 °C 93 % 1019,7 hPa 0,0 mm 0,0 km/h (0 Bft) W 268 ° 0 min 0,000 mm 0,0 UV-I 0 W/m² 9,6 °C 10,7 °C 0,0 km/h (0 Bft)
13.08.2017 02:40 10,7 °C 10,7 °C 93 % 1019,7 hPa 0,0 mm 0,0 km/h (0 Bft) W 268 ° 0 min 0,000 mm 0,0 UV-I 0 W/m² 9,6 °C 10,7 °C 0,0 km/h (0 Bft)
13.08.2017 02:41 10,7 °C 10,7 °C 93 % 1019,7 hPa 0,0 mm 0,0 km/h (0 Bft) W 268 ° 0 min 0,000 mm 0,0 UV-I 0 W/m² 9,6 °C 10,7 °C 0,0 km/h (0 Bft)
13.08.2017 02:42 10,7 °C 10,7 °C 93 % 1019,7 hPa 0,0 mm 0,0 km/h (0 Bft) W 268 ° 0 min 0,000 mm 0,0 UV-I 0 W/m² 9,6 °C 10,7 °C 0,0 km/h (0 Bft)
13.08.2017 02:43 10,7 °C 10,7 °C 93 % 1019,7 hPa 0,0 mm 0,0 km/h (0 Bft) W 268 ° 0 min 0,000 mm 0,0 UV-I 0 W/m² 9,6 °C 10,7 °C 0,0 km/h (0 Bft)
13.08.2017 02:44 10,6 °C 10,7 °C 93 % 1019,6 hPa 0,0 mm 0,0 km/h (0 Bft) W 268 ° 0 min 0,000 mm 0,0 UV-I 0 W/m² 9,5 °C 10,6 °C 0,0 km/h (0 Bft)
13.08.2017 02:45 10,6 °C 10,6 °C 93 % 1019,7 hPa 0,0 mm 0,0 km/h (0 Bft) W 268 ° 0 min 0,000 mm 0,0 UV-I 0 W/m² 9,5 °C 10,6 °C 0,0 km/h (0 Bft)
13.08.2017 02:46 10,6 °C 10,6 °C 93 % 1019,6 hPa 0,0 mm 0,0 km/h (0 Bft) W 268 ° 0 min 0,000 mm 0,0 UV-I 0 W/m² 9,5 °C 10,6 °C 0,0 km/h (0 Bft)
13.08.2017 02:47 10,6 °C 10,6 °C 93 % 1019,6 hPa 0,0 mm 0,0 km/h (0 Bft) W 268 ° 0 min 0,000 mm 0,0 UV-I 0 W/m² 9,5 °C 10,6 °C 0,0 km/h (0 Bft)
13.08.2017 02:48 10,6 °C 10,6 °C 93 % 1019,6 hPa 0,0 mm 0,0 km/h (0 Bft) W 268 ° 0 min 0,000 mm 0,0 UV-I 0 W/m² 9,5 °C 10,6 °C 0,0 km/h (0 Bft)
13.08.2017 02:49 10,5 °C 10,6 °C 93 % 1019,6 hPa 0,0 mm 0,0 km/h (0 Bft) W 268 ° 0 min 0,000 mm 0,0 UV-I 0 W/m² 9,4 °C 10,5 °C 0,0 km/h (0 Bft)
13.08.2017 02:50 10,5 °C 10,6 °C 93 % 1019,6 hPa 0,0 mm 0,0 km/h (0 Bft) W 268 ° 0 min 0,000 mm 0,0 UV-I 0 W/m² 9,4 °C 10,5 °C 0,0 km/h (0 Bft)
13.08.2017 02:51 10,5 °C 10,5 °C 93 % 1019,7 hPa 0,0 mm 0,1 km/h (0 Bft) W 268 ° 0 min 0,000 mm 0,0 UV-I 0 W/m² 9,4 °C 10,5 °C 1,6 km/h (1 Bft)
13.08.2017 02:52 10,4 °C 10,5 °C 93 % 1019,7 hPa 0,0 mm 0,4 km/h (0 Bft) W 268 ° 0 min 0,000 mm 0,0 UV-I 0 W/m² 9,3 °C 10,4 °C 1,6 km/h (1 Bft)
13.08.2017 02:53 10,4 °C 10,5 °C 93 % 1019,6 hPa 0,0 mm 0,0 km/h (0 Bft) W 268 ° 0 min 0,000 mm 0,0 UV-I 0 W/m² 9,3 °C 10,4 °C 0,0 km/h (0 Bft)
13.08.2017 02:54 10,4 °C 10,4 °C 93 % 1019,7 hPa 0,0 mm 0,0 km/h (0 Bft) W 268 ° 0 min 0,000 mm 0,0 UV-I 0 W/m² 9,3 °C 10,4 °C 0,0 km/h (0 Bft)
13.08.2017 02:55 10,4 °C 10,4 °C 93 % 1019,7 hPa 0,0 mm 0,0 km/h (0 Bft) W 268 ° 0 min 0,000 mm 0,0 UV-I 0 W/m² 9,3 °C 10,4 °C 0,0 km/h (0 Bft)
13.08.2017 02:56 10,4 °C 10,4 °C 93 % 1019,7 hPa 0,0 mm 0,0 km/h (0 Bft) W 268 ° 0 min 0,000 mm 0,0 UV-I 0 W/m² 9,3 °C 10,4 °C 0,0 km/h (0 Bft)
13.08.2017 02:57 10,4 °C 10,4 °C 93 % 1019,7 hPa 0,0 mm 0,0 km/h (0 Bft) W 268 ° 0 min 0,000 mm 0,0 UV-I 0 W/m² 9,3 °C 10,4 °C 0,0 km/h (0 Bft)
13.08.2017 02:58 10,4 °C 10,4 °C 93 % 1019,7 hPa 0,0 mm 0,0 km/h (0 Bft) W 268 ° 0 min 0,000 mm 0,0 UV-I 0 W/m² 9,3 °C 10,4 °C 0,0 km/h (0 Bft)
13.08.2017 02:59 10,4 °C 10,4 °C 93 % 1019,8 hPa 0,0 mm 0,0 km/h (0 Bft) W 268 ° 0 min 0,000 mm 0,0 UV-I 0 W/m² 9,3 °C 10,4 °C 0,0 km/h (0 Bft)
13.08.2017 03:00 10,4 °C 10,4 °C 94 % 1019,7 hPa 0,0 mm 0,0 km/h (0 Bft) W 268 ° 0 min 0,000 mm 0,0 UV-I 0 W/m² 9,5 °C 10,4 °C 0,0 km/h (0 Bft)
13.08.2017 03:01 10,4 °C 10,4 °C 94 % 1019,8 hPa 0,0 mm 0,0 km/h (0 Bft) W 268 ° 0 min 0,000 mm 0,0 UV-I 0 W/m² 9,5 °C 10,4 °C 0,0 km/h (0 Bft)
13.08.2017 03:02 10,4 °C 10,4 °C 94 % 1019,7 hPa 0,0 mm 0,0 km/h (0 Bft) W 268 ° 0 min 0,000 mm 0,0 UV-I 0 W/m² 9,5 °C 10,4 °C 0,0 km/h (0 Bft)
13.08.2017 03:03 10,5 °C 10,6 °C 94 % 1019,7 hPa 0,0 mm 0,0 km/h (0 Bft) W 268 ° 0 min 0,000 mm 0,0 UV-I 0 W/m² 9,6 °C 10,5 °C 0,0 km/h (0 Bft)
13.08.2017 03:04 10,5 °C 10,6 °C 94 % 1019,7 hPa 0,0 mm 0,0 km/h (0 Bft) W 268 ° 0 min 0,000 mm 0,0 UV-I 0 W/m² 9,6 °C 10,5 °C 0,0 km/h (0 Bft)
13.08.2017 03:05 10,5 °C 10,6 °C 93 % 1019,8 hPa 0,0 mm 0,0 km/h (0 Bft) W 268 ° 0 min 0,000 mm 0,0 UV-I 0 W/m² 9,4 °C 10,5 °C 0,0 km/h (0 Bft)
13.08.2017 03:06 10,6 °C 10,6 °C 94 % 1019,7 hPa 0,0 mm 0,0 km/h (0 Bft) W 268 ° 0 min 0,000 mm 0,0 UV-I 0 W/m² 9,7 °C 10,6 °C 0,0 km/h (0 Bft)
13.08.2017 03:07 10,6 °C 10,6 °C 94 % 1019,7 hPa 0,0 mm 0,0 km/h (0 Bft) W 268 ° 0 min 0,000 mm 0,0 UV-I 0 W/m² 9,7 °C 10,6 °C 0,0 km/h (0 Bft)
13.08.2017 03:08 10,6 °C 10,6 °C 94 % 1019,7 hPa 0,0 mm 0,0 km/h (0 Bft) W 268 ° 0 min 0,000 mm 0,0 UV-I 0 W/m² 9,7 °C 10,6 °C 0,0 km/h (0 Bft)
13.08.2017 03:09 10,6 °C 10,6 °C 94 % 1019,8 hPa 0,0 mm 0,0 km/h (0 Bft) W 268 ° 0 min 0,000 mm 0,0 UV-I 0 W/m² 9,7 °C 10,6 °C 0,0 km/h (0 Bft)
13.08.2017 03:10 10,6 °C 10,6 °C 94 % 1019,8 hPa 0,0 mm 0,0 km/h (0 Bft) W 268 ° 0 min 0,000 mm 0,0 UV-I 0 W/m² 9,7 °C 10,6 °C 0,0 km/h (0 Bft)
13.08.2017 03:11 10,6 °C 10,6 °C 93 % 1019,7 hPa 0,0 mm 0,0 km/h (0 Bft) W 268 ° 0 min 0,000 mm 0,0 UV-I 0 W/m² 9,5 °C 10,6 °C 0,0 km/h (0 Bft)
13.08.2017 03:12 10,6 °C 10,6 °C 93 % 1019,7 hPa 0,0 mm 0,0 km/h (0 Bft) W 268 ° 0 min 0,000 mm 0,0 UV-I 0 W/m² 9,5 °C 10,6 °C 0,0 km/h (0 Bft)
13.08.2017 03:13 10,6 °C 10,6 °C 93 % 1019,7 hPa 0,0 mm 0,0 km/h (0 Bft) W 268 ° 0 min 0,000 mm 0,0 UV-I 0 W/m² 9,5 °C 10,6 °C 0,0 km/h (0 Bft)
13.08.2017 03:14 10,6 °C 10,6 °C 93 % 1019,7 hPa 0,0 mm 0,0 km/h (0 Bft) W 268 ° 0 min 0,000 mm 0,0 UV-I 0 W/m² 9,5 °C 10,6 °C 0,0 km/h (0 Bft)
13.08.2017 03:15 10,6 °C 10,6 °C 93 % 1019,8 hPa 0,0 mm 0,0 km/h (0 Bft) W 268 ° 0 min 0,000 mm 0,0 UV-I 0 W/m² 9,5 °C 10,6 °C 0,0 km/h (0 Bft)
13.08.2017 03:16 10,6 °C 10,6 °C 93 % 1019,8 hPa 0,0 mm 0,0 km/h (0 Bft) W 268 ° 0 min 0,000 mm 0,0 UV-I 0 W/m² 9,5 °C 10,6 °C 0,0 km/h (0 Bft)
13.08.2017 03:17 10,6 °C 10,6 °C 93 % 1019,8 hPa 0,0 mm 0,0 km/h (0 Bft) W 268 ° 0 min 0,000 mm 0,0 UV-I 0 W/m² 9,5 °C 10,6 °C 0,0 km/h (0 Bft)
13.08.2017 03:18 10,6 °C 10,6 °C 93 % 1019,8 hPa 0,0 mm 0,0 km/h (0 Bft) W 268 ° 0 min 0,000 mm 0,0 UV-I 0 W/m² 9,5 °C 10,6 °C 0,0 km/h (0 Bft)
13.08.2017 03:19 10,6 °C 10,6 °C 93 % 1019,9 hPa 0,0 mm 0,0 km/h (0 Bft) W 268 ° 0 min 0,000 mm 0,0 UV-I 0 W/m² 9,5 °C 10,6 °C 0,0 km/h (0 Bft)
13.08.2017 03:20 10,6 °C 10,6 °C 93 % 1019,8 hPa 0,0 mm 0,0 km/h (0 Bft) W 268 ° 0 min 0,000 mm 0,0 UV-I 0 W/m² 9,5 °C 10,6 °C 0,0 km/h (0 Bft)
13.08.2017 03:21 10,6 °C 10,6 °C 93 % 1019,8 hPa 0,0 mm 0,0 km/h (0 Bft) W 268 ° 0 min 0,000 mm 0,0 UV-I 0 W/m² 9,5 °C 10,6 °C 0,0 km/h (0 Bft)
13.08.2017 03:22 10,6 °C 10,6 °C 93 % 1019,9 hPa 0,0 mm 0,0 km/h (0 Bft) W 268 ° 0 min 0,000 mm 0,0 UV-I 0 W/m² 9,5 °C 10,6 °C 0,0 km/h (0 Bft)
13.08.2017 03:23 10,6 °C 10,6 °C 93 % 1019,9 hPa 0,0 mm 0,0 km/h (0 Bft) W 268 ° 0 min 0,000 mm 0,0 UV-I 0 W/m² 9,5 °C 10,6 °C 0,0 km/h (0 Bft)
13.08.2017 03:24 10,7 °C 10,7 °C 93 % 1020,0 hPa 0,0 mm 0,0 km/h (0 Bft) W 268 ° 0 min 0,000 mm 0,0 UV-I 0 W/m² 9,6 °C 10,7 °C 0,0 km/h (0 Bft)
13.08.2017 03:25 10,7 °C 10,7 °C 93 % 1019,9 hPa 0,0 mm 0,0 km/h (0 Bft) W 268 ° 0 min 0,000 mm 0,0 UV-I 0 W/m² 9,6 °C 10,7 °C 0,0 km/h (0 Bft)
13.08.2017 03:26 10,7 °C 10,7 °C 93 % 1019,9 hPa 0,0 mm 0,0 km/h (0 Bft) W 268 ° 0 min 0,000 mm 0,0 UV-I 0 W/m² 9,6 °C 10,7 °C 0,0 km/h (0 Bft)
13.08.2017 03:27 10,7 °C 10,7 °C 93 % 1020,0 hPa 0,0 mm 0,0 km/h (0 Bft) W 268 ° 0 min 0,000 mm 0,0 UV-I 0 W/m² 9,6 °C 10,7 °C 0,0 km/h (0 Bft)
13.08.2017 03:28 10,7 °C 10,7 °C 93 % 1020,0 hPa 0,0 mm 0,0 km/h (0 Bft) W 268 ° 0 min 0,000 mm 0,0 UV-I 0 W/m² 9,6 °C 10,7 °C 0,0 km/h (0 Bft)
13.08.2017 03:29 10,7 °C 10,7 °C 93 % 1020,0 hPa 0,0 mm 0,0 km/h (0 Bft) W 268 ° 0 min 0,000 mm 0,0 UV-I 0 W/m² 9,6 °C 10,7 °C 0,0 km/h (0 Bft)
13.08.2017 03:30 10,7 °C 10,7 °C 93 % 1020,0 hPa 0,0 mm 0,0 km/h (0 Bft) W 268 ° 0 min 0,000 mm 0,0 UV-I 0 W/m² 9,6 °C 10,7 °C 0,0 km/h (0 Bft)
13.08.2017 03:31 10,7 °C 10,7 °C 93 % 1020,0 hPa 0,0 mm 0,0 km/h (0 Bft) W 268 ° 0 min 0,000 mm 0,0 UV-I 0 W/m² 9,6 °C 10,7 °C 0,0 km/h (0 Bft)
13.08.2017 03:32 10,7 °C 10,7 °C 93 % 1020,0 hPa 0,0 mm 0,0 km/h (0 Bft) W 268 ° 0 min 0,000 mm 0,0 UV-I 0 W/m² 9,6 °C 10,7 °C 0,0 km/h (0 Bft)
13.08.2017 03:33 10,6 °C 10,7 °C 93 % 1020,0 hPa 0,0 mm 0,0 km/h (0 Bft) W 268 ° 0 min 0,000 mm 0,0 UV-I 0 W/m² 9,5 °C 10,6 °C 0,0 km/h (0 Bft)
13.08.2017 03:34 10,6 °C 10,6 °C 93 % 1020,0 hPa 0,0 mm 0,0 km/h (0 Bft) W 268 ° 0 min 0,000 mm 0,0 UV-I 0 W/m² 9,5 °C 10,6 °C 0,0 km/h (0 Bft)
13.08.2017 03:35 10,6 °C 10,6 °C 93 % 1020,0 hPa 0,0 mm 0,0 km/h (0 Bft) W 268 ° 0 min 0,000 mm 0,0 UV-I 0 W/m² 9,5 °C 10,6 °C 0,0 km/h (0 Bft)
13.08.2017 03:36 10,6 °C 10,6 °C 93 % 1020,0 hPa 0,0 mm 0,0 km/h (0 Bft) W 268 ° 0 min 0,000 mm 0,0 UV-I 0 W/m² 9,5 °C 10,6 °C 0,0 km/h (0 Bft)
13.08.2017 03:37 10,6 °C 10,6 °C 93 % 1020,1 hPa 0,0 mm 0,0 km/h (0 Bft) W 268 ° 0 min 0,000 mm 0,0 UV-I 0 W/m² 9,5 °C 10,6 °C 0,0 km/h (0 Bft)
13.08.2017 03:38 10,6 °C 10,6 °C 94 % 1020,1 hPa 0,0 mm 0,0 km/h (0 Bft) W 268 ° 0 min 0,000 mm 0,0 UV-I 0 W/m² 9,7 °C 10,6 °C 0,0 km/h (0 Bft)
13.08.2017 03:39 10,7 °C 10,7 °C 94 % 1020,0 hPa 0,0 mm 0,0 km/h (0 Bft) W 268 ° 0 min 0,000 mm 0,0 UV-I 0 W/m² 9,8 °C 10,7 °C 0,0 km/h (0 Bft)
13.08.2017 03:40 10,6 °C 10,7 °C 94 % 1020,0 hPa 0,0 mm 0,0 km/h (0 Bft) W 268 ° 0 min 0,000 mm 0,0 UV-I 0 W/m² 9,7 °C 10,6 °C 0,0 km/h (0 Bft)
13.08.2017 03:41 10,7 °C 10,7 °C 94 % 1020,1 hPa 0,0 mm 0,0 km/h (0 Bft) W 268 ° 0 min 0,000 mm 0,0 UV-I 0 W/m² 9,8 °C 10,7 °C 0,0 km/h (0 Bft)
13.08.2017 03:42 10,7 °C 10,7 °C 94 % 1020,1 hPa 0,0 mm 0,0 km/h (0 Bft) W 268 ° 0 min 0,000 mm 0,0 UV-I 0 W/m² 9,8 °C 10,7 °C 0,0 km/h (0 Bft)
13.08.2017 03:43 10,7 °C 10,7 °C 94 % 1020,1 hPa 0,0 mm 0,0 km/h (0 Bft) W 268 ° 0 min 0,000 mm 0,0 UV-I 0 W/m² 9,8 °C 10,7 °C 0,0 km/h (0 Bft)
13.08.2017 03:44 10,7 °C 10,7 °C 94 % 1020,1 hPa 0,0 mm 0,0 km/h (0 Bft) W 268 ° 0 min 0,000 mm 0,0 UV-I 0 W/m² 9,8 °C 10,7 °C 0,0 km/h (0 Bft)
13.08.2017 03:45 10,7 °C 10,7 °C 94 % 1020,1 hPa 0,0 mm 0,0 km/h (0 Bft) W 268 ° 0 min 0,000 mm 0,0 UV-I 0 W/m² 9,8 °C 10,7 °C 0,0 km/h (0 Bft)
13.08.2017 03:46 10,7 °C 10,7 °C 94 % 1020,1 hPa 0,0 mm 0,0 km/h (0 Bft) W 268 ° 0 min 0,000 mm 0,0 UV-I 0 W/m² 9,8 °C 10,7 °C 0,0 km/h (0 Bft)
13.08.2017 03:47 10,7 °C 10,7 °C 94 % 1020,1 hPa 0,0 mm 0,0 km/h (0 Bft) W 268 ° 0 min 0,000 mm 0,0 UV-I 0 W/m² 9,8 °C 10,7 °C 0,0 km/h (0 Bft)
13.08.2017 03:48 10,7 °C 10,7 °C 94 % 1020,1 hPa 0,0 mm 0,0 km/h (0 Bft) W 268 ° 0 min 0,000 mm 0,0 UV-I 0 W/m² 9,8 °C 10,7 °C 0,0 km/h (0 Bft)
13.08.2017 03:49 10,7 °C 10,7 °C 94 % 1020,1 hPa 0,0 mm 0,0 km/h (0 Bft) W 268 ° 0 min 0,000 mm 0,0 UV-I 0 W/m² 9,8 °C 10,7 °C 0,0 km/h (0 Bft)
13.08.2017 03:50 10,7 °C 10,7 °C 94 % 1020,1 hPa 0,0 mm 0,0 km/h (0 Bft) W 268 ° 0 min 0,000 mm 0,0 UV-I 0 W/m² 9,8 °C 10,7 °C 0,0 km/h (0 Bft)
13.08.2017 03:51 10,7 °C 10,7 °C 94 % 1020,1 hPa 0,0 mm 0,0 km/h (0 Bft) W 268 ° 0 min 0,000 mm 0,0 UV-I 0 W/m² 9,8 °C 10,7 °C 0,0 km/h (0 Bft)
13.08.2017 03:52 10,7 °C 10,7 °C 94 % 1020,1 hPa 0,0 mm 0,0 km/h (0 Bft) W 268 ° 0 min 0,000 mm 0,0 UV-I 0 W/m² 9,8 °C 10,7 °C 0,0 km/h (0 Bft)
13.08.2017 03:53 10,7 °C 10,7 °C 94 % 1020,1 hPa 0,0 mm 0,0 km/h (0 Bft) W 268 ° 0 min 0,000 mm 0,0 UV-I 0 W/m² 9,8 °C 10,7 °C 0,0 km/h (0 Bft)
13.08.2017 03:54 10,6 °C 10,7 °C 94 % 1020,2 hPa 0,0 mm 0,0 km/h (0 Bft) W 268 ° 0 min 0,000 mm 0,0 UV-I 0 W/m² 9,7 °C 10,6 °C 0,0 km/h (0 Bft)
13.08.2017 03:55 10,6 °C 10,7 °C 94 % 1020,2 hPa 0,0 mm 0,0 km/h (0 Bft) W 268 ° 0 min 0,000 mm 0,0 UV-I 0 W/m² 9,7 °C 10,6 °C 0,0 km/h (0 Bft)
13.08.2017 03:56 10,6 °C 10,6 °C 94 % 1020,2 hPa 0,0 mm 0,0 km/h (0 Bft) W 268 ° 0 min 0,000 mm 0,0 UV-I 0 W/m² 9,7 °C 10,6 °C 0,0 km/h (0 Bft)
13.08.2017 03:57 10,6 °C 10,6 °C 94 % 1020,1 hPa 0,0 mm 0,0 km/h (0 Bft) W 268 ° 0 min 0,000 mm 0,0 UV-I 0 W/m² 9,7 °C 10,6 °C 0,0 km/h (0 Bft)
13.08.2017 03:58 10,6 °C 10,6 °C 94 % 1020,2 hPa 0,0 mm 0,0 km/h (0 Bft) W 268 ° 0 min 0,000 mm 0,0 UV-I 0 W/m² 9,7 °C 10,6 °C 0,0 km/h (0 Bft)
13.08.2017 03:59 10,6 °C 10,6 °C 94 % 1020,2 hPa 0,0 mm 0,0 km/h (0 Bft) W 268 ° 0 min 0,000 mm 0,0 UV-I 0 W/m² 9,7 °C 10,6 °C 0,0 km/h (0 Bft)
13.08.2017 04:00 10,6 °C 10,6 °C 94 % 1020,3 hPa 0,0 mm 0,0 km/h (0 Bft) W 268 ° 0 min 0,000 mm 0,0 UV-I 0 W/m² 9,7 °C 10,6 °C 0,0 km/h (0 Bft)
13.08.2017 04:01 10,6 °C 10,6 °C 94 % 1020,3 hPa 0,0 mm 0,0 km/h (0 Bft) W 268 ° 0 min 0,000 mm 0,0 UV-I 0 W/m² 9,7 °C 10,6 °C 0,0 km/h (0 Bft)
13.08.2017 04:02 10,6 °C 10,6 °C 94 % 1020,3 hPa 0,0 mm 0,0 km/h (0 Bft) W 268 ° 0 min 0,000 mm 0,0 UV-I 0 W/m² 9,7 °C 10,6 °C 0,0 km/h (0 Bft)
13.08.2017 04:03 10,6 °C 10,6 °C 94 % 1020,3 hPa 0,0 mm 0,0 km/h (0 Bft) W 268 ° 0 min 0,000 mm 0,0 UV-I 0 W/m² 9,7 °C 10,6 °C 0,0 km/h (0 Bft)
13.08.2017 04:04 10,6 °C 10,6 °C 94 % 1020,3 hPa 0,0 mm 0,0 km/h (0 Bft) W 268 ° 0 min 0,000 mm 0,0 UV-I 0 W/m² 9,7 °C 10,6 °C 0,0 km/h (0 Bft)
13.08.2017 04:05 10,6 °C 10,6 °C 94 % 1020,2 hPa 0,0 mm 0,0 km/h (0 Bft) W 268 ° 0 min 0,000 mm 0,0 UV-I 0 W/m² 9,7 °C 10,6 °C 0,0 km/h (0 Bft)
13.08.2017 04:06 10,6 °C 10,6 °C 94 % 1020,3 hPa 0,0 mm 0,0 km/h (0 Bft) W 268 ° 0 min 0,000 mm 0,0 UV-I 0 W/m² 9,7 °C 10,6 °C 0,0 km/h (0 Bft)
13.08.2017 04:07 10,7 °C 10,7 °C 94 % 1020,3 hPa 0,0 mm 0,0 km/h (0 Bft) W 268 ° 0 min 0,000 mm 0,0 UV-I 0 W/m² 9,8 °C 10,7 °C 0,0 km/h (0 Bft)
13.08.2017 04:08 10,7 °C 10,7 °C 94 % 1020,3 hPa 0,0 mm 0,0 km/h (0 Bft) W 268 ° 0 min 0,000 mm 0,0 UV-I 0 W/m² 9,8 °C 10,7 °C 0,0 km/h (0 Bft)
13.08.2017 04:09 10,7 °C 10,7 °C 94 % 1020,4 hPa 0,0 mm 0,0 km/h (0 Bft) W 268 ° 0 min 0,000 mm 0,0 UV-I 0 W/m² 9,8 °C 10,7 °C 0,0 km/h (0 Bft)
13.08.2017 04:10 10,8 °C 10,8 °C 94 % 1020,3 hPa 0,0 mm 0,0 km/h (0 Bft) W 268 ° 0 min 0,000 mm 0,0 UV-I 0 W/m² 9,9 °C 10,8 °C 0,0 km/h (0 Bft)
13.08.2017 04:11 10,8 °C 10,8 °C 94 % 1020,3 hPa 0,0 mm 0,0 km/h (0 Bft) W 268 ° 0 min 0,000 mm 0,0 UV-I 0 W/m² 9,9 °C 10,8 °C 0,0 km/h (0 Bft)
13.08.2017 04:12 10,8 °C 10,8 °C 94 % 1020,3 hPa 0,0 mm 0,0 km/h (0 Bft) W 268 ° 0 min 0,000 mm 0,0 UV-I 0 W/m² 9,9 °C 10,8 °C 0,0 km/h (0 Bft)
13.08.2017 04:13 10,8 °C 10,8 °C 93 % 1020,3 hPa 0,0 mm 0,0 km/h (0 Bft) W 268 ° 0 min 0,000 mm 0,0 UV-I 0 W/m² 9,7 °C 10,8 °C 0,0 km/h (0 Bft)
13.08.2017 04:14 10,9 °C 10,9 °C 93 % 1020,3 hPa 0,0 mm 0,0 km/h (0 Bft) W 268 ° 0 min 0,000 mm 0,0 UV-I 0 W/m² 9,8 °C 10,9 °C 0,0 km/h (0 Bft)
13.08.2017 04:15 10,9 °C 10,9 °C 93 % 1020,3 hPa 0,0 mm 0,0 km/h (0 Bft) W 268 ° 0 min 0,000 mm 0,0 UV-I 0 W/m² 9,8 °C 10,9 °C 0,0 km/h (0 Bft)
13.08.2017 04:16 11,0 °C 11,0 °C 93 % 1020,3 hPa 0,0 mm 0,0 km/h (0 Bft) W 268 ° 0 min 0,000 mm 0,0 UV-I 0 W/m² 9,9 °C 11,0 °C 0,0 km/h (0 Bft)
13.08.2017 04:17 11,0 °C 11,0 °C 93 % 1020,3 hPa 0,0 mm 0,0 km/h (0 Bft) W 268 ° 0 min 0,000 mm 0,0 UV-I 0 W/m² 9,9 °C 11,0 °C 0,0 km/h (0 Bft)
13.08.2017 04:18 11,0 °C 11,0 °C 93 % 1020,3 hPa 0,0 mm 0,0 km/h (0 Bft) W 268 ° 0 min 0,000 mm 0,0 UV-I 0 W/m² 9,9 °C 11,0 °C 0,0 km/h (0 Bft)
13.08.2017 04:19 11,1 °C 11,1 °C 93 % 1020,3 hPa 0,0 mm 0,0 km/h (0 Bft) W 268 ° 0 min 0,000 mm 0,0 UV-I 0 W/m² 10,0 °C 11,1 °C 0,0 km/h (0 Bft)
13.08.2017 04:20 11,1 °C 11,1 °C 93 % 1020,3 hPa 0,0 mm 0,0 km/h (0 Bft) W 268 ° 0 min 0,000 mm 0,0 UV-I 0 W/m² 10,0 °C 11,1 °C 0,0 km/h (0 Bft)
13.08.2017 04:21 11,1 °C 11,1 °C 92 % 1020,3 hPa 0,0 mm 0,0 km/h (0 Bft) W 268 ° 0 min 0,000 mm 0,0 UV-I 0 W/m² 9,8 °C 11,1 °C 0,0 km/h (0 Bft)
13.08.2017 04:22 11,1 °C 11,1 °C 92 % 1020,3 hPa 0,0 mm 0,0 km/h (0 Bft) W 268 ° 0 min 0,000 mm 0,0 UV-I 0 W/m² 9,8 °C 11,1 °C 0,0 km/h (0 Bft)
13.08.2017 04:23 11,1 °C 11,1 °C 92 % 1020,3 hPa 0,0 mm 0,0 km/h (0 Bft) W 268 ° 0 min 0,000 mm 0,0 UV-I 0 W/m² 9,8 °C 11,1 °C 0,0 km/h (0 Bft)
13.08.2017 04:24 11,1 °C 11,1 °C 92 % 1020,3 hPa 0,0 mm 0,0 km/h (0 Bft) W 268 ° 0 min 0,000 mm 0,0 UV-I 0 W/m² 9,8 °C 11,1 °C 0,0 km/h (0 Bft)
13.08.2017 04:25 11,1 °C 11,1 °C 92 % 1020,3 hPa 0,0 mm 0,0 km/h (0 Bft) W 268 ° 0 min 0,000 mm 0,0 UV-I 0 W/m² 9,8 °C 11,1 °C 0,0 km/h (0 Bft)
13.08.2017 04:26 11,1 °C 11,1 °C 92 % 1020,3 hPa 0,0 mm 0,0 km/h (0 Bft) W 268 ° 0 min 0,000 mm 0,0 UV-I 0 W/m² 9,8 °C 11,1 °C 0,0 km/h (0 Bft)
13.08.2017 04:27 11,1 °C 11,1 °C 92 % 1020,3 hPa 0,0 mm 0,0 km/h (0 Bft) W 268 ° 0 min 0,000 mm 0,0 UV-I 0 W/m² 9,8 °C 11,1 °C 0,0 km/h (0 Bft)
13.08.2017 04:28 11,1 °C 11,1 °C 92 % 1020,3 hPa 0,0 mm 0,0 km/h (0 Bft) W 268 ° 0 min 0,000 mm 0,0 UV-I 0 W/m² 9,8 °C 11,1 °C 0,0 km/h (0 Bft)
13.08.2017 04:29 11,1 °C 11,1 °C 93 % 1020,2 hPa 0,0 mm 0,0 km/h (0 Bft) W 268 ° 0 min 0,000 mm 0,0 UV-I 0 W/m² 10,0 °C 11,1 °C 0,0 km/h (0 Bft)
13.08.2017 04:30 11,1 °C 11,1 °C 93 % 1020,3 hPa 0,0 mm 0,0 km/h (0 Bft) W 268 ° 0 min 0,000 mm 0,0 UV-I 0 W/m² 10,0 °C 11,1 °C 0,0 km/h (0 Bft)
13.08.2017 04:31 11,0 °C 11,1 °C 93 % 1020,2 hPa 0,0 mm 0,0 km/h (0 Bft) W 268 ° 0 min 0,000 mm 0,0 UV-I 0 W/m² 9,9 °C 11,0 °C 0,0 km/h (0 Bft)
13.08.2017 04:32 10,9 °C 11,0 °C 93 % 1020,1 hPa 0,0 mm 0,0 km/h (0 Bft) W 268 ° 0 min 0,000 mm 0,0 UV-I 0 W/m² 9,8 °C 10,9 °C 0,0 km/h (0 Bft)
13.08.2017 04:33 10,9 °C 11,0 °C 93 % 1020,2 hPa 0,0 mm 0,0 km/h (0 Bft) W 268 ° 0 min 0,000 mm 0,0 UV-I 0 W/m² 9,8 °C 10,9 °C 0,0 km/h (0 Bft)
13.08.2017 04:34 10,9 °C 10,9 °C 93 % 1020,3 hPa 0,0 mm 0,0 km/h (0 Bft) W 268 ° 0 min 0,000 mm 0,0 UV-I 0 W/m² 9,8 °C 10,9 °C 0,0 km/h (0 Bft)
13.08.2017 04:35 10,9 °C 10,9 °C 93 % 1020,2 hPa 0,0 mm 0,0 km/h (0 Bft) W 268 ° 0 min 0,000 mm 0,0 UV-I 0 W/m² 9,8 °C 10,9 °C 0,0 km/h (0 Bft)
13.08.2017 04:36 10,9 °C 10,9 °C 93 % 1020,3 hPa 0,0 mm 0,0 km/h (0 Bft) W 268 ° 0 min 0,000 mm 0,0 UV-I 0 W/m² 9,8 °C 10,9 °C 0,0 km/h (0 Bft)
13.08.2017 04:37 10,9 °C 10,9 °C 93 % 1020,3 hPa 0,0 mm 0,0 km/h (0 Bft) W 268 ° 0 min 0,000 mm 0,0 UV-I 0 W/m² 9,8 °C 10,9 °C 0,0 km/h (0 Bft)
13.08.2017 04:38 10,9 °C 10,9 °C 93 % 1020,3 hPa 0,0 mm 0,0 km/h (0 Bft) W 268 ° 0 min 0,000 mm 0,0 UV-I 0 W/m² 9,8 °C 10,9 °C 0,0 km/h (0 Bft)
13.08.2017 04:39 10,9 °C 10,9 °C 93 % 1020,2 hPa 0,0 mm 0,0 km/h (0 Bft) W 268 ° 0 min 0,000 mm 0,0 UV-I 0 W/m² 9,8 °C 10,9 °C 0,0 km/h (0 Bft)
13.08.2017 04:40 10,9 °C 10,9 °C 93 % 1020,2 hPa 0,0 mm 0,0 km/h (0 Bft) W 268 ° 0 min 0,000 mm 0,0 UV-I 0 W/m² 9,8 °C 10,9 °C 0,0 km/h (0 Bft)
13.08.2017 04:41 10,9 °C 10,9 °C 93 % 1020,3 hPa 0,0 mm 0,0 km/h (0 Bft) W 268 ° 0 min 0,000 mm 0,0 UV-I 0 W/m² 9,8 °C 10,9 °C 0,0 km/h (0 Bft)
13.08.2017 04:42 10,9 °C 10,9 °C 93 % 1020,3 hPa 0,0 mm 0,0 km/h (0 Bft) W 268 ° 0 min 0,000 mm 0,0 UV-I 0 W/m² 9,8 °C 10,9 °C 0,0 km/h (0 Bft)
13.08.2017 04:43 10,9 °C 10,9 °C 93 % 1020,3 hPa 0,0 mm 0,0 km/h (0 Bft) W 268 ° 0 min 0,000 mm 0,0 UV-I 0 W/m² 9,8 °C 10,9 °C 0,0 km/h (0 Bft)
13.08.2017 04:44 10,9 °C 11,0 °C 93 % 1020,2 hPa 0,0 mm 0,0 km/h (0 Bft) W 268 ° 0 min 0,000 mm 0,0 UV-I 0 W/m² 9,8 °C 10,9 °C 0,0 km/h (0 Bft)
13.08.2017 04:45 11,0 °C 11,0 °C 93 % 1020,2 hPa 0,0 mm 0,0 km/h (0 Bft) W 268 ° 0 min 0,000 mm 0,0 UV-I 0 W/m² 9,9 °C 11,0 °C 0,0 km/h (0 Bft)
13.08.2017 04:46 11,0 °C 11,0 °C 93 % 1020,2 hPa 0,0 mm 0,0 km/h (0 Bft) W 268 ° 0 min 0,000 mm 0,0 UV-I 0 W/m² 9,9 °C 11,0 °C 0,0 km/h (0 Bft)
13.08.2017 04:47 11,0 °C 11,0 °C 93 % 1020,3 hPa 0,0 mm 0,0 km/h (0 Bft) W 268 ° 0 min 0,000 mm 0,0 UV-I 0 W/m² 9,9 °C 11,0 °C 0,0 km/h (0 Bft)
13.08.2017 04:48 11,1 °C 11,1 °C 93 % 1020,3 hPa 0,0 mm 0,0 km/h (0 Bft) W 268 ° 0 min 0,000 mm 0,0 UV-I 0 W/m² 10,0 °C 11,1 °C 0,0 km/h (0 Bft)
13.08.2017 04:49 11,0 °C 11,1 °C 93 % 1020,3 hPa 0,0 mm 0,0 km/h (0 Bft) W 268 ° 0 min 0,000 mm 0,0 UV-I 0 W/m² 9,9 °C 11,0 °C 0,0 km/h (0 Bft)
13.08.2017 04:50 11,1 °C 11,1 °C 93 % 1020,3 hPa 0,0 mm 0,0 km/h (0 Bft) W 268 ° 0 min 0,000 mm 0,0 UV-I 0 W/m² 10,0 °C 11,1 °C 0,0 km/h (0 Bft)
13.08.2017 04:51 11,0 °C 11,1 °C 93 % 1020,3 hPa 0,0 mm 0,0 km/h (0 Bft) W 268 ° 0 min 0,000 mm 0,0 UV-I 0 W/m² 9,9 °C 11,0 °C 0,0 km/h (0 Bft)
13.08.2017 04:52 11,0 °C 11,0 °C 93 % 1020,3 hPa 0,0 mm 0,0 km/h (0 Bft) W 268 ° 0 min 0,000 mm 0,0 UV-I 0 W/m² 9,9 °C 11,0 °C 0,0 km/h (0 Bft)
13.08.2017 04:53 11,0 °C 11,0 °C 93 % 1020,3 hPa 0,0 mm 0,0 km/h (0 Bft) W 268 ° 0 min 0,000 mm 0,0 UV-I 0 W/m² 9,9 °C 11,0 °C 0,0 km/h (0 Bft)
13.08.2017 04:54 10,9 °C 11,0 °C 93 % 1020,3 hPa 0,0 mm 0,0 km/h (0 Bft) W 268 ° 0 min 0,000 mm 0,0 UV-I 0 W/m² 9,8 °C 10,9 °C 0,0 km/h (0 Bft)
13.08.2017 04:55 10,9 °C 10,9 °C 93 % 1020,3 hPa 0,0 mm 0,0 km/h (0 Bft) W 268 ° 0 min 0,000 mm 0,0 UV-I 0 W/m² 9,8 °C 10,9 °C 0,0 km/h (0 Bft)
13.08.2017 04:56 10,9 °C 10,9 °C 93 % 1020,3 hPa 0,0 mm 0,0 km/h (0 Bft) W 268 ° 0 min 0,000 mm 0,0 UV-I 0 W/m² 9,8 °C 10,9 °C 0,0 km/h (0 Bft)
13.08.2017 04:57 10,9 °C 10,9 °C 94 % 1020,3 hPa 0,0 mm 0,0 km/h (0 Bft) W 268 ° 0 min 0,000 mm 0,0 UV-I 0 W/m² 10,0 °C 10,9 °C 0,0 km/h (0 Bft)
13.08.2017 04:58 10,9 °C 10,9 °C 94 % 1020,4 hPa 0,0 mm 0,0 km/h (0 Bft) W 268 ° 0 min 0,000 mm 0,0 UV-I 0 W/m² 10,0 °C 10,9 °C 0,0 km/h (0 Bft)
13.08.2017 04:59 10,9 °C 10,9 °C 94 % 1020,3 hPa 0,0 mm 0,0 km/h (0 Bft) W 268 ° 0 min 0,000 mm 0,0 UV-I 0 W/m² 10,0 °C 10,9 °C 0,0 km/h (0 Bft)
13.08.2017 05:00 10,9 °C 10,9 °C 94 % 1020,4 hPa 0,0 mm 0,0 km/h (0 Bft) W 268 ° 0 min 0,000 mm 0,0 UV-I 0 W/m² 10,0 °C 10,9 °C 0,0 km/h (0 Bft)
13.08.2017 05:01 10,9 °C 10,9 °C 94 % 1020,4 hPa 0,0 mm 0,0 km/h (0 Bft) W 268 ° 0 min 0,000 mm 0,0 UV-I 0 W/m² 10,0 °C 10,9 °C 0,0 km/h (0 Bft)
13.08.2017 05:02 10,9 °C 10,9 °C 94 % 1020,4 hPa 0,0 mm 0,0 km/h (0 Bft) W 268 ° 0 min 0,000 mm 0,0 UV-I 0 W/m² 10,0 °C 10,9 °C 0,0 km/h (0 Bft)
13.08.2017 05:03 10,9 °C 10,9 °C 94 % 1020,4 hPa 0,0 mm 0,0 km/h (0 Bft) W 268 ° 0 min 0,000 mm 0,0 UV-I 0 W/m² 10,0 °C 10,9 °C 0,0 km/h (0 Bft)
13.08.2017 05:04 10,9 °C 10,9 °C 94 % 1020,4 hPa 0,0 mm 0,0 km/h (0 Bft) W 268 ° 0 min 0,000 mm 0,0 UV-I 0 W/m² 10,0 °C 10,9 °C 0,0 km/h (0 Bft)
13.08.2017 05:05 10,9 °C 10,9 °C 94 % 1020,4 hPa 0,0 mm 0,0 km/h (0 Bft) W 268 ° 0 min 0,000 mm 0,0 UV-I 0 W/m² 10,0 °C 10,9 °C 0,0 km/h (0 Bft)
13.08.2017 05:06 10,9 °C 10,9 °C 94 % 1020,3 hPa 0,0 mm 0,0 km/h (0 Bft) W 268 ° 0 min 0,000 mm 0,0 UV-I 0 W/m² 10,0 °C 10,9 °C 0,0 km/h (0 Bft)
13.08.2017 05:07 10,9 °C 10,9 °C 94 % 1020,4 hPa 0,0 mm 0,0 km/h (0 Bft) W 268 ° 0 min 0,000 mm 0,0 UV-I 0 W/m² 10,0 °C 10,9 °C 0,0 km/h (0 Bft)
13.08.2017 05:08 10,9 °C 10,9 °C 94 % 1020,3 hPa 0,0 mm 0,0 km/h (0 Bft) W 268 ° 0 min 0,000 mm 0,0 UV-I 0 W/m² 10,0 °C 10,9 °C 0,0 km/h (0 Bft)
13.08.2017 05:09 10,9 °C 10,9 °C 94 % 1020,4 hPa 0,0 mm 0,0 km/h (0 Bft) W 268 ° 0 min 0,000 mm 0,0 UV-I 0 W/m² 10,0 °C 10,9 °C 0,0 km/h (0 Bft)
13.08.2017 05:10 10,9 °C 11,0 °C 94 % 1020,4 hPa 0,0 mm 0,0 km/h (0 Bft) W 268 ° 0 min 0,000 mm 0,0 UV-I 0 W/m² 10,0 °C 10,9 °C 0,0 km/h (0 Bft)
13.08.2017 05:11 11,0 °C 11,0 °C 94 % 1020,4 hPa 0,0 mm 0,0 km/h (0 Bft) W 268 ° 0 min 0,000 mm 0,0 UV-I 0 W/m² 10,1 °C 11,0 °C 0,0 km/h (0 Bft)
13.08.2017 05:12 11,0 °C 11,0 °C 94 % 1020,4 hPa 0,0 mm 0,0 km/h (0 Bft) W 268 ° 0 min 0,000 mm 0,0 UV-I 0 W/m² 10,1 °C 11,0 °C 0,0 km/h (0 Bft)
13.08.2017 05:13 11,0 °C 11,0 °C 94 % 1020,3 hPa 0,0 mm 0,0 km/h (0 Bft) W 268 ° 0 min 0,000 mm 0,0 UV-I 0 W/m² 10,1 °C 11,0 °C 0,0 km/h (0 Bft)
13.08.2017 05:14 11,0 °C 11,0 °C 94 % 1020,4 hPa 0,0 mm 0,0 km/h (0 Bft) W 268 ° 0 min 0,000 mm 0,0 UV-I 0 W/m² 10,1 °C 11,0 °C 0,0 km/h (0 Bft)
13.08.2017 05:15 11,0 °C 11,0 °C 93 % 1020,4 hPa 0,0 mm 0,0 km/h (0 Bft) W 268 ° 0 min 0,000 mm 0,0 UV-I 0 W/m² 9,9 °C 11,0 °C 0,0 km/h (0 Bft)
13.08.2017 05:16 11,0 °C 11,0 °C 93 % 1020,4 hPa 0,0 mm 0,0 km/h (0 Bft) W 268 ° 0 min 0,000 mm 0,0 UV-I 0 W/m² 9,9 °C 11,0 °C 0,0 km/h (0 Bft)
13.08.2017 05:17 11,0 °C 11,0 °C 93 % 1020,4 hPa 0,0 mm 0,0 km/h (0 Bft) W 268 ° 0 min 0,000 mm 0,0 UV-I 0 W/m² 9,9 °C 11,0 °C 0,0 km/h (0 Bft)
13.08.2017 05:18 11,1 °C 11,1 °C 93 % 1020,4 hPa 0,0 mm 1,5 km/h (1 Bft) W 268 ° 0 min 0,000 mm 0,0 UV-I 0 W/m² 10,0 °C 11,1 °C 4,8 km/h (1 Bft)
13.08.2017 05:19 11,1 °C 11,1 °C 93 % 1020,4 hPa 0,0 mm 0,0 km/h (0 Bft) W 268 ° 0 min 0,000 mm 0,0 UV-I 0 W/m² 10,0 °C 11,1 °C 0,0 km/h (0 Bft)
13.08.2017 05:20 11,1 °C 11,1 °C 93 % 1020,4 hPa 0,0 mm 1,5 km/h (1 Bft) W 268 ° 0 min 0,000 mm 0,0 UV-I 0 W/m² 10,0 °C 11,1 °C 4,8 km/h (1 Bft)
13.08.2017 05:21 11,0 °C 11,1 °C 93 % 1020,4 hPa 0,0 mm 1,6 km/h (1 Bft) W 268 ° 0 min 0,000 mm 0,0 UV-I 0 W/m² 9,9 °C 11,0 °C 3,2 km/h (1 Bft)
13.08.2017 05:22 11,1 °C 11,1 °C 93 % 1020,4 hPa 0,0 mm 0,4 km/h (0 Bft) W 268 ° 0 min 0,000 mm 0,0 UV-I 0 W/m² 10,0 °C 11,1 °C 3,2 km/h (1 Bft)
13.08.2017 05:23 11,1 °C 11,1 °C 93 % 1020,4 hPa 0,0 mm 0,4 km/h (0 Bft) W 268 ° 0 min 0,000 mm 0,0 UV-I 0 W/m² 10,0 °C 11,1 °C 1,6 km/h (1 Bft)
13.08.2017 05:24 11,1 °C 11,1 °C 93 % 1020,4 hPa 0,0 mm 0,0 km/h (0 Bft) W 268 ° 0 min 0,000 mm 0,0 UV-I 0 W/m² 10,0 °C 11,1 °C 0,0 km/h (0 Bft)
13.08.2017 05:25 11,1 °C 11,1 °C 93 % 1020,4 hPa 0,0 mm 0,2 km/h (0 Bft) W 268 ° 0 min 0,000 mm 0,0 UV-I 0 W/m² 10,0 °C 11,1 °C 1,6 km/h (1 Bft)
13.08.2017 05:26 11,1 °C 11,1 °C 93 % 1020,4 hPa 0,0 mm 2,2 km/h (1 Bft) W 268 ° 0 min 0,000 mm 0,0 UV-I 0 W/m² 10,0 °C 11,1 °C 3,2 km/h (1 Bft)
13.08.2017 05:27 11,1 °C 11,1 °C 93 % 1020,4 hPa 0,0 mm 0,0 km/h (0 Bft) W 268 ° 0 min 0,000 mm 0,0 UV-I 0 W/m² 10,0 °C 11,1 °C 0,0 km/h (0 Bft)
13.08.2017 05:28 11,1 °C 11,1 °C 93 % 1020,5 hPa 0,0 mm 0,0 km/h (0 Bft) W 268 ° 0 min 0,000 mm 0,0 UV-I 0 W/m² 10,0 °C 11,1 °C 0,0 km/h (0 Bft)
13.08.2017 05:29 11,1 °C 11,1 °C 93 % 1020,5 hPa 0,0 mm 0,0 km/h (0 Bft) W 268 ° 0 min 0,000 mm 0,0 UV-I 0 W/m² 10,0 °C 11,1 °C 0,0 km/h (0 Bft)
13.08.2017 05:30 11,1 °C 11,1 °C 93 % 1020,4 hPa 0,0 mm 0,0 km/h (0 Bft) W 268 ° 0 min 0,000 mm 0,0 UV-I 0 W/m² 10,0 °C 11,1 °C 0,0 km/h (0 Bft)
13.08.2017 05:31 11,0 °C 11,1 °C 93 % 1020,5 hPa 0,0 mm 0,0 km/h (0 Bft) W 268 ° 0 min 0,000 mm 0,0 UV-I 0 W/m² 9,9 °C 11,0 °C 0,0 km/h (0 Bft)
13.08.2017 05:32 11,1 °C 11,1 °C 93 % 1020,4 hPa 0,0 mm 0,0 km/h (0 Bft) W 268 ° 0 min 0,000 mm 0,0 UV-I 0 W/m² 10,0 °C 11,1 °C 0,0 km/h (0 Bft)
13.08.2017 05:33 11,0 °C 11,1 °C 93 % 1020,4 hPa 0,0 mm 0,0 km/h (0 Bft) W 268 ° 0 min 0,000 mm 0,0 UV-I 0 W/m² 9,9 °C 11,0 °C 0,0 km/h (0 Bft)
13.08.2017 05:34 11,0 °C 11,1 °C 93 % 1020,4 hPa 0,0 mm 0,0 km/h (0 Bft) W 268 ° 0 min 0,000 mm 0,0 UV-I 0 W/m² 9,9 °C 11,0 °C 0,0 km/h (0 Bft)
13.08.2017 05:35 11,0 °C 11,0 °C 93 % 1020,4 hPa 0,0 mm 0,0 km/h (0 Bft) W 268 ° 0 min 0,000 mm 0,0 UV-I 0 W/m² 9,9 °C 11,0 °C 0,0 km/h (0 Bft)
13.08.2017 05:36 11,0 °C 11,0 °C 93 % 1020,4 hPa 0,0 mm 0,0 km/h (0 Bft) W 268 ° 0 min 0,000 mm 0,0 UV-I 0 W/m² 9,9 °C 11,0 °C 0,0 km/h (0 Bft)
13.08.2017 05:37 11,0 °C 11,1 °C 93 % 1020,5 hPa 0,0 mm 0,0 km/h (0 Bft) W 268 ° 0 min 0,000 mm 0,0 UV-I 0 W/m² 9,9 °C 11,0 °C 0,0 km/h (0 Bft)
13.08.2017 05:38 11,0 °C 11,0 °C 93 % 1020,5 hPa 0,0 mm 0,0 km/h (0 Bft) W 268 ° 0 min 0,000 mm 0,0 UV-I 0 W/m² 9,9 °C 11,0 °C 0,0 km/h (0 Bft)
13.08.2017 05:39 11,0 °C 11,0 °C 93 % 1020,5 hPa 0,0 mm 0,0 km/h (0 Bft) W 268 ° 0 min 0,000 mm 0,0 UV-I 0 W/m² 9,9 °C 11,0 °C 0,0 km/h (0 Bft)
13.08.2017 05:40 11,0 °C 11,1 °C 93 % 1020,5 hPa 0,0 mm 0,0 km/h (0 Bft) W 268 ° 0 min 0,000 mm 0,0 UV-I 0 W/m² 9,9 °C 11,0 °C 0,0 km/h (0 Bft)
13.08.2017 05:41 11,1 °C 11,1 °C 93 % 1020,5 hPa 0,0 mm 0,3 km/h (0 Bft) W 268 ° 0 min 0,000 mm 0,0 UV-I 0 W/m² 10,0 °C 11,1 °C 1,6 km/h (1 Bft)
13.08.2017 05:42 11,1 °C 11,1 °C 93 % 1020,5 hPa 0,0 mm 0,0 km/h (0 Bft) W 268 ° 0 min 0,000 mm 0,0 UV-I 0 W/m² 10,0 °C 11,1 °C 0,0 km/h (0 Bft)
13.08.2017 05:43 11,1 °C 11,1 °C 94 % 1020,4 hPa 0,0 mm 0,0 km/h (0 Bft) W 268 ° 0 min 0,000 mm 0,0 UV-I 0 W/m² 10,2 °C 11,1 °C 0,0 km/h (0 Bft)
13.08.2017 05:44 11,1 °C 11,1 °C 94 % 1020,5 hPa 0,0 mm 0,0 km/h (0 Bft) W 268 ° 0 min 0,000 mm 0,0 UV-I 0 W/m² 10,2 °C 11,1 °C 0,0 km/h (0 Bft)
13.08.2017 05:45 11,1 °C 11,1 °C 94 % 1020,5 hPa 0,0 mm 0,0 km/h (0 Bft) W 268 ° 0 min 0,000 mm 0,0 UV-I 0 W/m² 10,2 °C 11,1 °C 0,0 km/h (0 Bft)
13.08.2017 05:46 11,1 °C 11,1 °C 94 % 1020,5 hPa 0,0 mm 0,0 km/h (0 Bft) W 268 ° 0 min 0,000 mm 0,0 UV-I 0 W/m² 10,2 °C 11,1 °C 0,0 km/h (0 Bft)
13.08.2017 05:47 11,1 °C 11,1 °C 93 % 1020,5 hPa 0,0 mm 0,0 km/h (0 Bft) W 268 ° 0 min 0,000 mm 0,0 UV-I 0 W/m² 10,0 °C 11,1 °C 0,0 km/h (0 Bft)
13.08.2017 05:48 11,1 °C 11,1 °C 93 % 1020,5 hPa 0,0 mm 0,0 km/h (0 Bft) W 268 ° 0 min 0,000 mm 0,0 UV-I 0 W/m² 10,0 °C 11,1 °C 0,0 km/h (0 Bft)
13.08.2017 05:49 11,1 °C 11,1 °C 94 % 1020,5 hPa 0,0 mm 0,0 km/h (0 Bft) W 268 ° 0 min 0,000 mm 0,0 UV-I 0 W/m² 10,2 °C 11,1 °C 0,0 km/h (0 Bft)
13.08.2017 05:50 11,2 °C 11,2 °C 94 % 1020,6 hPa 0,0 mm 0,0 km/h (0 Bft) W 268 ° 0 min 0,000 mm 0,0 UV-I 0 W/m² 10,3 °C 11,2 °C 0,0 km/h (0 Bft)
13.08.2017 05:51 11,2 °C 11,2 °C 94 % 1020,5 hPa 0,0 mm 0,0 km/h (0 Bft) W 268 ° 0 min 0,000 mm 0,0 UV-I 0 W/m² 10,3 °C 11,2 °C 0,0 km/h (0 Bft)
13.08.2017 05:52 11,2 °C 11,2 °C 93 % 1020,6 hPa 0,0 mm 0,0 km/h (0 Bft) W 268 ° 0 min 0,000 mm 0,0 UV-I 0 W/m² 10,1 °C 11,2 °C 0,0 km/h (0 Bft)
13.08.2017 05:53 11,1 °C 11,2 °C 93 % 1020,6 hPa 0,0 mm 0,0 km/h (0 Bft) W 268 ° 0 min 0,000 mm 0,0 UV-I 0 W/m² 10,0 °C 11,1 °C 0,0 km/h (0 Bft)
13.08.2017 05:54 11,1 °C 11,1 °C 93 % 1020,6 hPa 0,0 mm 0,0 km/h (0 Bft) W 268 ° 0 min 0,000 mm 0,0 UV-I 0 W/m² 10,0 °C 11,1 °C 0,0 km/h (0 Bft)
13.08.2017 05:55 11,1 °C 11,1 °C 93 % 1020,6 hPa 0,0 mm 0,0 km/h (0 Bft) W 268 ° 0 min 0,000 mm 0,0 UV-I 0 W/m² 10,0 °C 11,1 °C 0,0 km/h (0 Bft)
13.08.2017 05:56 11,1 °C 11,2 °C 94 % 1020,6 hPa 0,0 mm 0,0 km/h (0 Bft) W 268 ° 0 min 0,000 mm 0,0 UV-I 0 W/m² 10,2 °C 11,1 °C 0,0 km/h (0 Bft)
13.08.2017 05:57 11,2 °C 11,2 °C 94 % 1020,6 hPa 0,0 mm 0,0 km/h (0 Bft) W 268 ° 0 min 0,000 mm 0,0 UV-I 0 W/m² 10,3 °C 11,2 °C 0,0 km/h (0 Bft)
13.08.2017 05:58 11,2 °C 11,2 °C 94 % 1020,6 hPa 0,0 mm 0,0 km/h (0 Bft) W 268 ° 0 min 0,000 mm 0,0 UV-I 0 W/m² 10,3 °C 11,2 °C 0,0 km/h (0 Bft)
13.08.2017 05:59 11,2 °C 11,2 °C 93 % 1020,7 hPa 0,0 mm 0,0 km/h (0 Bft) W 268 ° 0 min 0,000 mm 0,0 UV-I 0 W/m² 10,1 °C 11,2 °C 0,0 km/h (0 Bft)
13.08.2017 06:00 11,2 °C 11,2 °C 93 % 1020,6 hPa 0,0 mm 0,0 km/h (0 Bft) W 268 ° 0 min 0,000 mm 0,0 UV-I 0 W/m² 10,1 °C 11,2 °C 0,0 km/h (0 Bft)
13.08.2017 06:01 11,2 °C 11,2 °C 93 % 1020,6 hPa 0,0 mm 0,0 km/h (0 Bft) W 268 ° 0 min 0,000 mm 0,0 UV-I 0 W/m² 10,1 °C 11,2 °C 0,0 km/h (0 Bft)
13.08.2017 06:02 11,3 °C 11,3 °C 93 % 1020,6 hPa 0,0 mm 0,0 km/h (0 Bft) W 268 ° 0 min 0,000 mm 0,0 UV-I 0 W/m² 10,2 °C 11,3 °C 0,0 km/h (0 Bft)
13.08.2017 06:03 11,3 °C 11,3 °C 93 % 1020,6 hPa 0,0 mm 0,0 km/h (0 Bft) W 268 ° 0 min 0,000 mm 0,0 UV-I 0 W/m² 10,2 °C 11,3 °C 0,0 km/h (0 Bft)
13.08.2017 06:04 11,3 °C 11,3 °C 93 % 1020,6 hPa 0,0 mm 0,0 km/h (0 Bft) W 268 ° 0 min 0,000 mm 0,0 UV-I 0 W/m² 10,2 °C 11,3 °C 0,0 km/h (0 Bft)
13.08.2017 06:05 11,3 °C 11,3 °C 93 % 1020,6 hPa 0,0 mm 0,0 km/h (0 Bft) W 268 ° 0 min 0,000 mm 0,0 UV-I 0 W/m² 10,2 °C 11,3 °C 0,0 km/h (0 Bft)
13.08.2017 06:06 11,3 °C 11,3 °C 93 % 1020,5 hPa 0,0 mm 0,0 km/h (0 Bft) W 268 ° 0 min 0,000 mm 0,0 UV-I 0 W/m² 10,2 °C 11,3 °C 0,0 km/h (0 Bft)
13.08.2017 06:07 11,3 °C 11,3 °C 93 % 1020,5 hPa 0,0 mm 0,0 km/h (0 Bft) W 268 ° 0 min 0,000 mm 0,0 UV-I 0 W/m² 10,2 °C 11,3 °C 0,0 km/h (0 Bft)
13.08.2017 06:08 11,3 °C 11,3 °C 93 % 1020,6 hPa 0,0 mm 0,0 km/h (0 Bft) W 268 ° 0 min 0,000 mm 0,0 UV-I 0 W/m² 10,2 °C 11,3 °C 0,0 km/h (0 Bft)
13.08.2017 06:09 11,3 °C 11,3 °C 93 % 1020,6 hPa 0,0 mm 0,0 km/h (0 Bft) W 268 ° 0 min 0,000 mm 0,0 UV-I 0 W/m² 10,2 °C 11,3 °C 0,0 km/h (0 Bft)
13.08.2017 06:10 11,3 °C 11,3 °C 93 % 1020,5 hPa 0,0 mm 0,0 km/h (0 Bft) W 268 ° 0 min 0,000 mm 0,0 UV-I 0 W/m² 10,2 °C 11,3 °C 0,0 km/h (0 Bft)
13.08.2017 06:11 11,3 °C 11,3 °C 93 % 1020,5 hPa 0,0 mm 0,0 km/h (0 Bft) W 268 ° 0 min 0,000 mm 0,0 UV-I 0 W/m² 10,2 °C 11,3 °C 0,0 km/h (0 Bft)
13.08.2017 06:12 11,2 °C 11,3 °C 93 % 1020,6 hPa 0,0 mm 0,0 km/h (0 Bft) W 268 ° 0 min 0,000 mm 0,0 UV-I 0 W/m² 10,1 °C 11,2 °C 0,0 km/h (0 Bft)
13.08.2017 06:13 11,3 °C 11,3 °C 93 % 1020,6 hPa 0,0 mm 0,0 km/h (0 Bft) W 268 ° 0 min 0,000 mm 0,0 UV-I 0 W/m² 10,2 °C 11,3 °C 0,0 km/h (0 Bft)
13.08.2017 06:14 11,2 °C 11,3 °C 93 % 1020,6 hPa 0,0 mm 0,0 km/h (0 Bft) W 268 ° 0 min 0,000 mm 0,0 UV-I 0 W/m² 10,1 °C 11,2 °C 0,0 km/h (0 Bft)
13.08.2017 06:15 11,2 °C 11,3 °C 93 % 1020,6 hPa 0,0 mm 0,0 km/h (0 Bft) W 268 ° 0 min 0,000 mm 0,0 UV-I 0 W/m² 10,1 °C 11,2 °C 0,0 km/h (0 Bft)
13.08.2017 06:16 11,2 °C 11,3 °C 93 % 1020,6 hPa 0,0 mm 0,0 km/h (0 Bft) W 268 ° 0 min 0,000 mm 0,0 UV-I 0 W/m² 10,1 °C 11,2 °C 0,0 km/h (0 Bft)
13.08.2017 06:17 11,2 °C 11,3 °C 93 % 1020,6 hPa 0,0 mm 0,0 km/h (0 Bft) W 268 ° 0 min 0,000 mm 0,0 UV-I 0 W/m² 10,1 °C 11,2 °C 0,0 km/h (0 Bft)
13.08.2017 06:18 11,3 °C 11,3 °C 93 % 1020,6 hPa 0,0 mm 0,0 km/h (0 Bft) W 268 ° 0 min 0,000 mm 0,0 UV-I 0 W/m² 10,2 °C 11,3 °C 0,0 km/h (0 Bft)
13.08.2017 06:19 11,3 °C 11,3 °C 93 % 1020,6 hPa 0,0 mm 0,0 km/h (0 Bft) W 268 ° 0 min 0,000 mm 0,0 UV-I 0 W/m² 10,2 °C 11,3 °C 0,0 km/h (0 Bft)
13.08.2017 06:20 11,2 °C 11,3 °C 93 % 1020,6 hPa 0,0 mm 0,0 km/h (0 Bft) W 268 ° 0 min 0,000 mm 0,0 UV-I 0 W/m² 10,1 °C 11,2 °C 0,0 km/h (0 Bft)
13.08.2017 06:21 11,2 °C 11,3 °C 93 % 1020,6 hPa 0,0 mm 0,0 km/h (0 Bft) W 268 ° 0 min 0,000 mm 0,0 UV-I 0 W/m² 10,1 °C 11,2 °C 0,0 km/h (0 Bft)
13.08.2017 06:22 11,2 °C 11,2 °C 93 % 1020,6 hPa 0,0 mm 0,0 km/h (0 Bft) W 268 ° 0 min 0,000 mm 0,0 UV-I 0 W/m² 10,1 °C 11,2 °C 0,0 km/h (0 Bft)
13.08.2017 06:23 11,2 °C 11,2 °C 93 % 1020,6 hPa 0,0 mm 0,0 km/h (0 Bft) W 268 ° 0 min 0,000 mm 0,0 UV-I 0 W/m² 10,1 °C 11,2 °C 0,0 km/h (0 Bft)
13.08.2017 06:24 11,2 °C 11,3 °C 93 % 1020,6 hPa 0,0 mm 0,0 km/h (0 Bft) W 268 ° 0 min 0,000 mm 0,0 UV-I 0 W/m² 10,1 °C 11,2 °C 0,0 km/h (0 Bft)
13.08.2017 06:25 11,3 °C 11,3 °C 93 % 1020,6 hPa 0,0 mm 0,0 km/h (0 Bft) W 268 ° 0 min 0,000 mm 0,0 UV-I 0 W/m² 10,2 °C 11,3 °C 0,0 km/h (0 Bft)
13.08.2017 06:26 11,3 °C 11,3 °C 93 % 1020,5 hPa 0,0 mm 0,0 km/h (0 Bft) W 268 ° 0 min 0,000 mm 0,0 UV-I 5 W/m² 10,2 °C 11,3 °C 0,0 km/h (0 Bft)
13.08.2017 06:27 11,2 °C 11,3 °C 93 % 1020,5 hPa 0,0 mm 0,0 km/h (0 Bft) W 268 ° 0 min 0,000 mm 0,0 UV-I 5 W/m² 10,1 °C 11,2 °C 0,0 km/h (0 Bft)
13.08.2017 06:28 11,3 °C 11,3 °C 93 % 1020,6 hPa 0,0 mm 0,0 km/h (0 Bft) W 268 ° 0 min 0,000 mm 0,0 UV-I 5 W/m² 10,2 °C 11,3 °C 0,0 km/h (0 Bft)
13.08.2017 06:29 11,3 °C 11,3 °C 93 % 1020,6 hPa 0,0 mm 0,0 km/h (0 Bft) W 268 ° 0 min 0,000 mm 0,0 UV-I 7 W/m² 10,2 °C 11,3 °C 0,0 km/h (0 Bft)
13.08.2017 06:30 11,3 °C 11,3 °C 93 % 1020,6 hPa 0,0 mm 0,0 km/h (0 Bft) W 268 ° 0 min 0,000 mm 0,0 UV-I 7 W/m² 10,2 °C 11,3 °C 0,0 km/h (0 Bft)
13.08.2017 06:31 11,3 °C 11,3 °C 93 % 1020,6 hPa 0,0 mm 0,0 km/h (0 Bft) W 268 ° 0 min 0,000 mm 0,0 UV-I 7 W/m² 10,2 °C 11,3 °C 0,0 km/h (0 Bft)
13.08.2017 06:32 11,3 °C 11,3 °C 93 % 1020,6 hPa 0,0 mm 0,0 km/h (0 Bft) W 268 ° 0 min 0,000 mm 0,0 UV-I 9 W/m² 10,2 °C 11,3 °C 0,0 km/h (0 Bft)
13.08.2017 06:33 11,3 °C 11,3 °C 93 % 1020,6 hPa 0,0 mm 0,0 km/h (0 Bft) W 268 ° 0 min 0,000 mm 0,0 UV-I 9 W/m² 10,2 °C 11,3 °C 0,0 km/h (0 Bft)
13.08.2017 06:34 11,3 °C 11,3 °C 93 % 1020,6 hPa 0,0 mm 0,0 km/h (0 Bft) W 268 ° 0 min 0,000 mm 0,0 UV-I 11 W/m² 10,2 °C 11,3 °C 0,0 km/h (0 Bft)
13.08.2017 06:35 11,3 °C 11,3 °C 93 % 1020,6 hPa 0,0 mm 0,0 km/h (0 Bft) W 268 ° 0 min 0,000 mm 0,0 UV-I 11 W/m² 10,2 °C 11,3 °C 0,0 km/h (0 Bft)
13.08.2017 06:36 11,3 °C 11,3 °C 93 % 1020,6 hPa 0,0 mm 0,0 km/h (0 Bft) W 268 ° 0 min 0,000 mm 0,0 UV-I 11 W/m² 10,2 °C 11,3 °C 0,0 km/h (0 Bft)
13.08.2017 06:37 11,3 °C 11,3 °C 93 % 1020,6 hPa 0,0 mm 0,0 km/h (0 Bft) W 268 ° 0 min 0,000 mm 0,0 UV-I 12 W/m² 10,2 °C 11,3 °C 0,0 km/h (0 Bft)
13.08.2017 06:38 11,3 °C 11,3 °C 93 % 1020,6 hPa 0,0 mm 0,0 km/h (0 Bft) W 268 ° 0 min 0,000 mm 0,0 UV-I 12 W/m² 10,2 °C 11,3 °C 0,0 km/h (0 Bft)
13.08.2017 06:39 11,3 °C 11,3 °C 93 % 1020,6 hPa 0,0 mm 0,0 km/h (0 Bft) W 268 ° 0 min 0,000 mm 0,0 UV-I 12 W/m² 10,2 °C 11,3 °C 0,0 km/h (0 Bft)
13.08.2017 06:40 11,3 °C 11,3 °C 93 % 1020,6 hPa 0,0 mm 0,0 km/h (0 Bft) W 268 ° 0 min 0,000 mm 0,0 UV-I 12 W/m² 10,2 °C 11,3 °C 0,0 km/h (0 Bft)
13.08.2017 06:41 11,3 °C 11,3 °C 93 % 1020,6 hPa 0,0 mm 0,0 km/h (0 Bft) W 268 ° 0 min 0,000 mm 0,0 UV-I 12 W/m² 10,2 °C 11,3 °C 0,0 km/h (0 Bft)
13.08.2017 06:42 11,3 °C 11,3 °C 93 % 1020,6 hPa 0,0 mm 0,0 km/h (0 Bft) W 268 ° 0 min 0,000 mm 0,0 UV-I 14 W/m² 10,2 °C 11,3 °C 0,0 km/h (0 Bft)
13.08.2017 06:43 11,3 °C 11,3 °C 93 % 1020,5 hPa 0,0 mm 0,0 km/h (0 Bft) W 268 ° 0 min 0,000 mm 0,0 UV-I 14 W/m² 10,2 °C 11,3 °C 0,0 km/h (0 Bft)
13.08.2017 06:44 11,3 °C 11,3 °C 93 % 1020,5 hPa 0,0 mm 0,0 km/h (0 Bft) W 268 ° 0 min 0,000 mm 0,0 UV-I 14 W/m² 10,2 °C 11,3 °C 0,0 km/h (0 Bft)
13.08.2017 06:45 11,3 °C 11,3 °C 93 % 1020,6 hPa 0,0 mm 0,0 km/h (0 Bft) W 268 ° 0 min 0,000 mm 0,0 UV-I 14 W/m² 10,2 °C 11,3 °C 0,0 km/h (0 Bft)
13.08.2017 06:46 11,3 °C 11,3 °C 93 % 1020,6 hPa 0,0 mm 0,0 km/h (0 Bft) W 268 ° 0 min 0,000 mm 0,0 UV-I 16 W/m² 10,2 °C 11,3 °C 0,0 km/h (0 Bft)
13.08.2017 06:47 11,3 °C 11,3 °C 93 % 1020,6 hPa 0,0 mm 0,0 km/h (0 Bft) W 268 ° 0 min 0,000 mm 0,0 UV-I 16 W/m² 10,2 °C 11,3 °C 0,0 km/h (0 Bft)
13.08.2017 06:48 11,3 °C 11,3 °C 93 % 1020,6 hPa 0,0 mm 0,0 km/h (0 Bft) W 268 ° 0 min 0,000 mm 0,0 UV-I 18 W/m² 10,2 °C 11,3 °C 0,0 km/h (0 Bft)
13.08.2017 06:49 11,3 °C 11,3 °C 93 % 1020,6 hPa 0,0 mm 0,0 km/h (0 Bft) W 268 ° 0 min 0,000 mm 0,0 UV-I 18 W/m² 10,2 °C 11,3 °C 0,0 km/h (0 Bft)
13.08.2017 06:50 11,3 °C 11,3 °C 93 % 1020,6 hPa 0,0 mm 0,0 km/h (0 Bft) W 268 ° 0 min 0,000 mm 0,0 UV-I 19 W/m² 10,2 °C 11,3 °C 0,0 km/h (0 Bft)
13.08.2017 06:51 11,3 °C 11,4 °C 93 % 1020,6 hPa 0,0 mm 0,0 km/h (0 Bft) W 268 ° 0 min 0,000 mm 0,0 UV-I 19 W/m² 10,2 °C 11,3 °C 0,0 km/h (0 Bft)
13.08.2017 06:52 11,3 °C 11,4 °C 93 % 1020,6 hPa 0,0 mm 0,0 km/h (0 Bft) W 268 ° 0 min 0,000 mm 0,0 UV-I 19 W/m² 10,2 °C 11,3 °C 0,0 km/h (0 Bft)
13.08.2017 06:53 11,4 °C 11,4 °C 93 % 1020,6 hPa 0,0 mm 0,0 km/h (0 Bft) W 268 ° 0 min 0,000 mm 0,0 UV-I 19 W/m² 10,3 °C 11,4 °C 0,0 km/h (0 Bft)
13.08.2017 06:54 11,4 °C 11,4 °C 93 % 1020,6 hPa 0,0 mm 0,0 km/h (0 Bft) W 268 ° 0 min 0,000 mm 0,0 UV-I 19 W/m² 10,3 °C 11,4 °C 0,0 km/h (0 Bft)
13.08.2017 06:55 11,4 °C 11,4 °C 93 % 1020,6 hPa 0,0 mm 0,0 km/h (0 Bft) W 268 ° 0 min 0,000 mm 0,0 UV-I 19 W/m² 10,3 °C 11,4 °C 0,0 km/h (0 Bft)
13.08.2017 06:56 11,4 °C 11,4 °C 93 % 1020,6 hPa 0,0 mm 0,0 km/h (0 Bft) W 268 ° 0 min 0,000 mm 0,0 UV-I 21 W/m² 10,3 °C 11,4 °C 0,0 km/h (0 Bft)
13.08.2017 06:57 11,4 °C 11,4 °C 93 % 1020,6 hPa 0,0 mm 0,0 km/h (0 Bft) W 268 ° 0 min 0,000 mm 0,0 UV-I 23 W/m² 10,3 °C 11,4 °C 0,0 km/h (0 Bft)
13.08.2017 06:58 11,4 °C 11,4 °C 93 % 1020,5 hPa 0,0 mm 0,0 km/h (0 Bft) W 268 ° 0 min 0,000 mm 0,0 UV-I 25 W/m² 10,3 °C 11,4 °C 0,0 km/h (0 Bft)
13.08.2017 06:59 11,4 °C 11,4 °C 93 % 1020,5 hPa 0,0 mm 0,0 km/h (0 Bft) W 268 ° 0 min 0,000 mm 0,0 UV-I 25 W/m² 10,3 °C 11,4 °C 0,0 km/h (0 Bft)
13.08.2017 07:00 11,4 °C 11,4 °C 93 % 1020,5 hPa 0,0 mm 0,0 km/h (0 Bft) W 268 ° 0 min 0,000 mm 0,0 UV-I 26 W/m² 10,3 °C 11,4 °C 0,0 km/h (0 Bft)
13.08.2017 07:01 11,4 °C 11,4 °C 93 % 1020,6 hPa 0,0 mm 0,0 km/h (0 Bft) W 268 ° 0 min 0,000 mm 0,0 UV-I 28 W/m² 10,3 °C 11,4 °C 0,0 km/h (0 Bft)
13.08.2017 07:02 11,4 °C 11,5 °C 93 % 1020,6 hPa 0,0 mm 0,0 km/h (0 Bft) W 268 ° 0 min 0,000 mm 0,0 UV-I 28 W/m² 10,3 °C 11,4 °C 0,0 km/h (0 Bft)
13.08.2017 07:03 11,5 °C 11,5 °C 93 % 1020,5 hPa 0,0 mm 0,0 km/h (0 Bft) W 268 ° 0 min 0,000 mm 0,0 UV-I 30 W/m² 10,4 °C 11,5 °C 0,0 km/h (0 Bft)
13.08.2017 07:04 11,5 °C 11,5 °C 93 % 1020,5 hPa 0,0 mm 0,0 km/h (0 Bft) W 268 ° 0 min 0,000 mm 0,0 UV-I 32 W/m² 10,4 °C 11,5 °C 0,0 km/h (0 Bft)
13.08.2017 07:05 11,5 °C 11,6 °C 94 % 1020,5 hPa 0,0 mm 0,0 km/h (0 Bft) W 268 ° 0 min 0,000 mm 0,0 UV-I 32 W/m² 10,6 °C 11,5 °C 0,0 km/h (0 Bft)
13.08.2017 07:06 11,5 °C 11,6 °C 93 % 1020,5 hPa 0,0 mm 0,0 km/h (0 Bft) W 268 ° 0 min 0,000 mm 0,0 UV-I 33 W/m² 10,4 °C 11,5 °C 0,0 km/h (0 Bft)
13.08.2017 07:07 11,6 °C 11,6 °C 93 % 1020,5 hPa 0,0 mm 0,0 km/h (0 Bft) W 268 ° 0 min 0,000 mm 0,0 UV-I 33 W/m² 10,5 °C 11,6 °C 0,0 km/h (0 Bft)
13.08.2017 07:08 11,6 °C 11,6 °C 93 % 1020,5 hPa 0,0 mm 0,0 km/h (0 Bft) W 268 ° 0 min 0,000 mm 0,0 UV-I 33 W/m² 10,5 °C 11,6 °C 0,0 km/h (0 Bft)
13.08.2017 07:09 11,6 °C 11,6 °C 93 % 1020,5 hPa 0,0 mm 0,0 km/h (0 Bft) W 268 ° 0 min 0,000 mm 0,0 UV-I 35 W/m² 10,5 °C 11,6 °C 0,0 km/h (0 Bft)
13.08.2017 07:10 11,6 °C 11,6 °C 93 % 1020,5 hPa 0,0 mm 0,0 km/h (0 Bft) W 268 ° 0 min 0,000 mm 0,0 UV-I 35 W/m² 10,5 °C 11,6 °C 0,0 km/h (0 Bft)
13.08.2017 07:11 11,6 °C 11,6 °C 93 % 1020,5 hPa 0,0 mm 0,0 km/h (0 Bft) W 268 ° 0 min 0,000 mm 0,0 UV-I 37 W/m² 10,5 °C 11,6 °C 0,0 km/h (0 Bft)
13.08.2017 07:12 11,7 °C 11,7 °C 93 % 1020,5 hPa 0,0 mm 0,0 km/h (0 Bft) W 268 ° 0 min 0,000 mm 0,0 UV-I 37 W/m² 10,6 °C 11,7 °C 0,0 km/h (0 Bft)
13.08.2017 07:13 11,7 °C 11,7 °C 93 % 1020,5 hPa 0,0 mm 0,0 km/h (0 Bft) W 268 ° 0 min 0,000 mm 0,0 UV-I 39 W/m² 10,6 °C 11,7 °C 0,0 km/h (0 Bft)
13.08.2017 07:14 11,7 °C 11,7 °C 93 % 1020,5 hPa 0,0 mm 0,0 km/h (0 Bft) W 268 ° 0 min 0,000 mm 0,0 UV-I 40 W/m² 10,6 °C 11,7 °C 0,0 km/h (0 Bft)
13.08.2017 07:15 11,7 °C 11,7 °C 93 % 1020,5 hPa 0,0 mm 0,0 km/h (0 Bft) W 268 ° 0 min 0,000 mm 0,0 UV-I 40 W/m² 10,6 °C 11,7 °C 0,0 km/h (0 Bft)
13.08.2017 07:16 11,7 °C 11,7 °C 93 % 1020,5 hPa 0,0 mm 0,0 km/h (0 Bft) W 268 ° 0 min 0,000 mm 0,0 UV-I 42 W/m² 10,6 °C 11,7 °C 0,0 km/h (0 Bft)
13.08.2017 07:17 11,7 °C 11,7 °C 93 % 1020,5 hPa 0,0 mm 0,0 km/h (0 Bft) W 268 ° 0 min 0,000 mm 0,0 UV-I 42 W/m² 10,6 °C 11,7 °C 0,0 km/h (0 Bft)
13.08.2017 07:18 11,8 °C 11,8 °C 93 % 1020,5 hPa 0,0 mm 0,0 km/h (0 Bft) W 268 ° 0 min 0,000 mm 0,0 UV-I 42 W/m² 10,7 °C 11,8 °C 0,0 km/h (0 Bft)
13.08.2017 07:19 11,8 °C 11,8 °C 93 % 1020,5 hPa 0,0 mm 0,0 km/h (0 Bft) W 268 ° 0 min 0,000 mm 0,0 UV-I 42 W/m² 10,7 °C 11,8 °C 0,0 km/h (0 Bft)
13.08.2017 07:20 11,8 °C 11,8 °C 92 % 1020,5 hPa 0,0 mm 0,0 km/h (0 Bft) W 268 ° 0 min 0,000 mm 0,0 UV-I 44 W/m² 10,5 °C 11,8 °C 0,0 km/h (0 Bft)
13.08.2017 07:21 11,8 °C 11,8 °C 92 % 1020,5 hPa 0,0 mm 0,0 km/h (0 Bft) W 268 ° 0 min 0,000 mm 0,0 UV-I 44 W/m² 10,5 °C 11,8 °C 0,0 km/h (0 Bft)
13.08.2017 07:22 11,8 °C 11,8 °C 92 % 1020,5 hPa 0,0 mm 0,0 km/h (0 Bft) W 268 ° 0 min 0,000 mm 0,0 UV-I 46 W/m² 10,5 °C 11,8 °C 0,0 km/h (0 Bft)
13.08.2017 07:23 11,9 °C 11,9 °C 92 % 1020,5 hPa 0,0 mm 0,0 km/h (0 Bft) W 268 ° 0 min 0,000 mm 0,0 UV-I 47 W/m² 10,6 °C 11,9 °C 0,0 km/h (0 Bft)
13.08.2017 07:24 11,9 °C 11,9 °C 92 % 1020,5 hPa 0,0 mm 0,0 km/h (0 Bft) W 268 ° 0 min 0,000 mm 0,0 UV-I 47 W/m² 10,6 °C 11,9 °C 0,0 km/h (0 Bft)
13.08.2017 07:25 11,9 °C 11,9 °C 92 % 1020,5 hPa 0,0 mm 0,0 km/h (0 Bft) W 268 ° 0 min 0,000 mm 0,0 UV-I 49 W/m² 10,6 °C 11,9 °C 0,0 km/h (0 Bft)
13.08.2017 07:26 11,9 °C 11,9 °C 92 % 1020,5 hPa 0,0 mm 0,0 km/h (0 Bft) W 268 ° 0 min 0,000 mm 0,0 UV-I 51 W/m² 10,6 °C 11,9 °C 0,0 km/h (0 Bft)
13.08.2017 07:27 11,9 °C 11,9 °C 92 % 1020,5 hPa 0,0 mm 0,0 km/h (0 Bft) W 268 ° 0 min 0,000 mm 0,0 UV-I 54 W/m² 10,6 °C 11,9 °C 0,0 km/h (0 Bft)
13.08.2017 07:28 12,0 °C 12,0 °C 92 % 1020,5 hPa 0,0 mm 0,0 km/h (0 Bft) W 268 ° 0 min 0,000 mm 0,0 UV-I 54 W/m² 10,7 °C 12,0 °C 0,0 km/h (0 Bft)
13.08.2017 07:29 12,0 °C 12,0 °C 92 % 1020,5 hPa 0,0 mm 0,0 km/h (0 Bft) W 268 ° 0 min 0,000 mm 0,0 UV-I 54 W/m² 10,7 °C 12,0 °C 0,0 km/h (0 Bft)
13.08.2017 07:30 12,0 °C 12,0 °C 92 % 1020,5 hPa 0,0 mm 0,0 km/h (0 Bft) W 268 ° 0 min 0,000 mm 0,0 UV-I 54 W/m² 10,7 °C 12,0 °C 0,0 km/h (0 Bft)
13.08.2017 07:31 12,0 °C 12,0 °C 92 % 1020,5 hPa 0,0 mm 0,0 km/h (0 Bft) W 268 ° 0 min 0,000 mm 0,0 UV-I 54 W/m² 10,7 °C 12,0 °C 0,0 km/h (0 Bft)
13.08.2017 07:32 12,0 °C 12,0 °C 92 % 1020,5 hPa 0,0 mm 0,0 km/h (0 Bft) W 268 ° 0 min 0,000 mm 0,0 UV-I 56 W/m² 10,7 °C 12,0 °C 0,0 km/h (0 Bft)
13.08.2017 07:33 12,0 °C 12,0 °C 92 % 1020,5 hPa 0,0 mm 0,0 km/h (0 Bft) W 268 ° 0 min 0,000 mm 0,0 UV-I 58 W/m² 10,7 °C 12,0 °C 0,0 km/h (0 Bft)
13.08.2017 07:34 12,1 °C 12,1 °C 92 % 1020,5 hPa 0,0 mm 0,0 km/h (0 Bft) W 268 ° 0 min 0,000 mm 0,0 UV-I 60 W/m² 10,8 °C 12,1 °C 0,0 km/h (0 Bft)
13.08.2017 07:35 12,1 °C 12,1 °C 93 % 1020,5 hPa 0,0 mm 0,0 km/h (0 Bft) W 268 ° 0 min 0,000 mm 0,0 UV-I 60 W/m² 11,0 °C 12,1 °C 0,0 km/h (0 Bft)
13.08.2017 07:36 12,1 °C 12,1 °C 92 % 1020,5 hPa 0,0 mm 0,0 km/h (0 Bft) W 268 ° 0 min 0,000 mm 0,0 UV-I 62 W/m² 10,8 °C 12,1 °C 0,0 km/h (0 Bft)
13.08.2017 07:37 12,1 °C 12,1 °C 93 % 1020,5 hPa 0,0 mm 0,0 km/h (0 Bft) W 268 ° 0 min 0,000 mm 0,0 UV-I 62 W/m² 11,0 °C 12,1 °C 0,0 km/h (0 Bft)
13.08.2017 07:38 12,1 °C 12,1 °C 92 % 1020,5 hPa 0,0 mm 0,0 km/h (0 Bft) W 268 ° 0 min 0,000 mm 0,0 UV-I 63 W/m² 10,8 °C 12,1 °C 0,0 km/h (0 Bft)
13.08.2017 07:39 12,1 °C 12,1 °C 92 % 1020,5 hPa 0,0 mm 0,0 km/h (0 Bft) W 268 ° 0 min 0,000 mm 0,0 UV-I 65 W/m² 10,8 °C 12,1 °C 0,0 km/h (0 Bft)
13.08.2017 07:40 12,1 °C 12,1 °C 92 % 1020,5 hPa 0,0 mm 0,0 km/h (0 Bft) W 268 ° 0 min 0,000 mm 0,0 UV-I 65 W/m² 10,8 °C 12,1 °C 0,0 km/h (0 Bft)
13.08.2017 07:41 12,1 °C 12,1 °C 92 % 1020,5 hPa 0,0 mm 0,0 km/h (0 Bft) W 268 ° 0 min 0,000 mm 0,0 UV-I 67 W/m² 10,8 °C 12,1 °C 0,0 km/h (0 Bft)
13.08.2017 07:42 12,2 °C 12,2 °C 91 % 1020,5 hPa 0,0 mm 0,0 km/h (0 Bft) W 268 ° 0 min 0,000 mm 0,0 UV-I 67 W/m² 10,8 °C 12,2 °C 0,0 km/h (0 Bft)
13.08.2017 07:43 12,2 °C 12,2 °C 91 % 1020,5 hPa 0,0 mm 0,0 km/h (0 Bft) W 268 ° 0 min 0,000 mm 0,0 UV-I 67 W/m² 10,8 °C 12,2 °C 0,0 km/h (0 Bft)
13.08.2017 07:44 12,2 °C 12,2 °C 92 % 1020,5 hPa 0,0 mm 0,0 km/h (0 Bft) W 268 ° 0 min 0,000 mm 0,0 UV-I 69 W/m² 10,9 °C 12,2 °C 0,0 km/h (0 Bft)
13.08.2017 07:45 12,3 °C 12,3 °C 91 % 1020,5 hPa 0,0 mm 0,0 km/h (0 Bft) W 268 ° 0 min 0,000 mm 0,0 UV-I 69 W/m² 10,9 °C 12,3 °C 0,0 km/h (0 Bft)
13.08.2017 07:46 12,3 °C 12,3 °C 92 % 1020,4 hPa 0,0 mm 0,0 km/h (0 Bft) W 268 ° 0 min 0,000 mm 0,5 UV-I 70 W/m² 11,0 °C 12,3 °C 0,0 km/h (0 Bft)
13.08.2017 07:47 12,3 °C 12,3 °C 91 % 1020,4 hPa 0,0 mm 0,0 km/h (0 Bft) W 268 ° 0 min 0,000 mm 0,5 UV-I 72 W/m² 10,9 °C 12,3 °C 0,0 km/h (0 Bft)
13.08.2017 07:48 12,3 °C 12,3 °C 90 % 1020,5 hPa 0,0 mm 0,0 km/h (0 Bft) W 268 ° 0 min 0,000 mm 0,5 UV-I 74 W/m² 10,7 °C 12,3 °C 0,0 km/h (0 Bft)
13.08.2017 07:49 12,4 °C 12,4 °C 91 % 1020,5 hPa 0,0 mm 0,0 km/h (0 Bft) W 268 ° 0 min 0,000 mm 0,5 UV-I 77 W/m² 11,0 °C 12,4 °C 0,0 km/h (0 Bft)
13.08.2017 07:50 12,4 °C 12,4 °C 91 % 1020,5 hPa 0,0 mm 0,0 km/h (0 Bft) W 268 ° 0 min 0,000 mm 0,5 UV-I 79 W/m² 11,0 °C 12,4 °C 0,0 km/h (0 Bft)
13.08.2017 07:51 12,4 °C 12,4 °C 91 % 1020,4 hPa 0,0 mm 0,0 km/h (0 Bft) W 268 ° 0 min 0,000 mm 0,5 UV-I 81 W/m² 11,0 °C 12,4 °C 0,0 km/h (0 Bft)
13.08.2017 07:52 12,4 °C 12,4 °C 91 % 1020,4 hPa 0,0 mm 0,0 km/h (0 Bft) W 268 ° 0 min 0,000 mm 0,5 UV-I 83 W/m² 11,0 °C 12,4 °C 0,0 km/h (0 Bft)
13.08.2017 07:53 12,4 °C 12,4 °C 91 % 1020,5 hPa 0,0 mm 0,0 km/h (0 Bft) W 268 ° 0 min 0,000 mm 0,5 UV-I 84 W/m² 11,0 °C 12,4 °C 0,0 km/h (0 Bft)
13.08.2017 07:54 12,5 °C 12,5 °C 91 % 1020,5 hPa 0,0 mm 0,0 km/h (0 Bft) W 268 ° 0 min 0,000 mm 0,5 UV-I 86 W/m² 11,1 °C 12,5 °C 0,0 km/h (0 Bft)
13.08.2017 07:55 12,4 °C 12,5 °C 91 % 1020,5 hPa 0,0 mm 0,0 km/h (0 Bft) W 268 ° 0 min 0,000 mm 0,6 UV-I 88 W/m² 11,0 °C 12,4 °C 0,0 km/h (0 Bft)
13.08.2017 07:56 12,5 °C 12,5 °C 90 % 1020,5 hPa 0,0 mm 0,0 km/h (0 Bft) W 268 ° 0 min 0,000 mm 0,6 UV-I 90 W/m² 10,9 °C 12,5 °C 0,0 km/h (0 Bft)
13.08.2017 07:57 12,6 °C 12,6 °C 90 % 1020,4 hPa 0,0 mm 0,0 km/h (0 Bft) W 268 ° 0 min 0,000 mm 0,6 UV-I 91 W/m² 11,0 °C 12,6 °C 0,0 km/h (0 Bft)
13.08.2017 07:58 12,6 °C 12,6 °C 91 % 1020,4 hPa 0,0 mm 0,0 km/h (0 Bft) W 268 ° 0 min 0,000 mm 0,6 UV-I 93 W/m² 11,2 °C 12,6 °C 0,0 km/h (0 Bft)
13.08.2017 07:59 12,6 °C 12,6 °C 91 % 1020,4 hPa 0,0 mm 0,0 km/h (0 Bft) W 268 ° 0 min 0,000 mm 0,6 UV-I 95 W/m² 11,2 °C 12,6 °C 0,0 km/h (0 Bft)
13.08.2017 08:00 12,6 °C 12,6 °C 91 % 1020,3 hPa 0,0 mm 0,0 km/h (0 Bft) W 268 ° 0 min 0,025 mm 0,6 UV-I 97 W/m² 11,2 °C 12,6 °C 0,0 km/h (0 Bft)
13.08.2017 08:01 12,7 °C 12,7 °C 90 % 1020,4 hPa 0,0 mm 0,0 km/h (0 Bft) W 268 ° 0 min 0,000 mm 0,6 UV-I 98 W/m² 11,1 °C 12,7 °C 0,0 km/h (0 Bft)
13.08.2017 08:02 12,7 °C 12,7 °C 90 % 1020,4 hPa 0,0 mm 0,0 km/h (0 Bft) W 268 ° 0 min 0,000 mm 0,6 UV-I 98 W/m² 11,1 °C 12,7 °C 0,0 km/h (0 Bft)
13.08.2017 08:03 12,7 °C 12,7 °C 90 % 1020,4 hPa 0,0 mm 0,0 km/h (0 Bft) W 268 ° 0 min 0,000 mm 0,7 UV-I 100 W/m² 11,1 °C 12,7 °C 0,0 km/h (0 Bft)
13.08.2017 08:04 12,7 °C 12,7 °C 90 % 1020,4 hPa 0,0 mm 0,0 km/h (0 Bft) W 268 ° 0 min 0,000 mm 0,7 UV-I 100 W/m² 11,1 °C 12,7 °C 0,0 km/h (0 Bft)
13.08.2017 08:05 12,7 °C 12,7 °C 90 % 1020,4 hPa 0,0 mm 0,0 km/h (0 Bft) W 268 ° 0 min 0,000 mm 0,7 UV-I 102 W/m² 11,1 °C 12,7 °C 0,0 km/h (0 Bft)
13.08.2017 08:06 12,8 °C 12,8 °C 89 % 1020,4 hPa 0,0 mm 0,0 km/h (0 Bft) W 268 ° 0 min 0,000 mm 0,7 UV-I 104 W/m² 11,0 °C 12,8 °C 0,0 km/h (0 Bft)
13.08.2017 08:07 12,8 °C 12,8 °C 89 % 1020,4 hPa 0,0 mm 0,0 km/h (0 Bft) W 268 ° 0 min 0,000 mm 0,7 UV-I 107 W/m² 11,0 °C 12,8 °C 0,0 km/h (0 Bft)
13.08.2017 08:08 12,8 °C 12,8 °C 90 % 1020,4 hPa 0,0 mm 0,0 km/h (0 Bft) W 268 ° 0 min 0,000 mm 0,7 UV-I 109 W/m² 11,2 °C 12,8 °C 0,0 km/h (0 Bft)
13.08.2017 08:09 12,9 °C 12,9 °C 90 % 1020,4 hPa 0,0 mm 0,0 km/h (0 Bft) W 268 ° 0 min 0,000 mm 0,7 UV-I 111 W/m² 11,3 °C 12,9 °C 0,0 km/h (0 Bft)
13.08.2017 08:10 12,9 °C 12,9 °C 90 % 1020,4 hPa 0,0 mm 0,0 km/h (0 Bft) W 268 ° 0 min 0,000 mm 0,7 UV-I 113 W/m² 11,3 °C 12,9 °C 0,0 km/h (0 Bft)
13.08.2017 08:11 12,9 °C 12,9 °C 90 % 1020,4 hPa 0,0 mm 0,6 km/h (0 Bft) W 269 ° 0 min 0,000 mm 0,8 UV-I 114 W/m² 11,3 °C 12,9 °C 3,2 km/h (1 Bft)
13.08.2017 08:12 12,9 °C 12,9 °C 89 % 1020,5 hPa 0,0 mm 0,2 km/h (0 Bft) W 269 ° 0 min 0,000 mm 0,8 UV-I 116 W/m² 11,1 °C 12,9 °C 1,6 km/h (1 Bft)
13.08.2017 08:13 13,0 °C 13,0 °C 89 % 1020,5 hPa 0,0 mm 0,0 km/h (0 Bft) W 269 ° 0 min 0,000 mm 0,8 UV-I 121 W/m² 11,2 °C 13,0 °C 0,0 km/h (0 Bft)
13.08.2017 08:14 13,1 °C 13,1 °C 90 % 1020,4 hPa 0,0 mm 0,0 km/h (0 Bft) W 269 ° 0 min 0,000 mm 0,8 UV-I 123 W/m² 11,5 °C 13,1 °C 0,0 km/h (0 Bft)
13.08.2017 08:15 13,1 °C 13,1 °C 90 % 1020,4 hPa 0,0 mm 0,0 km/h (0 Bft) W 269 ° 0 min 0,000 mm 0,8 UV-I 125 W/m² 11,5 °C 13,1 °C 0,0 km/h (0 Bft)
13.08.2017 08:16 13,2 °C 13,2 °C 90 % 1020,5 hPa 0,0 mm 0,0 km/h (0 Bft) W 269 ° 0 min 0,000 mm 0,8 UV-I 127 W/m² 11,6 °C 13,2 °C 0,0 km/h (0 Bft)
13.08.2017 08:17 13,1 °C 13,2 °C 88 % 1020,4 hPa 0,0 mm 0,0 km/h (0 Bft) W 269 ° 0 min 0,000 mm 0,8 UV-I 128 W/m² 11,2 °C 13,1 °C 0,0 km/h (0 Bft)
13.08.2017 08:18 13,2 °C 13,2 °C 88 % 1020,5 hPa 0,0 mm 0,0 km/h (0 Bft) W 269 ° 0 min 0,000 mm 0,8 UV-I 132 W/m² 11,3 °C 13,2 °C 0,0 km/h (0 Bft)
13.08.2017 08:19 13,2 °C 13,2 °C 90 % 1020,4 hPa 0,0 mm 0,0 km/h (0 Bft) W 269 ° 0 min 0,000 mm 0,9 UV-I 139 W/m² 11,6 °C 13,2 °C 0,0 km/h (0 Bft)
13.08.2017 08:20 13,3 °C 13,3 °C 90 % 1020,5 hPa 0,0 mm 0,0 km/h (0 Bft) W 269 ° 0 min 0,000 mm 0,9 UV-I 142 W/m² 11,7 °C 13,3 °C 0,0 km/h (0 Bft)
13.08.2017 08:21 13,3 °C 13,3 °C 89 % 1020,5 hPa 0,0 mm 0,0 km/h (0 Bft) W 269 ° 0 min 0,000 mm 0,9 UV-I 146 W/m² 11,5 °C 13,3 °C 0,0 km/h (0 Bft)
13.08.2017 08:22 13,3 °C 13,3 °C 88 % 1020,5 hPa 0,0 mm 0,0 km/h (0 Bft) W 269 ° 0 min 0,000 mm 0,9 UV-I 151 W/m² 11,4 °C 13,3 °C 0,0 km/h (0 Bft)
13.08.2017 08:23 13,3 °C 13,3 °C 88 % 1020,5 hPa 0,0 mm 0,0 km/h (0 Bft) W 269 ° 0 min 0,000 mm 0,9 UV-I 153 W/m² 11,4 °C 13,3 °C 0,0 km/h (0 Bft)
13.08.2017 08:24 13,4 °C 13,4 °C 89 % 1020,5 hPa 0,0 mm 0,0 km/h (0 Bft) W 269 ° 0 min 0,000 mm 0,9 UV-I 158 W/m² 11,6 °C 13,4 °C 0,0 km/h (0 Bft)
13.08.2017 08:25 13,4 °C 13,4 °C 89 % 1020,5 hPa 0,0 mm 0,0 km/h (0 Bft) W 269 ° 0 min 0,000 mm 1,0 UV-I 160 W/m² 11,6 °C 13,4 °C 0,0 km/h (0 Bft)
13.08.2017 08:26 13,4 °C 13,4 °C 90 % 1020,4 hPa 0,0 mm 0,5 km/h (0 Bft) W 269 ° 0 min 0,000 mm 1,0 UV-I 162 W/m² 11,8 °C 13,4 °C 1,6 km/h (1 Bft)
13.08.2017 08:27 13,5 °C 13,5 °C 89 % 1020,4 hPa 0,0 mm 0,4 km/h (0 Bft) W 269 ° 0 min 0,000 mm 1,0 UV-I 165 W/m² 11,7 °C 13,5 °C 1,6 km/h (1 Bft)
13.08.2017 08:28 13,6 °C 13,6 °C 89 % 1020,5 hPa 0,0 mm 0,0 km/h (0 Bft) W 269 ° 0 min 0,000 mm 1,0 UV-I 169 W/m² 11,8 °C 13,6 °C 0,0 km/h (0 Bft)
13.08.2017 08:29 13,7 °C 13,7 °C 88 % 1020,5 hPa 0,0 mm 0,0 km/h (0 Bft) W 269 ° 0 min 0,000 mm 1,0 UV-I 172 W/m² 11,7 °C 13,7 °C 0,0 km/h (0 Bft)
13.08.2017 08:30 13,7 °C 13,7 °C 90 % 1020,5 hPa 0,0 mm 0,1 km/h (0 Bft) W 269 ° 0 min 0,000 mm 1,0 UV-I 172 W/m² 12,1 °C 13,7 °C 1,6 km/h (1 Bft)
13.08.2017 08:31 13,7 °C 13,7 °C 89 % 1020,5 hPa 0,0 mm 0,0 km/h (0 Bft) W 269 ° 0 min 0,000 mm 1,1 UV-I 174 W/m² 11,9 °C 13,7 °C 0,0 km/h (0 Bft)
13.08.2017 08:32 13,7 °C 13,7 °C 88 % 1020,5 hPa 0,0 mm 0,0 km/h (0 Bft) W 269 ° 0 min 0,000 mm 1,1 UV-I 178 W/m² 11,7 °C 13,7 °C 0,0 km/h (0 Bft)
13.08.2017 08:33 13,7 °C 13,7 °C 88 % 1020,5 hPa 0,0 mm 0,0 km/h (0 Bft) W 269 ° 0 min 0,000 mm 1,1 UV-I 181 W/m² 11,7 °C 13,7 °C 0,0 km/h (0 Bft)
13.08.2017 08:34 13,7 °C 13,7 °C 87 % 1020,5 hPa 0,0 mm 0,0 km/h (0 Bft) W 269 ° 0 min 0,000 mm 1,2 UV-I 200 W/m² 11,6 °C 13,7 °C 0,0 km/h (0 Bft)
13.08.2017 08:35 13,7 °C 13,7 °C 87 % 1020,5 hPa 0,0 mm 0,0 km/h (0 Bft) W 269 ° 0 min 0,000 mm 1,1 UV-I 190 W/m² 11,6 °C 13,7 °C 0,0 km/h (0 Bft)
13.08.2017 08:36 13,8 °C 13,8 °C 88 % 1020,5 hPa 0,0 mm 0,0 km/h (0 Bft) W 269 ° 0 min 0,000 mm 1,1 UV-I 186 W/m² 11,8 °C 13,8 °C 0,0 km/h (0 Bft)
13.08.2017 08:37 13,9 °C 13,9 °C 88 % 1020,5 hPa 0,0 mm 0,0 km/h (0 Bft) W 269 ° 0 min 0,000 mm 1,1 UV-I 190 W/m² 11,9 °C 13,9 °C 0,0 km/h (0 Bft)
13.08.2017 08:38 14,0 °C 14,0 °C 88 % 1020,5 hPa 0,0 mm 2,6 km/h (1 Bft) SW 227 ° 0 min 0,000 mm 1,2 UV-I 195 W/m² 12,0 °C 14,0 °C 4,8 km/h (1 Bft)
13.08.2017 08:39 14,1 °C 14,1 °C 87 % 1020,5 hPa 0,0 mm 0,1 km/h (0 Bft) SW 227 ° 0 min 0,000 mm 1,3 UV-I 234 W/m² 12,0 °C 14,1 °C 1,6 km/h (1 Bft)
13.08.2017 08:40 14,1 °C 14,1 °C 87 % 1020,5 hPa 0,0 mm 0,0 km/h (0 Bft) SW 227 ° 0 min 0,000 mm 1,3 UV-I 234 W/m² 12,0 °C 14,1 °C 0,0 km/h (0 Bft)
13.08.2017 08:41 14,1 °C 14,1 °C 86 % 1020,5 hPa 0,0 mm 0,0 km/h (0 Bft) SW 227 ° 0 min 0,000 mm 1,2 UV-I 216 W/m² 11,8 °C 14,1 °C 0,0 km/h (0 Bft)
13.08.2017 08:42 14,2 °C 14,2 °C 86 % 1020,6 hPa 0,0 mm 0,0 km/h (0 Bft) SW 227 ° 0 min 0,000 mm 1,3 UV-I 221 W/m² 11,9 °C 14,2 °C 0,0 km/h (0 Bft)
13.08.2017 08:43 14,3 °C 14,3 °C 87 % 1020,5 hPa 0,0 mm 0,0 km/h (0 Bft) SW 227 ° 0 min 0,000 mm 1,2 UV-I 221 W/m² 12,2 °C 14,3 °C 0,0 km/h (0 Bft)
13.08.2017 08:44 14,4 °C 14,4 °C 89 % 1020,5 hPa 0,0 mm 0,1 km/h (0 Bft) SW 227 ° 0 min 0,000 mm 1,2 UV-I 176 W/m² 12,6 °C 14,4 °C 1,6 km/h (1 Bft)
13.08.2017 08:45 14,5 °C 14,5 °C 86 % 1020,5 hPa 0,0 mm 0,1 km/h (0 Bft) SW 227 ° 0 min 0,000 mm 1,2 UV-I 176 W/m² 12,2 °C 14,5 °C 1,6 km/h (1 Bft)
13.08.2017 08:46 14,4 °C 14,5 °C 87 % 1020,5 hPa 0,0 mm 0,0 km/h (0 Bft) SW 227 ° 0 min 0,000 mm 1,2 UV-I 174 W/m² 12,3 °C 14,4 °C 0,0 km/h (0 Bft)
13.08.2017 08:47 14,5 °C 14,5 °C 86 % 1020,6 hPa 0,0 mm 0,1 km/h (0 Bft) SW 227 ° 0 min 0,000 mm 1,2 UV-I 174 W/m² 12,2 °C 14,5 °C 1,6 km/h (1 Bft)
13.08.2017 08:48 14,6 °C 14,6 °C 88 % 1020,6 hPa 0,0 mm 0,0 km/h (0 Bft) SW 227 ° 0 min 0,000 mm 1,2 UV-I 181 W/m² 12,6 °C 14,6 °C 0,0 km/h (0 Bft)
13.08.2017 08:49 14,7 °C 14,7 °C 87 % 1020,5 hPa 0,0 mm 0,0 km/h (0 Bft) SW 227 ° 0 min 0,000 mm 1,2 UV-I 174 W/m² 12,6 °C 14,7 °C 0,0 km/h (0 Bft)
13.08.2017 08:50 14,7 °C 14,7 °C 86 % 1020,5 hPa 0,0 mm 1,5 km/h (1 Bft) SW 227 ° 0 min 0,000 mm 1,2 UV-I 176 W/m² 12,4 °C 14,7 °C 3,2 km/h (1 Bft)
13.08.2017 08:51 14,7 °C 14,7 °C 87 % 1020,5 hPa 0,0 mm 1,2 km/h (1 Bft) SW 227 ° 0 min 0,000 mm 1,3 UV-I 178 W/m² 12,6 °C 14,7 °C 3,2 km/h (1 Bft)
13.08.2017 08:52 14,7 °C 14,7 °C 86 % 1020,5 hPa 0,0 mm 2,6 km/h (1 Bft) SW 236 ° 0 min 0,000 mm 1,3 UV-I 179 W/m² 12,4 °C 14,7 °C 4,8 km/h (1 Bft)
13.08.2017 08:53 14,7 °C 14,7 °C 83 % 1020,6 hPa 0,0 mm 1,3 km/h (1 Bft) SW 236 ° 0 min 0,000 mm 1,3 UV-I 179 W/m² 11,8 °C 14,7 °C 3,2 km/h (1 Bft)
13.08.2017 08:54 14,7 °C 14,7 °C 85 % 1020,6 hPa 0,0 mm 2,7 km/h (1 Bft) SW 236 ° 0 min 0,000 mm 1,3 UV-I 178 W/m² 12,2 °C 14,7 °C 3,2 km/h (1 Bft)
13.08.2017 08:55 14,7 °C 14,7 °C 85 % 1020,6 hPa 0,0 mm 2,4 km/h (1 Bft) SW 236 ° 0 min 0,000 mm 1,3 UV-I 176 W/m² 12,2 °C 14,7 °C 3,2 km/h (1 Bft)
13.08.2017 08:56 14,7 °C 14,7 °C 84 % 1020,6 hPa 0,0 mm 2,2 km/h (1 Bft) SW 236 ° 0 min 0,000 mm 1,3 UV-I 174 W/m² 12,0 °C 14,7 °C 3,2 km/h (1 Bft)
13.08.2017 08:57 14,7 °C 14,7 °C 85 % 1020,6 hPa 0,0 mm 2,0 km/h (1 Bft) SW 236 ° 0 min 0,000 mm 1,3 UV-I 174 W/m² 12,2 °C 14,7 °C 3,2 km/h (1 Bft)
13.08.2017 08:58 14,7 °C 14,7 °C 85 % 1020,6 hPa 0,0 mm 0,8 km/h (0 Bft) SW 236 ° 0 min 0,000 mm 1,3 UV-I 174 W/m² 12,2 °C 14,7 °C 1,6 km/h (1 Bft)
13.08.2017 08:59 14,7 °C 14,7 °C 85 % 1020,6 hPa 0,0 mm 0,0 km/h (0 Bft) SW 236 ° 0 min 0,000 mm 1,4 UV-I 178 W/m² 12,2 °C 14,7 °C 0,0 km/h (0 Bft)
13.08.2017 09:00 14,7 °C 14,7 °C 84 % 1020,6 hPa 0,0 mm 0,0 km/h (0 Bft) SW 236 ° 0 min 0,077 mm 1,4 UV-I 190 W/m² 12,0 °C 14,7 °C 0,0 km/h (0 Bft)
13.08.2017 09:01 14,7 °C 14,7 °C 83 % 1020,6 hPa 0,0 mm 0,0 km/h (0 Bft) SW 236 ° 0 min 0,000 mm 1,5 UV-I 193 W/m² 11,8 °C 14,7 °C 0,0 km/h (0 Bft)
13.08.2017 09:02 14,6 °C 14,7 °C 85 % 1020,6 hPa 0,0 mm 0,0 km/h (0 Bft) SW 236 ° 0 min 0,000 mm 1,5 UV-I 192 W/m² 12,1 °C 14,6 °C 0,0 km/h (0 Bft)
13.08.2017 09:03 14,6 °C 14,6 °C 83 % 1020,6 hPa 0,0 mm 0,0 km/h (0 Bft) SW 236 ° 0 min 0,000 mm 1,5 UV-I 193 W/m² 11,7 °C 14,6 °C 0,0 km/h (0 Bft)
13.08.2017 09:04 14,7 °C 14,7 °C 85 % 1020,6 hPa 0,0 mm 0,0 km/h (0 Bft) SW 236 ° 0 min 0,000 mm 1,5 UV-I 197 W/m² 12,2 °C 14,7 °C 0,0 km/h (0 Bft)
13.08.2017 09:05 14,7 °C 14,7 °C 84 % 1020,6 hPa 0,0 mm 0,0 km/h (0 Bft) SW 236 ° 0 min 0,000 mm 1,6 UV-I 202 W/m² 12,0 °C 14,7 °C 0,0 km/h (0 Bft)
13.08.2017 09:06 14,7 °C 14,7 °C 84 % 1020,6 hPa 0,0 mm 0,0 km/h (0 Bft) SW 236 ° 0 min 0,000 mm 1,6 UV-I 241 W/m² 12,0 °C 14,7 °C 0,0 km/h (0 Bft)
13.08.2017 09:07 14,7 °C 14,7 °C 85 % 1020,6 hPa 0,0 mm 0,0 km/h (0 Bft) SW 236 ° 0 min 0,000 mm 1,8 UV-I 250 W/m² 12,2 °C 14,7 °C 0,0 km/h (0 Bft)
13.08.2017 09:08 14,7 °C 14,7 °C 84 % 1020,6 hPa 0,0 mm 0,0 km/h (0 Bft) SW 236 ° 0 min 0,000 mm 1,8 UV-I 250 W/m² 12,0 °C 14,7 °C 0,0 km/h (0 Bft)
13.08.2017 09:09 14,7 °C 14,7 °C 83 % 1020,6 hPa 0,0 mm 0,0 km/h (0 Bft) SW 236 ° 0 min 0,000 mm 1,8 UV-I 251 W/m² 11,8 °C 14,7 °C 0,0 km/h (0 Bft)
13.08.2017 09:10 14,8 °C 14,8 °C 85 % 1020,6 hPa 0,0 mm 0,0 km/h (0 Bft) SW 236 ° 0 min 0,000 mm 1,8 UV-I 253 W/m² 12,3 °C 14,8 °C 0,0 km/h (0 Bft)
13.08.2017 09:11 14,8 °C 14,9 °C 86 % 1020,6 hPa 0,0 mm 0,0 km/h (0 Bft) SW 236 ° 1 min 0,000 mm 2,1 UV-I 301 W/m² 12,5 °C 14,8 °C 0,0 km/h (0 Bft)
13.08.2017 09:12 14,9 °C 14,9 °C 86 % 1020,6 hPa 0,0 mm 0,0 km/h (0 Bft) SW 236 ° 1 min 0,000 mm 2,1 UV-I 329 W/m² 12,6 °C 14,9 °C 0,0 km/h (0 Bft)
13.08.2017 09:13 15,0 °C 15,1 °C 87 % 1020,5 hPa 0,0 mm 0,0 km/h (0 Bft) SW 236 ° 0 min 0,000 mm 1,9 UV-I 260 W/m² 12,9 °C 15,0 °C 0,0 km/h (0 Bft)
13.08.2017 09:14 15,1 °C 15,1 °C 84 % 1020,5 hPa 0,0 mm 0,5 km/h (0 Bft) SW 236 ° 0 min 0,000 mm 1,9 UV-I 239 W/m² 12,4 °C 15,1 °C 1,6 km/h (1 Bft)
13.08.2017 09:15 15,1 °C 15,1 °C 85 % 1020,5 hPa 0,0 mm 0,0 km/h (0 Bft) SW 236 ° 0 min 0,000 mm 1,9 UV-I 223 W/m² 12,6 °C 15,1 °C 0,0 km/h (0 Bft)
13.08.2017 09:16 15,2 °C 15,2 °C 86 % 1020,5 hPa 0,0 mm 0,0 km/h (0 Bft) SW 236 ° 0 min 0,000 mm 1,9 UV-I 223 W/m² 12,9 °C 15,2 °C 0,0 km/h (0 Bft)
13.08.2017 09:17 15,2 °C 15,2 °C 87 % 1020,5 hPa 0,0 mm 0,2 km/h (0 Bft) SW 236 ° 0 min 0,000 mm 2,1 UV-I 253 W/m² 13,0 °C 15,2 °C 1,6 km/h (1 Bft)
13.08.2017 09:18 15,2 °C 15,2 °C 84 % 1020,5 hPa 0,0 mm 0,1 km/h (0 Bft) SW 236 ° 0 min 0,000 mm 2,1 UV-I 243 W/m² 12,5 °C 15,2 °C 1,6 km/h (1 Bft)
13.08.2017 09:19 15,3 °C 15,3 °C 85 % 1020,5 hPa 0,0 mm 0,2 km/h (0 Bft) SW 236 ° 0 min 0,000 mm 2,0 UV-I 243 W/m² 12,8 °C 15,3 °C 1,6 km/h (1 Bft)
13.08.2017 09:20 15,2 °C 15,3 °C 84 % 1020,5 hPa 0,0 mm 0,0 km/h (0 Bft) SW 236 ° 0 min 0,000 mm 1,9 UV-I 200 W/m² 12,5 °C 15,2 °C 0,0 km/h (0 Bft)
13.08.2017 09:21 15,2 °C 15,2 °C 86 % 1020,5 hPa 0,0 mm 0,0 km/h (0 Bft) SW 236 ° 0 min 0,000 mm 1,9 UV-I 197 W/m² 12,9 °C 15,2 °C 0,0 km/h (0 Bft)
13.08.2017 09:22 15,1 °C 15,2 °C 85 % 1020,5 hPa 0,0 mm 0,0 km/h (0 Bft) SW 236 ° 0 min 0,000 mm 1,9 UV-I 199 W/m² 12,6 °C 15,1 °C 0,0 km/h (0 Bft)
13.08.2017 09:23 15,1 °C 15,1 °C 87 % 1020,5 hPa 0,0 mm 0,0 km/h (0 Bft) SW 236 ° 0 min 0,000 mm 2,1 UV-I 216 W/m² 13,0 °C 15,1 °C 0,0 km/h (0 Bft)
13.08.2017 09:24 15,1 °C 15,1 °C 86 % 1020,5 hPa 0,0 mm 0,0 km/h (0 Bft) SW 236 ° 0 min 0,000 mm 2,2 UV-I 220 W/m² 12,8 °C 15,1 °C 0,0 km/h (0 Bft)
13.08.2017 09:25 15,1 °C 15,1 °C 88 % 1020,5 hPa 0,0 mm 0,0 km/h (0 Bft) SW 236 ° 1 min 0,000 mm 2,4 UV-I 318 W/m² 13,1 °C 15,1 °C 0,0 km/h (0 Bft)
13.08.2017 09:26 15,2 °C 15,2 °C 88 % 1020,5 hPa 0,0 mm 0,0 km/h (0 Bft) SW 236 ° 1 min 0,000 mm 3,0 UV-I 413 W/m² 13,2 °C 15,2 °C 0,0 km/h (0 Bft)
13.08.2017 09:27 15,3 °C 15,3 °C 87 % 1020,5 hPa 0,0 mm 0,0 km/h (0 Bft) SW 236 ° 1 min 0,000 mm 2,8 UV-I 413 W/m² 13,1 °C 15,3 °C 0,0 km/h (0 Bft)
13.08.2017 09:28 15,4 °C 15,4 °C 86 % 1020,5 hPa 0,0 mm 0,0 km/h (0 Bft) SW 236 ° 1 min 0,000 mm 3,2 UV-I 571 W/m² 13,1 °C 15,4 °C 0,0 km/h (0 Bft)
13.08.2017 09:29 15,6 °C 15,6 °C 85 % 1020,5 hPa 0,0 mm 0,0 km/h (0 Bft) SW 236 ° 1 min 0,000 mm 3,1 UV-I 589 W/m² 13,1 °C 15,6 °C 0,0 km/h (0 Bft)
13.08.2017 09:30 15,6 °C 15,7 °C 85 % 1020,5 hPa 0,0 mm 0,0 km/h (0 Bft) SW 236 ° 1 min 0,000 mm 2,4 UV-I 589 W/m² 13,1 °C 15,6 °C 0,0 km/h (0 Bft)
13.08.2017 09:31 15,8 °C 15,8 °C 86 % 1020,4 hPa 0,0 mm 0,0 km/h (0 Bft) SW 236 ° 1 min 0,000 mm 3,2 UV-I 589 W/m² 13,5 °C 15,8 °C 0,0 km/h (0 Bft)
13.08.2017 09:32 15,9 °C 15,9 °C 86 % 1020,4 hPa 0,0 mm 0,0 km/h (0 Bft) SW 236 ° 1 min 0,000 mm 2,4 UV-I 589 W/m² 13,6 °C 15,9 °C 0,0 km/h (0 Bft)
13.08.2017 09:33 16,1 °C 16,1 °C 84 % 1020,4 hPa 0,0 mm 0,0 km/h (0 Bft) SW 236 ° 1 min 0,000 mm 2,2 UV-I 589 W/m² 13,4 °C 16,1 °C 0,0 km/h (0 Bft)
13.08.2017 09:34 16,1 °C 16,1 °C 79 % 1020,4 hPa 0,0 mm 0,0 km/h (0 Bft) SW 236 ° 0 min 0,000 mm 2,3 UV-I 250 W/m² 12,5 °C 16,1 °C 0,0 km/h (0 Bft)
13.08.2017 09:35 16,1 °C 16,1 °C 77 % 1020,4 hPa 0,0 mm 1,9 km/h (1 Bft) SW 224 ° 0 min 0,000 mm 3,4 UV-I 250 W/m² 12,1 °C 16,1 °C 3,2 km/h (1 Bft)
13.08.2017 09:36 16,1 °C 16,1 °C 74 % 1020,4 hPa 0,0 mm 2,1 km/h (1 Bft) S-SW 202 ° 1 min 0,000 mm 2,6 UV-I 364 W/m² 11,5 °C 16,1 °C 3,2 km/h (1 Bft)
13.08.2017 09:37 16,0 °C 16,1 °C 76 % 1020,4 hPa 0,0 mm 0,3 km/h (0 Bft) S-SW 202 ° 1 min 0,000 mm 2,7 UV-I 336 W/m² 11,8 °C 16,0 °C 1,6 km/h (1 Bft)
13.08.2017 09:38 15,9 °C 16,0 °C 74 % 1020,4 hPa 0,0 mm 0,2 km/h (0 Bft) S-SW 203 ° 1 min 0,000 mm 2,7 UV-I 401 W/m² 11,3 °C 15,9 °C 1,6 km/h (1 Bft)
13.08.2017 09:39 15,8 °C 15,9 °C 78 % 1020,4 hPa 0,0 mm 0,0 km/h (0 Bft) S-SW 203 ° 1 min 0,000 mm 2,7 UV-I 417 W/m² 12,0 °C 15,8 °C 0,0 km/h (0 Bft)
13.08.2017 09:40 15,8 °C 15,8 °C 82 % 1020,4 hPa 0,0 mm 1,2 km/h (1 Bft) NW 326 ° 1 min 0,000 mm 2,7 UV-I 346 W/m² 12,7 °C 15,8 °C 4,8 km/h (1 Bft)
13.08.2017 09:41 15,8 °C 15,8 °C 80 % 1020,4 hPa 0,0 mm 4,0 km/h (1 Bft) NW 326 ° 1 min 0,000 mm 2,7 UV-I 394 W/m² 12,4 °C 15,8 °C 6,4 km/h (2 Bft)
13.08.2017 09:42 16,0 °C 16,0 °C 78 % 1020,4 hPa 0,0 mm 3,1 km/h (1 Bft) NW 326 ° 1 min 0,000 mm 2,8 UV-I 390 W/m² 12,2 °C 16,0 °C 6,4 km/h (2 Bft)
13.08.2017 09:43 16,1 °C 16,1 °C 77 % 1020,4 hPa 0,0 mm 4,3 km/h (1 Bft) NW 309 ° 1 min 0,000 mm 2,8 UV-I 380 W/m² 12,1 °C 16,1 °C 6,4 km/h (2 Bft)
13.08.2017 09:44 16,2 °C 16,2 °C 76 % 1020,4 hPa 0,0 mm 1,2 km/h (1 Bft) NW 309 ° 1 min 0,000 mm 3,0 UV-I 380 W/m² 12,0 °C 16,2 °C 3,2 km/h (1 Bft)
13.08.2017 09:45 16,2 °C 16,2 °C 76 % 1020,4 hPa 0,0 mm 0,3 km/h (0 Bft) NW 309 ° 1 min 0,000 mm 2,6 UV-I 352 W/m² 12,0 °C 16,2 °C 1,6 km/h (1 Bft)
13.08.2017 09:46 16,2 °C 16,2 °C 75 % 1020,4 hPa 0,0 mm 0,4 km/h (0 Bft) NW 309 ° 0 min 0,000 mm 2,4 UV-I 269 W/m² 11,8 °C 16,2 °C 1,6 km/h (1 Bft)
13.08.2017 09:47 16,1 °C 16,2 °C 75 % 1020,4 hPa 0,0 mm 0,5 km/h (0 Bft) NW 309 ° 0 min 0,000 mm 2,5 UV-I 218 W/m² 11,7 °C 16,1 °C 3,2 km/h (1 Bft)
13.08.2017 09:48 16,1 °C 16,1 °C 76 % 1020,4 hPa 0,0 mm 1,5 km/h (1 Bft) NW 309 ° 0 min 0,000 mm 2,0 UV-I 176 W/m² 11,9 °C 16,1 °C 3,2 km/h (1 Bft)
13.08.2017 09:49 16,1 °C 16,1 °C 76 % 1020,4 hPa 0,0 mm 0,0 km/h (0 Bft) NW 309 ° 0 min 0,000 mm 1,9 UV-I 176 W/m² 11,9 °C 16,1 °C 0,0 km/h (0 Bft)
13.08.2017 09:50 15,9 °C 16,1 °C 78 % 1020,3 hPa 0,0 mm 0,0 km/h (0 Bft) NW 309 ° 0 min 0,000 mm 1,9 UV-I 134 W/m² 12,1 °C 15,9 °C 0,0 km/h (0 Bft)
13.08.2017 09:51 15,8 °C 15,9 °C 79 % 1020,3 hPa 0,0 mm 0,0 km/h (0 Bft) NW 309 ° 0 min 0,000 mm 1,9 UV-I 127 W/m² 12,2 °C 15,8 °C 0,0 km/h (0 Bft)
13.08.2017 09:52 15,6 °C 15,8 °C 77 % 1020,3 hPa 0,0 mm 0,0 km/h (0 Bft) NW 309 ° 0 min 0,000 mm 1,9 UV-I 114 W/m² 11,6 °C 15,6 °C 0,0 km/h (0 Bft)
13.08.2017 09:53 15,4 °C 15,6 °C 78 % 1020,4 hPa 0,0 mm 0,0 km/h (0 Bft) NW 309 ° 0 min 0,000 mm 1,9 UV-I 107 W/m² 11,6 °C 15,4 °C 0,0 km/h (0 Bft)
13.08.2017 09:54 15,3 °C 15,4 °C 78 % 1020,4 hPa 0,0 mm 0,0 km/h (0 Bft) NW 309 ° 0 min 0,000 mm 1,8 UV-I 102 W/m² 11,5 °C 15,3 °C 0,0 km/h (0 Bft)
13.08.2017 09:55 15,2 °C 15,3 °C 80 % 1020,4 hPa 0,0 mm 0,0 km/h (0 Bft) NW 309 ° 0 min 0,000 mm 1,9 UV-I 97 W/m² 11,8 °C 15,2 °C 0,0 km/h (0 Bft)
13.08.2017 09:56 15,1 °C 15,2 °C 80 % 1020,4 hPa 0,0 mm 0,0 km/h (0 Bft) NW 309 ° 0 min 0,000 mm 1,9 UV-I 98 W/m² 11,7 °C 15,1 °C 0,0 km/h (0 Bft)
13.08.2017 09:57 15,0 °C 15,1 °C 82 % 1020,4 hPa 0,0 mm 0,0 km/h (0 Bft) NW 309 ° 0 min 0,000 mm 1,9 UV-I 102 W/m² 12,0 °C 15,0 °C 0,0 km/h (0 Bft)
13.08.2017 09:58 14,9 °C 15,0 °C 81 % 1020,4 hPa 0,0 mm 0,0 km/h (0 Bft) NW 309 ° 0 min 0,000 mm 2,0 UV-I 125 W/m² 11,7 °C 14,9 °C 0,0 km/h (0 Bft)
13.08.2017 09:59 14,8 °C 14,9 °C 81 % 1020,4 hPa 0,0 mm 0,0 km/h (0 Bft) NW 309 ° 0 min 0,000 mm 3,6 UV-I 125 W/m² 11,6 °C 14,8 °C 0,0 km/h (0 Bft)
13.08.2017 10:00 14,8 °C 14,8 °C 81 % 1020,4 hPa 0,0 mm 0,0 km/h (0 Bft) NW 309 ° 0 min 0,000 mm 3,6 UV-I 125 W/m² 11,6 °C 14,8 °C 0,0 km/h (0 Bft)
13.08.2017 10:01 14,9 °C 14,9 °C 82 % 1020,4 hPa 0,0 mm 0,0 km/h (0 Bft) NW 309 ° 1 min 0,152 mm 3,7 UV-I 570 W/m² 11,9 °C 14,9 °C 0,0 km/h (0 Bft)
13.08.2017 10:02 15,0 °C 15,0 °C 85 % 1020,4 hPa 0,0 mm 0,0 km/h (0 Bft) NW 309 ° 1 min 0,000 mm 3,8 UV-I 570 W/m² 12,5 °C 15,0 °C 0,0 km/h (0 Bft)
13.08.2017 10:03 15,2 °C 15,2 °C 85 % 1020,4 hPa 0,0 mm 0,0 km/h (0 Bft) NW 309 ° 1 min 0,000 mm 3,8 UV-I 605 W/m² 12,7 °C 15,2 °C 0,0 km/h (0 Bft)
13.08.2017 10:04 15,2 °C 15,2 °C 84 % 1020,4 hPa 0,0 mm 0,0 km/h (0 Bft) NW 309 ° 1 min 0,000 mm 3,8 UV-I 601 W/m² 12,5 °C 15,2 °C 0,0 km/h (0 Bft)
13.08.2017 10:05 15,2 °C 15,2 °C 82 % 1020,4 hPa 0,0 mm 0,0 km/h (0 Bft) NW 309 ° 1 min 0,000 mm 3,8 UV-I 601 W/m² 12,1 °C 15,2 °C 0,0 km/h (0 Bft)
13.08.2017 10:06 15,2 °C 15,2 °C 83 % 1020,4 hPa 0,0 mm 1,9 km/h (1 Bft) NW 320 ° 1 min 0,000 mm 3,0 UV-I 601 W/m² 12,3 °C 15,2 °C 4,8 km/h (1 Bft)
13.08.2017 10:07 15,3 °C 15,3 °C 84 % 1020,4 hPa 0,0 mm 3,6 km/h (1 Bft) N-NW 330 ° 1 min 0,000 mm 3,9 UV-I 601 W/m² 12,6 °C 15,3 °C 6,4 km/h (2 Bft)
13.08.2017 10:08 15,6 °C 15,6 °C 83 % 1020,4 hPa 0,0 mm 2,2 km/h (1 Bft) N-NW 344 ° 1 min 0,000 mm 3,4 UV-I 601 W/m² 12,7 °C 15,6 °C 4,8 km/h (1 Bft)
13.08.2017 10:09 15,7 °C 15,7 °C 82 % 1020,4 hPa 0,0 mm 0,6 km/h (0 Bft) N-NW 344 ° 1 min 0,000 mm 3,9 UV-I 601 W/m² 12,6 °C 15,7 °C 1,6 km/h (1 Bft)
13.08.2017 10:10 16,1 °C 16,1 °C 84 % 1020,4 hPa 0,0 mm 1,8 km/h (1 Bft) N-NW 343 ° 1 min 0,000 mm 4,0 UV-I 608 W/m² 13,4 °C 16,1 °C 3,2 km/h (1 Bft)
13.08.2017 10:11 16,4 °C 16,4 °C 82 % 1020,5 hPa 0,0 mm 2,4 km/h (1 Bft) N-NW 343 ° 1 min 0,000 mm 4,0 UV-I 605 W/m² 13,3 °C 16,4 °C 3,2 km/h (1 Bft)
13.08.2017 10:12 16,7 °C 16,7 °C 80 % 1020,4 hPa 0,0 mm 3,2 km/h (1 Bft) N 355 ° 1 min 0,000 mm 4,0 UV-I 603 W/m² 13,2 °C 16,7 °C 4,8 km/h (1 Bft)
13.08.2017 10:13 16,9 °C 16,9 °C 83 % 1020,4 hPa 0,0 mm 3,0 km/h (1 Bft) NW 315 ° 1 min 0,000 mm 4,0 UV-I 605 W/m² 14,0 °C 16,9 °C 4,8 km/h (1 Bft)
13.08.2017 10:14 17,1 °C 17,1 °C 80 % 1020,4 hPa 0,0 mm 3,4 km/h (1 Bft) W-NW 285 ° 1 min 0,000 mm 4,0 UV-I 605 W/m² 13,6 °C 17,1 °C 4,8 km/h (1 Bft)
13.08.2017 10:15 17,2 °C 17,2 °C 74 % 1020,4 hPa 0,0 mm 1,8 km/h (1 Bft) W-NW 285 ° 1 min 0,000 mm 4,1 UV-I 605 W/m² 12,5 °C 17,2 °C 3,2 km/h (1 Bft)
13.08.2017 10:16 17,1 °C 17,2 °C 76 % 1020,4 hPa 0,0 mm 2,1 km/h (1 Bft) W-NW 285 ° 1 min 0,000 mm 4,1 UV-I 615 W/m² 12,8 °C 17,1 °C 4,8 km/h (1 Bft)
13.08.2017 10:17 17,1 °C 17,1 °C 73 % 1020,4 hPa 0,0 mm 0,0 km/h (0 Bft) W-NW 285 ° 1 min 0,000 mm 4,1 UV-I 605 W/m² 12,2 °C 17,1 °C 0,0 km/h (0 Bft)
13.08.2017 10:18 17,1 °C 17,1 °C 76 % 1020,5 hPa 0,0 mm 1,0 km/h (0 Bft) W-NW 286 ° 1 min 0,000 mm 4,1 UV-I 617 W/m² 12,8 °C 17,1 °C 3,2 km/h (1 Bft)
13.08.2017 10:19 17,2 °C 17,2 °C 76 % 1020,4 hPa 0,0 mm 1,2 km/h (1 Bft) W-NW 286 ° 1 min 0,000 mm 4,2 UV-I 617 W/m² 12,9 °C 17,2 °C 3,2 km/h (1 Bft)
13.08.2017 10:20 17,3 °C 17,3 °C 76 % 1020,4 hPa 0,0 mm 0,5 km/h (0 Bft) W-NW 285 ° 1 min 0,000 mm 4,2 UV-I 617 W/m² 13,0 °C 17,3 °C 3,2 km/h (1 Bft)
13.08.2017 10:21 17,4 °C 17,4 °C 80 % 1020,5 hPa 0,0 mm 0,8 km/h (0 Bft) W-NW 285 ° 1 min 0,000 mm 4,2 UV-I 619 W/m² 13,9 °C 17,4 °C 3,2 km/h (1 Bft)
13.08.2017 10:22 17,4 °C 17,4 °C 71 % 1020,5 hPa 0,0 mm 1,9 km/h (1 Bft) W-NW 285 ° 1 min 0,000 mm 4,2 UV-I 622 W/m² 12,1 °C 17,4 °C 3,2 km/h (1 Bft)
13.08.2017 10:23 17,2 °C 17,4 °C 71 % 1020,4 hPa 0,0 mm 0,1 km/h (0 Bft) W-NW 285 ° 1 min 0,000 mm 4,3 UV-I 622 W/m² 11,9 °C 17,2 °C 1,6 km/h (1 Bft)
13.08.2017 10:24 17,1 °C 17,2 °C 72 % 1020,4 hPa 0,0 mm 0,0 km/h (0 Bft) W-NW 285 ° 1 min 0,000 mm 4,3 UV-I 622 W/m² 12,0 °C 17,1 °C 0,0 km/h (0 Bft)
13.08.2017 10:25 17,0 °C 17,1 °C 76 % 1020,3 hPa 0,0 mm 0,0 km/h (0 Bft) W-NW 285 ° 1 min 0,000 mm 4,3 UV-I 622 W/m² 12,7 °C 17,0 °C 0,0 km/h (0 Bft)
13.08.2017 10:26 16,9 °C 17,0 °C 79 % 1020,3 hPa 0,0 mm 0,0 km/h (0 Bft) W-NW 284 ° 1 min 0,000 mm 4,3 UV-I 626 W/m² 13,2 °C 16,9 °C 0,0 km/h (0 Bft)
13.08.2017 10:27 17,2 °C 17,2 °C 79 % 1020,3 hPa 0,0 mm 0,8 km/h (0 Bft) W-NW 302 ° 1 min 0,000 mm 4,3 UV-I 626 W/m² 13,5 °C 17,2 °C 3,2 km/h (1 Bft)
13.08.2017 10:28 17,3 °C 17,3 °C 78 % 1020,3 hPa 0,0 mm 1,5 km/h (1 Bft) W-NW 302 ° 1 min 0,000 mm 4,3 UV-I 629 W/m² 13,4 °C 17,3 °C 3,2 km/h (1 Bft)
13.08.2017 10:29 17,4 °C 17,4 °C 74 % 1020,3 hPa 0,0 mm 0,2 km/h (0 Bft) W-NW 302 ° 1 min 0,000 mm 4,4 UV-I 631 W/m² 12,7 °C 17,4 °C 1,6 km/h (1 Bft)
13.08.2017 10:30 17,3 °C 17,4 °C 75 % 1020,3 hPa 0,0 mm 3,2 km/h (1 Bft) W-NW 297 ° 1 min 0,000 mm 4,4 UV-I 633 W/m² 12,8 °C 17,3 °C 4,8 km/h (1 Bft)
13.08.2017 10:31 17,4 °C 17,4 °C 76 % 1020,3 hPa 0,0 mm 3,8 km/h (1 Bft) NW 324 ° 1 min 0,000 mm 4,4 UV-I 635 W/m² 13,1 °C 17,4 °C 4,8 km/h (1 Bft)
13.08.2017 10:32 17,4 °C 17,4 °C 75 % 1020,3 hPa 0,0 mm 6,2 km/h (2 Bft) NW 323 ° 1 min 0,000 mm 4,4 UV-I 635 W/m² 12,9 °C 17,4 °C 9,7 km/h (2 Bft)
13.08.2017 10:33 17,6 °C 17,6 °C 72 % 1020,3 hPa 0,0 mm 4,2 km/h (1 Bft) N-NW 338 ° 1 min 0,000 mm 4,4 UV-I 635 W/m² 12,5 °C 17,6 °C 6,4 km/h (2 Bft)
13.08.2017 10:34 17,6 °C 17,6 °C 72 % 1020,3 hPa 0,0 mm 3,4 km/h (1 Bft) N-NO 24 ° 1 min 0,000 mm 4,4 UV-I 636 W/m² 12,5 °C 17,6 °C 8,0 km/h (2 Bft)
13.08.2017 10:35 17,7 °C 17,7 °C 74 % 1020,3 hPa 0,0 mm 5,2 km/h (1 Bft) N 355 ° 1 min 0,000 mm 4,5 UV-I 635 W/m² 13,0 °C 17,7 °C 8,0 km/h (2 Bft)
13.08.2017 10:36 17,8 °C 17,8 °C 75 % 1020,3 hPa 0,0 mm 3,3 km/h (1 Bft) NW 311 ° 1 min 0,000 mm 4,5 UV-I 642 W/m² 13,3 °C 17,8 °C 4,8 km/h (1 Bft)
13.08.2017 10:37 17,8 °C 17,8 °C 70 % 1020,3 hPa 0,0 mm 4,5 km/h (1 Bft) N-NW 336 ° 1 min 0,000 mm 4,5 UV-I 642 W/m² 12,3 °C 17,8 °C 6,4 km/h (2 Bft)
13.08.2017 10:38 17,8 °C 17,8 °C 73 % 1020,3 hPa 0,0 mm 6,3 km/h (2 Bft) W 279 ° 1 min 0,000 mm 4,5 UV-I 642 W/m² 12,9 °C 17,8 °C 11,3 km/h (2 Bft)
13.08.2017 10:39 17,7 °C 17,8 °C 71 % 1020,3 hPa 0,0 mm 6,4 km/h (2 Bft) W 262 ° 1 min 0,000 mm 4,6 UV-I 652 W/m² 12,4 °C 17,7 °C 9,7 km/h (2 Bft)
13.08.2017 10:40 17,7 °C 17,8 °C 70 % 1020,3 hPa 0,0 mm 6,1 km/h (2 Bft) W-SW 253 ° 1 min 0,000 mm 4,6 UV-I 652 W/m² 12,2 °C 17,7 °C 8,0 km/h (2 Bft)
13.08.2017 10:41 17,7 °C 17,7 °C 72 % 1020,3 hPa 0,0 mm 4,7 km/h (1 Bft) W-SW 255 ° 1 min 0,000 mm 4,6 UV-I 654 W/m² 12,6 °C 17,7 °C 6,4 km/h (2 Bft)
13.08.2017 10:42 17,7 °C 17,7 °C 74 % 1020,2 hPa 0,0 mm 5,0 km/h (1 Bft) W-SW 244 ° 1 min 0,000 mm 4,7 UV-I 652 W/m² 13,0 °C 17,7 °C 6,4 km/h (2 Bft)
13.08.2017 10:43 17,7 °C 17,7 °C 73 % 1020,2 hPa 0,0 mm 3,5 km/h (1 Bft) W-SW 257 ° 1 min 0,000 mm 4,7 UV-I 656 W/m² 12,8 °C 17,7 °C 4,8 km/h (1 Bft)
13.08.2017 10:44 17,7 °C 17,7 °C 71 % 1020,2 hPa 0,0 mm 2,9 km/h (1 Bft) W 279 ° 1 min 0,000 mm 4,7 UV-I 659 W/m² 12,4 °C 17,7 °C 4,8 km/h (1 Bft)
13.08.2017 10:45 17,6 °C 17,7 °C 69 % 1020,2 hPa 0,0 mm 2,1 km/h (1 Bft) W 279 ° 1 min 0,000 mm 4,7 UV-I 659 W/m² 11,8 °C 17,6 °C 3,2 km/h (1 Bft)
13.08.2017 10:46 17,6 °C 17,6 °C 71 % 1020,2 hPa 0,0 mm 3,4 km/h (1 Bft) NW 319 ° 1 min 0,000 mm 4,8 UV-I 659 W/m² 12,3 °C 17,6 °C 4,8 km/h (1 Bft)
13.08.2017 10:47 17,7 °C 17,7 °C 74 % 1020,2 hPa 0,0 mm 1,7 km/h (1 Bft) NW 320 ° 1 min 0,000 mm 4,8 UV-I 663 W/m² 13,0 °C 17,7 °C 3,2 km/h (1 Bft)
13.08.2017 10:48 17,7 °C 17,7 °C 72 % 1020,2 hPa 0,0 mm 4,2 km/h (1 Bft) NW 316 ° 1 min 0,000 mm 4,8 UV-I 663 W/m² 12,6 °C 17,7 °C 8,0 km/h (2 Bft)
13.08.2017 10:49 17,8 °C 17,8 °C 72 % 1020,3 hPa 0,0 mm 5,4 km/h (1 Bft) W-NW 296 ° 1 min 0,000 mm 4,8 UV-I 666 W/m² 12,7 °C 17,8 °C 8,0 km/h (2 Bft)
13.08.2017 10:50 17,9 °C 17,9 °C 71 % 1020,3 hPa 0,0 mm 6,5 km/h (2 Bft) NW 304 ° 1 min 0,000 mm 4,8 UV-I 670 W/m² 12,6 °C 17,9 °C 11,3 km/h (2 Bft)
13.08.2017 10:51 18,0 °C 18,0 °C 74 % 1020,3 hPa 0,0 mm 3,5 km/h (1 Bft) W 263 ° 1 min 0,000 mm 4,8 UV-I 675 W/m² 13,3 °C 18,0 °C 6,4 km/h (2 Bft)
13.08.2017 10:52 18,1 °C 18,1 °C 73 % 1020,3 hPa 0,0 mm 6,0 km/h (2 Bft) W 279 ° 1 min 0,000 mm 4,9 UV-I 679 W/m² 13,2 °C 18,1 °C 9,7 km/h (2 Bft)
13.08.2017 10:53 18,1 °C 18,1 °C 69 % 1020,3 hPa 0,0 mm 5,2 km/h (1 Bft) W 266 ° 1 min 0,000 mm 4,9 UV-I 679 W/m² 12,3 °C 18,1 °C 8,0 km/h (2 Bft)
13.08.2017 10:54 18,1 °C 18,1 °C 70 % 1020,3 hPa 0,0 mm 5,5 km/h (1 Bft) W-NW 296 ° 1 min 0,000 mm 4,9 UV-I 680 W/m² 12,5 °C 18,1 °C 9,7 km/h (2 Bft)
13.08.2017 10:55 18,3 °C 18,3 °C 76 % 1020,2 hPa 0,0 mm 3,5 km/h (1 Bft) W-NW 299 ° 1 min 0,000 mm 4,9 UV-I 680 W/m² 14,0 °C 18,3 °C 8,0 km/h (2 Bft)
13.08.2017 10:56 18,2 °C 18,3 °C 69 % 1020,3 hPa 0,0 mm 5,7 km/h (1 Bft) NW 312 ° 1 min 0,000 mm 4,9 UV-I 680 W/m² 12,4 °C 18,2 °C 9,7 km/h (2 Bft)
13.08.2017 10:57 18,1 °C 18,2 °C 69 % 1020,2 hPa 0,0 mm 6,1 km/h (2 Bft) W-NW 288 ° 1 min 0,000 mm 5,0 UV-I 686 W/m² 12,3 °C 18,1 °C 8,0 km/h (2 Bft)
13.08.2017 10:58 18,1 °C 18,1 °C 69 % 1020,3 hPa 0,0 mm 3,2 km/h (1 Bft) NW 315 ° 1 min 0,000 mm 5,0 UV-I 686 W/m² 12,3 °C 18,1 °C 6,4 km/h (2 Bft)
13.08.2017 10:59 18,2 °C 18,2 °C 73 % 1020,3 hPa 0,0 mm 7,6 km/h (2 Bft) NW 313 ° 1 min 0,000 mm 5,0 UV-I 687 W/m² 13,3 °C 18,2 °C 9,7 km/h (2 Bft)
13.08.2017 11:00 18,3 °C 18,3 °C 72 % 1020,3 hPa 0,0 mm 5,3 km/h (1 Bft) N-NW 331 ° 1 min 0,000 mm 5,0 UV-I 689 W/m² 13,2 °C 18,3 °C 8,0 km/h (2 Bft)
13.08.2017 11:01 18,4 °C 18,4 °C 70 % 1020,3 hPa 0,0 mm 3,1 km/h (1 Bft) W-NW 285 ° 1 min 0,356 mm 5,1 UV-I 689 W/m² 12,8 °C 18,4 °C 4,8 km/h (1 Bft)
13.08.2017 11:02 18,3 °C 18,4 °C 70 % 1020,3 hPa 0,0 mm 2,8 km/h (1 Bft) W-NW 285 ° 1 min 0,000 mm 5,1 UV-I 693 W/m² 12,7 °C 18,3 °C 4,8 km/h (1 Bft)
13.08.2017 11:03 18,2 °C 18,3 °C 70 % 1020,2 hPa 0,0 mm 1,9 km/h (1 Bft) W-NW 285 ° 1 min 0,000 mm 5,1 UV-I 693 W/m² 12,6 °C 18,2 °C 3,2 km/h (1 Bft)
13.08.2017 11:04 18,1 °C 18,2 °C 69 % 1020,3 hPa 0,0 mm 2,3 km/h (1 Bft) W-NW 285 ° 1 min 0,000 mm 5,1 UV-I 694 W/m² 12,3 °C 18,1 °C 3,2 km/h (1 Bft)
13.08.2017 11:05 18,2 °C 18,2 °C 75 % 1020,2 hPa 0,0 mm 4,5 km/h (1 Bft) W 261 ° 1 min 0,000 mm 5,1 UV-I 694 W/m² 13,7 °C 18,2 °C 6,4 km/h (2 Bft)
13.08.2017 11:06 18,3 °C 18,3 °C 72 % 1020,1 hPa 0,0 mm 2,1 km/h (1 Bft) W 271 ° 1 min 0,000 mm 5,2 UV-I 700 W/m² 13,2 °C 18,3 °C 6,4 km/h (2 Bft)
13.08.2017 11:07 18,4 °C 18,4 °C 76 % 1020,2 hPa 0,0 mm 4,7 km/h (1 Bft) W-SW 254 ° 1 min 0,000 mm 5,2 UV-I 701 W/m² 14,1 °C 18,4 °C 6,4 km/h (2 Bft)
13.08.2017 11:08 18,4 °C 18,5 °C 73 % 1020,2 hPa 0,0 mm 4,8 km/h (1 Bft) W-SW 240 ° 1 min 0,000 mm 5,2 UV-I 705 W/m² 13,5 °C 18,4 °C 9,7 km/h (2 Bft)
13.08.2017 11:09 18,4 °C 18,4 °C 69 % 1020,1 hPa 0,0 mm 1,3 km/h (1 Bft) W-SW 240 ° 1 min 0,000 mm 5,3 UV-I 707 W/m² 12,6 °C 18,4 °C 3,2 km/h (1 Bft)
13.08.2017 11:10 18,4 °C 18,4 °C 69 % 1020,1 hPa 0,0 mm 1,1 km/h (1 Bft) W-SW 239 ° 1 min 0,000 mm 5,3 UV-I 708 W/m² 12,6 °C 18,4 °C 3,2 km/h (1 Bft)
13.08.2017 11:11 18,4 °C 18,4 °C 71 % 1020,1 hPa 0,0 mm 4,6 km/h (1 Bft) W 265 ° 1 min 0,000 mm 5,3 UV-I 710 W/m² 13,0 °C 18,4 °C 9,7 km/h (2 Bft)
13.08.2017 11:12 18,5 °C 18,5 °C 73 % 1020,0 hPa 0,0 mm 4,4 km/h (1 Bft) W 277 ° 1 min 0,000 mm 5,3 UV-I 712 W/m² 13,6 °C 18,5 °C 6,4 km/h (2 Bft)
13.08.2017 11:13 18,6 °C 18,6 °C 75 % 1020,1 hPa 0,0 mm 3,2 km/h (1 Bft) W 271 ° 1 min 0,000 mm 5,3 UV-I 710 W/m² 14,1 °C 18,6 °C 6,4 km/h (2 Bft)
13.08.2017 11:14 18,7 °C 18,7 °C 75 % 1020,0 hPa 0,0 mm 2,7 km/h (1 Bft) W 271 ° 1 min 0,000 mm 5,4 UV-I 715 W/m² 14,2 °C 18,7 °C 4,8 km/h (1 Bft)
13.08.2017 11:15 18,6 °C 18,7 °C 74 % 1020,0 hPa 0,0 mm 2,7 km/h (1 Bft) W 270 ° 1 min 0,000 mm 5,4 UV-I 721 W/m² 13,9 °C 18,6 °C 4,8 km/h (1 Bft)
13.08.2017 11:16 18,7 °C 18,7 °C 75 % 1020,0 hPa 0,0 mm 3,2 km/h (1 Bft) W 271 ° 1 min 0,000 mm 5,5 UV-I 721 W/m² 14,2 °C 18,7 °C 4,8 km/h (1 Bft)
13.08.2017 11:17 18,6 °C 18,7 °C 70 % 1020,0 hPa 0,0 mm 4,6 km/h (1 Bft) W-NW 298 ° 1 min 0,000 mm 5,5 UV-I 722 W/m² 13,0 °C 18,6 °C 8,0 km/h (2 Bft)
13.08.2017 11:18 18,4 °C 18,6 °C 68 % 1020,0 hPa 0,0 mm 7,6 km/h (2 Bft) W-NW 282 ° 1 min 0,000 mm 5,5 UV-I 726 W/m² 12,4 °C 18,4 °C 11,3 km/h (2 Bft)
13.08.2017 11:19 18,3 °C 18,4 °C 69 % 1020,0 hPa 0,0 mm 4,6 km/h (1 Bft) NW 309 ° 1 min 0,000 mm 5,5 UV-I 726 W/m² 12,5 °C 18,3 °C 9,7 km/h (2 Bft)
13.08.2017 11:20 18,2 °C 18,3 °C 72 % 1020,0 hPa 0,0 mm 2,8 km/h (1 Bft) NW 309 ° 1 min 0,000 mm 5,5 UV-I 728 W/m² 13,1 °C 18,2 °C 4,8 km/h (1 Bft)
13.08.2017 11:21 18,2 °C 18,2 °C 69 % 1020,1 hPa 0,0 mm 0,0 km/h (0 Bft) NW 309 ° 1 min 0,000 mm 5,5 UV-I 728 W/m² 12,4 °C 18,2 °C 0,0 km/h (0 Bft)
13.08.2017 11:22 17,9 °C 18,2 °C 68 % 1020,0 hPa 0,0 mm 0,0 km/h (0 Bft) NW 309 ° 1 min 0,000 mm 5,5 UV-I 729 W/m² 11,9 °C 17,9 °C 0,0 km/h (0 Bft)
13.08.2017 11:23 17,9 °C 17,9 °C 73 % 1020,0 hPa 0,0 mm 1,4 km/h (1 Bft) NW 309 ° 1 min 0,000 mm 5,6 UV-I 731 W/m² 13,0 °C 17,9 °C 3,2 km/h (1 Bft)
13.08.2017 11:24 17,9 °C 17,9 °C 69 % 1020,0 hPa 0,0 mm 0,7 km/h (0 Bft) NW 309 ° 1 min 0,000 mm 5,6 UV-I 733 W/m² 12,1 °C 17,9 °C 3,2 km/h (1 Bft)
13.08.2017 11:25 18,1 °C 18,1 °C 72 % 1020,0 hPa 0,0 mm 3,5 km/h (1 Bft) NW 304 ° 1 min 0,000 mm 5,6 UV-I 737 W/m² 13,0 °C 18,1 °C 4,8 km/h (1 Bft)
13.08.2017 11:26 18,2 °C 18,2 °C 71 % 1020,0 hPa 0,0 mm 5,6 km/h (1 Bft) NW 310 ° 1 min 0,000 mm 5,6 UV-I 740 W/m² 12,9 °C 18,2 °C 6,4 km/h (2 Bft)
13.08.2017 11:27 18,3 °C 18,3 °C 68 % 1020,0 hPa 0,0 mm 4,9 km/h (1 Bft) W-NW 297 ° 1 min 0,000 mm 5,6 UV-I 738 W/m² 12,3 °C 18,3 °C 8,0 km/h (2 Bft)
13.08.2017 11:28 18,3 °C 18,3 °C 67 % 1020,0 hPa 0,0 mm 4,1 km/h (1 Bft) N-NW 327 ° 1 min 0,000 mm 5,7 UV-I 744 W/m² 12,1 °C 18,3 °C 6,4 km/h (2 Bft)
13.08.2017 11:29 18,4 °C 18,4 °C 69 % 1020,0 hPa 0,0 mm 3,8 km/h (1 Bft) W-NW 303 ° 1 min 0,000 mm 5,7 UV-I 744 W/m² 12,6 °C 18,4 °C 4,8 km/h (1 Bft)
13.08.2017 11:30 18,4 °C 18,4 °C 70 % 1020,0 hPa 0,0 mm 2,4 km/h (1 Bft) NW 304 ° 1 min 0,000 mm 5,7 UV-I 744 W/m² 12,8 °C 18,4 °C 4,8 km/h (1 Bft)
13.08.2017 11:31 18,4 °C 18,5 °C 68 % 1019,9 hPa 0,0 mm 0,2 km/h (0 Bft) NW 304 ° 1 min 0,000 mm 5,7 UV-I 745 W/m² 12,4 °C 18,4 °C 1,6 km/h (1 Bft)
13.08.2017 11:32 18,4 °C 18,5 °C 68 % 1019,9 hPa 0,0 mm 2,3 km/h (1 Bft) W 265 ° 1 min 0,000 mm 5,7 UV-I 747 W/m² 12,4 °C 18,4 °C 6,4 km/h (2 Bft)
13.08.2017 11:33 18,4 °C 18,4 °C 65 % 1019,9 hPa 0,0 mm 4,9 km/h (1 Bft) NW 312 ° 1 min 0,000 mm 5,7 UV-I 747 W/m² 11,7 °C 18,4 °C 9,7 km/h (2 Bft)
13.08.2017 11:34 18,4 °C 18,5 °C 70 % 1020,0 hPa 0,0 mm 5,2 km/h (1 Bft) W-NW 300 ° 1 min 0,000 mm 5,7 UV-I 751 W/m² 12,8 °C 18,4 °C 6,4 km/h (2 Bft)
13.08.2017 11:35 18,4 °C 18,4 °C 66 % 1020,0 hPa 0,0 mm 2,7 km/h (1 Bft) W-NW 288 ° 1 min 0,000 mm 5,7 UV-I 752 W/m² 11,9 °C 18,4 °C 4,8 km/h (1 Bft)
13.08.2017 11:36 18,3 °C 18,4 °C 66 % 1019,9 hPa 0,0 mm 0,0 km/h (0 Bft) W-NW 288 ° 1 min 0,000 mm 5,8 UV-I 752 W/m² 11,8 °C 18,3 °C 0,0 km/h (0 Bft)
13.08.2017 11:37 18,3 °C 18,3 °C 68 % 1019,9 hPa 0,0 mm 4,4 km/h (1 Bft) N-NW 330 ° 1 min 0,000 mm 5,8 UV-I 752 W/m² 12,3 °C 18,3 °C 8,0 km/h (2 Bft)
13.08.2017 11:38 18,3 °C 18,3 °C 69 % 1019,9 hPa 0,0 mm 5,2 km/h (1 Bft) W-SW 246 ° 1 min 0,000 mm 5,8 UV-I 754 W/m² 12,5 °C 18,3 °C 6,4 km/h (2 Bft)
13.08.2017 11:39 18,4 °C 18,4 °C 71 % 1019,9 hPa 0,0 mm 5,6 km/h (1 Bft) W-SW 248 ° 1 min 0,000 mm 5,8 UV-I 758 W/m² 13,0 °C 18,4 °C 8,0 km/h (2 Bft)
13.08.2017 11:40 18,4 °C 18,4 °C 70 % 1020,0 hPa 0,0 mm 2,8 km/h (1 Bft) W-SW 248 ° 1 min 0,000 mm 5,9 UV-I 758 W/m² 12,8 °C 18,4 °C 4,8 km/h (1 Bft)
13.08.2017 11:41 18,4 °C 18,5 °C 68 % 1019,9 hPa 0,0 mm 2,2 km/h (1 Bft) SO 140 ° 1 min 0,000 mm 5,9 UV-I 759 W/m² 12,4 °C 18,4 °C 4,8 km/h (1 Bft)
13.08.2017 11:42 18,3 °C 18,4 °C 68 % 1019,9 hPa 0,0 mm 0,1 km/h (0 Bft) SO 140 ° 1 min 0,000 mm 5,9 UV-I 761 W/m² 12,3 °C 18,3 °C 1,6 km/h (1 Bft)
13.08.2017 11:43 18,3 °C 18,3 °C 70 % 1019,9 hPa 0,0 mm 1,1 km/h (1 Bft) SW 226 ° 1 min 0,000 mm 5,9 UV-I 765 W/m² 12,7 °C 18,3 °C 3,2 km/h (1 Bft)
13.08.2017 11:44 18,3 °C 18,3 °C 67 % 1019,9 hPa 0,0 mm 0,8 km/h (0 Bft) SW 226 ° 1 min 0,000 mm 5,9 UV-I 765 W/m² 12,1 °C 18,3 °C 1,6 km/h (1 Bft)
13.08.2017 11:45 18,4 °C 18,4 °C 71 % 1019,9 hPa 0,0 mm 0,1 km/h (0 Bft) SW 226 ° 1 min 0,000 mm 6,0 UV-I 765 W/m² 13,0 °C 18,4 °C 1,6 km/h (1 Bft)
13.08.2017 11:46 18,6 °C 18,6 °C 71 % 1019,9 hPa 0,0 mm 3,0 km/h (1 Bft) SW 232 ° 1 min 0,000 mm 5,9 UV-I 765 W/m² 13,2 °C 18,6 °C 4,8 km/h (1 Bft)
13.08.2017 11:47 18,6 °C 18,6 °C 70 % 1019,9 hPa 0,0 mm 3,2 km/h (1 Bft) SW 234 ° 1 min 0,000 mm 6,0 UV-I 768 W/m² 13,0 °C 18,6 °C 4,8 km/h (1 Bft)
13.08.2017 11:48 18,6 °C 18,6 °C 69 % 1019,9 hPa 0,0 mm 3,2 km/h (1 Bft) W-NW 286 ° 1 min 0,000 mm 6,0 UV-I 768 W/m² 12,8 °C 18,6 °C 4,8 km/h (1 Bft)
13.08.2017 11:49 18,6 °C 18,6 °C 69 % 1019,9 hPa 0,0 mm 1,5 km/h (1 Bft) W-NW 286 ° 1 min 0,000 mm 5,9 UV-I 766 W/m² 12,8 °C 18,6 °C 3,2 km/h (1 Bft)
13.08.2017 11:50 18,6 °C 18,6 °C 67 % 1019,9 hPa 0,0 mm 1,7 km/h (1 Bft) W 281 ° 1 min 0,000 mm 6,0 UV-I 773 W/m² 12,3 °C 18,6 °C 3,2 km/h (1 Bft)
13.08.2017 11:51 18,6 °C 18,6 °C 66 % 1019,9 hPa 0,0 mm 1,9 km/h (1 Bft) W 279 ° 1 min 0,000 mm 6,0 UV-I 772 W/m² 12,1 °C 18,6 °C 3,2 km/h (1 Bft)
13.08.2017 11:52 18,6 °C 18,6 °C 67 % 1019,9 hPa 0,0 mm 0,9 km/h (0 Bft) N-NW 332 ° 1 min 0,000 mm 6,0 UV-I 773 W/m² 12,3 °C 18,6 °C 4,8 km/h (1 Bft)
13.08.2017 11:53 18,7 °C 18,7 °C 68 % 1019,9 hPa 0,0 mm 4,1 km/h (1 Bft) W-NW 300 ° 1 min 0,000 mm 6,0 UV-I 775 W/m² 12,7 °C 18,7 °C 6,4 km/h (2 Bft)
13.08.2017 11:54 18,7 °C 18,7 °C 66 % 1019,9 hPa 0,0 mm 3,8 km/h (1 Bft) NW 306 ° 1 min 0,000 mm 6,1 UV-I 777 W/m² 12,2 °C 18,7 °C 6,4 km/h (2 Bft)
13.08.2017 11:55 18,7 °C 18,7 °C 68 % 1019,9 hPa 0,0 mm 6,3 km/h (2 Bft) W 281 ° 1 min 0,000 mm 6,1 UV-I 779 W/m² 12,7 °C 18,7 °C 9,7 km/h (2 Bft)
13.08.2017 11:56 18,7 °C 18,7 °C 65 % 1019,9 hPa 0,0 mm 2,4 km/h (1 Bft) W-NW 294 ° 1 min 0,000 mm 6,1 UV-I 779 W/m² 12,0 °C 18,7 °C 4,8 km/h (1 Bft)
13.08.2017 11:57 18,7 °C 18,7 °C 66 % 1020,0 hPa 0,0 mm 2,3 km/h (1 Bft) W-NW 293 ° 1 min 0,000 mm 6,1 UV-I 782 W/m² 12,2 °C 18,7 °C 3,2 km/h (1 Bft)
13.08.2017 11:58 18,8 °C 18,8 °C 71 % 1019,9 hPa 0,0 mm 2,1 km/h (1 Bft) NW 313 ° 1 min 0,000 mm 6,2 UV-I 784 W/m² 13,4 °C 18,8 °C 6,4 km/h (2 Bft)
13.08.2017 11:59 18,8 °C 18,8 °C 68 % 1019,9 hPa 0,0 mm 1,6 km/h (1 Bft) NW 313 ° 1 min 0,000 mm 6,2 UV-I 784 W/m² 12,8 °C 18,8 °C 3,2 km/h (1 Bft)
13.08.2017 12:00 18,8 °C 18,8 °C 69 % 1019,9 hPa 0,0 mm 2,1 km/h (1 Bft) N-NW 342 ° 1 min 0,431 mm 6,2 UV-I 786 W/m² 13,0 °C 18,8 °C 3,2 km/h (1 Bft)
13.08.2017 12:01 18,9 °C 18,9 °C 67 % 1019,9 hPa 0,0 mm 3,7 km/h (1 Bft) N-NO 24 ° 1 min 0,000 mm 6,2 UV-I 788 W/m² 12,6 °C 18,9 °C 4,8 km/h (1 Bft)
13.08.2017 12:02 18,9 °C 18,9 °C 64 % 1019,8 hPa 0,0 mm 3,8 km/h (1 Bft) O-NO 61 ° 1 min 0,000 mm 6,2 UV-I 788 W/m² 11,9 °C 18,9 °C 4,8 km/h (1 Bft)
13.08.2017 12:03 18,8 °C 18,9 °C 67 % 1019,8 hPa 0,0 mm 3,8 km/h (1 Bft) O 101 ° 1 min 0,000 mm 6,2 UV-I 791 W/m² 12,5 °C 18,8 °C 4,8 km/h (1 Bft)
13.08.2017 12:04 18,8 °C 18,8 °C 67 % 1019,8 hPa 0,0 mm 4,2 km/h (1 Bft) O-SO 111 ° 1 min 0,000 mm 6,2 UV-I 791 W/m² 12,5 °C 18,8 °C 6,4 km/h (2 Bft)
13.08.2017 12:05 18,7 °C 18,8 °C 65 % 1019,8 hPa 0,0 mm 3,7 km/h (1 Bft) O-SO 111 ° 1 min 0,000 mm 6,2 UV-I 791 W/m² 12,0 °C 18,7 °C 6,4 km/h (2 Bft)
13.08.2017 12:06 18,7 °C 18,7 °C 65 % 1019,8 hPa 0,0 mm 4,0 km/h (1 Bft) O-NO 72 ° 1 min 0,000 mm 6,2 UV-I 791 W/m² 12,0 °C 18,7 °C 4,8 km/h (1 Bft)
13.08.2017 12:07 18,9 °C 18,9 °C 73 % 1019,8 hPa 0,0 mm 2,9 km/h (1 Bft) O-NO 72 ° 1 min 0,000 mm 6,2 UV-I 791 W/m² 13,9 °C 18,9 °C 3,2 km/h (1 Bft)
13.08.2017 12:08 18,9 °C 18,9 °C 66 % 1019,8 hPa 0,0 mm 0,1 km/h (0 Bft) O-NO 72 ° 1 min 0,000 mm 6,2 UV-I 795 W/m² 12,4 °C 18,9 °C 1,6 km/h (1 Bft)
13.08.2017 12:09 18,9 °C 18,9 °C 63 % 1019,8 hPa 0,0 mm 0,0 km/h (0 Bft) O-NO 72 ° 1 min 0,000 mm 6,3 UV-I 796 W/m² 11,7 °C 18,9 °C 0,0 km/h (0 Bft)
13.08.2017 12:10 19,1 °C 19,1 °C 67 % 1019,8 hPa 0,0 mm 2,7 km/h (1 Bft) W-SW 254 ° 1 min 0,000 mm 6,3 UV-I 795 W/m² 12,8 °C 19,1 °C 4,8 km/h (1 Bft)
13.08.2017 12:11 19,1 °C 19,2 °C 64 % 1019,7 hPa 0,0 mm 3,8 km/h (1 Bft) W-SW 254 ° 1 min 0,000 mm 6,3 UV-I 796 W/m² 12,1 °C 19,1 °C 4,8 km/h (1 Bft)
13.08.2017 12:12 19,1 °C 19,2 °C 65 % 1019,8 hPa 0,0 mm 4,4 km/h (1 Bft) N-NO 24 ° 1 min 0,000 mm 6,3 UV-I 796 W/m² 12,4 °C 19,1 °C 6,4 km/h (2 Bft)
13.08.2017 12:13 19,2 °C 19,2 °C 63 % 1019,8 hPa 0,0 mm 4,0 km/h (1 Bft) N-NO 17 ° 1 min 0,000 mm 6,3 UV-I 802 W/m² 12,0 °C 19,2 °C 4,8 km/h (1 Bft)
13.08.2017 12:14 19,3 °C 19,3 °C 67 % 1019,8 hPa 0,0 mm 5,4 km/h (1 Bft) N-NO 30 ° 1 min 0,000 mm 6,3 UV-I 798 W/m² 13,0 °C 19,3 °C 8,0 km/h (2 Bft)
13.08.2017 12:15 19,3 °C 19,3 °C 62 % 1019,7 hPa 0,0 mm 3,7 km/h (1 Bft) N-NO 15 ° 1 min 0,000 mm 6,3 UV-I 802 W/m² 11,8 °C 19,3 °C 4,8 km/h (1 Bft)
13.08.2017 12:16 19,3 °C 19,4 °C 66 % 1019,7 hPa 0,0 mm 4,8 km/h (1 Bft) W-NW 286 ° 1 min 0,000 mm 6,3 UV-I 803 W/m² 12,8 °C 19,3 °C 6,4 km/h (2 Bft)
13.08.2017 12:17 19,4 °C 19,4 °C 68 % 1019,7 hPa 0,0 mm 4,5 km/h (1 Bft) NW 316 ° 1 min 0,000 mm 6,4 UV-I 803 W/m² 13,3 °C 19,4 °C 4,8 km/h (1 Bft)
13.08.2017 12:18 19,4 °C 19,4 °C 68 % 1019,7 hPa 0,0 mm 7,1 km/h (2 Bft) W-NW 297 ° 1 min 0,000 mm 6,3 UV-I 803 W/m² 13,3 °C 19,4 °C 9,7 km/h (2 Bft)
13.08.2017 12:19 19,4 °C 19,4 °C 66 % 1019,8 hPa 0,0 mm 1,8 km/h (1 Bft) W-NW 297 ° 1 min 0,000 mm 6,3 UV-I 803 W/m² 12,9 °C 19,4 °C 6,4 km/h (2 Bft)
13.08.2017 12:20 19,3 °C 19,4 °C 61 % 1019,7 hPa 0,0 mm 1,8 km/h (1 Bft) W-NW 284 ° 1 min 0,000 mm 6,4 UV-I 807 W/m² 11,6 °C 19,3 °C 6,4 km/h (2 Bft)
13.08.2017 12:21 19,3 °C 19,3 °C 67 % 1019,7 hPa 0,0 mm 6,4 km/h (2 Bft) W 279 ° 1 min 0,000 mm 6,4 UV-I 807 W/m² 13,0 °C 19,3 °C 9,7 km/h (2 Bft)
13.08.2017 12:22 19,2 °C 19,3 °C 63 % 1019,8 hPa 0,0 mm 2,9 km/h (1 Bft) W 279 ° 1 min 0,000 mm 6,4 UV-I 805 W/m² 12,0 °C 19,2 °C 4,8 km/h (1 Bft)
13.08.2017 12:23 19,2 °C 19,2 °C 63 % 1019,7 hPa 0,0 mm 0,7 km/h (0 Bft) W 279 ° 1 min 0,000 mm 6,4 UV-I 805 W/m² 12,0 °C 19,2 °C 1,6 km/h (1 Bft)
13.08.2017 12:24 19,1 °C 19,2 °C 63 % 1019,7 hPa 0,0 mm 0,5 km/h (0 Bft) N-NW 340 ° 1 min 0,000 mm 6,4 UV-I 809 W/m² 11,9 °C 19,1 °C 3,2 km/h (1 Bft)
13.08.2017 12:25 19,2 °C 19,2 °C 66 % 1019,7 hPa 0,0 mm 3,4 km/h (1 Bft) NO 53 ° 1 min 0,000 mm 6,4 UV-I 809 W/m² 12,7 °C 19,2 °C 4,8 km/h (1 Bft)
13.08.2017 12:26 19,1 °C 19,2 °C 65 % 1019,7 hPa 0,0 mm 4,1 km/h (1 Bft) O-NO 78 ° 1 min 0,000 mm 6,5 UV-I 810 W/m² 12,4 °C 19,1 °C 6,4 km/h (2 Bft)
13.08.2017 12:27 19,1 °C 19,1 °C 66 % 1019,7 hPa 0,0 mm 2,7 km/h (1 Bft) O-NO 78 ° 1 min 0,000 mm 6,5 UV-I 812 W/m² 12,6 °C 19,1 °C 4,8 km/h (1 Bft)
13.08.2017 12:28 19,1 °C 19,1 °C 68 % 1019,7 hPa 0,0 mm 1,5 km/h (1 Bft) O 79 ° 1 min 0,000 mm 6,5 UV-I 814 W/m² 13,1 °C 19,1 °C 3,2 km/h (1 Bft)
13.08.2017 12:29 19,1 °C 19,1 °C 65 % 1019,7 hPa 0,0 mm 1,2 km/h (1 Bft) O 79 ° 1 min 0,000 mm 6,5 UV-I 814 W/m² 12,4 °C 19,1 °C 3,2 km/h (1 Bft)
13.08.2017 12:30 19,1 °C 19,1 °C 67 % 1019,6 hPa 0,0 mm 2,8 km/h (1 Bft) O-SO 109 ° 1 min 0,000 mm 6,5 UV-I 816 W/m² 12,8 °C 19,1 °C 4,8 km/h (1 Bft)
13.08.2017 12:31 19,2 °C 19,2 °C 64 % 1019,6 hPa 0,0 mm 1,0 km/h (0 Bft) O-SO 109 ° 1 min 0,000 mm 6,5 UV-I 816 W/m² 12,2 °C 19,2 °C 3,2 km/h (1 Bft)
13.08.2017 12:32 19,2 °C 19,2 °C 66 % 1019,7 hPa 0,0 mm 0,2 km/h (0 Bft) O-SO 109 ° 1 min 0,000 mm 6,5 UV-I 816 W/m² 12,7 °C 19,2 °C 1,6 km/h (1 Bft)
13.08.2017 12:33 19,3 °C 19,3 °C 71 % 1019,7 hPa 0,0 mm 1,3 km/h (1 Bft) O-SO 115 ° 1 min 0,000 mm 6,5 UV-I 816 W/m² 13,9 °C 19,3 °C 3,2 km/h (1 Bft)
13.08.2017 12:34 19,3 °C 19,3 °C 70 % 1019,7 hPa 0,0 mm 3,2 km/h (1 Bft) S-SO 150 ° 1 min 0,000 mm 6,5 UV-I 817 W/m² 13,7 °C 19,3 °C 4,8 km/h (1 Bft)
13.08.2017 12:35 19,3 °C 19,3 °C 64 % 1019,7 hPa 0,0 mm 3,4 km/h (1 Bft) S-SO 163 ° 1 min 0,000 mm 6,5 UV-I 817 W/m² 12,3 °C 19,3 °C 6,4 km/h (2 Bft)
13.08.2017 12:36 19,2 °C 19,3 °C 65 % 1019,6 hPa 0,0 mm 0,0 km/h (0 Bft) S-SO 163 ° 1 min 0,000 mm 6,5 UV-I 817 W/m² 12,5 °C 19,2 °C 0,0 km/h (0 Bft)
13.08.2017 12:37 19,3 °C 19,3 °C 68 % 1019,7 hPa 0,0 mm 0,3 km/h (0 Bft) S 174 ° 1 min 0,000 mm 6,5 UV-I 819 W/m² 13,2 °C 19,3 °C 1,6 km/h (1 Bft)
13.08.2017 12:39 19,7 °C 19,7 °C 68 % 1019,7 hPa 0,0 mm 3,5 km/h (1 Bft) NW 311 ° 2 min 0,000 mm 6,6 UV-I 821 W/m² 13,6 °C 19,7 °C 6,4 km/h (2 Bft)
13.08.2017 12:40 19,7 °C 19,7 °C 62 % 1019,7 hPa 0,0 mm 1,9 km/h (1 Bft) NW 311 ° 1 min 0,000 mm 6,6 UV-I 821 W/m² 12,2 °C 19,7 °C 3,2 km/h (1 Bft)
13.08.2017 12:41 19,7 °C 19,7 °C 59 % 1019,6 hPa 0,0 mm 0,8 km/h (0 Bft) NW 311 ° 1 min 0,000 mm 6,6 UV-I 823 W/m² 11,5 °C 19,7 °C 3,2 km/h (1 Bft)
13.08.2017 12:42 19,7 °C 19,7 °C 62 % 1019,6 hPa 0,0 mm 1,9 km/h (1 Bft) N 355 ° 1 min 0,000 mm 6,6 UV-I 824 W/m² 12,2 °C 19,7 °C 3,2 km/h (1 Bft)
13.08.2017 12:43 19,6 °C 19,7 °C 61 % 1019,6 hPa 0,0 mm 1,5 km/h (1 Bft) O-NO 78 ° 1 min 0,000 mm 6,6 UV-I 824 W/m² 11,9 °C 19,6 °C 4,8 km/h (1 Bft)
13.08.2017 12:44 19,6 °C 19,6 °C 64 % 1019,6 hPa 0,0 mm 5,8 km/h (2 Bft) O-SO 122 ° 1 min 0,000 mm 6,6 UV-I 824 W/m² 12,6 °C 19,6 °C 6,4 km/h (2 Bft)
13.08.2017 12:45 19,4 °C 19,6 °C 65 % 1019,6 hPa 0,0 mm 4,8 km/h (1 Bft) SO 125 ° 1 min 0,000 mm 6,7 UV-I 824 W/m² 12,6 °C 19,4 °C 6,4 km/h (2 Bft)
13.08.2017 12:46 19,4 °C 19,4 °C 67 % 1019,6 hPa 0,0 mm 4,0 km/h (1 Bft) SO 126 ° 1 min 0,000 mm 6,7 UV-I 824 W/m² 13,1 °C 19,4 °C 6,4 km/h (2 Bft)
13.08.2017 12:47 19,4 °C 19,4 °C 73 % 1019,6 hPa 0,0 mm 1,7 km/h (1 Bft) SO 125 ° 1 min 0,000 mm 6,7 UV-I 826 W/m² 14,4 °C 19,4 °C 3,2 km/h (1 Bft)
13.08.2017 12:48 19,4 °C 19,4 °C 64 % 1019,6 hPa 0,0 mm 2,0 km/h (1 Bft) NO 37 ° 1 min 0,000 mm 6,7 UV-I 828 W/m² 12,4 °C 19,4 °C 4,8 km/h (1 Bft)
13.08.2017 12:49 19,5 °C 19,5 °C 64 % 1019,5 hPa 0,0 mm 1,7 km/h (1 Bft) N 9 ° 1 min 0,000 mm 6,7 UV-I 830 W/m² 12,5 °C 19,5 °C 4,8 km/h (1 Bft)
13.08.2017 12:50 19,6 °C 19,6 °C 63 % 1019,5 hPa 0,0 mm 3,6 km/h (1 Bft) N-NO 18 ° 1 min 0,000 mm 6,7 UV-I 830 W/m² 12,4 °C 19,6 °C 8,0 km/h (2 Bft)
13.08.2017 12:51 19,8 °C 19,8 °C 67 % 1019,5 hPa 0,0 mm 5,0 km/h (1 Bft) NO 37 ° 1 min 0,000 mm 6,7 UV-I 828 W/m² 13,5 °C 19,8 °C 8,0 km/h (2 Bft)
13.08.2017 12:52 19,9 °C 19,9 °C 65 % 1019,5 hPa 0,0 mm 2,0 km/h (1 Bft) NO 41 ° 1 min 0,000 mm 6,7 UV-I 830 W/m² 13,1 °C 19,9 °C 4,8 km/h (1 Bft)
13.08.2017 12:53 20,0 °C 20,0 °C 66 % 1019,5 hPa 0,0 mm 4,3 km/h (1 Bft) NO 41 ° 1 min 0,000 mm 6,7 UV-I 828 W/m² 13,4 °C 20,0 °C 6,4 km/h (2 Bft)
13.08.2017 12:54 19,9 °C 20,0 °C 61 % 1019,5 hPa 0,0 mm 3,5 km/h (1 Bft) NO 41 ° 1 min 0,000 mm 6,7 UV-I 830 W/m² 12,2 °C 19,9 °C 6,4 km/h (2 Bft)
13.08.2017 12:55 19,9 °C 19,9 °C 62 % 1019,5 hPa 0,0 mm 2,1 km/h (1 Bft) NO 36 ° 1 min 0,000 mm 6,7 UV-I 830 W/m² 12,4 °C 19,9 °C 6,4 km/h (2 Bft)
13.08.2017 12:56 20,0 °C 20,0 °C 65 % 1019,5 hPa 0,0 mm 5,4 km/h (1 Bft) N 11 ° 1 min 0,000 mm 6,7 UV-I 831 W/m² 13,2 °C 20,0 °C 11,3 km/h (2 Bft)
13.08.2017 12:57 20,2 °C 20,2 °C 62 % 1019,5 hPa 0,0 mm 5,7 km/h (1 Bft) N-NO 12 ° 1 min 0,000 mm 6,7 UV-I 831 W/m² 12,7 °C 20,2 °C 8,0 km/h (2 Bft)
13.08.2017 12:58 20,1 °C 20,2 °C 60 % 1019,5 hPa 0,0 mm 2,9 km/h (1 Bft) N-NO 12 ° 1 min 0,000 mm 6,7 UV-I 833 W/m² 12,1 °C 20,1 °C 4,8 km/h (1 Bft)
13.08.2017 12:59 20,1 °C 20,1 °C 63 % 1019,4 hPa 0,0 mm 4,1 km/h (1 Bft) N-NO 17 ° 1 min 0,000 mm 6,7 UV-I 833 W/m² 12,8 °C 20,1 °C 6,4 km/h (2 Bft)
13.08.2017 13:00 20,3 °C 20,3 °C 69 % 1019,4 hPa 0,0 mm 5,1 km/h (1 Bft) W 267 ° 1 min 0,000 mm 6,7 UV-I 833 W/m² 14,4 °C 20,3 °C 11,3 km/h (2 Bft)
13.08.2017 13:01 20,3 °C 20,3 °C 61 % 1019,4 hPa 0,0 mm 8,0 km/h (2 Bft) NW 315 ° 1 min 0,483 mm 6,7 UV-I 831 W/m² 12,5 °C 20,3 °C 11,3 km/h (2 Bft)
13.08.2017 13:02 20,1 °C 20,3 °C 60 % 1019,3 hPa 0,0 mm 6,7 km/h (2 Bft) W-SW 255 ° 1 min 0,000 mm 6,7 UV-I 830 W/m² 12,1 °C 20,1 °C 12,9 km/h (3 Bft)
13.08.2017 13:03 20,1 °C 20,1 °C 64 % 1019,4 hPa 0,0 mm 5,9 km/h (2 Bft) W 263 ° 1 min 0,000 mm 6,7 UV-I 830 W/m² 13,1 °C 20,1 °C 11,3 km/h (2 Bft)
13.08.2017 13:04 20,1 °C 20,1 °C 66 % 1019,4 hPa 0,0 mm 2,9 km/h (1 Bft) W 277 ° 1 min 0,000 mm 6,7 UV-I 831 W/m² 13,5 °C 20,1 °C 4,8 km/h (1 Bft)
13.08.2017 13:05 20,1 °C 20,2 °C 66 % 1019,4 hPa 0,0 mm 3,8 km/h (1 Bft) W-SW 257 ° 1 min 0,000 mm 6,7 UV-I 831 W/m² 13,5 °C 20,1 °C 6,4 km/h (2 Bft)
13.08.2017 13:06 20,2 °C 20,2 °C 65 % 1019,4 hPa 0,0 mm 3,9 km/h (1 Bft) W 262 ° 1 min 0,000 mm 6,7 UV-I 835 W/m² 13,4 °C 20,2 °C 6,4 km/h (2 Bft)
13.08.2017 13:07 20,3 °C 20,3 °C 73 % 1019,4 hPa 0,0 mm 8,6 km/h (2 Bft) W-SW 244 ° 1 min 0,000 mm 6,8 UV-I 835 W/m² 15,3 °C 20,3 °C 11,3 km/h (2 Bft)
13.08.2017 13:09 20,4 °C 20,4 °C 66 % 1019,3 hPa 0,0 mm 3,2 km/h (1 Bft) S-SW 211 ° 2 min 0,000 mm 6,8 UV-I 835 W/m² 13,8 °C 20,4 °C 6,4 km/h (2 Bft)
13.08.2017 13:10 20,4 °C 20,4 °C 68 % 1019,3 hPa 0,0 mm 1,8 km/h (1 Bft) S-SW 211 ° 1 min 0,000 mm 6,8 UV-I 837 W/m² 14,3 °C 20,4 °C 3,2 km/h (1 Bft)
13.08.2017 13:11 20,4 °C 20,4 °C 61 % 1019,3 hPa 0,0 mm 1,3 km/h (1 Bft) S-SW 211 ° 1 min 0,000 mm 6,8 UV-I 837 W/m² 12,6 °C 20,4 °C 3,2 km/h (1 Bft)
13.08.2017 13:12 20,3 °C 20,4 °C 65 % 1019,3 hPa 0,0 mm 1,0 km/h (0 Bft) S-SW 204 ° 1 min 0,000 mm 6,8 UV-I 835 W/m² 13,5 °C 20,3 °C 3,2 km/h (1 Bft)
13.08.2017 13:13 20,3 °C 20,3 °C 62 % 1019,3 hPa 0,0 mm 1,0 km/h (0 Bft) S-SW 204 ° 1 min 0,000 mm 6,8 UV-I 837 W/m² 12,8 °C 20,3 °C 1,6 km/h (1 Bft)
13.08.2017 13:14 20,2 °C 20,3 °C 61 % 1019,3 hPa 0,0 mm 0,7 km/h (0 Bft) S 174 ° 1 min 0,000 mm 6,8 UV-I 835 W/m² 12,4 °C 20,2 °C 1,6 km/h (1 Bft)
13.08.2017 13:15 20,1 °C 20,2 °C 63 % 1019,3 hPa 0,0 mm 1,9 km/h (1 Bft) O 99 ° 1 min 0,000 mm 6,8 UV-I 837 W/m² 12,8 °C 20,1 °C 3,2 km/h (1 Bft)
13.08.2017 13:16 20,2 °C 20,2 °C 64 % 1019,3 hPa 0,0 mm 4,8 km/h (1 Bft) N 5 ° 1 min 0,000 mm 6,8 UV-I 838 W/m² 13,2 °C 20,2 °C 8,0 km/h (2 Bft)
13.08.2017 13:17 20,4 °C 20,4 °C 64 % 1019,3 hPa 0,0 mm 4,1 km/h (1 Bft) N 10 ° 1 min 0,000 mm 6,8 UV-I 837 W/m² 13,4 °C 20,4 °C 4,8 km/h (1 Bft)
13.08.2017 13:18 20,6 °C 20,6 °C 61 % 1019,3 hPa 0,0 mm 4,3 km/h (1 Bft) N 349 ° 1 min 0,000 mm 6,8 UV-I 837 W/m² 12,8 °C 20,6 °C 6,4 km/h (2 Bft)
13.08.2017 13:19 20,6 °C 20,6 °C 59 % 1019,3 hPa 0,0 mm 1,5 km/h (1 Bft) N 355 ° 1 min 0,000 mm 6,8 UV-I 837 W/m² 12,3 °C 20,6 °C 4,8 km/h (1 Bft)
13.08.2017 13:20 20,5 °C 20,6 °C 59 % 1019,3 hPa 0,0 mm 4,6 km/h (1 Bft) N 5 ° 1 min 0,000 mm 6,8 UV-I 838 W/m² 12,2 °C 20,5 °C 6,4 km/h (2 Bft)
13.08.2017 13:21 20,5 °C 20,5 °C 60 % 1019,3 hPa 0,0 mm 6,7 km/h (2 Bft) N 360 ° 1 min 0,000 mm 6,8 UV-I 837 W/m² 12,5 °C 20,5 °C 8,0 km/h (2 Bft)
13.08.2017 13:22 20,6 °C 20,6 °C 64 % 1019,2 hPa 0,0 mm 4,1 km/h (1 Bft) N-NO 19 ° 1 min 0,000 mm 6,8 UV-I 837 W/m² 13,5 °C 20,6 °C 6,4 km/h (2 Bft)
13.08.2017 13:23 20,7 °C 20,7 °C 62 % 1019,2 hPa 0,0 mm 5,5 km/h (1 Bft) N-NO 20 ° 1 min 0,000 mm 6,8 UV-I 838 W/m² 13,2 °C 20,7 °C 6,4 km/h (2 Bft)
13.08.2017 13:24 20,7 °C 20,7 °C 59 % 1019,2 hPa 0,0 mm 3,9 km/h (1 Bft) N 5 ° 1 min 0,000 mm 6,8 UV-I 838 W/m² 12,4 °C 20,7 °C 4,8 km/h (1 Bft)
13.08.2017 13:25 20,6 °C 20,7 °C 62 % 1019,2 hPa 0,0 mm 7,6 km/h (2 Bft) N-NO 31 ° 1 min 0,000 mm 6,8 UV-I 838 W/m² 13,1 °C 20,6 °C 12,9 km/h (3 Bft)
13.08.2017 13:26 20,5 °C 20,6 °C 60 % 1019,2 hPa 0,0 mm 4,4 km/h (1 Bft) O 86 ° 1 min 0,000 mm 6,8 UV-I 838 W/m² 12,5 °C 20,5 °C 6,4 km/h (2 Bft)
13.08.2017 13:27 20,4 °C 20,5 °C 62 % 1019,2 hPa 0,0 mm 2,5 km/h (1 Bft) NO 44 ° 1 min 0,000 mm 6,7 UV-I 837 W/m² 12,9 °C 20,4 °C 4,8 km/h (1 Bft)
13.08.2017 13:28 20,6 °C 20,6 °C 70 % 1019,2 hPa 0,0 mm 4,7 km/h (1 Bft) W 271 ° 1 min 0,000 mm 6,7 UV-I 838 W/m² 14,9 °C 20,6 °C 6,4 km/h (2 Bft)
13.08.2017 13:29 20,7 °C 20,7 °C 68 % 1019,2 hPa 0,0 mm 5,0 km/h (1 Bft) W 275 ° 1 min 0,000 mm 6,7 UV-I 837 W/m² 14,6 °C 20,7 °C 6,4 km/h (2 Bft)
13.08.2017 13:30 20,8 °C 20,8 °C 62 % 1019,2 hPa 0,0 mm 6,6 km/h (2 Bft) W-NW 302 ° 1 min 0,000 mm 6,7 UV-I 838 W/m² 13,2 °C 20,8 °C 8,0 km/h (2 Bft)
13.08.2017 13:31 20,7 °C 20,8 °C 62 % 1019,1 hPa 0,0 mm 6,6 km/h (2 Bft) NW 312 ° 1 min 0,000 mm 6,7 UV-I 837 W/m² 13,2 °C 20,7 °C 11,3 km/h (2 Bft)
13.08.2017 13:32 20,6 °C 20,7 °C 63 % 1019,2 hPa 0,0 mm 5,0 km/h (1 Bft) NW 305 ° 1 min 0,000 mm 6,7 UV-I 837 W/m² 13,3 °C 20,6 °C 8,0 km/h (2 Bft)
13.08.2017 13:33 20,6 °C 20,7 °C 63 % 1019,1 hPa 0,0 mm 4,2 km/h (1 Bft) W-NW 299 ° 1 min 0,000 mm 6,7 UV-I 837 W/m² 13,3 °C 20,6 °C 6,4 km/h (2 Bft)
13.08.2017 13:34 20,7 °C 20,7 °C 63 % 1019,1 hPa 0,0 mm 3,6 km/h (1 Bft) NW 309 ° 1 min 0,000 mm 6,7 UV-I 835 W/m² 13,4 °C 20,7 °C 6,4 km/h (2 Bft)
13.08.2017 13:35 20,5 °C 20,7 °C 59 % 1019,1 hPa 0,0 mm 2,2 km/h (1 Bft) W-NW 288 ° 1 min 0,000 mm 6,7 UV-I 835 W/m² 12,2 °C 20,5 °C 3,2 km/h (1 Bft)
13.08.2017 13:36 20,4 °C 20,5 °C 61 % 1019,1 hPa 0,0 mm 3,0 km/h (1 Bft) W 261 ° 1 min 0,000 mm 6,7 UV-I 835 W/m² 12,6 °C 20,4 °C 6,4 km/h (2 Bft)
13.08.2017 13:37 20,4 °C 20,4 °C 63 % 1019,0 hPa 0,0 mm 5,1 km/h (1 Bft) W-NW 285 ° 1 min 0,000 mm 6,7 UV-I 835 W/m² 13,1 °C 20,4 °C 9,7 km/h (2 Bft)
13.08.2017 13:38 20,4 °C 20,4 °C 62 % 1019,1 hPa 0,0 mm 5,6 km/h (1 Bft) W 263 ° 1 min 0,000 mm 6,7 UV-I 837 W/m² 12,9 °C 20,4 °C 11,3 km/h (2 Bft)
13.08.2017 13:39 20,3 °C 20,4 °C 61 % 1019,1 hPa 0,0 mm 7,8 km/h (2 Bft) W-SW 253 ° 1 min 0,000 mm 6,7 UV-I 835 W/m² 12,5 °C 20,3 °C 11,3 km/h (2 Bft)
13.08.2017 13:40 20,3 °C 20,3 °C 63 % 1019,1 hPa 0,0 mm 4,4 km/h (1 Bft) W-SW 253 ° 1 min 0,000 mm 6,7 UV-I 837 W/m² 13,0 °C 20,3 °C 4,8 km/h (1 Bft)
13.08.2017 13:41 20,4 °C 20,4 °C 62 % 1019,1 hPa 0,0 mm 1,7 km/h (1 Bft) W-SW 253 ° 1 min 0,000 mm 6,7 UV-I 835 W/m² 12,9 °C 20,4 °C 3,2 km/h (1 Bft)
13.08.2017 13:42 20,4 °C 20,4 °C 64 % 1019,1 hPa 0,0 mm 2,3 km/h (1 Bft) NW 322 ° 1 min 0,000 mm 6,7 UV-I 835 W/m² 13,4 °C 20,4 °C 8,0 km/h (2 Bft)
13.08.2017 13:43 20,5 °C 20,5 °C 65 % 1019,1 hPa 0,0 mm 5,8 km/h (2 Bft) NW 313 ° 1 min 0,000 mm 6,7 UV-I 837 W/m² 13,7 °C 20,5 °C 9,7 km/h (2 Bft)
13.08.2017 13:44 20,7 °C 20,7 °C 63 % 1019,1 hPa 0,0 mm 8,3 km/h (2 Bft) NW 315 ° 1 min 0,000 mm 6,7 UV-I 837 W/m² 13,4 °C 20,7 °C 12,9 km/h (3 Bft)
13.08.2017 13:45 20,6 °C 20,7 °C 59 % 1019,1 hPa 0,0 mm 4,2 km/h (1 Bft) W 268 ° 1 min 0,000 mm 6,7 UV-I 837 W/m² 12,3 °C 20,6 °C 9,7 km/h (2 Bft)
13.08.2017 13:46 20,6 °C 20,7 °C 67 % 1019,1 hPa 0,0 mm 4,0 km/h (1 Bft) N 11 ° 1 min 0,000 mm 6,7 UV-I 837 W/m² 14,3 °C 20,6 °C 6,4 km/h (2 Bft)
13.08.2017 13:47 20,7 °C 20,7 °C 66 % 1019,1 hPa 0,0 mm 2,6 km/h (1 Bft) N-NO 25 ° 1 min 0,000 mm 6,7 UV-I 831 W/m² 14,1 °C 20,7 °C 4,8 km/h (1 Bft)
13.08.2017 13:48 20,7 °C 20,7 °C 65 % 1019,1 hPa 0,0 mm 2,1 km/h (1 Bft) NW 311 ° 1 min 0,000 mm 6,7 UV-I 830 W/m² 13,9 °C 20,7 °C 4,8 km/h (1 Bft)
13.08.2017 13:49 20,7 °C 20,7 °C 62 % 1019,0 hPa 0,0 mm 4,6 km/h (1 Bft) N-NW 327 ° 1 min 0,000 mm 6,7 UV-I 831 W/m² 13,2 °C 20,7 °C 6,4 km/h (2 Bft)
13.08.2017 13:50 20,6 °C 20,7 °C 59 % 1019,0 hPa 0,0 mm 2,3 km/h (1 Bft) N-NW 333 ° 1 min 0,000 mm 6,7 UV-I 830 W/m² 12,3 °C 20,6 °C 4,8 km/h (1 Bft)
13.08.2017 13:51 20,6 °C 20,6 °C 64 % 1019,0 hPa 0,0 mm 1,5 km/h (1 Bft) N-NW 333 ° 1 min 0,000 mm 6,7 UV-I 831 W/m² 13,5 °C 20,6 °C 3,2 km/h (1 Bft)
13.08.2017 13:52 20,7 °C 20,7 °C 64 % 1019,0 hPa 0,0 mm 1,9 km/h (1 Bft) N-NW 348 ° 1 min 0,000 mm 6,7 UV-I 830 W/m² 13,6 °C 20,7 °C 3,2 km/h (1 Bft)
13.08.2017 13:53 20,7 °C 20,8 °C 64 % 1019,0 hPa 0,0 mm 1,9 km/h (1 Bft) N 360 ° 1 min 0,000 mm 6,7 UV-I 830 W/m² 13,6 °C 20,7 °C 3,2 km/h (1 Bft)
13.08.2017 13:54 20,8 °C 20,8 °C 60 % 1019,0 hPa 0,0 mm 0,5 km/h (0 Bft) N 360 ° 1 min 0,000 mm 6,6 UV-I 830 W/m² 12,7 °C 20,8 °C 1,6 km/h (1 Bft)
13.08.2017 13:55 20,8 °C 20,8 °C 64 % 1019,0 hPa 0,0 mm 1,5 km/h (1 Bft) N 360 ° 1 min 0,000 mm 6,6 UV-I 830 W/m² 13,7 °C 20,8 °C 3,2 km/h (1 Bft)
13.08.2017 13:56 20,7 °C 20,8 °C 64 % 1019,0 hPa 0,0 mm 2,4 km/h (1 Bft) S-SO 166 ° 1 min 0,000 mm 6,7 UV-I 833 W/m² 13,6 °C 20,7 °C 4,8 km/h (1 Bft)
13.08.2017 13:57 20,7 °C 20,7 °C 63 % 1019,0 hPa 0,0 mm 1,6 km/h (1 Bft) W-NW 286 ° 1 min 0,000 mm 6,7 UV-I 842 W/m² 13,4 °C 20,7 °C 4,8 km/h (1 Bft)
13.08.2017 13:58 20,7 °C 20,7 °C 60 % 1019,0 hPa 0,0 mm 6,0 km/h (2 Bft) W 281 ° 1 min 0,000 mm 6,7 UV-I 858 W/m² 12,7 °C 20,7 °C 9,7 km/h (2 Bft)
13.08.2017 13:59 20,7 °C 20,7 °C 61 % 1018,9 hPa 0,0 mm 4,6 km/h (1 Bft) N-NW 331 ° 1 min 0,000 mm 6,7 UV-I 872 W/m² 12,9 °C 20,7 °C 9,7 km/h (2 Bft)
13.08.2017 14:00 20,8 °C 20,8 °C 64 % 1018,9 hPa 0,0 mm 9,7 km/h (2 Bft) NW 324 ° 1 min 0,000 mm 6,7 UV-I 856 W/m² 13,7 °C 20,8 °C 14,5 km/h (3 Bft)
13.08.2017 14:01 21,0 °C 21,0 °C 66 % 1019,0 hPa 0,0 mm 5,1 km/h (1 Bft) NW 323 ° 1 min 0,508 mm 6,6 UV-I 838 W/m² 14,4 °C 21,0 °C 12,9 km/h (3 Bft)
13.08.2017 14:02 21,1 °C 21,1 °C 65 % 1018,9 hPa 0,0 mm 5,0 km/h (1 Bft) N-NW 348 ° 1 min 0,000 mm 6,6 UV-I 830 W/m² 14,3 °C 21,1 °C 6,4 km/h (2 Bft)
13.08.2017 14:03 21,1 °C 21,1 °C 60 % 1019,0 hPa 0,0 mm 5,2 km/h (1 Bft) N 9 ° 1 min 0,000 mm 6,6 UV-I 826 W/m² 13,0 °C 21,1 °C 8,0 km/h (2 Bft)
13.08.2017 14:04 21,0 °C 21,1 °C 59 % 1018,9 hPa 0,0 mm 6,1 km/h (2 Bft) NO 40 ° 1 min 0,000 mm 6,6 UV-I 828 W/m² 12,7 °C 21,0 °C 9,7 km/h (2 Bft)
13.08.2017 14:05 21,1 °C 21,1 °C 67 % 1018,9 hPa 0,0 mm 3,6 km/h (1 Bft) NO 35 ° 1 min 0,000 mm 6,6 UV-I 831 W/m² 14,7 °C 21,1 °C 4,8 km/h (1 Bft)
13.08.2017 14:06 21,1 °C 21,1 °C 59 % 1019,0 hPa 0,0 mm 3,1 km/h (1 Bft) N-NW 340 ° 1 min 0,000 mm 6,6 UV-I 828 W/m² 12,8 °C 21,1 °C 4,8 km/h (1 Bft)
13.08.2017 14:07 21,0 °C 21,1 °C 61 % 1019,0 hPa 0,0 mm 2,2 km/h (1 Bft) N-NW 340 ° 1 min 0,000 mm 6,6 UV-I 830 W/m² 13,2 °C 21,0 °C 4,8 km/h (1 Bft)
13.08.2017 14:08 20,9 °C 21,0 °C 58 % 1018,9 hPa 0,0 mm 0,9 km/h (0 Bft) N-NO 13 ° 1 min 0,000 mm 6,6 UV-I 831 W/m² 12,3 °C 20,9 °C 1,6 km/h (1 Bft)
13.08.2017 14:09 20,9 °C 20,9 °C 58 % 1018,9 hPa 0,0 mm 2,6 km/h (1 Bft) N-NW 342 ° 1 min 0,000 mm 6,6 UV-I 833 W/m² 12,3 °C 20,9 °C 8,0 km/h (2 Bft)
13.08.2017 14:10 21,1 °C 21,1 °C 62 % 1018,9 hPa 0,0 mm 6,2 km/h (2 Bft) N-NW 338 ° 1 min 0,000 mm 6,6 UV-I 831 W/m² 13,5 °C 21,1 °C 8,0 km/h (2 Bft)
13.08.2017 14:11 21,2 °C 21,2 °C 61 % 1018,9 hPa 0,0 mm 4,4 km/h (1 Bft) N 350 ° 1 min 0,000 mm 6,6 UV-I 830 W/m² 13,4 °C 21,2 °C 6,4 km/h (2 Bft)
13.08.2017 14:12 21,3 °C 21,3 °C 65 % 1019,0 hPa 0,0 mm 4,6 km/h (1 Bft) N 10 ° 1 min 0,000 mm 6,6 UV-I 826 W/m² 14,4 °C 21,3 °C 6,4 km/h (2 Bft)
13.08.2017 14:13 21,3 °C 21,3 °C 62 % 1018,9 hPa 0,0 mm 3,7 km/h (1 Bft) N 11 ° 1 min 0,000 mm 6,6 UV-I 826 W/m² 13,7 °C 21,3 °C 4,8 km/h (1 Bft)
13.08.2017 14:14 21,3 °C 21,3 °C 62 % 1018,9 hPa 0,0 mm 3,3 km/h (1 Bft) W-NW 292 ° 1 min 0,000 mm 6,5 UV-I 823 W/m² 13,7 °C 21,3 °C 4,8 km/h (1 Bft)
13.08.2017 14:15 21,2 °C 21,3 °C 64 % 1018,9 hPa 0,0 mm 2,1 km/h (1 Bft) W 271 ° 1 min 0,000 mm 6,5 UV-I 823 W/m² 14,1 °C 21,2 °C 4,8 km/h (1 Bft)
13.08.2017 14:16 21,2 °C 21,2 °C 61 % 1018,9 hPa 0,0 mm 0,9 km/h (0 Bft) NW 315 ° 1 min 0,000 mm 6,5 UV-I 823 W/m² 13,4 °C 21,2 °C 1,6 km/h (1 Bft)
13.08.2017 14:17 21,1 °C 21,2 °C 61 % 1018,8 hPa 0,0 mm 2,0 km/h (1 Bft) W-NW 283 ° 1 min 0,000 mm 6,5 UV-I 824 W/m² 13,3 °C 21,1 °C 4,8 km/h (1 Bft)
13.08.2017 14:19 21,1 °C 21,1 °C 66 % 1018,8 hPa 0,0 mm 3,3 km/h (1 Bft) NW 315 ° 2 min 0,000 mm 6,5 UV-I 824 W/m² 14,5 °C 21,1 °C 4,8 km/h (1 Bft)
13.08.2017 14:20 21,0 °C 21,1 °C 61 % 1018,8 hPa 0,0 mm 4,4 km/h (1 Bft) NW 304 ° 1 min 0,000 mm 6,5 UV-I 823 W/m² 13,2 °C 21,0 °C 6,4 km/h (2 Bft)
13.08.2017 14:21 21,1 °C 21,1 °C 61 % 1018,8 hPa 0,0 mm 3,9 km/h (1 Bft) NW 313 ° 1 min 0,000 mm 6,5 UV-I 821 W/m² 13,3 °C 21,1 °C 6,4 km/h (2 Bft)
13.08.2017 14:22 21,1 °C 21,1 °C 60 % 1018,8 hPa 0,0 mm 2,6 km/h (1 Bft) N-NO 20 ° 1 min 0,000 mm 6,4 UV-I 821 W/m² 13,0 °C 21,1 °C 4,8 km/h (1 Bft)
13.08.2017 14:23 21,1 °C 21,1 °C 65 % 1018,7 hPa 0,0 mm 2,4 km/h (1 Bft) N-NW 347 ° 1 min 0,000 mm 6,5 UV-I 824 W/m² 14,3 °C 21,1 °C 4,8 km/h (1 Bft)
13.08.2017 14:24 21,2 °C 21,2 °C 63 % 1018,7 hPa 0,0 mm 0,8 km/h (0 Bft) W-SW 244 ° 1 min 0,000 mm 6,5 UV-I 826 W/m² 13,9 °C 21,2 °C 3,2 km/h (1 Bft)
13.08.2017 14:25 21,3 °C 21,3 °C 64 % 1018,8 hPa 0,0 mm 1,5 km/h (1 Bft) W-SW 244 ° 1 min 0,000 mm 6,5 UV-I 824 W/m² 14,2 °C 21,3 °C 3,2 km/h (1 Bft)
13.08.2017 14:26 21,2 °C 21,3 °C 61 % 1018,7 hPa 0,0 mm 1,0 km/h (0 Bft) W-SW 244 ° 1 min 0,000 mm 6,4 UV-I 823 W/m² 13,4 °C 21,2 °C 1,6 km/h (1 Bft)
13.08.2017 14:27 21,2 °C 21,2 °C 61 % 1018,8 hPa 0,0 mm 2,6 km/h (1 Bft) N-NW 333 ° 1 min 0,000 mm 6,4 UV-I 821 W/m² 13,4 °C 21,2 °C 4,8 km/h (1 Bft)
13.08.2017 14:28 21,4 °C 21,4 °C 63 % 1018,8 hPa 0,0 mm 4,8 km/h (1 Bft) NW 326 ° 1 min 0,000 mm 6,4 UV-I 817 W/m² 14,1 °C 21,4 °C 6,4 km/h (2 Bft)
13.08.2017 14:29 21,4 °C 21,4 °C 62 % 1018,7 hPa 0,0 mm 1,9 km/h (1 Bft) N-NW 347 ° 1 min 0,000 mm 6,3 UV-I 812 W/m² 13,8 °C 21,4 °C 3,2 km/h (1 Bft)
13.08.2017 14:30 21,5 °C 21,5 °C 60 % 1018,8 hPa 0,0 mm 2,5 km/h (1 Bft) N 355 ° 1 min 0,000 mm 6,3 UV-I 814 W/m² 13,4 °C 21,5 °C 4,8 km/h (1 Bft)
13.08.2017 14:31 21,6 °C 21,6 °C 60 % 1018,8 hPa 0,0 mm 3,2 km/h (1 Bft) N 350 ° 1 min 0,000 mm 6,3 UV-I 812 W/m² 13,5 °C 21,6 °C 4,8 km/h (1 Bft)
13.08.2017 14:32 21,7 °C 21,7 °C 60 % 1018,8 hPa 0,0 mm 5,3 km/h (1 Bft) N-NW 335 ° 1 min 0,000 mm 6,3 UV-I 814 W/m² 13,6 °C 21,7 °C 8,0 km/h (2 Bft)
13.08.2017 14:34 21,7 °C 21,7 °C 61 % 1018,7 hPa 0,0 mm 4,6 km/h (1 Bft) N-NO 24 ° 2 min 0,000 mm 6,3 UV-I 812 W/m² 13,8 °C 21,7 °C 8,0 km/h (2 Bft)
13.08.2017 14:35 21,7 °C 21,7 °C 60 % 1018,7 hPa 0,0 mm 3,1 km/h (1 Bft) N 355 ° 1 min 0,000 mm 6,3 UV-I 816 W/m² 13,6 °C 21,7 °C 4,8 km/h (1 Bft)
13.08.2017 14:36 21,6 °C 21,7 °C 61 % 1018,8 hPa 0,0 mm 4,1 km/h (1 Bft) NW 323 ° 1 min 0,000 mm 6,3 UV-I 816 W/m² 13,7 °C 21,6 °C 8,0 km/h (2 Bft)
13.08.2017 14:37 21,6 °C 21,6 °C 61 % 1018,7 hPa 0,0 mm 2,9 km/h (1 Bft) W-NW 296 ° 1 min 0,000 mm 6,3 UV-I 817 W/m² 13,7 °C 21,6 °C 6,4 km/h (2 Bft)
13.08.2017 14:38 21,5 °C 21,6 °C 61 % 1018,7 hPa 0,0 mm 3,2 km/h (1 Bft) W-NW 303 ° 1 min 0,000 mm 6,3 UV-I 821 W/m² 13,7 °C 21,5 °C 6,4 km/h (2 Bft)
13.08.2017 14:39 21,4 °C 21,5 °C 61 % 1018,7 hPa 0,0 mm 3,5 km/h (1 Bft) W-NW 302 ° 1 min 0,000 mm 6,4 UV-I 828 W/m² 13,6 °C 21,4 °C 4,8 km/h (1 Bft)
13.08.2017 14:40 21,3 °C 21,4 °C 59 % 1018,7 hPa 0,0 mm 4,7 km/h (1 Bft) N 350 ° 1 min 0,000 mm 6,4 UV-I 828 W/m² 13,0 °C 21,3 °C 6,4 km/h (2 Bft)
13.08.2017 14:41 21,4 °C 21,4 °C 61 % 1018,7 hPa 0,0 mm 4,8 km/h (1 Bft) N 350 ° 1 min 0,000 mm 6,3 UV-I 831 W/m² 13,6 °C 21,4 °C 8,0 km/h (2 Bft)
13.08.2017 14:42 21,6 °C 21,6 °C 63 % 1018,6 hPa 0,0 mm 6,0 km/h (2 Bft) W-NW 295 ° 1 min 0,000 mm 6,3 UV-I 831 W/m² 14,2 °C 21,6 °C 9,7 km/h (2 Bft)
13.08.2017 14:44 21,6 °C 21,6 °C 66 % 1018,6 hPa 0,0 mm 2,8 km/h (1 Bft) N-NW 327 ° 2 min 0,000 mm 6,3 UV-I 828 W/m² 15,0 °C 21,6 °C 4,8 km/h (1 Bft)
13.08.2017 14:45 21,6 °C 21,7 °C 63 % 1018,6 hPa 0,0 mm 4,1 km/h (1 Bft) NW 313 ° 1 min 0,000 mm 6,3 UV-I 828 W/m² 14,2 °C 21,6 °C 4,8 km/h (1 Bft)
13.08.2017 14:46 21,6 °C 21,6 °C 61 % 1018,6 hPa 0,0 mm 2,5 km/h (1 Bft) W-NW 298 ° 1 min 0,000 mm 6,3 UV-I 833 W/m² 13,7 °C 21,6 °C 4,8 km/h (1 Bft)
13.08.2017 14:47 21,5 °C 21,6 °C 63 % 1018,6 hPa 0,0 mm 7,2 km/h (2 Bft) W-NW 288 ° 1 min 0,000 mm 6,3 UV-I 833 W/m² 14,2 °C 21,5 °C 12,9 km/h (3 Bft)
13.08.2017 14:48 21,3 °C 21,5 °C 61 % 1018,6 hPa 0,0 mm 3,0 km/h (1 Bft) NW 315 ° 1 min 0,000 mm 6,3 UV-I 842 W/m² 13,5 °C 21,3 °C 4,8 km/h (1 Bft)
13.08.2017 14:49 21,3 °C 21,3 °C 60 % 1018,6 hPa 0,0 mm 3,5 km/h (1 Bft) W-NW 288 ° 1 min 0,000 mm 6,4 UV-I 849 W/m² 13,2 °C 21,3 °C 4,8 km/h (1 Bft)
13.08.2017 14:50 21,2 °C 21,3 °C 60 % 1018,6 hPa 0,0 mm 4,8 km/h (1 Bft) W-SW 250 ° 1 min 0,000 mm 6,4 UV-I 853 W/m² 13,1 °C 21,2 °C 6,4 km/h (2 Bft)
13.08.2017 14:51 21,2 °C 21,2 °C 64 % 1018,5 hPa 0,0 mm 4,6 km/h (1 Bft) W-NW 285 ° 1 min 0,000 mm 6,4 UV-I 860 W/m² 14,1 °C 21,2 °C 6,4 km/h (2 Bft)
13.08.2017 14:52 21,2 °C 21,2 °C 62 % 1018,6 hPa 0,0 mm 0,5 km/h (0 Bft) W-NW 285 ° 1 min 0,000 mm 6,4 UV-I 861 W/m² 13,6 °C 21,2 °C 3,2 km/h (1 Bft)
13.08.2017 14:53 21,3 °C 21,3 °C 61 % 1018,6 hPa 0,0 mm 1,1 km/h (1 Bft) N-NW 327 ° 1 min 0,000 mm 6,4 UV-I 865 W/m² 13,5 °C 21,3 °C 3,2 km/h (1 Bft)
13.08.2017 14:54 21,4 °C 21,4 °C 63 % 1018,6 hPa 0,0 mm 1,7 km/h (1 Bft) N-NW 327 ° 1 min 0,000 mm 6,4 UV-I 865 W/m² 14,1 °C 21,4 °C 3,2 km/h (1 Bft)
13.08.2017 14:55 21,6 °C 21,6 °C 62 % 1018,6 hPa 0,0 mm 3,5 km/h (1 Bft) N-NW 332 ° 1 min 0,000 mm 6,4 UV-I 865 W/m² 14,0 °C 21,6 °C 6,4 km/h (2 Bft)
13.08.2017 14:56 21,7 °C 21,7 °C 60 % 1018,5 hPa 0,0 mm 0,7 km/h (0 Bft) N-NW 330 ° 1 min 0,000 mm 6,4 UV-I 884 W/m² 13,6 °C 21,7 °C 1,6 km/h (1 Bft)
13.08.2017 14:57 21,8 °C 21,8 °C 64 % 1018,6 hPa 0,0 mm 2,6 km/h (1 Bft) NO 34 ° 1 min 0,000 mm 6,4 UV-I 907 W/m² 14,7 °C 21,8 °C 4,8 km/h (1 Bft)
13.08.2017 14:58 21,8 °C 21,8 °C 61 % 1018,5 hPa 0,0 mm 4,6 km/h (1 Bft) N 9 ° 1 min 0,000 mm 6,4 UV-I 918 W/m² 13,9 °C 21,8 °C 8,0 km/h (2 Bft)
13.08.2017 14:59 21,9 °C 21,9 °C 61 % 1018,5 hPa 0,0 mm 3,7 km/h (1 Bft) N-NW 327 ° 1 min 0,000 mm 6,4 UV-I 918 W/m² 14,0 °C 21,9 °C 4,8 km/h (1 Bft)
13.08.2017 15:00 22,1 °C 22,1 °C 61 % 1018,5 hPa 0,0 mm 7,3 km/h (2 Bft) NW 318 ° 1 min 0,000 mm 6,3 UV-I 909 W/m² 14,2 °C 22,1 °C 17,7 km/h (3 Bft)
13.08.2017 15:01 22,1 °C 22,1 °C 60 % 1018,5 hPa 0,0 mm 11,2 km/h (2 Bft) N-NW 345 ° 1 min 0,508 mm 6,2 UV-I 898 W/m² 14,0 °C 22,1 °C 16,1 km/h (3 Bft)
13.08.2017 15:02 22,1 °C 22,1 °C 60 % 1018,5 hPa 0,0 mm 6,6 km/h (2 Bft) NO 35 ° 1 min 0,000 mm 6,2 UV-I 893 W/m² 14,0 °C 22,1 °C 9,7 km/h (2 Bft)
13.08.2017 15:03 22,1 °C 22,1 °C 60 % 1018,5 hPa 0,0 mm 5,7 km/h (1 Bft) NW 306 ° 1 min 0,000 mm 6,1 UV-I 877 W/m² 14,0 °C 22,1 °C 8,0 km/h (2 Bft)
13.08.2017 15:05 22,2 °C 22,3 °C 61 % 1018,5 hPa 0,0 mm 4,2 km/h (1 Bft) NW 324 ° 2 min 0,000 mm 6,1 UV-I 875 W/m² 14,3 °C 22,2 °C 8,0 km/h (2 Bft)
13.08.2017 15:06 22,1 °C 22,2 °C 58 % 1018,6 hPa 0,0 mm 5,2 km/h (1 Bft) W-NW 286 ° 1 min 0,000 mm 6,0 UV-I 860 W/m² 13,4 °C 22,1 °C 6,4 km/h (2 Bft)
13.08.2017 15:07 21,9 °C 22,1 °C 59 % 1018,5 hPa 0,0 mm 3,0 km/h (1 Bft) N-NW 336 ° 1 min 0,000 mm 5,9 UV-I 851 W/m² 13,5 °C 21,9 °C 6,4 km/h (2 Bft)
13.08.2017 15:08 21,9 °C 21,9 °C 63 % 1018,5 hPa 0,0 mm 3,4 km/h (1 Bft) N-NO 19 ° 1 min 0,000 mm 5,9 UV-I 847 W/m² 14,5 °C 21,9 °C 6,4 km/h (2 Bft)
13.08.2017 15:09 22,1 °C 22,1 °C 64 % 1018,5 hPa 0,0 mm 3,6 km/h (1 Bft) NO 51 ° 1 min 0,000 mm 5,9 UV-I 849 W/m² 15,0 °C 22,1 °C 6,4 km/h (2 Bft)
13.08.2017 15:10 22,1 °C 22,1 °C 62 % 1018,6 hPa 0,0 mm 7,1 km/h (2 Bft) N-NO 27 ° 1 min 0,000 mm 5,9 UV-I 856 W/m² 14,5 °C 22,1 °C 11,3 km/h (2 Bft)
13.08.2017 15:11 22,1 °C 22,1 °C 59 % 1018,5 hPa 0,0 mm 5,2 km/h (1 Bft) N-NW 344 ° 1 min 0,000 mm 6,0 UV-I 860 W/m² 13,7 °C 22,1 °C 9,7 km/h (2 Bft)
13.08.2017 15:12 22,1 °C 22,1 °C 60 % 1018,6 hPa 0,0 mm 9,0 km/h (2 Bft) N-NO 31 ° 1 min 0,000 mm 6,0 UV-I 874 W/m² 14,0 °C 22,1 °C 14,5 km/h (3 Bft)
13.08.2017 15:13 22,1 °C 22,1 °C 63 % 1018,6 hPa 0,0 mm 6,7 km/h (2 Bft) N-NO 22 ° 1 min 0,000 mm 6,1 UV-I 900 W/m² 14,7 °C 22,1 °C 8,0 km/h (2 Bft)
13.08.2017 15:14 22,1 °C 22,1 °C 59 % 1018,6 hPa 0,0 mm 5,2 km/h (1 Bft) N 11 ° 1 min 0,000 mm 5,6 UV-I 896 W/m² 13,7 °C 22,1 °C 8,0 km/h (2 Bft)
13.08.2017 15:15 21,8 °C 22,1 °C 58 % 1018,5 hPa 0,0 mm 1,7 km/h (1 Bft) N 11 ° 0 min 0,000 mm 3,3 UV-I 232 W/m² 13,2 °C 21,8 °C 3,2 km/h (1 Bft)
13.08.2017 15:16 21,6 °C 21,8 °C 60 % 1018,5 hPa 0,0 mm 0,1 km/h (0 Bft) N 11 ° 0 min 0,000 mm 2,9 UV-I 192 W/m² 13,5 °C 21,6 °C 1,6 km/h (1 Bft)
13.08.2017 15:17 21,3 °C 21,6 °C 61 % 1018,5 hPa 0,0 mm 0,1 km/h (0 Bft) N 11 ° 0 min 0,000 mm 2,9 UV-I 195 W/m² 13,5 °C 21,3 °C 1,6 km/h (1 Bft)
13.08.2017 15:18 21,1 °C 21,3 °C 61 % 1018,6 hPa 0,0 mm 4,4 km/h (1 Bft) NW 324 ° 0 min 0,000 mm 3,0 UV-I 204 W/m² 13,3 °C 21,1 °C 8,0 km/h (2 Bft)
13.08.2017 15:19 21,0 °C 21,1 °C 60 % 1018,6 hPa 0,0 mm 2,7 km/h (1 Bft) NW 324 ° 0 min 0,000 mm 3,2 UV-I 230 W/m² 12,9 °C 21,0 °C 4,8 km/h (1 Bft)
13.08.2017 15:20 20,9 °C 21,0 °C 60 % 1018,5 hPa 0,0 mm 2,0 km/h (1 Bft) NW 324 ° 1 min 0,000 mm 5,7 UV-I 854 W/m² 12,8 °C 20,9 °C 3,2 km/h (1 Bft)
13.08.2017 15:21 20,9 °C 20,9 °C 60 % 1018,5 hPa 0,0 mm 1,5 km/h (1 Bft) NW 324 ° 1 min 0,000 mm 5,8 UV-I 835 W/m² 12,8 °C 20,9 °C 3,2 km/h (1 Bft)
13.08.2017 15:22 21,0 °C 21,1 °C 59 % 1018,5 hPa 0,0 mm 3,3 km/h (1 Bft) N-NW 348 ° 1 min 0,000 mm 5,6 UV-I 814 W/m² 12,7 °C 21,0 °C 6,4 km/h (2 Bft)
13.08.2017 15:23 21,2 °C 21,2 °C 62 % 1018,5 hPa 0,0 mm 5,0 km/h (1 Bft) NW 323 ° 1 min 0,000 mm 5,7 UV-I 846 W/m² 13,6 °C 21,2 °C 6,4 km/h (2 Bft)
13.08.2017 15:24 21,3 °C 21,3 °C 59 % 1018,5 hPa 0,0 mm 3,7 km/h (1 Bft) NW 320 ° 1 min 0,000 mm 5,7 UV-I 851 W/m² 13,0 °C 21,3 °C 8,0 km/h (2 Bft)
13.08.2017 15:25 21,4 °C 21,4 °C 61 % 1018,5 hPa 0,0 mm 6,6 km/h (2 Bft) N-NO 24 ° 1 min 0,000 mm 5,6 UV-I 837 W/m² 13,6 °C 21,4 °C 9,7 km/h (2 Bft)
13.08.2017 15:26 21,4 °C 21,4 °C 59 % 1018,5 hPa 0,0 mm 7,6 km/h (2 Bft) N-NO 20 ° 1 min 0,000 mm 5,6 UV-I 821 W/m² 13,0 °C 21,4 °C 11,3 km/h (2 Bft)
13.08.2017 15:27 21,3 °C 21,4 °C 57 % 1018,5 hPa 0,0 mm 1,9 km/h (1 Bft) N-NO 20 ° 1 min 0,000 mm 5,6 UV-I 823 W/m² 12,4 °C 21,3 °C 4,8 km/h (1 Bft)
13.08.2017 15:28 21,3 °C 21,3 °C 59 % 1018,5 hPa 0,0 mm 1,2 km/h (1 Bft) N-NO 20 ° 1 min 0,000 mm 5,6 UV-I 823 W/m² 13,0 °C 21,3 °C 3,2 km/h (1 Bft)
13.08.2017 15:29 21,3 °C 21,3 °C 61 % 1018,5 hPa 0,0 mm 0,7 km/h (0 Bft) N-NO 20 ° 1 min 0,000 mm 5,6 UV-I 830 W/m² 13,5 °C 21,3 °C 3,2 km/h (1 Bft)
13.08.2017 15:30 21,4 °C 21,4 °C 63 % 1018,5 hPa 0,0 mm 2,6 km/h (1 Bft) NW 316 ° 1 min 0,000 mm 5,6 UV-I 830 W/m² 14,1 °C 21,4 °C 6,4 km/h (2 Bft)
13.08.2017 15:31 21,6 °C 21,6 °C 63 % 1018,5 hPa 0,0 mm 6,8 km/h (2 Bft) N-NW 331 ° 1 min 0,000 mm 5,6 UV-I 828 W/m² 14,2 °C 21,6 °C 11,3 km/h (2 Bft)
13.08.2017 15:32 21,7 °C 21,7 °C 59 % 1018,5 hPa 0,0 mm 4,8 km/h (1 Bft) W-NW 298 ° 1 min 0,000 mm 5,7 UV-I 838 W/m² 13,3 °C 21,7 °C 6,4 km/h (2 Bft)
13.08.2017 15:33 21,7 °C 21,7 °C 59 % 1018,5 hPa 0,0 mm 5,2 km/h (1 Bft) N-NW 344 ° 1 min 0,000 mm 5,5 UV-I 840 W/m² 13,3 °C 21,7 °C 8,0 km/h (2 Bft)
13.08.2017 15:34 21,8 °C 21,8 °C 65 % 1018,5 hPa 0,0 mm 5,4 km/h (1 Bft) NW 317 ° 1 min 0,000 mm 5,4 UV-I 828 W/m² 14,9 °C 21,8 °C 6,4 km/h (2 Bft)
13.08.2017 15:35 21,9 °C 21,9 °C 63 % 1018,5 hPa 0,0 mm 5,7 km/h (1 Bft) NW 321 ° 1 min 0,000 mm 5,5 UV-I 817 W/m² 14,5 °C 21,9 °C 6,4 km/h (2 Bft)
13.08.2017 15:36 21,8 °C 21,9 °C 58 % 1018,4 hPa 0,0 mm 5,1 km/h (1 Bft) N-NW 346 ° 1 min 0,000 mm 5,5 UV-I 824 W/m² 13,2 °C 21,8 °C 8,0 km/h (2 Bft)
13.08.2017 15:37 21,8 °C 21,8 °C 58 % 1018,5 hPa 0,0 mm 6,9 km/h (2 Bft) N-NW 348 ° 1 min 0,000 mm 5,5 UV-I 835 W/m² 13,2 °C 21,8 °C 9,7 km/h (2 Bft)
13.08.2017 15:38 21,8 °C 21,8 °C 60 % 1018,5 hPa 0,0 mm 5,9 km/h (2 Bft) N-NW 333 ° 1 min 0,000 mm 4,2 UV-I 828 W/m² 13,7 °C 21,8 °C 8,0 km/h (2 Bft)
13.08.2017 15:39 21,7 °C 21,8 °C 59 % 1018,5 hPa 0,0 mm 3,3 km/h (1 Bft) NW 310 ° 0 min 0,000 mm 2,6 UV-I 156 W/m² 13,3 °C 21,7 °C 6,4 km/h (2 Bft)
13.08.2017 15:40 21,5 °C 21,7 °C 58 % 1018,4 hPa 0,0 mm 2,7 km/h (1 Bft) NW 306 ° 0 min 0,000 mm 2,5 UV-I 160 W/m² 12,9 °C 21,5 °C 6,4 km/h (2 Bft)
13.08.2017 15:41 21,3 °C 21,5 °C 59 % 1018,5 hPa 0,0 mm 3,6 km/h (1 Bft) NW 320 ° 0 min 0,000 mm 2,5 UV-I 162 W/m² 13,0 °C 21,3 °C 6,4 km/h (2 Bft)
13.08.2017 15:42 21,2 °C 21,3 °C 61 % 1018,5 hPa 0,0 mm 2,6 km/h (1 Bft) N-NW 338 ° 0 min 0,000 mm 2,4 UV-I 162 W/m² 13,4 °C 21,2 °C 4,8 km/h (1 Bft)
13.08.2017 15:43 21,1 °C 21,2 °C 61 % 1018,5 hPa 0,0 mm 1,2 km/h (1 Bft) N-NW 338 ° 0 min 0,000 mm 2,4 UV-I 218 W/m² 13,3 °C 21,1 °C 3,2 km/h (1 Bft)
13.08.2017 15:44 21,1 °C 21,1 °C 61 % 1018,5 hPa 0,0 mm 5,4 km/h (1 Bft) NW 316 ° 0 min 0,000 mm 2,7 UV-I 234 W/m² 13,3 °C 21,1 °C 8,0 km/h (2 Bft)
13.08.2017 15:45 21,0 °C 21,1 °C 61 % 1018,4 hPa 0,0 mm 4,5 km/h (1 Bft) N-NW 342 ° 0 min 0,000 mm 5,0 UV-I 234 W/m² 13,2 °C 21,0 °C 6,4 km/h (2 Bft)
13.08.2017 15:46 21,1 °C 21,1 °C 64 % 1018,5 hPa 0,0 mm 4,0 km/h (1 Bft) N-NW 333 ° 0 min 0,000 mm 5,1 UV-I 234 W/m² 14,0 °C 21,1 °C 6,4 km/h (2 Bft)
13.08.2017 15:47 21,2 °C 21,2 °C 62 % 1018,4 hPa 0,0 mm 4,5 km/h (1 Bft) N-NW 344 ° 1 min 0,000 mm 5,1 UV-I 826 W/m² 13,6 °C 21,2 °C 6,4 km/h (2 Bft)
13.08.2017 15:48 21,2 °C 21,2 °C 60 % 1018,4 hPa 0,0 mm 2,6 km/h (1 Bft) N 360 ° 1 min 0,000 mm 5,1 UV-I 766 W/m² 13,1 °C 21,2 °C 4,8 km/h (1 Bft)
13.08.2017 15:49 21,3 °C 21,3 °C 62 % 1018,4 hPa 0,0 mm 2,5 km/h (1 Bft) NW 316 ° 1 min 0,000 mm 4,2 UV-I 830 W/m² 13,7 °C 21,3 °C 6,4 km/h (2 Bft)
13.08.2017 15:50 21,3 °C 21,3 °C 60 % 1018,4 hPa 0,0 mm 6,0 km/h (2 Bft) N-NW 337 ° 0 min 0,000 mm 3,1 UV-I 148 W/m² 13,2 °C 21,3 °C 8,0 km/h (2 Bft)
13.08.2017 15:51 21,3 °C 21,3 °C 59 % 1018,4 hPa 0,0 mm 0,6 km/h (0 Bft) N-NW 336 ° 0 min 0,000 mm 2,3 UV-I 148 W/m² 13,0 °C 21,3 °C 1,6 km/h (1 Bft)
13.08.2017 15:52 21,2 °C 21,3 °C 60 % 1018,4 hPa 0,0 mm 0,0 km/h (0 Bft) N-NW 336 ° 0 min 0,000 mm 2,9 UV-I 148 W/m² 13,1 °C 21,2 °C 0,0 km/h (0 Bft)
13.08.2017 15:53 21,1 °C 21,2 °C 60 % 1018,4 hPa 0,0 mm 2,6 km/h (1 Bft) N 349 ° 0 min 0,000 mm 2,7 UV-I 148 W/m² 13,0 °C 21,1 °C 3,2 km/h (1 Bft)
13.08.2017 15:54 21,1 °C 21,1 °C 60 % 1018,4 hPa 0,0 mm 3,9 km/h (1 Bft) N 350 ° 0 min 0,000 mm 2,5 UV-I 148 W/m² 13,0 °C 21,1 °C 4,8 km/h (1 Bft)
13.08.2017 15:55 21,1 °C 21,1 °C 60 % 1018,4 hPa 0,0 mm 1,3 km/h (1 Bft) N 350 ° 0 min 0,000 mm 2,6 UV-I 186 W/m² 13,0 °C 21,1 °C 3,2 km/h (1 Bft)
13.08.2017 15:56 21,1 °C 21,1 °C 63 % 1018,4 hPa 0,0 mm 0,4 km/h (0 Bft) N 350 ° 0 min 0,000 mm 4,6 UV-I 186 W/m² 13,8 °C 21,1 °C 1,6 km/h (1 Bft)
13.08.2017 15:57 21,1 °C 21,1 °C 59 % 1018,4 hPa 0,0 mm 1,2 km/h (1 Bft) N 350 ° 1 min 0,000 mm 5,0 UV-I 795 W/m² 12,8 °C 21,1 °C 3,2 km/h (1 Bft)
13.08.2017 15:58 21,2 °C 21,2 °C 61 % 1018,4 hPa 0,0 mm 3,5 km/h (1 Bft) NO 38 ° 1 min 0,000 mm 5,0 UV-I 788 W/m² 13,4 °C 21,2 °C 4,8 km/h (1 Bft)
13.08.2017 15:59 21,4 °C 21,4 °C 64 % 1018,4 hPa 0,0 mm 1,1 km/h (1 Bft) NO 47 ° 1 min 0,000 mm 4,9 UV-I 773 W/m² 14,3 °C 21,4 °C 1,6 km/h (1 Bft)
13.08.2017 16:00 21,4 °C 21,4 °C 64 % 1018,4 hPa 0,0 mm 1,8 km/h (1 Bft) O 98 ° 1 min 0,000 mm 4,9 UV-I 770 W/m² 14,3 °C 21,4 °C 4,8 km/h (1 Bft)
13.08.2017 16:01 21,4 °C 21,4 °C 60 % 1018,4 hPa 0,0 mm 2,7 km/h (1 Bft) O 96 ° 1 min 0,406 mm 4,9 UV-I 763 W/m² 13,3 °C 21,4 °C 4,8 km/h (1 Bft)
13.08.2017 16:02 21,4 °C 21,4 °C 59 % 1018,4 hPa 0,0 mm 2,2 km/h (1 Bft) O-NO 66 ° 1 min 0,000 mm 4,8 UV-I 765 W/m² 13,0 °C 21,4 °C 4,8 km/h (1 Bft)
13.08.2017 16:03 21,7 °C 21,7 °C 66 % 1018,4 hPa 0,0 mm 5,1 km/h (1 Bft) NW 313 ° 1 min 0,000 mm 4,8 UV-I 775 W/m² 15,1 °C 21,7 °C 8,0 km/h (2 Bft)
13.08.2017 16:04 21,9 °C 21,9 °C 62 % 1018,4 hPa 0,0 mm 4,6 km/h (1 Bft) O-NO 76 ° 1 min 0,000 mm 4,8 UV-I 793 W/m² 14,3 °C 21,9 °C 11,3 km/h (2 Bft)
13.08.2017 16:05 21,9 °C 22,0 °C 58 % 1018,4 hPa 0,0 mm 6,5 km/h (2 Bft) O-NO 70 ° 1 min 0,000 mm 4,8 UV-I 805 W/m² 13,3 °C 21,9 °C 9,7 km/h (2 Bft)
13.08.2017 16:06 21,9 °C 21,9 °C 61 % 1018,4 hPa 0,0 mm 7,7 km/h (2 Bft) O-NO 69 ° 1 min 0,000 mm 4,7 UV-I 807 W/m² 14,0 °C 21,9 °C 12,9 km/h (3 Bft)
13.08.2017 16:07 21,9 °C 21,9 °C 58 % 1018,4 hPa 0,0 mm 5,2 km/h (1 Bft) N-NO 28 ° 1 min 0,000 mm 4,7 UV-I 791 W/m² 13,3 °C 21,9 °C 6,4 km/h (2 Bft)
13.08.2017 16:08 21,9 °C 21,9 °C 59 % 1018,3 hPa 0,0 mm 1,4 km/h (1 Bft) N-NO 19 ° 1 min 0,000 mm 4,6 UV-I 810 W/m² 13,5 °C 21,9 °C 4,8 km/h (1 Bft)
13.08.2017 16:09 21,9 °C 21,9 °C 60 % 1018,4 hPa 0,0 mm 4,6 km/h (1 Bft) N-NW 333 ° 1 min 0,000 mm 2,8 UV-I 810 W/m² 13,8 °C 21,9 °C 6,4 km/h (2 Bft)
13.08.2017 16:10 21,9 °C 21,9 °C 61 % 1018,4 hPa 0,0 mm 5,7 km/h (1 Bft) N-NO 19 ° 1 min 0,000 mm 3,7 UV-I 810 W/m² 14,0 °C 21,9 °C 9,7 km/h (2 Bft)
13.08.2017 16:11 21,9 °C 21,9 °C 58 % 1018,4 hPa 0,0 mm 6,1 km/h (2 Bft) N 5 ° 1 min 0,000 mm 3,1 UV-I 810 W/m² 13,3 °C 21,9 °C 8,0 km/h (2 Bft)
13.08.2017 16:12 21,9 °C 21,9 °C 58 % 1018,4 hPa 0,0 mm 3,8 km/h (1 Bft) N-NO 30 ° 1 min 0,000 mm 3,9 UV-I 810 W/m² 13,3 °C 21,9 °C 6,4 km/h (2 Bft)
13.08.2017 16:13 21,8 °C 21,9 °C 58 % 1018,4 hPa 0,0 mm 3,0 km/h (1 Bft) N-NW 334 ° 1 min 0,000 mm 2,5 UV-I 810 W/m² 13,2 °C 21,8 °C 4,8 km/h (1 Bft)
13.08.2017 16:14 21,7 °C 21,8 °C 57 % 1018,4 hPa 0,0 mm 4,0 km/h (1 Bft) N 5 ° 1 min 0,000 mm 2,3 UV-I 810 W/m² 12,8 °C 21,7 °C 8,0 km/h (2 Bft)
13.08.2017 16:15 21,7 °C 21,7 °C 59 % 1018,4 hPa 0,0 mm 2,5 km/h (1 Bft) N 355 ° 0 min 0,000 mm 2,3 UV-I 265 W/m² 13,3 °C 21,7 °C 3,2 km/h (1 Bft)
13.08.2017 16:16 21,6 °C 21,7 °C 58 % 1018,4 hPa 0,0 mm 4,7 km/h (1 Bft) N-NO 15 ° 1 min 0,000 mm 2,9 UV-I 309 W/m² 13,0 °C 21,6 °C 6,4 km/h (2 Bft)
13.08.2017 16:17 21,6 °C 21,6 °C 59 % 1018,4 hPa 0,0 mm 3,4 km/h (1 Bft) N-NO 15 ° 1 min 0,000 mm 2,5 UV-I 308 W/m² 13,2 °C 21,6 °C 6,4 km/h (2 Bft)
13.08.2017 16:18 21,6 °C 21,6 °C 57 % 1018,4 hPa 0,0 mm 4,8 km/h (1 Bft) N-NO 15 ° 0 min 0,000 mm 2,2 UV-I 262 W/m² 12,7 °C 21,6 °C 6,4 km/h (2 Bft)
13.08.2017 16:19 21,6 °C 21,6 °C 58 % 1018,4 hPa 0,0 mm 4,4 km/h (1 Bft) N-NO 28 ° 0 min 0,000 mm 2,1 UV-I 264 W/m² 13,0 °C 21,6 °C 6,4 km/h (2 Bft)
13.08.2017 16:20 21,7 °C 21,7 °C 59 % 1018,5 hPa 0,0 mm 7,4 km/h (2 Bft) NO 51 ° 0 min 0,000 mm 2,0 UV-I 260 W/m² 13,3 °C 21,7 °C 9,7 km/h (2 Bft)
13.08.2017 16:21 21,6 °C 21,7 °C 60 % 1018,5 hPa 0,0 mm 7,8 km/h (2 Bft) N-NO 27 ° 0 min 0,000 mm 2,0 UV-I 253 W/m² 13,5 °C 21,6 °C 11,3 km/h (2 Bft)
13.08.2017 16:22 21,4 °C 21,6 °C 62 % 1018,5 hPa 0,0 mm 4,2 km/h (1 Bft) NO 49 ° 0 min 0,000 mm 2,0 UV-I 258 W/m² 13,8 °C 21,4 °C 6,4 km/h (2 Bft)
13.08.2017 16:23 21,3 °C 21,4 °C 62 % 1018,5 hPa 0,0 mm 7,7 km/h (2 Bft) N-NO 33 ° 0 min 0,000 mm 2,0 UV-I 241 W/m² 13,7 °C 21,3 °C 12,9 km/h (3 Bft)
13.08.2017 16:24 21,2 °C 21,3 °C 63 % 1018,5 hPa 0,0 mm 4,4 km/h (1 Bft) N 5 ° 0 min 0,000 mm 2,0 UV-I 237 W/m² 13,9 °C 21,2 °C 6,4 km/h (2 Bft)
13.08.2017 16:25 21,2 °C 21,2 °C 63 % 1018,5 hPa 0,0 mm 3,1 km/h (1 Bft) NO 45 ° 0 min 0,000 mm 2,0 UV-I 229 W/m² 13,9 °C 21,2 °C 8,0 km/h (2 Bft)
13.08.2017 16:26 21,1 °C 21,2 °C 62 % 1018,5 hPa 0,0 mm 3,5 km/h (1 Bft) NO 56 ° 0 min 0,000 mm 1,9 UV-I 206 W/m² 13,5 °C 21,1 °C 6,4 km/h (2 Bft)
13.08.2017 16:27 21,0 °C 21,1 °C 63 % 1018,5 hPa 0,0 mm 3,9 km/h (1 Bft) O-NO 61 ° 0 min 0,000 mm 1,8 UV-I 193 W/m² 13,7 °C 21,0 °C 6,4 km/h (2 Bft)
13.08.2017 16:28 21,0 °C 21,0 °C 65 % 1018,5 hPa 0,0 mm 3,8 km/h (1 Bft) NO 53 ° 0 min 0,000 mm 1,8 UV-I 188 W/m² 14,2 °C 21,0 °C 6,4 km/h (2 Bft)
13.08.2017 16:29 20,9 °C 21,0 °C 64 % 1018,5 hPa 0,0 mm 4,9 km/h (1 Bft) O-NO 69 ° 0 min 0,000 mm 1,9 UV-I 195 W/m² 13,8 °C 20,9 °C 8,0 km/h (2 Bft)
13.08.2017 16:30 20,8 °C 20,9 °C 63 % 1018,5 hPa 0,0 mm 2,1 km/h (1 Bft) O-NO 69 ° 0 min 0,000 mm 2,0 UV-I 209 W/m² 13,5 °C 20,8 °C 4,8 km/h (1 Bft)
13.08.2017 16:31 20,8 °C 20,8 °C 64 % 1018,5 hPa 0,0 mm 3,9 km/h (1 Bft) N-NO 27 ° 0 min 0,000 mm 2,1 UV-I 225 W/m² 13,7 °C 20,8 °C 6,4 km/h (2 Bft)
13.08.2017 16:32 20,7 °C 20,8 °C 63 % 1018,5 hPa 0,0 mm 3,4 km/h (1 Bft) NO 36 ° 0 min 0,000 mm 2,2 UV-I 229 W/m² 13,4 °C 20,7 °C 8,0 km/h (2 Bft)
13.08.2017 16:33 20,7 °C 20,7 °C 63 % 1018,5 hPa 0,0 mm 3,6 km/h (1 Bft) NO 43 ° 0 min 0,000 mm 2,1 UV-I 193 W/m² 13,4 °C 20,7 °C 4,8 km/h (1 Bft)
13.08.2017 16:34 20,7 °C 20,7 °C 65 % 1018,5 hPa 0,0 mm 1,2 km/h (1 Bft) O-NO 73 ° 0 min 0,000 mm 2,0 UV-I 162 W/m² 13,9 °C 20,7 °C 3,2 km/h (1 Bft)
13.08.2017 16:35 20,6 °C 20,7 °C 66 % 1018,5 hPa 0,0 mm 3,9 km/h (1 Bft) O 87 ° 0 min 0,000 mm 1,9 UV-I 162 W/m² 14,0 °C 20,6 °C 9,7 km/h (2 Bft)
13.08.2017 16:36 20,6 °C 20,7 °C 64 % 1018,4 hPa 0,0 mm 6,8 km/h (2 Bft) O 90 ° 0 min 0,000 mm 1,8 UV-I 128 W/m² 13,5 °C 20,6 °C 11,3 km/h (2 Bft)
13.08.2017 16:37 20,5 °C 20,6 °C 65 % 1018,5 hPa 0,0 mm 5,9 km/h (2 Bft) O 88 ° 0 min 0,000 mm 1,8 UV-I 111 W/m² 13,7 °C 20,5 °C 9,7 km/h (2 Bft)
13.08.2017 16:38 20,4 °C 20,5 °C 66 % 1018,5 hPa 0,0 mm 3,8 km/h (1 Bft) O-NO 69 ° 0 min 0,000 mm 1,7 UV-I 109 W/m² 13,8 °C 20,4 °C 4,8 km/h (1 Bft)
13.08.2017 16:39 20,4 °C 20,4 °C 66 % 1018,4 hPa 0,0 mm 3,8 km/h (1 Bft) NO 49 ° 0 min 0,000 mm 1,7 UV-I 113 W/m² 13,8 °C 20,4 °C 4,8 km/h (1 Bft)
13.08.2017 16:40 20,4 °C 20,4 °C 68 % 1018,4 hPa 0,0 mm 3,6 km/h (1 Bft) NO 54 ° 0 min 0,000 mm 1,7 UV-I 120 W/m² 14,3 °C 20,4 °C 8,0 km/h (2 Bft)
13.08.2017 16:41 20,3 °C 20,4 °C 69 % 1018,5 hPa 0,0 mm 2,0 km/h (1 Bft) NO 54 ° 0 min 0,000 mm 1,7 UV-I 120 W/m² 14,4 °C 20,3 °C 3,2 km/h (1 Bft)
13.08.2017 16:42 20,1 °C 20,3 °C 69 % 1018,5 hPa 0,0 mm 2,5 km/h (1 Bft) O-NO 77 ° 0 min 0,000 mm 1,7 UV-I 127 W/m² 14,2 °C 20,1 °C 4,8 km/h (1 Bft)
13.08.2017 16:43 20,1 °C 20,1 °C 69 % 1018,5 hPa 0,0 mm 0,0 km/h (0 Bft) O-NO 77 ° 0 min 0,000 mm 1,7 UV-I 125 W/m² 14,2 °C 20,1 °C 0,0 km/h (0 Bft)
13.08.2017 16:44 20,0 °C 20,1 °C 71 % 1018,5 hPa 0,0 mm 0,0 km/h (0 Bft) O-NO 77 ° 0 min 0,000 mm 1,7 UV-I 127 W/m² 14,6 °C 20,0 °C 0,0 km/h (0 Bft)
13.08.2017 16:45 19,8 °C 20,0 °C 72 % 1018,5 hPa 0,0 mm 1,5 km/h (1 Bft) O-NO 77 ° 0 min 0,000 mm 1,7 UV-I 128 W/m² 14,6 °C 19,8 °C 3,2 km/h (1 Bft)
13.08.2017 16:46 19,8 °C 19,9 °C 73 % 1018,5 hPa 0,0 mm 0,5 km/h (0 Bft) O-NO 77 ° 0 min 0,000 mm 1,7 UV-I 127 W/m² 14,8 °C 19,8 °C 1,6 km/h (1 Bft)
13.08.2017 16:47 19,7 °C 19,8 °C 75 % 1018,5 hPa 0,0 mm 0,9 km/h (0 Bft) O-NO 77 ° 0 min 0,000 mm 1,7 UV-I 125 W/m² 15,1 °C 19,7 °C 1,6 km/h (1 Bft)
13.08.2017 16:48 19,6 °C 19,7 °C 73 % 1018,5 hPa 0,0 mm 1,2 km/h (1 Bft) O-NO 77 ° 0 min 0,000 mm 1,7 UV-I 125 W/m² 14,6 °C 19,6 °C 3,2 km/h (1 Bft)
13.08.2017 16:49 19,5 °C 19,6 °C 74 % 1018,5 hPa 0,0 mm 2,0 km/h (1 Bft) NO 48 ° 0 min 0,000 mm 1,7 UV-I 125 W/m² 14,7 °C 19,5 °C 8,0 km/h (2 Bft)
13.08.2017 16:50 19,6 °C 19,6 °C 75 % 1018,5 hPa 0,0 mm 4,6 km/h (1 Bft) N-NO 12 ° 0 min 0,000 mm 1,7 UV-I 127 W/m² 15,0 °C 19,6 °C 8,0 km/h (2 Bft)
13.08.2017 16:51 19,7 °C 19,7 °C 71 % 1018,5 hPa 0,0 mm 4,0 km/h (1 Bft) N 11 ° 0 min 0,000 mm 1,7 UV-I 128 W/m² 14,3 °C 19,7 °C 6,4 km/h (2 Bft)
13.08.2017 16:52 19,9 °C 19,9 °C 69 % 1018,5 hPa 0,0 mm 2,8 km/h (1 Bft) N 5 ° 0 min 0,000 mm 1,7 UV-I 134 W/m² 14,0 °C 19,9 °C 3,2 km/h (1 Bft)
13.08.2017 16:53 19,9 °C 19,9 °C 72 % 1018,6 hPa 0,0 mm 2,2 km/h (1 Bft) NO 55 ° 0 min 0,000 mm 1,8 UV-I 137 W/m² 14,7 °C 19,9 °C 4,8 km/h (1 Bft)
13.08.2017 16:54 20,0 °C 20,0 °C 69 % 1018,6 hPa 0,0 mm 3,9 km/h (1 Bft) NO 36 ° 0 min 0,000 mm 1,8 UV-I 135 W/m² 14,1 °C 20,0 °C 8,0 km/h (2 Bft)
13.08.2017 16:55 20,1 °C 20,1 °C 72 % 1018,5 hPa 0,0 mm 1,7 km/h (1 Bft) NO 51 ° 0 min 0,000 mm 1,8 UV-I 139 W/m² 14,9 °C 20,1 °C 3,2 km/h (1 Bft)
13.08.2017 16:56 20,1 °C 20,1 °C 69 % 1018,5 hPa 0,0 mm 1,0 km/h (0 Bft) NO 51 ° 0 min 0,000 mm 1,8 UV-I 144 W/m² 14,2 °C 20,1 °C 3,2 km/h (1 Bft)
13.08.2017 16:57 20,0 °C 20,1 °C 71 % 1018,5 hPa 0,0 mm 2,5 km/h (1 Bft) NO 50 ° 0 min 0,000 mm 1,8 UV-I 135 W/m² 14,6 °C 20,0 °C 3,2 km/h (1 Bft)
13.08.2017 16:58 20,0 °C 20,0 °C 70 % 1018,5 hPa 0,0 mm 3,5 km/h (1 Bft) N-NO 31 ° 0 min 0,000 mm 1,7 UV-I 118 W/m² 14,4 °C 20,0 °C 6,4 km/h (2 Bft)
13.08.2017 16:59 20,1 °C 20,1 °C 69 % 1018,6 hPa 0,0 mm 4,5 km/h (1 Bft) O-NO 57 ° 0 min 0,000 mm 1,7 UV-I 107 W/m² 14,2 °C 20,1 °C 6,4 km/h (2 Bft)
13.08.2017 17:00 20,1 °C 20,1 °C 69 % 1018,6 hPa 0,0 mm 3,1 km/h (1 Bft) O-NO 60 ° 0 min 0,000 mm 1,6 UV-I 98 W/m² 14,2 °C 20,1 °C 4,8 km/h (1 Bft)
13.08.2017 17:01 20,1 °C 20,1 °C 69 % 1018,5 hPa 0,0 mm 2,8 km/h (1 Bft) O-NO 60 ° 0 min 0,204 mm 1,6 UV-I 98 W/m² 14,2 °C 20,1 °C 4,8 km/h (1 Bft)
13.08.2017 17:02 20,0 °C 20,1 °C 71 % 1018,5 hPa 0,0 mm 0,6 km/h (0 Bft) O-NO 60 ° 0 min 0,000 mm 1,6 UV-I 113 W/m² 14,6 °C 20,0 °C 1,6 km/h (1 Bft)
13.08.2017 17:03 19,8 °C 20,0 °C 71 % 1018,5 hPa 0,0 mm 0,0 km/h (0 Bft) O-NO 60 ° 0 min 0,000 mm 1,6 UV-I 121 W/m² 14,4 °C 19,8 °C 0,0 km/h (0 Bft)
13.08.2017 17:04 19,8 °C 19,8 °C 70 % 1018,5 hPa 0,0 mm 1,5 km/h (1 Bft) O-NO 64 ° 0 min 0,000 mm 1,6 UV-I 118 W/m² 14,2 °C 19,8 °C 4,8 km/h (1 Bft)
13.08.2017 17:05 19,8 °C 19,8 °C 72 % 1018,5 hPa 0,0 mm 3,2 km/h (1 Bft) O 101 ° 0 min 0,000 mm 1,6 UV-I 109 W/m² 14,6 °C 19,8 °C 8,0 km/h (2 Bft)
13.08.2017 17:06 19,8 °C 19,8 °C 70 % 1018,5 hPa 0,0 mm 1,1 km/h (1 Bft) O 101 ° 0 min 0,000 mm 1,5 UV-I 111 W/m² 14,2 °C 19,8 °C 1,6 km/h (1 Bft)
13.08.2017 17:07 19,8 °C 19,8 °C 71 % 1018,5 hPa 0,0 mm 1,1 km/h (1 Bft) O 101 ° 0 min 0,000 mm 1,5 UV-I 105 W/m² 14,4 °C 19,8 °C 1,6 km/h (1 Bft)
13.08.2017 17:08 19,8 °C 19,8 °C 72 % 1018,5 hPa 0,0 mm 0,0 km/h (0 Bft) O 101 ° 0 min 0,000 mm 1,4 UV-I 100 W/m² 14,6 °C 19,8 °C 0,0 km/h (0 Bft)
13.08.2017 17:09 19,7 °C 19,8 °C 71 % 1018,6 hPa 0,0 mm 1,5 km/h (1 Bft) O 101 ° 0 min 0,000 mm 1,4 UV-I 95 W/m² 14,3 °C 19,7 °C 3,2 km/h (1 Bft)
13.08.2017 17:10 19,7 °C 19,8 °C 73 % 1018,5 hPa 0,0 mm 1,1 km/h (1 Bft) O 101 ° 0 min 0,000 mm 1,3 UV-I 91 W/m² 14,7 °C 19,7 °C 1,6 km/h (1 Bft)
13.08.2017 17:11 19,6 °C 19,7 °C 72 % 1018,5 hPa 0,0 mm 0,0 km/h (0 Bft) O 101 ° 0 min 0,000 mm 1,3 UV-I 90 W/m² 14,4 °C 19,6 °C 0,0 km/h (0 Bft)
13.08.2017 17:12 19,5 °C 19,6 °C 72 % 1018,6 hPa 0,0 mm 1,6 km/h (1 Bft) O 101 ° 0 min 0,000 mm 1,3 UV-I 90 W/m² 14,3 °C 19,5 °C 4,8 km/h (1 Bft)
13.08.2017 17:13 19,5 °C 19,5 °C 74 % 1018,5 hPa 0,0 mm 2,0 km/h (1 Bft) O 101 ° 0 min 0,000 mm 1,2 UV-I 93 W/m² 14,7 °C 19,5 °C 3,2 km/h (1 Bft)
13.08.2017 17:14 19,4 °C 19,5 °C 72 % 1018,5 hPa 0,0 mm 0,7 km/h (0 Bft) O 101 ° 0 min 0,000 mm 1,2 UV-I 100 W/m² 14,2 °C 19,4 °C 1,6 km/h (1 Bft)
13.08.2017 17:15 19,5 °C 19,5 °C 73 % 1018,6 hPa 0,0 mm 0,0 km/h (0 Bft) O 101 ° 0 min 0,000 mm 1,2 UV-I 104 W/m² 14,5 °C 19,5 °C 0,0 km/h (0 Bft)
13.08.2017 17:16 19,5 °C 19,5 °C 75 % 1018,5 hPa 0,0 mm 0,0 km/h (0 Bft) O 101 ° 0 min 0,000 mm 1,1 UV-I 105 W/m² 14,9 °C 19,5 °C 0,0 km/h (0 Bft)
13.08.2017 17:17 19,5 °C 19,5 °C 73 % 1018,5 hPa 0,0 mm 0,0 km/h (0 Bft) O 101 ° 0 min 0,000 mm 1,1 UV-I 109 W/m² 14,5 °C 19,5 °C 0,0 km/h (0 Bft)
13.08.2017 17:18 19,5 °C 19,5 °C 75 % 1018,5 hPa 0,0 mm 0,0 km/h (0 Bft) O 101 ° 0 min 0,000 mm 1,1 UV-I 109 W/m² 14,9 °C 19,5 °C 0,0 km/h (0 Bft)
13.08.2017 17:19 19,4 °C 19,5 °C 74 % 1018,5 hPa 0,0 mm 0,0 km/h (0 Bft) O 101 ° 0 min 0,000 mm 1,1 UV-I 105 W/m² 14,6 °C 19,4 °C 0,0 km/h (0 Bft)
13.08.2017 17:20 19,4 °C 19,4 °C 75 % 1018,5 hPa 0,0 mm 0,0 km/h (0 Bft) O 101 ° 0 min 0,000 mm 1,1 UV-I 104 W/m² 14,8 °C 19,4 °C 0,0 km/h (0 Bft)
13.08.2017 17:21 19,4 °C 19,4 °C 77 % 1018,5 hPa 0,0 mm 0,0 km/h (0 Bft) O 101 ° 0 min 0,000 mm 1,1 UV-I 105 W/m² 15,3 °C 19,4 °C 0,0 km/h (0 Bft)
13.08.2017 17:22 19,3 °C 19,4 °C 77 % 1018,5 hPa 0,0 mm 0,0 km/h (0 Bft) O 101 ° 0 min 0,000 mm 1,0 UV-I 102 W/m² 15,2 °C 19,3 °C 0,0 km/h (0 Bft)
13.08.2017 17:23 19,3 °C 19,3 °C 74 % 1018,5 hPa 0,0 mm 0,0 km/h (0 Bft) O 101 ° 0 min 0,000 mm 1,0 UV-I 97 W/m² 14,5 °C 19,3 °C 0,0 km/h (0 Bft)
13.08.2017 17:24 19,4 °C 19,4 °C 74 % 1018,5 hPa 0,0 mm 0,0 km/h (0 Bft) O 101 ° 0 min 0,000 mm 1,0 UV-I 97 W/m² 14,6 °C 19,4 °C 0,0 km/h (0 Bft)
13.08.2017 17:25 19,4 °C 19,4 °C 74 % 1018,5 hPa 0,0 mm 1,3 km/h (1 Bft) N 355 ° 0 min 0,000 mm 1,0 UV-I 95 W/m² 14,6 °C 19,4 °C 4,8 km/h (1 Bft)
13.08.2017 17:26 19,4 °C 19,4 °C 75 % 1018,5 hPa 0,0 mm 1,7 km/h (1 Bft) N 360 ° 0 min 0,000 mm 0,9 UV-I 95 W/m² 14,8 °C 19,4 °C 4,8 km/h (1 Bft)
13.08.2017 17:27 19,4 °C 19,4 °C 76 % 1018,6 hPa 0,0 mm 4,2 km/h (1 Bft) N-NW 336 ° 0 min 0,000 mm 0,9 UV-I 95 W/m² 15,1 °C 19,4 °C 11,3 km/h (2 Bft)
13.08.2017 17:29 19,6 °C 19,6 °C 72 % 1018,5 hPa 0,0 mm 4,5 km/h (1 Bft) N-NO 32 ° 0 min 0,000 mm 0,9 UV-I 98 W/m² 14,4 °C 19,6 °C 8,0 km/h (2 Bft)
13.08.2017 17:30 19,7 °C 19,7 °C 71 % 1018,5 hPa 0,0 mm 3,9 km/h (1 Bft) NO 34 ° 0 min 0,000 mm 0,9 UV-I 98 W/m² 14,3 °C 19,7 °C 4,8 km/h (1 Bft)
13.08.2017 17:31 19,8 °C 19,8 °C 71 % 1018,5 hPa 0,0 mm 4,0 km/h (1 Bft) N-NO 28 ° 0 min 0,000 mm 0,8 UV-I 97 W/m² 14,4 °C 19,8 °C 6,4 km/h (2 Bft)
13.08.2017 17:32 19,9 °C 19,9 °C 70 % 1018,5 hPa 0,0 mm 2,2 km/h (1 Bft) N-NO 28 ° 0 min 0,000 mm 0,8 UV-I 98 W/m² 14,3 °C 19,9 °C 4,8 km/h (1 Bft)
13.08.2017 17:33 19,9 °C 19,9 °C 71 % 1018,5 hPa 0,0 mm 1,8 km/h (1 Bft) N-NO 28 ° 0 min 0,000 mm 0,8 UV-I 98 W/m² 14,5 °C 19,9 °C 4,8 km/h (1 Bft)
13.08.2017 17:34 20,0 °C 20,0 °C 70 % 1018,5 hPa 0,0 mm 3,5 km/h (1 Bft) N-NO 26 ° 0 min 0,000 mm 0,8 UV-I 98 W/m² 14,4 °C 20,0 °C 4,8 km/h (1 Bft)
13.08.2017 17:35 20,0 °C 20,0 °C 70 % 1018,6 hPa 0,0 mm 3,0 km/h (1 Bft) N 10 ° 0 min 0,000 mm 0,8 UV-I 98 W/m² 14,4 °C 20,0 °C 4,8 km/h (1 Bft)
13.08.2017 17:36 20,0 °C 20,0 °C 70 % 1018,5 hPa 0,0 mm 1,4 km/h (1 Bft) N 10 ° 0 min 0,000 mm 0,8 UV-I 100 W/m² 14,4 °C 20,0 °C 3,2 km/h (1 Bft)
13.08.2017 17:37 20,1 °C 20,1 °C 71 % 1018,5 hPa 0,0 mm 2,2 km/h (1 Bft) N 10 ° 0 min 0,000 mm 0,8 UV-I 100 W/m² 14,7 °C 20,1 °C 4,8 km/h (1 Bft)
13.08.2017 17:38 20,0 °C 20,1 °C 72 % 1018,6 hPa 0,0 mm 1,0 km/h (0 Bft) N 10 ° 0 min 0,000 mm 0,8 UV-I 102 W/m² 14,8 °C 20,0 °C 3,2 km/h (1 Bft)
13.08.2017 17:39 19,9 °C 20,0 °C 72 % 1018,5 hPa 0,0 mm 0,0 km/h (0 Bft) N 10 ° 0 min 0,000 mm 0,8 UV-I 102 W/m² 14,7 °C 19,9 °C 0,0 km/h (0 Bft)
13.08.2017 17:40 19,9 °C 19,9 °C 74 % 1018,5 hPa 0,0 mm 1,5 km/h (1 Bft) N-NO 21 ° 0 min 0,000 mm 0,8 UV-I 102 W/m² 15,1 °C 19,9 °C 3,2 km/h (1 Bft)
13.08.2017 17:41 19,9 °C 19,9 °C 71 % 1018,5 hPa 0,0 mm 3,9 km/h (1 Bft) N-NO 20 ° 0 min 0,000 mm 0,9 UV-I 107 W/m² 14,5 °C 19,9 °C 4,8 km/h (1 Bft)
13.08.2017 17:42 20,0 °C 20,0 °C 70 % 1018,5 hPa 0,0 mm 2,2 km/h (1 Bft) N-NO 21 ° 0 min 0,000 mm 0,9 UV-I 109 W/m² 14,4 °C 20,0 °C 3,2 km/h (1 Bft)
13.08.2017 17:43 19,9 °C 20,0 °C 72 % 1018,5 hPa 0,0 mm 1,0 km/h (0 Bft) NO 47 ° 0 min 0,000 mm 0,9 UV-I 109 W/m² 14,7 °C 19,9 °C 4,8 km/h (1 Bft)
13.08.2017 17:44 19,9 °C 19,9 °C 73 % 1018,5 hPa 0,0 mm 0,9 km/h (0 Bft) NO 47 ° 0 min 0,000 mm 0,9 UV-I 111 W/m² 14,9 °C 19,9 °C 3,2 km/h (1 Bft)
13.08.2017 17:45 19,9 °C 19,9 °C 72 % 1018,5 hPa 0,0 mm 0,2 km/h (0 Bft) NO 47 ° 0 min 0,000 mm 0,9 UV-I 113 W/m² 14,7 °C 19,9 °C 1,6 km/h (1 Bft)
13.08.2017 17:46 19,8 °C 19,9 °C 74 % 1018,5 hPa 0,0 mm 1,4 km/h (1 Bft) NO 47 ° 0 min 0,000 mm 0,9 UV-I 116 W/m² 15,0 °C 19,8 °C 1,6 km/h (1 Bft)
13.08.2017 17:47 19,7 °C 19,8 °C 73 % 1018,5 hPa 0,0 mm 0,8 km/h (0 Bft) NO 47 ° 0 min 0,000 mm 0,9 UV-I 123 W/m² 14,7 °C 19,7 °C 1,6 km/h (1 Bft)
13.08.2017 17:48 19,7 °C 19,7 °C 75 % 1018,5 hPa 0,0 mm 2,6 km/h (1 Bft) O 84 ° 0 min 0,000 mm 0,9 UV-I 125 W/m² 15,1 °C 19,7 °C 4,8 km/h (1 Bft)
13.08.2017 17:49 19,7 °C 19,7 °C 75 % 1018,4 hPa 0,0 mm 1,5 km/h (1 Bft) O 84 ° 0 min 0,000 mm 1,0 UV-I 130 W/m² 15,1 °C 19,7 °C 3,2 km/h (1 Bft)
13.08.2017 17:50 19,6 °C 19,7 °C 76 % 1018,5 hPa 0,0 mm 2,3 km/h (1 Bft) O 84 ° 0 min 0,000 mm 1,0 UV-I 132 W/m² 15,2 °C 19,6 °C 3,2 km/h (1 Bft)
13.08.2017 17:51 19,5 °C 19,6 °C 74 % 1018,5 hPa 0,0 mm 2,3 km/h (1 Bft) O 84 ° 0 min 0,000 mm 1,0 UV-I 135 W/m² 14,7 °C 19,5 °C 3,2 km/h (1 Bft)
13.08.2017 17:52 19,5 °C 19,5 °C 74 % 1018,5 hPa 0,0 mm 3,4 km/h (1 Bft) O 93 ° 0 min 0,000 mm 1,0 UV-I 142 W/m² 14,7 °C 19,5 °C 6,4 km/h (2 Bft)
13.08.2017 17:53 19,5 °C 19,5 °C 73 % 1018,5 hPa 0,0 mm 2,9 km/h (1 Bft) O 89 ° 0 min 0,000 mm 1,0 UV-I 160 W/m² 14,5 °C 19,5 °C 6,4 km/h (2 Bft)
13.08.2017 17:54 19,5 °C 19,5 °C 76 % 1018,5 hPa 0,0 mm 3,4 km/h (1 Bft) O 95 ° 0 min 0,000 mm 1,1 UV-I 162 W/m² 15,2 °C 19,5 °C 6,4 km/h (2 Bft)
13.08.2017 17:55 19,5 °C 19,5 °C 74 % 1018,5 hPa 0,0 mm 1,0 km/h (0 Bft) O 95 ° 0 min 0,000 mm 1,1 UV-I 155 W/m² 14,7 °C 19,5 °C 3,2 km/h (1 Bft)
13.08.2017 17:56 19,5 °C 19,6 °C 73 % 1018,5 hPa 0,0 mm 1,9 km/h (1 Bft) O 94 ° 0 min 0,000 mm 1,1 UV-I 148 W/m² 14,5 °C 19,5 °C 4,8 km/h (1 Bft)
13.08.2017 17:57 19,6 °C 19,6 °C 75 % 1018,5 hPa 0,0 mm 3,2 km/h (1 Bft) O-SO 118 ° 0 min 0,000 mm 1,1 UV-I 146 W/m² 15,0 °C 19,6 °C 4,8 km/h (1 Bft)
13.08.2017 17:58 19,6 °C 19,6 °C 73 % 1018,5 hPa 0,0 mm 1,2 km/h (1 Bft) O-SO 118 ° 0 min 0,000 mm 1,1 UV-I 141 W/m² 14,6 °C 19,6 °C 3,2 km/h (1 Bft)
13.08.2017 17:59 19,7 °C 19,7 °C 73 % 1018,5 hPa 0,0 mm 0,2 km/h (0 Bft) O-SO 118 ° 0 min 0,000 mm 1,1 UV-I 144 W/m² 14,7 °C 19,7 °C 1,6 km/h (1 Bft)
13.08.2017 18:00 19,6 °C 19,7 °C 75 % 1018,5 hPa 0,0 mm 0,3 km/h (0 Bft) O-SO 118 ° 0 min 0,076 mm 1,2 UV-I 146 W/m² 15,0 °C 19,6 °C 3,2 km/h (1 Bft)
13.08.2017 18:01 19,6 °C 19,6 °C 76 % 1018,5 hPa 0,0 mm 0,7 km/h (0 Bft) O-SO 118 ° 0 min 0,000 mm 1,2 UV-I 148 W/m² 15,2 °C 19,6 °C 1,6 km/h (1 Bft)
13.08.2017 18:02 19,6 °C 19,6 °C 76 % 1018,5 hPa 0,0 mm 0,5 km/h (0 Bft) O-SO 118 ° 0 min 0,000 mm 1,2 UV-I 146 W/m² 15,2 °C 19,6 °C 1,6 km/h (1 Bft)
13.08.2017 18:03 19,6 °C 19,6 °C 74 % 1018,5 hPa 0,0 mm 3,2 km/h (1 Bft) O-SO 118 ° 0 min 0,000 mm 1,2 UV-I 139 W/m² 14,8 °C 19,6 °C 4,8 km/h (1 Bft)
13.08.2017 18:04 19,5 °C 19,6 °C 76 % 1018,5 hPa 0,0 mm 1,9 km/h (1 Bft) O-SO 118 ° 0 min 0,000 mm 1,2 UV-I 139 W/m² 15,2 °C 19,5 °C 3,2 km/h (1 Bft)
13.08.2017 18:05 19,5 °C 19,5 °C 75 % 1018,5 hPa 0,0 mm 1,9 km/h (1 Bft) O-SO 119 ° 0 min 0,000 mm 1,2 UV-I 139 W/m² 14,9 °C 19,5 °C 4,8 km/h (1 Bft)
13.08.2017 18:06 19,6 °C 19,6 °C 73 % 1018,5 hPa 0,0 mm 1,0 km/h (0 Bft) O-SO 119 ° 0 min 0,000 mm 1,2 UV-I 137 W/m² 14,6 °C 19,6 °C 1,6 km/h (1 Bft)
13.08.2017 18:07 19,6 °C 19,6 °C 74 % 1018,5 hPa 0,0 mm 2,0 km/h (1 Bft) O-SO 115 ° 0 min 0,000 mm 1,1 UV-I 135 W/m² 14,8 °C 19,6 °C 4,8 km/h (1 Bft)
13.08.2017 18:08 19,6 °C 19,6 °C 72 % 1018,5 hPa 0,0 mm 2,3 km/h (1 Bft) O-SO 115 ° 0 min 0,000 mm 1,1 UV-I 132 W/m² 14,4 °C 19,6 °C 3,2 km/h (1 Bft)
13.08.2017 18:09 19,6 °C 19,6 °C 76 % 1018,5 hPa 0,0 mm 1,7 km/h (1 Bft) O-SO 115 ° 0 min 0,000 mm 1,1 UV-I 132 W/m² 15,2 °C 19,6 °C 3,2 km/h (1 Bft)
13.08.2017 18:10 19,6 °C 19,6 °C 73 % 1018,4 hPa 0,0 mm 0,5 km/h (0 Bft) O-SO 115 ° 0 min 0,000 mm 1,1 UV-I 151 W/m² 14,6 °C 19,6 °C 3,2 km/h (1 Bft)
13.08.2017 18:11 19,6 °C 19,6 °C 73 % 1018,4 hPa 0,0 mm 2,5 km/h (1 Bft) O-SO 102 ° 0 min 0,000 mm 1,1 UV-I 158 W/m² 14,6 °C 19,6 °C 3,2 km/h (1 Bft)
13.08.2017 18:12 19,6 °C 19,6 °C 75 % 1018,4 hPa 0,0 mm 1,3 km/h (1 Bft) O-SO 102 ° 0 min 0,000 mm 1,1 UV-I 163 W/m² 15,0 °C 19,6 °C 3,2 km/h (1 Bft)
13.08.2017 18:14 19,8 °C 19,8 °C 73 % 1018,4 hPa 0,0 mm 0,0 km/h (0 Bft) O-SO 102 ° 0 min 0,000 mm 1,1 UV-I 174 W/m² 14,8 °C 19,8 °C 0,0 km/h (0 Bft)
13.08.2017 18:15 19,8 °C 19,8 °C 72 % 1018,4 hPa 0,0 mm 0,0 km/h (0 Bft) O-SO 102 ° 0 min 0,000 mm 1,1 UV-I 181 W/m² 14,6 °C 19,8 °C 0,0 km/h (0 Bft)
13.08.2017 18:16 19,9 °C 19,9 °C 74 % 1018,4 hPa 0,0 mm 2,3 km/h (1 Bft) O-NO 71 ° 0 min 0,000 mm 1,1 UV-I 167 W/m² 15,1 °C 19,9 °C 4,8 km/h (1 Bft)
13.08.2017 18:17 19,8 °C 19,9 °C 73 % 1018,4 hPa 0,0 mm 3,5 km/h (1 Bft) O-NO 71 ° 0 min 0,000 mm 1,0 UV-I 162 W/m² 14,8 °C 19,8 °C 4,8 km/h (1 Bft)
13.08.2017 18:18 19,9 °C 19,9 °C 72 % 1018,5 hPa 0,0 mm 1,5 km/h (1 Bft) O-NO 71 ° 0 min 0,000 mm 0,9 UV-I 155 W/m² 14,7 °C 19,9 °C 4,8 km/h (1 Bft)
13.08.2017 18:19 20,0 °C 20,0 °C 73 % 1018,5 hPa 0,0 mm 2,1 km/h (1 Bft) O 84 ° 0 min 0,000 mm 0,9 UV-I 149 W/m² 15,0 °C 20,0 °C 3,2 km/h (1 Bft)
13.08.2017 18:20 20,0 °C 20,0 °C 72 % 1018,4 hPa 0,0 mm 2,3 km/h (1 Bft) O 85 ° 0 min 0,000 mm 0,9 UV-I 151 W/m² 14,8 °C 20,0 °C 4,8 km/h (1 Bft)
13.08.2017 18:21 20,1 °C 20,1 °C 70 % 1018,5 hPa 0,0 mm 0,0 km/h (0 Bft) O 85 ° 0 min 0,000 mm 0,9 UV-I 151 W/m² 14,5 °C 20,1 °C 0,0 km/h (0 Bft)
13.08.2017 18:22 20,1 °C 20,1 °C 73 % 1018,5 hPa 0,0 mm 0,0 km/h (0 Bft) O 85 ° 0 min 0,000 mm 0,9 UV-I 148 W/m² 15,1 °C 20,1 °C 0,0 km/h (0 Bft)
13.08.2017 18:23 20,0 °C 20,1 °C 71 % 1018,5 hPa 0,0 mm 0,1 km/h (0 Bft) O 85 ° 0 min 0,000 mm 0,9 UV-I 155 W/m² 14,6 °C 20,0 °C 1,6 km/h (1 Bft)
13.08.2017 18:24 20,0 °C 20,1 °C 71 % 1018,4 hPa 0,0 mm 1,7 km/h (1 Bft) O 85 ° 0 min 0,000 mm 0,9 UV-I 153 W/m² 14,6 °C 20,0 °C 3,2 km/h (1 Bft)
13.08.2017 18:25 20,0 °C 20,1 °C 70 % 1018,4 hPa 0,0 mm 2,7 km/h (1 Bft) O 85 ° 0 min 0,000 mm 0,9 UV-I 153 W/m² 14,4 °C 20,0 °C 4,8 km/h (1 Bft)
13.08.2017 18:26 20,1 °C 20,1 °C 75 % 1018,4 hPa 0,0 mm 1,5 km/h (1 Bft) O 85 ° 0 min 0,000 mm 0,9 UV-I 151 W/m² 15,5 °C 20,1 °C 3,2 km/h (1 Bft)
13.08.2017 18:27 20,0 °C 20,1 °C 76 % 1018,4 hPa 0,0 mm 0,7 km/h (0 Bft) O 85 ° 0 min 0,000 mm 0,9 UV-I 155 W/m² 15,6 °C 20,0 °C 3,2 km/h (1 Bft)
13.08.2017 18:28 19,9 °C 20,0 °C 73 % 1018,4 hPa 0,0 mm 1,8 km/h (1 Bft) O-NO 77 ° 0 min 0,000 mm 0,9 UV-I 162 W/m² 14,9 °C 19,9 °C 3,2 km/h (1 Bft)
13.08.2017 18:29 19,9 °C 20,0 °C 76 % 1018,4 hPa 0,0 mm 0,7 km/h (0 Bft) O-NO 77 ° 0 min 0,000 mm 0,9 UV-I 162 W/m² 15,5 °C 19,9 °C 1,6 km/h (1 Bft)
13.08.2017 18:30 19,9 °C 19,9 °C 76 % 1018,4 hPa 0,0 mm 1,1 km/h (1 Bft) O-NO 77 ° 0 min 0,000 mm 0,9 UV-I 160 W/m² 15,5 °C 19,9 °C 3,2 km/h (1 Bft)
13.08.2017 18:31 19,9 °C 19,9 °C 72 % 1018,4 hPa 0,0 mm 1,1 km/h (1 Bft) O-NO 77 ° 0 min 0,000 mm 0,9 UV-I 158 W/m² 14,7 °C 19,9 °C 3,2 km/h (1 Bft)
13.08.2017 18:32 20,0 °C 20,0 °C 72 % 1018,4 hPa 0,0 mm 0,2 km/h (0 Bft) O-NO 77 ° 0 min 0,000 mm 0,9 UV-I 162 W/m² 14,8 °C 20,0 °C 1,6 km/h (1 Bft)
13.08.2017 18:33 20,2 °C 20,2 °C 72 % 1018,4 hPa 0,0 mm 1,6 km/h (1 Bft) O-NO 77 ° 0 min 0,000 mm 0,8 UV-I 155 W/m² 15,0 °C 20,2 °C 4,8 km/h (1 Bft)
13.08.2017 18:34 20,2 °C 20,2 °C 70 % 1018,4 hPa 0,0 mm 1,7 km/h (1 Bft) O-NO 77 ° 0 min 0,000 mm 0,8 UV-I 153 W/m² 14,5 °C 20,2 °C 3,2 km/h (1 Bft)
13.08.2017 18:35 20,3 °C 20,3 °C 70 % 1018,5 hPa 0,0 mm 0,7 km/h (0 Bft) NO 40 ° 0 min 0,000 mm 0,8 UV-I 158 W/m² 14,6 °C 20,3 °C 6,4 km/h (2 Bft)
13.08.2017 18:36 20,4 °C 20,4 °C 70 % 1018,4 hPa 0,0 mm 3,8 km/h (1 Bft) NO 44 ° 0 min 0,000 mm 0,8 UV-I 158 W/m² 14,7 °C 20,4 °C 6,4 km/h (2 Bft)
13.08.2017 18:37 20,5 °C 20,5 °C 70 % 1018,4 hPa 0,0 mm 1,1 km/h (1 Bft) NO 44 ° 0 min 0,000 mm 0,8 UV-I 163 W/m² 14,8 °C 20,5 °C 3,2 km/h (1 Bft)
13.08.2017 18:38 20,4 °C 20,5 °C 69 % 1018,5 hPa 0,0 mm 1,3 km/h (1 Bft) O 86 ° 0 min 0,000 mm 0,8 UV-I 158 W/m² 14,5 °C 20,4 °C 3,2 km/h (1 Bft)
13.08.2017 18:39 20,4 °C 20,4 °C 69 % 1018,4 hPa 0,0 mm 2,0 km/h (1 Bft) O-NO 69 ° 0 min 0,000 mm 0,8 UV-I 134 W/m² 14,5 °C 20,4 °C 4,8 km/h (1 Bft)
13.08.2017 18:40 20,4 °C 20,4 °C 70 % 1018,5 hPa 0,0 mm 4,3 km/h (1 Bft) NO 53 ° 0 min 0,000 mm 0,8 UV-I 130 W/m² 14,7 °C 20,4 °C 4,8 km/h (1 Bft)
13.08.2017 18:41 20,4 °C 20,4 °C 69 % 1018,5 hPa 0,0 mm 2,6 km/h (1 Bft) NO 53 ° 0 min 0,000 mm 0,7 UV-I 118 W/m² 14,5 °C 20,4 °C 4,8 km/h (1 Bft)
13.08.2017 18:42 20,4 °C 20,4 °C 69 % 1018,5 hPa 0,0 mm 2,9 km/h (1 Bft) NO 51 ° 0 min 0,000 mm 0,7 UV-I 113 W/m² 14,5 °C 20,4 °C 6,4 km/h (2 Bft)
13.08.2017 18:43 20,4 °C 20,4 °C 70 % 1018,5 hPa 0,0 mm 1,0 km/h (0 Bft) NO 51 ° 0 min 0,000 mm 0,7 UV-I 107 W/m² 14,7 °C 20,4 °C 3,2 km/h (1 Bft)
13.08.2017 18:44 20,4 °C 20,4 °C 69 % 1018,5 hPa 0,0 mm 1,0 km/h (0 Bft) NO 51 ° 0 min 0,000 mm 0,7 UV-I 105 W/m² 14,5 °C 20,4 °C 3,2 km/h (1 Bft)
13.08.2017 18:45 20,3 °C 20,4 °C 70 % 1018,5 hPa 0,0 mm 0,6 km/h (0 Bft) NO 51 ° 0 min 0,000 mm 0,7 UV-I 105 W/m² 14,6 °C 20,3 °C 3,2 km/h (1 Bft)
13.08.2017 18:46 20,2 °C 20,3 °C 73 % 1018,5 hPa 0,0 mm 5,1 km/h (1 Bft) NO 34 ° 0 min 0,000 mm 0,7 UV-I 98 W/m² 15,2 °C 20,2 °C 6,4 km/h (2 Bft)
13.08.2017 18:47 20,2 °C 20,2 °C 69 % 1018,5 hPa 0,0 mm 6,4 km/h (2 Bft) O-NO 58 ° 0 min 0,000 mm 0,7 UV-I 90 W/m² 14,3 °C 20,2 °C 8,0 km/h (2 Bft)
13.08.2017 18:48 20,2 °C 20,2 °C 69 % 1018,5 hPa 0,0 mm 6,0 km/h (2 Bft) NO 49 ° 0 min 0,000 mm 0,7 UV-I 90 W/m² 14,3 °C 20,2 °C 8,0 km/h (2 Bft)
13.08.2017 18:49 20,2 °C 20,2 °C 68 % 1018,5 hPa 0,0 mm 4,4 km/h (1 Bft) N-NO 24 ° 0 min 0,000 mm 0,7 UV-I 81 W/m² 14,1 °C 20,2 °C 6,4 km/h (2 Bft)
13.08.2017 18:50 20,2 °C 20,2 °C 69 % 1018,5 hPa 0,0 mm 0,9 km/h (0 Bft) N-NO 24 ° 0 min 0,000 mm 0,7 UV-I 83 W/m² 14,3 °C 20,2 °C 1,6 km/h (1 Bft)
13.08.2017 18:51 20,2 °C 20,2 °C 68 % 1018,5 hPa 0,0 mm 3,6 km/h (1 Bft) NO 49 ° 0 min 0,000 mm 0,7 UV-I 70 W/m² 14,1 °C 20,2 °C 6,4 km/h (2 Bft)
13.08.2017 18:52 20,1 °C 20,2 °C 69 % 1018,5 hPa 0,0 mm 4,4 km/h (1 Bft) NO 50 ° 0 min 0,000 mm 0,7 UV-I 81 W/m² 14,2 °C 20,1 °C 6,4 km/h (2 Bft)
13.08.2017 18:53 20,1 °C 20,1 °C 68 % 1018,5 hPa 0,0 mm 2,6 km/h (1 Bft) NO 50 ° 0 min 0,000 mm 0,7 UV-I 77 W/m² 14,0 °C 20,1 °C 3,2 km/h (1 Bft)
13.08.2017 18:54 20,2 °C 20,2 °C 69 % 1018,6 hPa 0,0 mm 2,9 km/h (1 Bft) NO 50 ° 0 min 0,000 mm 0,7 UV-I 98 W/m² 14,3 °C 20,2 °C 6,4 km/h (2 Bft)
13.08.2017 18:55 20,1 °C 20,2 °C 71 % 1018,5 hPa 0,0 mm 3,7 km/h (1 Bft) NO 51 ° 0 min 0,000 mm 0,7 UV-I 70 W/m² 14,7 °C 20,1 °C 6,4 km/h (2 Bft)
13.08.2017 18:56 20,1 °C 20,1 °C 71 % 1018,5 hPa 0,0 mm 0,7 km/h (0 Bft) O-NO 57 ° 0 min 0,000 mm 0,7 UV-I 67 W/m² 14,7 °C 20,1 °C 3,2 km/h (1 Bft)
13.08.2017 18:57 19,9 °C 20,1 °C 71 % 1018,5 hPa 0,0 mm 3,0 km/h (1 Bft) O 87 ° 0 min 0,000 mm 0,7 UV-I 77 W/m² 14,5 °C 19,9 °C 4,8 km/h (1 Bft)
13.08.2017 18:59 19,8 °C 19,9 °C 71 % 1018,5 hPa 0,0 mm 0,1 km/h (0 Bft) O 87 ° 0 min 0,000 mm 0,6 UV-I 63 W/m² 14,4 °C 19,8 °C 1,6 km/h (1 Bft)
13.08.2017 19:00 19,8 °C 19,8 °C 72 % 1018,5 hPa 0,0 mm 0,0 km/h (0 Bft) O 88 ° 0 min 0,000 mm 0,6 UV-I 69 W/m² 14,6 °C 19,8 °C 0,0 km/h (0 Bft)
13.08.2017 19:01 19,7 °C 19,8 °C 74 % 1018,5 hPa 0,0 mm 1,2 km/h (1 Bft) O 87 ° 0 min 0,076 mm 0,6 UV-I 84 W/m² 14,9 °C 19,7 °C 1,6 km/h (1 Bft)
13.08.2017 19:02 19,5 °C 19,7 °C 74 % 1018,5 hPa 0,0 mm 0,3 km/h (0 Bft) O 87 ° 0 min 0,000 mm 0,6 UV-I 84 W/m² 14,7 °C 19,5 °C 1,6 km/h (1 Bft)
13.08.2017 19:03 19,4 °C 19,5 °C 73 % 1018,5 hPa 0,0 mm 0,0 km/h (0 Bft) O 87 ° 0 min 0,000 mm 0,6 UV-I 56 W/m² 14,4 °C 19,4 °C 0,0 km/h (0 Bft)
13.08.2017 19:04 19,5 °C 19,5 °C 73 % 1018,5 hPa 0,0 mm 1,8 km/h (1 Bft) NO 36 ° 0 min 0,000 mm 0,6 UV-I 90 W/m² 14,5 °C 19,5 °C 4,8 km/h (1 Bft)
13.08.2017 19:05 19,5 °C 19,5 °C 72 % 1018,5 hPa 0,0 mm 0,2 km/h (0 Bft) NO 36 ° 0 min 0,000 mm 0,6 UV-I 137 W/m² 14,3 °C 19,5 °C 1,6 km/h (1 Bft)
13.08.2017 19:06 19,6 °C 19,6 °C 74 % 1018,5 hPa 0,0 mm 0,0 km/h (0 Bft) NO 36 ° 0 min 0,000 mm 0,6 UV-I 156 W/m² 14,8 °C 19,6 °C 0,0 km/h (0 Bft)
13.08.2017 19:07 19,6 °C 19,6 °C 73 % 1018,5 hPa 0,0 mm 0,0 km/h (0 Bft) NO 36 ° 0 min 0,000 mm 0,6 UV-I 155 W/m² 14,6 °C 19,6 °C 0,0 km/h (0 Bft)
13.08.2017 19:09 19,6 °C 19,6 °C 73 % 1018,5 hPa 0,0 mm 0,6 km/h (0 Bft) NO 36 ° 0 min 0,000 mm 0,6 UV-I 125 W/m² 14,6 °C 19,6 °C 6,4 km/h (2 Bft)
13.08.2017 19:10 19,6 °C 19,6 °C 74 % 1018,5 hPa 0,0 mm 1,5 km/h (1 Bft) NO 36 ° 0 min 0,000 mm 0,6 UV-I 105 W/m² 14,8 °C 19,6 °C 4,8 km/h (1 Bft)
13.08.2017 19:11 19,5 °C 19,6 °C 73 % 1018,5 hPa 0,0 mm 1,2 km/h (1 Bft) O-NO 67 ° 0 min 0,000 mm 0,5 UV-I 84 W/m² 14,5 °C 19,5 °C 3,2 km/h (1 Bft)
13.08.2017 19:12 19,6 °C 19,6 °C 73 % 1018,5 hPa 0,0 mm 0,7 km/h (0 Bft) O-NO 67 ° 0 min 0,000 mm 0,5 UV-I 65 W/m² 14,6 °C 19,6 °C 3,2 km/h (1 Bft)
13.08.2017 19:14 19,4 °C 19,6 °C 74 % 1018,5 hPa 0,0 mm 1,1 km/h (1 Bft) O 82 ° 0 min 0,000 mm 0,5 UV-I 111 W/m² 14,6 °C 19,4 °C 4,8 km/h (1 Bft)
13.08.2017 19:15 19,4 °C 19,4 °C 75 % 1018,5 hPa 0,0 mm 0,8 km/h (0 Bft) O 82 ° 0 min 0,000 mm 0,5 UV-I 107 W/m² 14,8 °C 19,4 °C 1,6 km/h (1 Bft)
13.08.2017 19:16 19,3 °C 19,4 °C 74 % 1018,6 hPa 0,0 mm 0,3 km/h (0 Bft) O 82 ° 0 min 0,000 mm 0,5 UV-I 104 W/m² 14,5 °C 19,3 °C 3,2 km/h (1 Bft)
13.08.2017 19:17 19,3 °C 19,3 °C 74 % 1018,5 hPa 0,0 mm 1,7 km/h (1 Bft) O 82 ° 0 min 0,000 mm 0,5 UV-I 114 W/m² 14,5 °C 19,3 °C 3,2 km/h (1 Bft)
13.08.2017 19:18 19,3 °C 19,3 °C 74 % 1018,5 hPa 0,0 mm 2,7 km/h (1 Bft) O 82 ° 0 min 0,000 mm 0,5 UV-I 116 W/m² 14,5 °C 19,3 °C 4,8 km/h (1 Bft)
13.08.2017 19:19 19,3 °C 19,4 °C 76 % 1018,6 hPa 0,0 mm 0,5 km/h (0 Bft) O 82 ° 0 min 0,000 mm 0,5 UV-I 114 W/m² 15,0 °C 19,3 °C 3,2 km/h (1 Bft)
13.08.2017 19:20 19,3 °C 19,4 °C 76 % 1018,6 hPa 0,0 mm 0,1 km/h (0 Bft) O 82 ° 0 min 0,000 mm 0,5 UV-I 113 W/m² 15,0 °C 19,3 °C 1,6 km/h (1 Bft)
13.08.2017 19:21 19,3 °C 19,3 °C 75 % 1018,5 hPa 0,0 mm 0,0 km/h (0 Bft) O 82 ° 0 min 0,000 mm 0,5 UV-I 113 W/m² 14,8 °C 19,3 °C 0,0 km/h (0 Bft)
13.08.2017 19:22 19,3 °C 19,3 °C 75 % 1018,5 hPa 0,0 mm 0,0 km/h (0 Bft) O 82 ° 0 min 0,000 mm 0,5 UV-I 111 W/m² 14,8 °C 19,3 °C 0,0 km/h (0 Bft)
13.08.2017 19:23 19,3 °C 19,3 °C 74 % 1018,5 hPa 0,0 mm 0,0 km/h (0 Bft) O 82 ° 0 min 0,000 mm 0,5 UV-I 109 W/m² 14,5 °C 19,3 °C 0,0 km/h (0 Bft)
13.08.2017 19:24 19,2 °C 19,3 °C 76 % 1018,5 hPa 0,0 mm 0,0 km/h (0 Bft) O 82 ° 0 min 0,000 mm 0,5 UV-I 107 W/m² 14,9 °C 19,2 °C 0,0 km/h (0 Bft)
13.08.2017 19:25 19,2 °C 19,2 °C 76 % 1018,5 hPa 0,0 mm 0,4 km/h (0 Bft) O 82 ° 0 min 0,000 mm 0,0 UV-I 107 W/m² 14,9 °C 19,2 °C 3,2 km/h (1 Bft)
13.08.2017 19:26 19,2 °C 19,2 °C 75 % 1018,6 hPa 0,0 mm 0,4 km/h (0 Bft) N-NO 30 ° 0 min 0,000 mm 0,0 UV-I 107 W/m² 14,7 °C 19,2 °C 1,6 km/h (1 Bft)
13.08.2017 19:27 19,2 °C 19,2 °C 75 % 1018,6 hPa 0,0 mm 0,0 km/h (0 Bft) N-NO 30 ° 0 min 0,000 mm 0,0 UV-I 104 W/m² 14,7 °C 19,2 °C 0,0 km/h (0 Bft)
13.08.2017 19:28 19,2 °C 19,3 °C 75 % 1018,6 hPa 0,0 mm 0,0 km/h (0 Bft) N-NO 30 ° 0 min 0,000 mm 0,0 UV-I 104 W/m² 14,7 °C 19,2 °C 0,0 km/h (0 Bft)
13.08.2017 19:29 19,2 °C 19,2 °C 75 % 1018,6 hPa 0,0 mm 0,0 km/h (0 Bft) N-NO 30 ° 0 min 0,000 mm 0,0 UV-I 93 W/m² 14,7 °C 19,2 °C 0,0 km/h (0 Bft)
13.08.2017 19:30 19,2 °C 19,2 °C 73 % 1018,6 hPa 0,0 mm 0,0 km/h (0 Bft) N-NO 30 ° 0 min 0,000 mm 0,0 UV-I 76 W/m² 14,2 °C 19,2 °C 0,0 km/h (0 Bft)
13.08.2017 19:31 19,2 °C 19,2 °C 74 % 1018,6 hPa 0,0 mm 0,0 km/h (0 Bft) N-NO 30 ° 0 min 0,000 mm 0,0 UV-I 62 W/m² 14,4 °C 19,2 °C 0,0 km/h (0 Bft)
13.08.2017 19:32 19,2 °C 19,2 °C 73 % 1018,6 hPa 0,0 mm 0,0 km/h (0 Bft) N-NO 30 ° 0 min 0,000 mm 0,0 UV-I 49 W/m² 14,2 °C 19,2 °C 0,0 km/h (0 Bft)
13.08.2017 19:33 19,3 °C 19,3 °C 74 % 1018,7 hPa 0,0 mm 0,0 km/h (0 Bft) N-NO 30 ° 0 min 0,000 mm 0,0 UV-I 51 W/m² 14,5 °C 19,3 °C 0,0 km/h (0 Bft)
13.08.2017 19:34 19,2 °C 19,3 °C 74 % 1018,6 hPa 0,0 mm 0,0 km/h (0 Bft) N-NO 30 ° 0 min 0,000 mm 0,0 UV-I 40 W/m² 14,4 °C 19,2 °C 0,0 km/h (0 Bft)
13.08.2017 19:35 19,1 °C 19,2 °C 74 % 1018,6 hPa 0,0 mm 0,0 km/h (0 Bft) N-NO 30 ° 0 min 0,000 mm 0,0 UV-I 32 W/m² 14,4 °C 19,1 °C 0,0 km/h (0 Bft)
13.08.2017 19:36 19,1 °C 19,1 °C 74 % 1018,6 hPa 0,0 mm 0,0 km/h (0 Bft) N-NO 30 ° 0 min 0,000 mm 0,0 UV-I 30 W/m² 14,4 °C 19,1 °C 0,0 km/h (0 Bft)
13.08.2017 19:37 18,9 °C 19,1 °C 75 % 1018,6 hPa 0,0 mm 1,1 km/h (1 Bft) N-NO 30 ° 0 min 0,000 mm 0,0 UV-I 26 W/m² 14,4 °C 18,9 °C 3,2 km/h (1 Bft)
13.08.2017 19:38 18,9 °C 18,9 °C 74 % 1018,6 hPa 0,0 mm 0,0 km/h (0 Bft) N-NO 30 ° 0 min 0,000 mm 0,0 UV-I 28 W/m² 14,2 °C 18,9 °C 0,0 km/h (0 Bft)
13.08.2017 19:39 18,8 °C 18,9 °C 74 % 1018,6 hPa 0,0 mm 0,0 km/h (0 Bft) N-NO 30 ° 0 min 0,000 mm 0,0 UV-I 26 W/m² 14,1 °C 18,8 °C 0,0 km/h (0 Bft)
13.08.2017 19:40 18,8 °C 18,8 °C 74 % 1018,6 hPa 0,0 mm 0,1 km/h (0 Bft) N-NO 30 ° 0 min 0,000 mm 0,0 UV-I 30 W/m² 14,1 °C 18,8 °C 1,6 km/h (1 Bft)
13.08.2017 19:41 18,7 °C 18,8 °C 74 % 1018,6 hPa 0,0 mm 0,1 km/h (0 Bft) N-NO 30 ° 0 min 0,000 mm 0,0 UV-I 33 W/m² 14,0 °C 18,7 °C 1,6 km/h (1 Bft)
13.08.2017 19:42 18,7 °C 18,7 °C 74 % 1018,6 hPa 0,0 mm 0,2 km/h (0 Bft) N-NO 30 ° 0 min 0,000 mm 0,0 UV-I 25 W/m² 14,0 °C 18,7 °C 1,6 km/h (1 Bft)
13.08.2017 19:43 18,7 °C 18,7 °C 74 % 1018,6 hPa 0,0 mm 0,0 km/h (0 Bft) N-NO 30 ° 0 min 0,000 mm 0,0 UV-I 25 W/m² 14,0 °C 18,7 °C 0,0 km/h (0 Bft)
13.08.2017 19:44 18,6 °C 18,7 °C 75 % 1018,6 hPa 0,0 mm 0,8 km/h (0 Bft) N-NO 30 ° 0 min 0,000 mm 0,0 UV-I 23 W/m² 14,1 °C 18,6 °C 1,6 km/h (1 Bft)
13.08.2017 19:45 18,6 °C 18,6 °C 74 % 1018,6 hPa 0,0 mm 0,9 km/h (0 Bft) N-NO 30 ° 0 min 0,000 mm 0,0 UV-I 21 W/m² 13,9 °C 18,6 °C 3,2 km/h (1 Bft)
13.08.2017 19:46 18,5 °C 18,6 °C 75 % 1018,7 hPa 0,0 mm 2,1 km/h (1 Bft) N-NO 30 ° 0 min 0,000 mm 0,0 UV-I 21 W/m² 14,0 °C 18,5 °C 3,2 km/h (1 Bft)
13.08.2017 19:47 18,4 °C 18,5 °C 76 % 1018,6 hPa 0,0 mm 1,3 km/h (1 Bft) N-NO 30 ° 0 min 0,000 mm 0,0 UV-I 19 W/m² 14,1 °C 18,4 °C 3,2 km/h (1 Bft)
13.08.2017 19:48 18,3 °C 18,4 °C 75 % 1018,7 hPa 0,0 mm 2,2 km/h (1 Bft) N-NO 30 ° 0 min 0,000 mm 0,0 UV-I 19 W/m² 13,8 °C 18,3 °C 3,2 km/h (1 Bft)
13.08.2017 19:49 18,3 °C 18,3 °C 76 % 1018,7 hPa 0,0 mm 2,8 km/h (1 Bft) N-NO 30 ° 0 min 0,000 mm 0,0 UV-I 19 W/m² 14,0 °C 18,3 °C 3,2 km/h (1 Bft)
13.08.2017 19:50 18,3 °C 18,3 °C 76 % 1018,7 hPa 0,0 mm 0,8 km/h (0 Bft) N-NO 30 ° 0 min 0,000 mm 0,0 UV-I 18 W/m² 14,0 °C 18,3 °C 1,6 km/h (1 Bft)
13.08.2017 19:51 18,2 °C 18,3 °C 77 % 1018,6 hPa 0,0 mm 1,3 km/h (1 Bft) N-NO 30 ° 0 min 0,000 mm 0,0 UV-I 18 W/m² 14,1 °C 18,2 °C 1,6 km/h (1 Bft)
13.08.2017 19:52 18,1 °C 18,2 °C 77 % 1018,6 hPa 0,0 mm 1,7 km/h (1 Bft) N-NO 30 ° 0 min 0,000 mm 0,0 UV-I 19 W/m² 14,0 °C 18,1 °C 3,2 km/h (1 Bft)
13.08.2017 19:53 18,1 °C 18,1 °C 77 % 1018,6 hPa 0,0 mm 2,5 km/h (1 Bft) N-NO 30 ° 0 min 0,000 mm 0,0 UV-I 18 W/m² 14,0 °C 18,1 °C 4,8 km/h (1 Bft)
13.08.2017 19:54 18,0 °C 18,1 °C 77 % 1018,6 hPa 0,0 mm 2,4 km/h (1 Bft) N-NO 30 ° 0 min 0,000 mm 0,0 UV-I 18 W/m² 13,9 °C 18,0 °C 3,2 km/h (1 Bft)
13.08.2017 19:55 17,9 °C 18,0 °C 78 % 1018,6 hPa 0,0 mm 2,7 km/h (1 Bft) N-NO 30 ° 0 min 0,000 mm 0,0 UV-I 19 W/m² 14,0 °C 17,9 °C 3,2 km/h (1 Bft)
13.08.2017 19:56 17,9 °C 17,9 °C 77 % 1018,6 hPa 0,0 mm 2,3 km/h (1 Bft) N-NO 30 ° 0 min 0,000 mm 0,0 UV-I 19 W/m² 13,8 °C 17,9 °C 3,2 km/h (1 Bft)
13.08.2017 19:57 17,9 °C 17,9 °C 78 % 1018,6 hPa 0,0 mm 2,4 km/h (1 Bft) O 101 ° 0 min 0,000 mm 0,0 UV-I 19 W/m² 14,0 °C 17,9 °C 3,2 km/h (1 Bft)
13.08.2017 19:58 17,9 °C 17,9 °C 77 % 1018,6 hPa 0,0 mm 1,9 km/h (1 Bft) O 101 ° 0 min 0,000 mm 0,0 UV-I 16 W/m² 13,8 °C 17,9 °C 3,2 km/h (1 Bft)
13.08.2017 19:59 17,9 °C 17,9 °C 78 % 1018,6 hPa 0,0 mm 3,0 km/h (1 Bft) O 101 ° 0 min 0,000 mm 0,0 UV-I 16 W/m² 14,0 °C 17,9 °C 4,8 km/h (1 Bft)
13.08.2017 20:00 17,9 °C 17,9 °C 78 % 1018,6 hPa 0,0 mm 2,6 km/h (1 Bft) O-SO 111 ° 0 min 0,000 mm 0,0 UV-I 16 W/m² 14,0 °C 17,9 °C 3,2 km/h (1 Bft)
13.08.2017 20:01 17,8 °C 17,9 °C 78 % 1018,7 hPa 0,0 mm 1,0 km/h (0 Bft) O-SO 111 ° 0 min 0,051 mm 0,0 UV-I 16 W/m² 13,9 °C 17,8 °C 1,6 km/h (1 Bft)
13.08.2017 20:02 17,7 °C 17,8 °C 78 % 1018,7 hPa 0,0 mm 0,7 km/h (0 Bft) O-SO 111 ° 0 min 0,000 mm 0,0 UV-I 18 W/m² 13,8 °C 17,7 °C 1,6 km/h (1 Bft)
13.08.2017 20:03 17,7 °C 17,7 °C 78 % 1018,7 hPa 0,0 mm 0,0 km/h (0 Bft) O-SO 111 ° 0 min 0,000 mm 0,0 UV-I 18 W/m² 13,8 °C 17,7 °C 0,0 km/h (0 Bft)
13.08.2017 20:04 17,7 °C 17,7 °C 79 % 1018,7 hPa 0,0 mm 0,0 km/h (0 Bft) O-SO 111 ° 0 min 0,000 mm 0,0 UV-I 18 W/m² 14,0 °C 17,7 °C 0,0 km/h (0 Bft)
13.08.2017 20:05 17,7 °C 17,7 °C 79 % 1018,7 hPa 0,0 mm 0,0 km/h (0 Bft) O-SO 111 ° 0 min 0,000 mm 0,0 UV-I 18 W/m² 14,0 °C 17,7 °C 0,0 km/h (0 Bft)
13.08.2017 20:06 17,7 °C 17,7 °C 79 % 1018,8 hPa 0,0 mm 0,0 km/h (0 Bft) O-SO 111 ° 0 min 0,000 mm 0,0 UV-I 16 W/m² 14,0 °C 17,7 °C 0,0 km/h (0 Bft)
13.08.2017 20:07 17,6 °C 17,7 °C 79 % 1018,8 hPa 0,0 mm 1,4 km/h (1 Bft) O-SO 111 ° 0 min 0,000 mm 0,0 UV-I 14 W/m² 13,9 °C 17,6 °C 3,2 km/h (1 Bft)
13.08.2017 20:08 17,6 °C 17,7 °C 79 % 1018,7 hPa 0,0 mm 1,1 km/h (1 Bft) O-SO 111 ° 0 min 0,000 mm 0,0 UV-I 14 W/m² 13,9 °C 17,6 °C 1,6 km/h (1 Bft)
13.08.2017 20:09 17,6 °C 17,6 °C 80 % 1018,8 hPa 0,0 mm 0,6 km/h (0 Bft) O-SO 111 ° 0 min 0,000 mm 0,0 UV-I 14 W/m² 14,1 °C 17,6 °C 1,6 km/h (1 Bft)
13.08.2017 20:10 17,4 °C 17,6 °C 80 % 1018,7 hPa 0,0 mm 0,0 km/h (0 Bft) O-SO 111 ° 0 min 0,000 mm 0,0 UV-I 14 W/m² 13,9 °C 17,4 °C 0,0 km/h (0 Bft)
13.08.2017 20:11 17,3 °C 17,4 °C 81 % 1018,8 hPa 0,0 mm 0,3 km/h (0 Bft) O-SO 111 ° 0 min 0,000 mm 0,0 UV-I 12 W/m² 14,0 °C 17,3 °C 1,6 km/h (1 Bft)
13.08.2017 20:12 17,2 °C 17,3 °C 81 % 1018,8 hPa 0,0 mm 0,0 km/h (0 Bft) O-SO 111 ° 0 min 0,000 mm 0,0 UV-I 12 W/m² 13,9 °C 17,2 °C 0,0 km/h (0 Bft)
13.08.2017 20:13 17,1 °C 17,2 °C 81 % 1018,7 hPa 0,0 mm 0,0 km/h (0 Bft) O-SO 111 ° 0 min 0,000 mm 0,0 UV-I 11 W/m² 13,8 °C 17,1 °C 0,0 km/h (0 Bft)
13.08.2017 20:14 17,1 °C 17,1 °C 82 % 1018,7 hPa 0,0 mm 0,1 km/h (0 Bft) O-SO 111 ° 0 min 0,000 mm 0,0 UV-I 11 W/m² 14,0 °C 17,1 °C 1,6 km/h (1 Bft)
13.08.2017 20:15 17,0 °C 17,1 °C 82 % 1018,7 hPa 0,0 mm 0,7 km/h (0 Bft) O-SO 111 ° 0 min 0,000 mm 0,0 UV-I 11 W/m² 13,9 °C 17,0 °C 1,6 km/h (1 Bft)
13.08.2017 20:16 16,9 °C 17,0 °C 82 % 1018,8 hPa 0,0 mm 1,3 km/h (1 Bft) O-SO 111 ° 0 min 0,000 mm 0,0 UV-I 11 W/m² 13,8 °C 16,9 °C 1,6 km/h (1 Bft)
13.08.2017 20:17 16,9 °C 16,9 °C 82 % 1018,7 hPa 0,0 mm 0,6 km/h (0 Bft) O-SO 111 ° 0 min 0,000 mm 0,0 UV-I 11 W/m² 13,8 °C 16,9 °C 1,6 km/h (1 Bft)
13.08.2017 20:18 16,9 °C 16,9 °C 83 % 1018,7 hPa 0,0 mm 0,5 km/h (0 Bft) O-SO 111 ° 0 min 0,000 mm 0,0 UV-I 9 W/m² 14,0 °C 16,9 °C 1,6 km/h (1 Bft)
13.08.2017 20:19 16,8 °C 16,9 °C 83 % 1018,7 hPa 0,0 mm 0,0 km/h (0 Bft) O-SO 111 ° 0 min 0,000 mm 0,0 UV-I 9 W/m² 13,9 °C 16,8 °C 0,0 km/h (0 Bft)
13.08.2017 20:20 16,8 °C 16,8 °C 83 % 1018,7 hPa 0,0 mm 0,0 km/h (0 Bft) O-SO 111 ° 0 min 0,000 mm 0,0 UV-I 9 W/m² 13,9 °C 16,8 °C 0,0 km/h (0 Bft)
13.08.2017 20:21 16,7 °C 16,8 °C 84 % 1018,7 hPa 0,0 mm 0,0 km/h (0 Bft) O-SO 111 ° 0 min 0,000 mm 0,0 UV-I 9 W/m² 14,0 °C 16,7 °C 0,0 km/h (0 Bft)
13.08.2017 20:22 16,6 °C 16,7 °C 84 % 1018,8 hPa 0,0 mm 0,0 km/h (0 Bft) O-SO 111 ° 0 min 0,000 mm 0,0 UV-I 9 W/m² 13,9 °C 16,6 °C 0,0 km/h (0 Bft)
13.08.2017 20:23 16,4 °C 16,6 °C 84 % 1018,7 hPa 0,0 mm 0,5 km/h (0 Bft) O-SO 111 ° 0 min 0,000 mm 0,0 UV-I 9 W/m² 13,7 °C 16,4 °C 1,6 km/h (1 Bft)
13.08.2017 20:24 16,4 °C 16,4 °C 84 % 1018,7 hPa 0,0 mm 0,1 km/h (0 Bft) O-SO 111 ° 0 min 0,000 mm 0,0 UV-I 7 W/m² 13,7 °C 16,4 °C 1,6 km/h (1 Bft)
13.08.2017 20:25 16,3 °C 16,4 °C 84 % 1018,8 hPa 0,0 mm 0,0 km/h (0 Bft) O-SO 111 ° 0 min 0,000 mm 0,0 UV-I 7 W/m² 13,6 °C 16,3 °C 0,0 km/h (0 Bft)
13.08.2017 20:26 16,3 °C 16,3 °C 84 % 1018,7 hPa 0,0 mm 0,0 km/h (0 Bft) O-SO 111 ° 0 min 0,000 mm 0,0 UV-I 5 W/m² 13,6 °C 16,3 °C 0,0 km/h (0 Bft)
13.08.2017 20:27 16,3 °C 16,3 °C 84 % 1018,7 hPa 0,0 mm 0,0 km/h (0 Bft) O-SO 111 ° 0 min 0,000 mm 0,0 UV-I 5 W/m² 13,6 °C 16,3 °C 0,0 km/h (0 Bft)
13.08.2017 20:28 16,3 °C 16,3 °C 84 % 1018,7 hPa 0,0 mm 0,0 km/h (0 Bft) O-SO 111 ° 0 min 0,000 mm 0,0 UV-I 5 W/m² 13,6 °C 16,3 °C 0,0 km/h (0 Bft)
13.08.2017 20:29 16,2 °C 16,3 °C 84 % 1018,7 hPa 0,0 mm 0,0 km/h (0 Bft) O-SO 111 ° 0 min 0,000 mm 0,0 UV-I 5 W/m² 13,5 °C 16,2 °C 0,0 km/h (0 Bft)
13.08.2017 20:30 16,1 °C 16,2 °C 84 % 1018,7 hPa 0,0 mm 0,0 km/h (0 Bft) O-SO 111 ° 0 min 0,000 mm 0,0 UV-I 5 W/m² 13,4 °C 16,1 °C 0,0 km/h (0 Bft)
13.08.2017 20:31 16,1 °C 16,1 °C 85 % 1018,8 hPa 0,0 mm 0,0 km/h (0 Bft) O-SO 111 ° 0 min 0,000 mm 0,0 UV-I 0 W/m² 13,6 °C 16,1 °C 0,0 km/h (0 Bft)
13.08.2017 20:32 16,1 °C 16,1 °C 85 % 1018,8 hPa 0,0 mm 0,0 km/h (0 Bft) O-SO 111 ° 0 min 0,000 mm 0,0 UV-I 0 W/m² 13,6 °C 16,1 °C 0,0 km/h (0 Bft)
13.08.2017 20:33 16,1 °C 16,1 °C 85 % 1018,8 hPa 0,0 mm 0,7 km/h (0 Bft) O-SO 111 ° 0 min 0,000 mm 0,0 UV-I 0 W/m² 13,6 °C 16,1 °C 1,6 km/h (1 Bft)
13.08.2017 20:34 16,1 °C 16,1 °C 85 % 1018,8 hPa 0,0 mm 0,0 km/h (0 Bft) O-SO 111 ° 0 min 0,000 mm 0,0 UV-I 0 W/m² 13,6 °C 16,1 °C 0,0 km/h (0 Bft)
13.08.2017 20:35 16,0 °C 16,1 °C 85 % 1018,8 hPa 0,0 mm 0,0 km/h (0 Bft) O-SO 111 ° 0 min 0,000 mm 0,0 UV-I 0 W/m² 13,5 °C 16,0 °C 0,0 km/h (0 Bft)
13.08.2017 20:36 15,9 °C 16,0 °C 85 % 1018,8 hPa 0,0 mm 0,0 km/h (0 Bft) O-SO 111 ° 0 min 0,000 mm 0,0 UV-I 0 W/m² 13,4 °C 15,9 °C 0,0 km/h (0 Bft)
13.08.2017 20:37 15,9 °C 15,9 °C 85 % 1018,8 hPa 0,0 mm 0,0 km/h (0 Bft) O-SO 111 ° 0 min 0,000 mm 0,0 UV-I 0 W/m² 13,4 °C 15,9 °C 0,0 km/h (0 Bft)
13.08.2017 20:38 15,9 °C 15,9 °C 85 % 1018,8 hPa 0,0 mm 0,0 km/h (0 Bft) O-SO 111 ° 0 min 0,000 mm 0,0 UV-I 0 W/m² 13,4 °C 15,9 °C 0,0 km/h (0 Bft)
13.08.2017 20:39 15,8 °C 15,9 °C 85 % 1018,8 hPa 0,0 mm 0,0 km/h (0 Bft) O-SO 111 ° 0 min 0,000 mm 0,0 UV-I 0 W/m² 13,3 °C 15,8 °C 0,0 km/h (0 Bft)
13.08.2017 20:40 15,7 °C 15,8 °C 85 % 1018,8 hPa 0,0 mm 0,0 km/h (0 Bft) O-SO 111 ° 0 min 0,000 mm 0,0 UV-I 0 W/m² 13,2 °C 15,7 °C 0,0 km/h (0 Bft)
13.08.2017 20:41 15,6 °C 15,7 °C 85 % 1018,8 hPa 0,0 mm 0,0 km/h (0 Bft) O-SO 111 ° 0 min 0,000 mm 0,0 UV-I 0 W/m² 13,1 °C 15,6 °C 0,0 km/h (0 Bft)
13.08.2017 20:42 15,4 °C 15,6 °C 86 % 1018,8 hPa 0,0 mm 0,0 km/h (0 Bft) O-SO 111 ° 0 min 0,000 mm 0,0 UV-I 0 W/m² 13,1 °C 15,4 °C 0,0 km/h (0 Bft)
13.08.2017 20:43 15,3 °C 15,4 °C 87 % 1018,8 hPa 0,0 mm 0,0 km/h (0 Bft) O-SO 111 ° 0 min 0,000 mm 0,0 UV-I 0 W/m² 13,1 °C 15,3 °C 0,0 km/h (0 Bft)
13.08.2017 20:44 15,3 °C 15,3 °C 87 % 1018,8 hPa 0,0 mm 0,0 km/h (0 Bft) O-SO 111 ° 0 min 0,000 mm 0,0 UV-I 0 W/m² 13,1 °C 15,3 °C 0,0 km/h (0 Bft)
13.08.2017 20:45 15,3 °C 15,3 °C 87 % 1018,8 hPa 0,0 mm 0,0 km/h (0 Bft) O-SO 111 ° 0 min 0,000 mm 0,0 UV-I 0 W/m² 13,1 °C 15,3 °C 0,0 km/h (0 Bft)
13.08.2017 20:46 15,2 °C 15,3 °C 86 % 1018,8 hPa 0,0 mm 0,0 km/h (0 Bft) O-SO 111 ° 0 min 0,000 mm 0,0 UV-I 0 W/m² 12,9 °C 15,2 °C 0,0 km/h (0 Bft)
13.08.2017 20:47 15,0 °C 15,2 °C 86 % 1018,8 hPa 0,0 mm 0,0 km/h (0 Bft) O-SO 111 ° 0 min 0,000 mm 0,0 UV-I 0 W/m² 12,7 °C 15,0 °C 0,0 km/h (0 Bft)
13.08.2017 20:48 14,8 °C 15,0 °C 87 % 1018,8 hPa 0,0 mm 0,0 km/h (0 Bft) O-SO 111 ° 0 min 0,000 mm 0,0 UV-I 0 W/m² 12,7 °C 14,8 °C 0,0 km/h (0 Bft)
13.08.2017 20:49 14,8 °C 14,8 °C 87 % 1018,9 hPa 0,0 mm 0,0 km/h (0 Bft) O-SO 111 ° 0 min 0,000 mm 0,0 UV-I 0 W/m² 12,7 °C 14,8 °C 0,0 km/h (0 Bft)
13.08.2017 20:50 14,7 °C 14,8 °C 88 % 1018,9 hPa 0,0 mm 0,0 km/h (0 Bft) O-SO 111 ° 0 min 0,000 mm 0,0 UV-I 0 W/m² 12,7 °C 14,7 °C 0,0 km/h (0 Bft)
13.08.2017 20:51 14,7 °C 14,7 °C 88 % 1018,9 hPa 0,0 mm 0,0 km/h (0 Bft) O-SO 111 ° 0 min 0,000 mm 0,0 UV-I 0 W/m² 12,7 °C 14,7 °C 0,0 km/h (0 Bft)
13.08.2017 20:52 14,6 °C 14,7 °C 88 % 1019,0 hPa 0,0 mm 0,0 km/h (0 Bft) O-SO 111 ° 0 min 0,000 mm 0,0 UV-I 0 W/m² 12,6 °C 14,6 °C 0,0 km/h (0 Bft)
13.08.2017 20:53 14,6 °C 14,6 °C 89 % 1019,0 hPa 0,0 mm 0,0 km/h (0 Bft) O-SO 111 ° 0 min 0,000 mm 0,0 UV-I 0 W/m² 12,8 °C 14,6 °C 0,0 km/h (0 Bft)
13.08.2017 20:54 14,6 °C 14,7 °C 89 % 1019,0 hPa 0,0 mm 0,0 km/h (0 Bft) O-SO 111 ° 0 min 0,000 mm 0,0 UV-I 0 W/m² 12,8 °C 14,6 °C 0,0 km/h (0 Bft)
13.08.2017 20:55 14,7 °C 14,7 °C 89 % 1019,0 hPa 0,0 mm 1,2 km/h (1 Bft) O-SO 111 ° 0 min 0,000 mm 0,0 UV-I 0 W/m² 12,9 °C 14,7 °C 3,2 km/h (1 Bft)
13.08.2017 20:56 14,8 °C 14,8 °C 89 % 1019,0 hPa 0,0 mm 2,3 km/h (1 Bft) O-SO 111 ° 0 min 0,000 mm 0,0 UV-I 0 W/m² 13,0 °C 14,8 °C 3,2 km/h (1 Bft)
13.08.2017 20:57 14,8 °C 14,8 °C 89 % 1019,0 hPa 0,0 mm 2,5 km/h (1 Bft) O-SO 111 ° 0 min 0,000 mm 0,0 UV-I 0 W/m² 13,0 °C 14,8 °C 3,2 km/h (1 Bft)
13.08.2017 20:58 14,9 °C 14,9 °C 88 % 1019,0 hPa 0,0 mm 2,0 km/h (1 Bft) O-SO 111 ° 0 min 0,000 mm 0,0 UV-I 0 W/m² 12,9 °C 14,9 °C 3,2 km/h (1 Bft)
13.08.2017 20:59 14,9 °C 14,9 °C 88 % 1019,0 hPa 0,0 mm 1,4 km/h (1 Bft) O-SO 111 ° 0 min 0,000 mm 0,0 UV-I 0 W/m² 12,9 °C 14,9 °C 3,2 km/h (1 Bft)
13.08.2017 21:00 14,9 °C 14,9 °C 88 % 1019,1 hPa 0,0 mm 0,3 km/h (0 Bft) O-SO 111 ° 0 min 0,000 mm 0,0 UV-I 0 W/m² 12,9 °C 14,9 °C 1,6 km/h (1 Bft)
13.08.2017 21:01 14,9 °C 14,9 °C 88 % 1019,1 hPa 0,0 mm 0,0 km/h (0 Bft) O-SO 111 ° 0 min 0,000 mm 0,0 UV-I 0 W/m² 12,9 °C 14,9 °C 0,0 km/h (0 Bft)
13.08.2017 21:02 14,7 °C 14,9 °C 88 % 1019,1 hPa 0,0 mm 0,0 km/h (0 Bft) O-SO 111 ° 0 min 0,000 mm 0,0 UV-I 0 W/m² 12,7 °C 14,7 °C 0,0 km/h (0 Bft)
13.08.2017 21:03 14,6 °C 14,7 °C 88 % 1019,1 hPa 0,0 mm 0,0 km/h (0 Bft) O-SO 111 ° 0 min 0,000 mm 0,0 UV-I 0 W/m² 12,6 °C 14,6 °C 0,0 km/h (0 Bft)
13.08.2017 21:04 14,7 °C 14,7 °C 89 % 1019,1 hPa 0,0 mm 1,0 km/h (0 Bft) O-SO 111 ° 0 min 0,000 mm 0,0 UV-I 0 W/m² 12,9 °C 14,7 °C 3,2 km/h (1 Bft)
13.08.2017 21:05 14,6 °C 14,7 °C 89 % 1019,2 hPa 0,0 mm 0,6 km/h (0 Bft) O-SO 111 ° 0 min 0,000 mm 0,0 UV-I 0 W/m² 12,8 °C 14,6 °C 3,2 km/h (1 Bft)
13.08.2017 21:06 14,7 °C 14,7 °C 89 % 1019,2 hPa 0,0 mm 2,5 km/h (1 Bft) O-SO 111 ° 0 min 0,000 mm 0,0 UV-I 0 W/m² 12,9 °C 14,7 °C 4,8 km/h (1 Bft)
13.08.2017 21:07 14,8 °C 14,8 °C 89 % 1019,2 hPa 0,0 mm 1,2 km/h (1 Bft) O-SO 111 ° 0 min 0,000 mm 0,0 UV-I 0 W/m² 13,0 °C 14,8 °C 3,2 km/h (1 Bft)
13.08.2017 21:08 14,8 °C 14,8 °C 88 % 1019,2 hPa 0,0 mm 0,2 km/h (0 Bft) O-SO 111 ° 0 min 0,000 mm 0,0 UV-I 0 W/m² 12,8 °C 14,8 °C 1,6 km/h (1 Bft)
13.08.2017 21:09 14,7 °C 14,8 °C 88 % 1019,2 hPa 0,0 mm 0,0 km/h (0 Bft) O-SO 111 ° 0 min 0,000 mm 0,0 UV-I 0 W/m² 12,7 °C 14,7 °C 0,0 km/h (0 Bft)
13.08.2017 21:10 14,7 °C 14,7 °C 89 % 1019,1 hPa 0,0 mm 0,0 km/h (0 Bft) O-SO 111 ° 0 min 0,000 mm 0,0 UV-I 0 W/m² 12,9 °C 14,7 °C 0,0 km/h (0 Bft)
13.08.2017 21:11 14,6 °C 14,7 °C 89 % 1019,2 hPa 0,0 mm 0,0 km/h (0 Bft) O-SO 111 ° 0 min 0,000 mm 0,0 UV-I 0 W/m² 12,8 °C 14,6 °C 0,0 km/h (0 Bft)
13.08.2017 21:12 14,6 °C 14,6 °C 89 % 1019,1 hPa 0,0 mm 0,0 km/h (0 Bft) O-SO 111 ° 0 min 0,000 mm 0,0 UV-I 0 W/m² 12,8 °C 14,6 °C 0,0 km/h (0 Bft)
13.08.2017 21:13 14,4 °C 14,6 °C 89 % 1019,2 hPa 0,0 mm 0,0 km/h (0 Bft) O-SO 111 ° 0 min 0,000 mm 0,0 UV-I 0 W/m² 12,6 °C 14,4 °C 0,0 km/h (0 Bft)
13.08.2017 21:14 14,4 °C 14,4 °C 89 % 1019,2 hPa 0,0 mm 0,0 km/h (0 Bft) O-SO 111 ° 0 min 0,000 mm 0,0 UV-I 0 W/m² 12,6 °C 14,4 °C 0,0 km/h (0 Bft)
13.08.2017 21:15 14,4 °C 14,4 °C 89 % 1019,2 hPa 0,0 mm 0,0 km/h (0 Bft) O-SO 111 ° 0 min 0,000 mm 0,0 UV-I 0 W/m² 12,6 °C 14,4 °C 0,0 km/h (0 Bft)
13.08.2017 21:16 14,3 °C 14,4 °C 90 % 1019,2 hPa 0,0 mm 0,4 km/h (0 Bft) O-SO 111 ° 0 min 0,000 mm 0,0 UV-I 0 W/m² 12,7 °C 14,3 °C 1,6 km/h (1 Bft)
13.08.2017 21:17 14,3 °C 14,3 °C 90 % 1019,2 hPa 0,0 mm 2,1 km/h (1 Bft) O-SO 111 ° 0 min 0,000 mm 0,0 UV-I 0 W/m² 12,7 °C 14,3 °C 3,2 km/h (1 Bft)
13.08.2017 21:18 14,4 °C 14,4 °C 90 % 1019,2 hPa 0,0 mm 3,8 km/h (1 Bft) O-SO 111 ° 0 min 0,000 mm 0,0 UV-I 0 W/m² 12,8 °C 14,4 °C 4,8 km/h (1 Bft)
13.08.2017 21:19 14,4 °C 14,4 °C 90 % 1019,2 hPa 0,0 mm 3,7 km/h (1 Bft) O-SO 111 ° 0 min 0,000 mm 0,0 UV-I 0 W/m² 12,8 °C 14,4 °C 4,8 km/h (1 Bft)
13.08.2017 21:20 14,5 °C 14,5 °C 90 % 1019,2 hPa 0,0 mm 4,5 km/h (1 Bft) SO 129 ° 0 min 0,000 mm 0,0 UV-I 0 W/m² 12,9 °C 14,5 °C 4,8 km/h (1 Bft)
13.08.2017 21:21 14,6 °C 14,6 °C 90 % 1019,3 hPa 0,0 mm 3,7 km/h (1 Bft) SO 130 ° 0 min 0,000 mm 0,0 UV-I 0 W/m² 13,0 °C 14,6 °C 4,8 km/h (1 Bft)
13.08.2017 21:22 14,7 °C 14,7 °C 89 % 1019,3 hPa 0,0 mm 2,6 km/h (1 Bft) SO 130 ° 0 min 0,000 mm 0,0 UV-I 0 W/m² 12,9 °C 14,7 °C 3,2 km/h (1 Bft)
13.08.2017 21:23 14,8 °C 14,8 °C 89 % 1019,2 hPa 0,0 mm 2,8 km/h (1 Bft) SO 130 ° 0 min 0,000 mm 0,0 UV-I 0 W/m² 13,0 °C 14,8 °C 4,8 km/h (1 Bft)
13.08.2017 21:24 14,8 °C 14,8 °C 89 % 1019,4 hPa 0,0 mm 2,1 km/h (1 Bft) SO 130 ° 0 min 0,000 mm 0,0 UV-I 0 W/m² 13,0 °C 14,8 °C 4,8 km/h (1 Bft)
13.08.2017 21:25 14,8 °C 14,8 °C 89 % 1019,3 hPa 0,0 mm 2,1 km/h (1 Bft) SO 129 ° 0 min 0,000 mm 0,0 UV-I 0 W/m² 13,0 °C 14,8 °C 3,2 km/h (1 Bft)
13.08.2017 21:26 14,8 °C 14,9 °C 89 % 1019,3 hPa 0,0 mm 0,4 km/h (0 Bft) SO 129 ° 0 min 0,000 mm 0,0 UV-I 0 W/m² 13,0 °C 14,8 °C 1,6 km/h (1 Bft)
13.08.2017 21:27 14,8 °C 14,8 °C 88 % 1019,4 hPa 0,0 mm 0,0 km/h (0 Bft) SO 130 ° 0 min 0,000 mm 0,0 UV-I 0 W/m² 12,8 °C 14,8 °C 0,0 km/h (0 Bft)
13.08.2017 21:28 14,7 °C 14,8 °C 88 % 1019,4 hPa 0,0 mm 0,5 km/h (0 Bft) SO 129 ° 0 min 0,000 mm 0,0 UV-I 0 W/m² 12,7 °C 14,7 °C 1,6 km/h (1 Bft)
13.08.2017 21:29 14,6 °C 14,7 °C 89 % 1019,4 hPa 0,0 mm 0,7 km/h (0 Bft) SO 129 ° 0 min 0,000 mm 0,0 UV-I 0 W/m² 12,8 °C 14,6 °C 1,6 km/h (1 Bft)
13.08.2017 21:30 14,5 °C 14,6 °C 89 % 1019,4 hPa 0,0 mm 0,0 km/h (0 Bft) SO 129 ° 0 min 0,000 mm 0,0 UV-I 0 W/m² 12,7 °C 14,5 °C 0,0 km/h (0 Bft)
13.08.2017 21:31 14,4 °C 14,5 °C 89 % 1019,4 hPa 0,0 mm 0,0 km/h (0 Bft) SO 129 ° 0 min 0,000 mm 0,0 UV-I 0 W/m² 12,6 °C 14,4 °C 0,0 km/h (0 Bft)
13.08.2017 21:32 14,3 °C 14,4 °C 89 % 1019,4 hPa 0,0 mm 0,1 km/h (0 Bft) SO 129 ° 0 min 0,000 mm 0,0 UV-I 0 W/m² 12,5 °C 14,3 °C 1,6 km/h (1 Bft)
13.08.2017 21:33 14,2 °C 14,3 °C 90 % 1019,4 hPa 0,0 mm 0,0 km/h (0 Bft) SO 129 ° 0 min 0,000 mm 0,0 UV-I 0 W/m² 12,6 °C 14,2 °C 0,0 km/h (0 Bft)
13.08.2017 21:34 14,2 °C 14,2 °C 90 % 1019,4 hPa 0,0 mm 0,0 km/h (0 Bft) SO 129 ° 0 min 0,000 mm 0,0 UV-I 0 W/m² 12,6 °C 14,2 °C 0,0 km/h (0 Bft)
13.08.2017 21:35 14,2 °C 14,2 °C 90 % 1019,4 hPa 0,0 mm 0,0 km/h (0 Bft) SO 129 ° 0 min 0,000 mm 0,0 UV-I 0 W/m² 12,6 °C 14,2 °C 0,0 km/h (0 Bft)
13.08.2017 21:36 14,2 °C 14,2 °C 90 % 1019,3 hPa 0,0 mm 0,0 km/h (0 Bft) SO 129 ° 0 min 0,000 mm 0,0 UV-I 0 W/m² 12,6 °C 14,2 °C 0,0 km/h (0 Bft)
13.08.2017 21:37 14,2 °C 14,2 °C 90 % 1019,3 hPa 0,0 mm 1,1 km/h (1 Bft) SO 129 ° 0 min 0,000 mm 0,0 UV-I 0 W/m² 12,6 °C 14,2 °C 3,2 km/h (1 Bft)
13.08.2017 21:38 14,2 °C 14,2 °C 90 % 1019,4 hPa 0,0 mm 0,4 km/h (0 Bft) SO 129 ° 0 min 0,000 mm 0,0 UV-I 0 W/m² 12,6 °C 14,2 °C 1,6 km/h (1 Bft)
13.08.2017 21:39 14,2 °C 14,3 °C 90 % 1019,3 hPa 0,0 mm 0,0 km/h (0 Bft) SO 130 ° 0 min 0,000 mm 0,0 UV-I 0 W/m² 12,6 °C 14,2 °C 0,0 km/h (0 Bft)
13.08.2017 21:40 14,2 °C 14,3 °C 90 % 1019,4 hPa 0,0 mm 0,0 km/h (0 Bft) SO 129 ° 0 min 0,000 mm 0,0 UV-I 0 W/m² 12,6 °C 14,2 °C 0,0 km/h (0 Bft)
13.08.2017 21:41 14,2 °C 14,2 °C 89 % 1019,5 hPa 0,0 mm 0,0 km/h (0 Bft) SO 130 ° 0 min 0,000 mm 0,0 UV-I 0 W/m² 12,4 °C 14,2 °C 0,0 km/h (0 Bft)
13.08.2017 21:42 14,1 °C 14,2 °C 89 % 1019,5 hPa 0,0 mm 0,0 km/h (0 Bft) SO 130 ° 0 min 0,000 mm 0,0 UV-I 0 W/m² 12,3 °C 14,1 °C 0,0 km/h (0 Bft)
13.08.2017 21:43 13,9 °C 14,1 °C 90 % 1019,4 hPa 0,0 mm 0,0 km/h (0 Bft) SO 129 ° 0 min 0,000 mm 0,0 UV-I 0 W/m² 12,3 °C 13,9 °C 0,0 km/h (0 Bft)
13.08.2017 21:44 13,9 °C 13,9 °C 90 % 1019,5 hPa 0,0 mm 0,0 km/h (0 Bft) SO 129 ° 0 min 0,000 mm 0,0 UV-I 0 W/m² 12,3 °C 13,9 °C 0,0 km/h (0 Bft)
13.08.2017 21:45 13,9 °C 13,9 °C 91 % 1019,4 hPa 0,0 mm 0,0 km/h (0 Bft) SO 129 ° 0 min 0,000 mm 0,0 UV-I 0 W/m² 12,5 °C 13,9 °C 0,0 km/h (0 Bft)
13.08.2017 21:46 13,9 °C 13,9 °C 91 % 1019,4 hPa 0,0 mm 0,0 km/h (0 Bft) SO 129 ° 0 min 0,000 mm 0,0 UV-I 0 W/m² 12,5 °C 13,9 °C 0,0 km/h (0 Bft)
13.08.2017 21:47 13,9 °C 14,0 °C 91 % 1019,4 hPa 0,0 mm 0,0 km/h (0 Bft) SO 129 ° 0 min 0,000 mm 0,0 UV-I 0 W/m² 12,5 °C 13,9 °C 0,0 km/h (0 Bft)
13.08.2017 21:48 13,9 °C 14,0 °C 91 % 1019,4 hPa 0,0 mm 0,0 km/h (0 Bft) SO 129 ° 0 min 0,000 mm 0,0 UV-I 0 W/m² 12,5 °C 13,9 °C 0,0 km/h (0 Bft)
13.08.2017 21:49 14,0 °C 14,0 °C 91 % 1019,4 hPa 0,0 mm 0,3 km/h (0 Bft) SO 129 ° 0 min 0,000 mm 0,0 UV-I 0 W/m² 12,6 °C 14,0 °C 1,6 km/h (1 Bft)
13.08.2017 21:50 14,0 °C 14,0 °C 91 % 1019,4 hPa 0,0 mm 0,0 km/h (0 Bft) SO 129 ° 0 min 0,000 mm 0,0 UV-I 0 W/m² 12,6 °C 14,0 °C 0,0 km/h (0 Bft)
13.08.2017 21:51 13,9 °C 14,0 °C 91 % 1019,4 hPa 0,0 mm 0,0 km/h (0 Bft) SO 129 ° 0 min 0,000 mm 0,0 UV-I 0 W/m² 12,5 °C 13,9 °C 0,0 km/h (0 Bft)
13.08.2017 21:52 13,8 °C 13,9 °C 90 % 1019,4 hPa 0,0 mm 0,0 km/h (0 Bft) SO 129 ° 0 min 0,000 mm 0,0 UV-I 0 W/m² 12,2 °C 13,8 °C 0,0 km/h (0 Bft)
13.08.2017 21:53 13,8 °C 13,8 °C 90 % 1019,4 hPa 0,0 mm 0,0 km/h (0 Bft) SO 129 ° 0 min 0,000 mm 0,0 UV-I 0 W/m² 12,2 °C 13,8 °C 0,0 km/h (0 Bft)
13.08.2017 21:54 13,7 °C 13,8 °C 91 % 1019,4 hPa 0,0 mm 0,0 km/h (0 Bft) SO 129 ° 0 min 0,000 mm 0,0 UV-I 0 W/m² 12,3 °C 13,7 °C 0,0 km/h (0 Bft)
13.08.2017 21:55 13,7 °C 13,7 °C 90 % 1019,4 hPa 0,0 mm 0,8 km/h (0 Bft) SO 129 ° 0 min 0,000 mm 0,0 UV-I 0 W/m² 12,1 °C 13,7 °C 3,2 km/h (1 Bft)
13.08.2017 21:56 13,6 °C 13,7 °C 91 % 1019,4 hPa 0,0 mm 2,6 km/h (1 Bft) SO 129 ° 0 min 0,000 mm 0,0 UV-I 0 W/m² 12,2 °C 13,6 °C 3,2 km/h (1 Bft)
13.08.2017 21:57 13,6 °C 13,6 °C 91 % 1019,4 hPa 0,0 mm 1,1 km/h (1 Bft) SO 130 ° 0 min 0,000 mm 0,0 UV-I 0 W/m² 12,2 °C 13,6 °C 3,2 km/h (1 Bft)
13.08.2017 21:58 13,6 °C 13,6 °C 91 % 1019,4 hPa 0,0 mm 1,7 km/h (1 Bft) SO 129 ° 0 min 0,000 mm 0,0 UV-I 0 W/m² 12,2 °C 13,6 °C 3,2 km/h (1 Bft)
13.08.2017 21:59 13,5 °C 13,6 °C 91 % 1019,4 hPa 0,0 mm 2,2 km/h (1 Bft) SO 130 ° 0 min 0,000 mm 0,0 UV-I 0 W/m² 12,1 °C 13,5 °C 3,2 km/h (1 Bft)
13.08.2017 22:00 13,6 °C 13,6 °C 91 % 1019,4 hPa 0,0 mm 2,3 km/h (1 Bft) SO 130 ° 0 min 0,000 mm 0,0 UV-I 0 W/m² 12,2 °C 13,6 °C 3,2 km/h (1 Bft)
13.08.2017 22:01 13,5 °C 13,6 °C 91 % 1019,4 hPa 0,0 mm 0,8 km/h (0 Bft) SO 129 ° 0 min 0,000 mm 0,0 UV-I 0 W/m² 12,1 °C 13,5 °C 3,2 km/h (1 Bft)
13.08.2017 22:02 13,4 °C 13,5 °C 91 % 1019,4 hPa 0,0 mm 0,0 km/h (0 Bft) SO 130 ° 0 min 0,000 mm 0,0 UV-I 0 W/m² 12,0 °C 13,4 °C 0,0 km/h (0 Bft)
13.08.2017 22:03 13,4 °C 13,4 °C 91 % 1019,4 hPa 0,0 mm 0,8 km/h (0 Bft) SO 130 ° 0 min 0,000 mm 0,0 UV-I 0 W/m² 12,0 °C 13,4 °C 3,2 km/h (1 Bft)
13.08.2017 22:04 13,4 °C 13,4 °C 91 % 1019,4 hPa 0,0 mm 0,2 km/h (0 Bft) SO 130 ° 0 min 0,000 mm 0,0 UV-I 0 W/m² 12,0 °C 13,4 °C 1,6 km/h (1 Bft)
13.08.2017 22:05 13,4 °C 13,4 °C 92 % 1019,4 hPa 0,0 mm 0,4 km/h (0 Bft) SO 130 ° 0 min 0,000 mm 0,0 UV-I 0 W/m² 12,1 °C 13,4 °C 1,6 km/h (1 Bft)
13.08.2017 22:06 13,4 °C 13,4 °C 92 % 1019,4 hPa 0,0 mm 0,0 km/h (0 Bft) SO 130 ° 0 min 0,000 mm 0,0 UV-I 0 W/m² 12,1 °C 13,4 °C 0,0 km/h (0 Bft)
13.08.2017 22:07 13,4 °C 13,4 °C 92 % 1019,4 hPa 0,0 mm 1,3 km/h (1 Bft) SO 129 ° 0 min 0,000 mm 0,0 UV-I 0 W/m² 12,1 °C 13,4 °C 3,2 km/h (1 Bft)
13.08.2017 22:08 13,4 °C 13,4 °C 92 % 1019,3 hPa 0,0 mm 0,1 km/h (0 Bft) SO 130 ° 0 min 0,000 mm 0,0 UV-I 0 W/m² 12,1 °C 13,4 °C 1,6 km/h (1 Bft)
13.08.2017 22:09 13,5 °C 13,5 °C 92 % 1019,4 hPa 0,0 mm 1,9 km/h (1 Bft) SO 130 ° 0 min 0,000 mm 0,0 UV-I 0 W/m² 12,2 °C 13,5 °C 3,2 km/h (1 Bft)
13.08.2017 22:10 13,6 °C 13,6 °C 92 % 1019,3 hPa 0,0 mm 0,3 km/h (0 Bft) SO 129 ° 0 min 0,000 mm 0,0 UV-I 0 W/m² 12,3 °C 13,6 °C 3,2 km/h (1 Bft)
13.08.2017 22:11 13,6 °C 13,6 °C 92 % 1019,4 hPa 0,0 mm 0,8 km/h (0 Bft) SO 130 ° 0 min 0,000 mm 0,0 UV-I 0 W/m² 12,3 °C 13,6 °C 3,2 km/h (1 Bft)
13.08.2017 22:12 13,7 °C 13,7 °C 91 % 1019,4 hPa 0,0 mm 2,2 km/h (1 Bft) SO 129 ° 0 min 0,000 mm 0,0 UV-I 0 W/m² 12,3 °C 13,7 °C 4,8 km/h (1 Bft)
13.08.2017 22:13 13,7 °C 13,7 °C 91 % 1019,4 hPa 0,0 mm 0,0 km/h (0 Bft) SO 130 ° 0 min 0,000 mm 0,0 UV-I 0 W/m² 12,3 °C 13,7 °C 0,0 km/h (0 Bft)
13.08.2017 22:14 13,7 °C 13,7 °C 91 % 1019,3 hPa 0,0 mm 0,4 km/h (0 Bft) SO 130 ° 0 min 0,000 mm 0,0 UV-I 0 W/m² 12,3 °C 13,7 °C 1,6 km/h (1 Bft)
13.08.2017 22:15 13,7 °C 13,7 °C 91 % 1019,4 hPa 0,0 mm 1,7 km/h (1 Bft) SO 130 ° 0 min 0,000 mm 0,0 UV-I 0 W/m² 12,3 °C 13,7 °C 3,2 km/h (1 Bft)
13.08.2017 22:16 13,8 °C 13,8 °C 91 % 1019,4 hPa 0,0 mm 2,1 km/h (1 Bft) SO 130 ° 0 min 0,000 mm 0,0 UV-I 0 W/m² 12,4 °C 13,8 °C 3,2 km/h (1 Bft)
13.08.2017 22:17 13,8 °C 13,8 °C 91 % 1019,4 hPa 0,0 mm 2,7 km/h (1 Bft) SO 130 ° 0 min 0,000 mm 0,0 UV-I 0 W/m² 12,4 °C 13,8 °C 4,8 km/h (1 Bft)
13.08.2017 22:18 13,7 °C 13,8 °C 91 % 1019,4 hPa 0,0 mm 1,5 km/h (1 Bft) SO 129 ° 0 min 0,000 mm 0,0 UV-I 0 W/m² 12,3 °C 13,7 °C 3,2 km/h (1 Bft)
13.08.2017 22:19 13,7 °C 13,7 °C 91 % 1019,4 hPa 0,0 mm 1,4 km/h (1 Bft) SO 130 ° 0 min 0,000 mm 0,0 UV-I 0 W/m² 12,3 °C 13,7 °C 3,2 km/h (1 Bft)
13.08.2017 22:20 13,7 °C 13,7 °C 91 % 1019,4 hPa 0,0 mm 0,0 km/h (0 Bft) SO 130 ° 0 min 0,000 mm 0,0 UV-I 0 W/m² 12,3 °C 13,7 °C 0,0 km/h (0 Bft)
13.08.2017 22:21 13,7 °C 13,7 °C 91 % 1019,5 hPa 0,0 mm 0,4 km/h (0 Bft) SO 130 ° 0 min 0,000 mm 0,0 UV-I 0 W/m² 12,3 °C 13,7 °C 1,6 km/h (1 Bft)
13.08.2017 22:22 13,7 °C 13,7 °C 91 % 1019,5 hPa 0,0 mm 0,0 km/h (0 Bft) SO 129 ° 0 min 0,000 mm 0,0 UV-I 0 W/m² 12,3 °C 13,7 °C 0,0 km/h (0 Bft)
13.08.2017 22:23 13,6 °C 13,7 °C 91 % 1019,5 hPa 0,0 mm 0,0 km/h (0 Bft) SO 130 ° 0 min 0,000 mm 0,0 UV-I 0 W/m² 12,2 °C 13,6 °C 0,0 km/h (0 Bft)
13.08.2017 22:24 13,6 °C 13,7 °C 91 % 1019,5 hPa 0,0 mm 0,0 km/h (0 Bft) SO 129 ° 0 min 0,000 mm 0,0 UV-I 0 W/m² 12,2 °C 13,6 °C 0,0 km/h (0 Bft)
13.08.2017 22:25 13,6 °C 13,6 °C 91 % 1019,5 hPa 0,0 mm 0,0 km/h (0 Bft) SO 130 ° 0 min 0,000 mm 0,0 UV-I 0 W/m² 12,2 °C 13,6 °C 0,0 km/h (0 Bft)
13.08.2017 22:26 13,4 °C 13,6 °C 90 % 1019,5 hPa 0,0 mm 0,0 km/h (0 Bft) SO 129 ° 0 min 0,000 mm 0,0 UV-I 0 W/m² 11,8 °C 13,4 °C 0,0 km/h (0 Bft)
13.08.2017 22:27 13,3 °C 13,4 °C 90 % 1019,5 hPa 0,0 mm 0,0 km/h (0 Bft) SO 129 ° 0 min 0,000 mm 0,0 UV-I 0 W/m² 11,7 °C 13,3 °C 0,0 km/h (0 Bft)
13.08.2017 22:28 13,3 °C 13,4 °C 91 % 1019,5 hPa 0,0 mm 0,0 km/h (0 Bft) SO 130 ° 0 min 0,000 mm 0,0 UV-I 0 W/m² 11,9 °C 13,3 °C 0,0 km/h (0 Bft)
13.08.2017 22:29 13,2 °C 13,3 °C 91 % 1019,5 hPa 0,0 mm 0,0 km/h (0 Bft) SO 129 ° 0 min 0,000 mm 0,0 UV-I 0 W/m² 11,8 °C 13,2 °C 0,0 km/h (0 Bft)
13.08.2017 22:30 13,2 °C 13,2 °C 91 % 1019,5 hPa 0,0 mm 0,0 km/h (0 Bft) SO 130 ° 0 min 0,000 mm 0,0 UV-I 0 W/m² 11,8 °C 13,2 °C 0,0 km/h (0 Bft)
13.08.2017 22:31 13,1 °C 13,2 °C 92 % 1019,5 hPa 0,0 mm 0,0 km/h (0 Bft) SO 130 ° 0 min 0,000 mm 0,0 UV-I 0 W/m² 11,8 °C 13,1 °C 0,0 km/h (0 Bft)
13.08.2017 22:32 13,1 °C 13,1 °C 92 % 1019,5 hPa 0,0 mm 0,0 km/h (0 Bft) SO 129 ° 0 min 0,000 mm 0,0 UV-I 0 W/m² 11,8 °C 13,1 °C 0,0 km/h (0 Bft)
13.08.2017 22:33 13,1 °C 13,1 °C 92 % 1019,5 hPa 0,0 mm 0,0 km/h (0 Bft) SO 130 ° 0 min 0,000 mm 0,0 UV-I 0 W/m² 11,8 °C 13,1 °C 0,0 km/h (0 Bft)
13.08.2017 22:34 13,1 °C 13,1 °C 92 % 1019,5 hPa 0,0 mm 0,0 km/h (0 Bft) SO 130 ° 0 min 0,000 mm 0,0 UV-I 0 W/m² 11,8 °C 13,1 °C 0,0 km/h (0 Bft)
13.08.2017 22:35 13,1 °C 13,1 °C 92 % 1019,5 hPa 0,0 mm 0,4 km/h (0 Bft) S 173 ° 0 min 0,000 mm 0,0 UV-I 0 W/m² 11,8 °C 13,1 °C 3,2 km/h (1 Bft)
13.08.2017 22:36 13,1 °C 13,1 °C 92 % 1019,5 hPa 0,0 mm 0,8 km/h (0 Bft) S 173 ° 0 min 0,000 mm 0,0 UV-I 0 W/m² 11,8 °C 13,1 °C 3,2 km/h (1 Bft)
13.08.2017 22:37 13,2 °C 13,2 °C 92 % 1019,5 hPa 0,0 mm 0,0 km/h (0 Bft) S 173 ° 0 min 0,000 mm 0,0 UV-I 0 W/m² 11,9 °C 13,2 °C 0,0 km/h (0 Bft)
13.08.2017 22:38 13,2 °C 13,3 °C 92 % 1019,5 hPa 0,0 mm 0,0 km/h (0 Bft) S 173 ° 0 min 0,000 mm 0,0 UV-I 0 W/m² 11,9 °C 13,2 °C 0,0 km/h (0 Bft)
13.08.2017 22:39 13,3 °C 13,3 °C 92 % 1019,4 hPa 0,0 mm 0,0 km/h (0 Bft) S 173 ° 0 min 0,000 mm 0,0 UV-I 0 W/m² 12,0 °C 13,3 °C 0,0 km/h (0 Bft)
13.08.2017 22:40 13,3 °C 13,3 °C 92 % 1019,4 hPa 0,0 mm 0,0 km/h (0 Bft) S 173 ° 0 min 0,000 mm 0,0 UV-I 0 W/m² 12,0 °C 13,3 °C 0,0 km/h (0 Bft)
13.08.2017 22:41 13,3 °C 13,3 °C 92 % 1019,5 hPa 0,0 mm 0,0 km/h (0 Bft) S 173 ° 0 min 0,000 mm 0,0 UV-I 0 W/m² 12,0 °C 13,3 °C 0,0 km/h (0 Bft)
13.08.2017 22:42 13,3 °C 13,3 °C 92 % 1019,4 hPa 0,0 mm 0,0 km/h (0 Bft) S 173 ° 0 min 0,000 mm 0,0 UV-I 0 W/m² 12,0 °C 13,3 °C 0,0 km/h (0 Bft)
13.08.2017 22:43 13,3 °C 13,3 °C 91 % 1019,4 hPa 0,0 mm 0,0 km/h (0 Bft) S 173 ° 0 min 0,000 mm 0,0 UV-I 0 W/m² 11,9 °C 13,3 °C 0,0 km/h (0 Bft)
13.08.2017 22:44 13,3 °C 13,3 °C 92 % 1019,4 hPa 0,0 mm 0,0 km/h (0 Bft) S 173 ° 0 min 0,000 mm 0,0 UV-I 0 W/m² 12,0 °C 13,3 °C 0,0 km/h (0 Bft)
13.08.2017 22:45 13,2 °C 13,3 °C 91 % 1019,4 hPa 0,0 mm 0,0 km/h (0 Bft) S 173 ° 0 min 0,000 mm 0,0 UV-I 0 W/m² 11,8 °C 13,2 °C 0,0 km/h (0 Bft)
13.08.2017 22:46 13,2 °C 13,2 °C 92 % 1019,4 hPa 0,0 mm 0,0 km/h (0 Bft) S 173 ° 0 min 0,000 mm 0,0 UV-I 0 W/m² 11,9 °C 13,2 °C 0,0 km/h (0 Bft)
13.08.2017 22:47 13,2 °C 13,2 °C 91 % 1019,4 hPa 0,0 mm 0,0 km/h (0 Bft) S 173 ° 0 min 0,000 mm 0,0 UV-I 0 W/m² 11,8 °C 13,2 °C 0,0 km/h (0 Bft)
13.08.2017 22:48 13,1 °C 13,2 °C 91 % 1019,4 hPa 0,0 mm 0,0 km/h (0 Bft) S 173 ° 0 min 0,000 mm 0,0 UV-I 0 W/m² 11,7 °C 13,1 °C 0,0 km/h (0 Bft)
13.08.2017 22:49 13,1 °C 13,1 °C 92 % 1019,4 hPa 0,0 mm 0,0 km/h (0 Bft) S 173 ° 0 min 0,000 mm 0,0 UV-I 0 W/m² 11,8 °C 13,1 °C 0,0 km/h (0 Bft)
13.08.2017 22:50 13,1 °C 13,1 °C 92 % 1019,4 hPa 0,0 mm 0,0 km/h (0 Bft) S 173 ° 0 min 0,000 mm 0,0 UV-I 0 W/m² 11,8 °C 13,1 °C 0,0 km/h (0 Bft)
13.08.2017 22:51 13,1 °C 13,1 °C 92 % 1019,4 hPa 0,0 mm 0,0 km/h (0 Bft) S 173 ° 0 min 0,000 mm 0,0 UV-I 0 W/m² 11,8 °C 13,1 °C 0,0 km/h (0 Bft)
13.08.2017 22:52 13,1 °C 13,1 °C 92 % 1019,4 hPa 0,0 mm 0,0 km/h (0 Bft) S 173 ° 0 min 0,000 mm 0,0 UV-I 0 W/m² 11,8 °C 13,1 °C 0,0 km/h (0 Bft)
13.08.2017 22:53 13,1 °C 13,1 °C 92 % 1019,4 hPa 0,0 mm 0,0 km/h (0 Bft) S 173 ° 0 min 0,000 mm 0,0 UV-I 0 W/m² 11,8 °C 13,1 °C 0,0 km/h (0 Bft)
13.08.2017 22:54 13,2 °C 13,2 °C 93 % 1019,4 hPa 0,0 mm 0,0 km/h (0 Bft) S 173 ° 0 min 0,000 mm 0,0 UV-I 0 W/m² 12,1 °C 13,2 °C 0,0 km/h (0 Bft)
13.08.2017 22:55 13,2 °C 13,2 °C 92 % 1019,4 hPa 0,0 mm 0,0 km/h (0 Bft) S 173 ° 0 min 0,000 mm 0,0 UV-I 0 W/m² 11,9 °C 13,2 °C 0,0 km/h (0 Bft)
13.08.2017 22:56 13,1 °C 13,2 °C 92 % 1019,4 hPa 0,0 mm 0,0 km/h (0 Bft) S 173 ° 0 min 0,000 mm 0,0 UV-I 0 W/m² 11,8 °C 13,1 °C 0,0 km/h (0 Bft)
13.08.2017 22:57 13,1 °C 13,2 °C 92 % 1019,4 hPa 0,0 mm 0,0 km/h (0 Bft) S 173 ° 0 min 0,000 mm 0,0 UV-I 0 W/m² 11,8 °C 13,1 °C 0,0 km/h (0 Bft)
13.08.2017 22:58 13,1 °C 13,1 °C 92 % 1019,4 hPa 0,0 mm 0,0 km/h (0 Bft) S 173 ° 0 min 0,000 mm 0,0 UV-I 0 W/m² 11,8 °C 13,1 °C 0,0 km/h (0 Bft)
13.08.2017 22:59 13,1 °C 13,1 °C 92 % 1019,4 hPa 0,0 mm 0,4 km/h (0 Bft) S 173 ° 0 min 0,000 mm 0,0 UV-I 0 W/m² 11,8 °C 13,1 °C 1,6 km/h (1 Bft)
13.08.2017 23:00 12,9 °C 13,1 °C 92 % 1019,5 hPa 0,0 mm 0,5 km/h (0 Bft) S 173 ° 0 min 0,000 mm 0,0 UV-I 0 W/m² 11,6 °C 12,9 °C 1,6 km/h (1 Bft)
13.08.2017 23:01 12,9 °C 12,9 °C 92 % 1019,5 hPa 0,0 mm 0,0 km/h (0 Bft) S 173 ° 0 min 0,000 mm 0,0 UV-I 0 W/m² 11,6 °C 12,9 °C 0,0 km/h (0 Bft)
13.08.2017 23:02 12,9 °C 12,9 °C 93 % 1019,5 hPa 0,0 mm 0,0 km/h (0 Bft) S 173 ° 0 min 0,000 mm 0,0 UV-I 0 W/m² 11,8 °C 12,9 °C 0,0 km/h (0 Bft)
13.08.2017 23:03 12,9 °C 12,9 °C 93 % 1019,5 hPa 0,0 mm 0,0 km/h (0 Bft) S 173 ° 0 min 0,000 mm 0,0 UV-I 0 W/m² 11,8 °C 12,9 °C 0,0 km/h (0 Bft)
13.08.2017 23:04 12,9 °C 12,9 °C 93 % 1019,5 hPa 0,0 mm 0,0 km/h (0 Bft) S 173 ° 0 min 0,000 mm 0,0 UV-I 0 W/m² 11,8 °C 12,9 °C 0,0 km/h (0 Bft)
13.08.2017 23:05 12,9 °C 12,9 °C 93 % 1019,5 hPa 0,0 mm 0,0 km/h (0 Bft) S 173 ° 0 min 0,000 mm 0,0 UV-I 0 W/m² 11,8 °C 12,9 °C 0,0 km/h (0 Bft)
13.08.2017 23:06 12,9 °C 12,9 °C 93 % 1019,5 hPa 0,0 mm 0,0 km/h (0 Bft) S 173 ° 0 min 0,000 mm 0,0 UV-I 0 W/m² 11,8 °C 12,9 °C 0,0 km/h (0 Bft)
13.08.2017 23:07 12,9 °C 12,9 °C 93 % 1019,5 hPa 0,0 mm 0,0 km/h (0 Bft) S 173 ° 0 min 0,000 mm 0,0 UV-I 0 W/m² 11,8 °C 12,9 °C 0,0 km/h (0 Bft)
13.08.2017 23:08 12,9 °C 12,9 °C 93 % 1019,5 hPa 0,0 mm 0,0 km/h (0 Bft) S 173 ° 0 min 0,000 mm 0,0 UV-I 0 W/m² 11,8 °C 12,9 °C 0,0 km/h (0 Bft)
13.08.2017 23:09 12,8 °C 12,9 °C 93 % 1019,5 hPa 0,0 mm 0,0 km/h (0 Bft) S 173 ° 0 min 0,000 mm 0,0 UV-I 0 W/m² 11,7 °C 12,8 °C 0,0 km/h (0 Bft)
13.08.2017 23:10 12,9 °C 12,9 °C 93 % 1019,4 hPa 0,0 mm 0,0 km/h (0 Bft) S 173 ° 0 min 0,000 mm 0,0 UV-I 0 W/m² 11,8 °C 12,9 °C 0,0 km/h (0 Bft)
13.08.2017 23:11 12,9 °C 12,9 °C 93 % 1019,4 hPa 0,0 mm 0,0 km/h (0 Bft) S 173 ° 0 min 0,000 mm 0,0 UV-I 0 W/m² 11,8 °C 12,9 °C 0,0 km/h (0 Bft)
13.08.2017 23:12 12,9 °C 12,9 °C 93 % 1019,5 hPa 0,0 mm 0,0 km/h (0 Bft) S 173 ° 0 min 0,000 mm 0,0 UV-I 0 W/m² 11,8 °C 12,9 °C 0,0 km/h (0 Bft)
13.08.2017 23:13 12,9 °C 12,9 °C 93 % 1019,4 hPa 0,0 mm 0,0 km/h (0 Bft) S 173 ° 0 min 0,000 mm 0,0 UV-I 0 W/m² 11,8 °C 12,9 °C 0,0 km/h (0 Bft)
13.08.2017 23:14 12,8 °C 12,9 °C 93 % 1019,4 hPa 0,0 mm 0,0 km/h (0 Bft) S 173 ° 0 min 0,000 mm 0,0 UV-I 0 W/m² 11,7 °C 12,8 °C 0,0 km/h (0 Bft)
13.08.2017 23:15 12,8 °C 12,8 °C 93 % 1019,4 hPa 0,0 mm 0,0 km/h (0 Bft) S 173 ° 0 min 0,000 mm 0,0 UV-I 0 W/m² 11,7 °C 12,8 °C 0,0 km/h (0 Bft)
13.08.2017 23:16 12,8 °C 12,8 °C 93 % 1019,4 hPa 0,0 mm 0,0 km/h (0 Bft) S 173 ° 0 min 0,000 mm 0,0 UV-I 0 W/m² 11,7 °C 12,8 °C 0,0 km/h (0 Bft)
13.08.2017 23:17 12,8 °C 12,8 °C 93 % 1019,4 hPa 0,0 mm 0,0 km/h (0 Bft) S 173 ° 0 min 0,000 mm 0,0 UV-I 0 W/m² 11,7 °C 12,8 °C 0,0 km/h (0 Bft)
13.08.2017 23:18 12,7 °C 12,8 °C 93 % 1019,4 hPa 0,0 mm 0,0 km/h (0 Bft) S 173 ° 0 min 0,000 mm 0,0 UV-I 0 W/m² 11,6 °C 12,7 °C 0,0 km/h (0 Bft)
13.08.2017 23:19 12,8 °C 12,8 °C 93 % 1019,4 hPa 0,0 mm 0,0 km/h (0 Bft) S 173 ° 0 min 0,000 mm 0,0 UV-I 0 W/m² 11,7 °C 12,8 °C 0,0 km/h (0 Bft)
13.08.2017 23:20 12,7 °C 12,8 °C 93 % 1019,4 hPa 0,0 mm 0,0 km/h (0 Bft) S 173 ° 0 min 0,000 mm 0,0 UV-I 0 W/m² 11,6 °C 12,7 °C 0,0 km/h (0 Bft)
13.08.2017 23:21 12,6 °C 12,7 °C 93 % 1019,4 hPa 0,0 mm 0,0 km/h (0 Bft) S 173 ° 0 min 0,000 mm 0,0 UV-I 0 W/m² 11,5 °C 12,6 °C 0,0 km/h (0 Bft)
13.08.2017 23:22 12,6 °C 12,6 °C 93 % 1019,4 hPa 0,0 mm 0,0 km/h (0 Bft) S 173 ° 0 min 0,000 mm 0,0 UV-I 0 W/m² 11,5 °C 12,6 °C 0,0 km/h (0 Bft)
13.08.2017 23:23 12,6 °C 12,6 °C 93 % 1019,4 hPa 0,0 mm 0,0 km/h (0 Bft) S 173 ° 0 min 0,000 mm 0,0 UV-I 0 W/m² 11,5 °C 12,6 °C 0,0 km/h (0 Bft)
13.08.2017 23:24 12,6 °C 12,6 °C 93 % 1019,4 hPa 0,0 mm 0,0 km/h (0 Bft) S 173 ° 0 min 0,000 mm 0,0 UV-I 0 W/m² 11,5 °C 12,6 °C 0,0 km/h (0 Bft)
13.08.2017 23:25 12,6 °C 12,6 °C 93 % 1019,4 hPa 0,0 mm 0,0 km/h (0 Bft) S 173 ° 0 min 0,000 mm 0,0 UV-I 0 W/m² 11,5 °C 12,6 °C 0,0 km/h (0 Bft)
13.08.2017 23:26 12,6 °C 12,6 °C 93 % 1019,4 hPa 0,0 mm 0,0 km/h (0 Bft) S 173 ° 0 min 0,000 mm 0,0 UV-I 0 W/m² 11,5 °C 12,6 °C 0,0 km/h (0 Bft)
13.08.2017 23:27 12,5 °C 12,6 °C 93 % 1019,4 hPa 0,0 mm 0,0 km/h (0 Bft) S 173 ° 0 min 0,000 mm 0,0 UV-I 0 W/m² 11,4 °C 12,5 °C 0,0 km/h (0 Bft)
13.08.2017 23:28 12,4 °C 12,5 °C 93 % 1019,4 hPa 0,0 mm 0,0 km/h (0 Bft) S 173 ° 0 min 0,000 mm 0,0 UV-I 0 W/m² 11,3 °C 12,4 °C 0,0 km/h (0 Bft)
13.08.2017 23:29 12,4 °C 12,5 °C 93 % 1019,5 hPa 0,0 mm 0,0 km/h (0 Bft) S 173 ° 0 min 0,000 mm 0,0 UV-I 0 W/m² 11,3 °C 12,4 °C 0,0 km/h (0 Bft)
13.08.2017 23:30 12,4 °C 12,5 °C 94 % 1019,5 hPa 0,0 mm 0,0 km/h (0 Bft) S 173 ° 0 min 0,000 mm 0,0 UV-I 0 W/m² 11,5 °C 12,4 °C 0,0 km/h (0 Bft)
13.08.2017 23:31 12,4 °C 12,4 °C 94 % 1019,5 hPa 0,0 mm 0,0 km/h (0 Bft) S 173 ° 0 min 0,000 mm 0,0 UV-I 0 W/m² 11,5 °C 12,4 °C 0,0 km/h (0 Bft)
13.08.2017 23:32 12,4 °C 12,5 °C 94 % 1019,4 hPa 0,0 mm 0,0 km/h (0 Bft) S 173 ° 0 min 0,000 mm 0,0 UV-I 0 W/m² 11,5 °C 12,4 °C 0,0 km/h (0 Bft)
13.08.2017 23:33 12,5 °C 12,5 °C 94 % 1019,4 hPa 0,0 mm 0,0 km/h (0 Bft) S 173 ° 0 min 0,000 mm 0,0 UV-I 0 W/m² 11,6 °C 12,5 °C 0,0 km/h (0 Bft)
13.08.2017 23:34 12,5 °C 12,5 °C 94 % 1019,4 hPa 0,0 mm 0,0 km/h (0 Bft) S 173 ° 0 min 0,000 mm 0,0 UV-I 0 W/m² 11,6 °C 12,5 °C 0,0 km/h (0 Bft)
13.08.2017 23:35 12,5 °C 12,5 °C 94 % 1019,4 hPa 0,0 mm 0,0 km/h (0 Bft) S 173 ° 0 min 0,000 mm 0,0 UV-I 0 W/m² 11,6 °C 12,5 °C 0,0 km/h (0 Bft)
13.08.2017 23:36 12,4 °C 12,5 °C 94 % 1019,4 hPa 0,0 mm 0,0 km/h (0 Bft) S 173 ° 0 min 0,000 mm 0,0 UV-I 0 W/m² 11,5 °C 12,4 °C 0,0 km/h (0 Bft)
13.08.2017 23:37 12,4 °C 12,4 °C 94 % 1019,4 hPa 0,0 mm 0,0 km/h (0 Bft) S 173 ° 0 min 0,000 mm 0,0 UV-I 0 W/m² 11,5 °C 12,4 °C 0,0 km/h (0 Bft)
13.08.2017 23:38 12,4 °C 12,5 °C 94 % 1019,4 hPa 0,0 mm 0,0 km/h (0 Bft) S 173 ° 0 min 0,000 mm 0,0 UV-I 0 W/m² 11,5 °C 12,4 °C 0,0 km/h (0 Bft)
13.08.2017 23:39 12,5 °C 12,5 °C 94 % 1019,4 hPa 0,0 mm 0,0 km/h (0 Bft) S 173 ° 0 min 0,000 mm 0,0 UV-I 0 W/m² 11,6 °C 12,5 °C 0,0 km/h (0 Bft)
13.08.2017 23:40 12,5 °C 12,5 °C 94 % 1019,3 hPa 0,0 mm 0,0 km/h (0 Bft) S 173 ° 0 min 0,000 mm 0,0 UV-I 0 W/m² 11,6 °C 12,5 °C 0,0 km/h (0 Bft)
13.08.2017 23:41 12,6 °C 12,6 °C 94 % 1019,3 hPa 0,0 mm 0,0 km/h (0 Bft) S 173 ° 0 min 0,000 mm 0,0 UV-I 0 W/m² 11,7 °C 12,6 °C 0,0 km/h (0 Bft)
13.08.2017 23:42 12,5 °C 12,6 °C 94 % 1019,3 hPa 0,0 mm 0,0 km/h (0 Bft) S 173 ° 0 min 0,000 mm 0,0 UV-I 0 W/m² 11,6 °C 12,5 °C 0,0 km/h (0 Bft)
13.08.2017 23:43 12,5 °C 12,6 °C 94 % 1019,3 hPa 0,0 mm 0,0 km/h (0 Bft) S 173 ° 0 min 0,000 mm 0,0 UV-I 0 W/m² 11,6 °C 12,5 °C 0,0 km/h (0 Bft)
13.08.2017 23:44 12,4 °C 12,5 °C 94 % 1019,3 hPa 0,0 mm 0,0 km/h (0 Bft) S 173 ° 0 min 0,000 mm 0,0 UV-I 0 W/m² 11,5 °C 12,4 °C 0,0 km/h (0 Bft)
13.08.2017 23:45 12,4 °C 12,4 °C 94 % 1019,3 hPa 0,0 mm 0,0 km/h (0 Bft) S 173 ° 0 min 0,000 mm 0,0 UV-I 0 W/m² 11,5 °C 12,4 °C 0,0 km/h (0 Bft)
13.08.2017 23:46 12,4 °C 12,4 °C 94 % 1019,3 hPa 0,0 mm 0,0 km/h (0 Bft) S 173 ° 0 min 0,000 mm 0,0 UV-I 0 W/m² 11,5 °C 12,4 °C 0,0 km/h (0 Bft)
13.08.2017 23:47 12,3 °C 12,4 °C 94 % 1019,3 hPa 0,0 mm 0,0 km/h (0 Bft) S 173 ° 0 min 0,000 mm 0,0 UV-I 0 W/m² 11,4 °C 12,3 °C 0,0 km/h (0 Bft)
13.08.2017 23:48 12,3 °C 12,3 °C 94 % 1019,3 hPa 0,0 mm 0,0 km/h (0 Bft) S 173 ° 0 min 0,000 mm 0,0 UV-I 0 W/m² 11,4 °C 12,3 °C 0,0 km/h (0 Bft)
13.08.2017 23:49 12,2 °C 12,3 °C 94 % 1019,4 hPa 0,0 mm 0,0 km/h (0 Bft) S 173 ° 0 min 0,000 mm 0,0 UV-I 0 W/m² 11,3 °C 12,2 °C 0,0 km/h (0 Bft)
13.08.2017 23:50 12,2 °C 12,2 °C 94 % 1019,3 hPa 0,0 mm 0,0 km/h (0 Bft) S 173 ° 0 min 0,000 mm 0,0 UV-I 0 W/m² 11,3 °C 12,2 °C 0,0 km/h (0 Bft)
13.08.2017 23:51 12,2 °C 12,2 °C 94 % 1019,4 hPa 0,0 mm 0,0 km/h (0 Bft) S 173 ° 0 min 0,000 mm 0,0 UV-I 0 W/m² 11,3 °C 12,2 °C 0,0 km/h (0 Bft)
13.08.2017 23:52 12,2 °C 12,3 °C 94 % 1019,3 hPa 0,0 mm 0,0 km/h (0 Bft) S 173 ° 0 min 0,000 mm 0,0 UV-I 0 W/m² 11,3 °C 12,2 °C 0,0 km/h (0 Bft)
13.08.2017 23:53 12,2 °C 12,2 °C 94 % 1019,3 hPa 0,0 mm 0,0 km/h (0 Bft) S 173 ° 0 min 0,000 mm 0,0 UV-I 0 W/m² 11,3 °C 12,2 °C 0,0 km/h (0 Bft)
13.08.2017 23:54 12,2 °C 12,2 °C 94 % 1019,3 hPa 0,0 mm 0,0 km/h (0 Bft) S 173 ° 0 min 0,000 mm 0,0 UV-I 0 W/m² 11,3 °C 12,2 °C 0,0 km/h (0 Bft)
13.08.2017 23:55 12,2 °C 12,2 °C 94 % 1019,3 hPa 0,0 mm 0,0 km/h (0 Bft) S 173 ° 0 min 0,000 mm 0,0 UV-I 0 W/m² 11,3 °C 12,2 °C 0,0 km/h (0 Bft)
13.08.2017 23:56 12,3 °C 12,3 °C 94 % 1019,4 hPa 0,0 mm 0,0 km/h (0 Bft) S 173 ° 0 min 0,000 mm 0,0 UV-I 0 W/m² 11,4 °C 12,3 °C 0,0 km/h (0 Bft)
13.08.2017 23:57 12,2 °C 12,3 °C 94 % 1019,4 hPa 0,0 mm 0,0 km/h (0 Bft) S 173 ° 0 min 0,000 mm 0,0 UV-I 0 W/m² 11,3 °C 12,2 °C 0,0 km/h (0 Bft)
13.08.2017 23:58 12,3 °C 12,3 °C 94 % 1019,4 hPa 0,0 mm 0,0 km/h (0 Bft) S 173 ° 0 min 0,000 mm 0,0 UV-I 0 W/m² 11,4 °C 12,3 °C 0,0 km/h (0 Bft)
13.08.2017 23:59 12,3 °C 12,3 °C 94 % 1019,3 hPa 0,0 mm 0,0 km/h (0 Bft) S 173 ° 0 min 0,000 mm 0,0 UV-I 0 W/m² 11,4 °C 12,3 °C 0,0 km/h (0 Bft)
_ Min-Zeit 02:19 02:22 16:18 16:08 - 23:59 - - - - - - 02:07 02:19 23:59
Minimum _ 10,0 °C 10,1 °C 57 % 1018,3 hPa - 0,0 km/h (0 Bft) - - - - - - 8,9 °C 10,0 °C 0,0 km/h (0 Bft)
_ Max-Zeit 15:05 15:05 23:59 05:59 23:59 15:01 - - 15:05 15:01 13:26 14:59 18:27 15:05 15:00
Maximum _ 22,3 °C 22,3 °C 94 % 1020,7 hPa 0,0 mm 11,2 km/h
N-NW (2 Bft)
- - 2 min 0,508 mm 6,8 UV-I 918 W/m² 15,6 °C 22,2 °C 17,7 km/h
NW (3 Bft)
Durchschnitt _ 15,4 °C 15,5 °C 81 % 1019,6 hPa #0,0 mm 1,3 km/h (1 Bft) NW - #6:17 h #3,353 mm 3,6 UV-I 234 W/m² 12,0 °C 15,4 °C 2,3 km/h (1 Bft)